<?xml version='1.0' encoding='UTF-8'?><gpx version="1.1" creator="JPX - https://github.com/jenetics/jpx" xmlns="http://www.topografix.com/GPX/1/1"><trk><trkseg><trkpt lat="43.4758828" lon="13.0754619"><ele>123.0</ele><time>2026-05-02T07:48:55.59Z</time></trkpt><trkpt lat="43.4758784" lon="13.0756357"><ele>123.0</ele><time>2026-05-02T07:49:01.101Z</time></trkpt><trkpt lat="43.475752" lon="13.074336"><ele>135.0</ele><time>2026-05-02T07:49:07.222Z</time></trkpt><trkpt lat="43.4756924" lon="13.0735466"><ele>137.0</ele><time>2026-05-02T07:49:13.12Z</time></trkpt><trkpt lat="43.4746206" lon="13.0722331"><ele>140.0</ele><time>2026-05-02T07:49:19.643Z</time></trkpt><trkpt lat="43.4739801" lon="13.0712685"><ele>136.5</ele><time>2026-05-02T07:49:25.355Z</time></trkpt><trkpt lat="43.473685" lon="13.0712886"><ele>133.0</ele><time>2026-05-02T07:49:28.475Z</time></trkpt><trkpt lat="43.4735794" lon="13.071133"><ele>133.0</ele><time>2026-05-02T07:49:29.47Z</time></trkpt><trkpt lat="43.4734764" lon="13.0709779"><ele>133.0</ele><time>2026-05-02T07:49:30.471Z</time></trkpt><trkpt lat="43.4733955" lon="13.0708463"><ele>133.0</ele><time>2026-05-02T07:49:31.472Z</time></trkpt><trkpt lat="43.4733433" lon="13.0707311"><ele>133.0</ele><time>2026-05-02T07:49:32.469Z</time></trkpt><trkpt lat="43.4732522" lon="13.0705943"><ele>134.25</ele><time>2026-05-02T07:49:33.473Z</time></trkpt><trkpt lat="43.4731934" lon="13.0704358"><ele>135.5</ele><time>2026-05-02T07:49:34.475Z</time></trkpt><trkpt lat="43.4731542" lon="13.0702448"><ele>136.75</ele><time>2026-05-02T07:49:35.473Z</time></trkpt><trkpt lat="43.4731176" lon="13.0700549"><ele>138.0</ele><time>2026-05-02T07:49:36.47Z</time></trkpt><trkpt lat="43.4730605" lon="13.0698898"><ele>138.75</ele><time>2026-05-02T07:49:37.47Z</time></trkpt><trkpt lat="43.4729989" lon="13.0697335"><ele>139.5</ele><time>2026-05-02T07:49:38.474Z</time></trkpt><trkpt lat="43.4729303" lon="13.069575"><ele>140.25</ele><time>2026-05-02T07:49:39.476Z</time></trkpt><trkpt lat="43.4728473" lon="13.0694218"><ele>141.0</ele><time>2026-05-02T07:49:40.478Z</time></trkpt><trkpt lat="43.4727507" lon="13.0692744"><ele>139.5</ele><time>2026-05-02T07:49:41.474Z</time></trkpt><trkpt lat="43.4726546" lon="13.069135"><ele>138.0</ele><time>2026-05-02T07:49:42.475Z</time></trkpt><trkpt lat="43.472549" lon="13.0689973"><ele>136.5</ele><time>2026-05-02T07:49:43.469Z</time></trkpt><trkpt lat="43.4724575" lon="13.0688487"><ele>135.0</ele><time>2026-05-02T07:49:44.473Z</time></trkpt><trkpt lat="43.4723594" lon="13.0686883"><ele>135.0</ele><time>2026-05-02T07:49:45.472Z</time></trkpt><trkpt lat="43.4722472" lon="13.0685407"><ele>135.0</ele><time>2026-05-02T07:49:46.466Z</time></trkpt><trkpt lat="43.4721473" lon="13.0683849"><ele>135.0</ele><time>2026-05-02T07:49:47.475Z</time></trkpt><trkpt lat="43.4720546" lon="13.0682379"><ele>135.0</ele><time>2026-05-02T07:49:48.471Z</time></trkpt><trkpt lat="43.471883" lon="13.0679766"><ele>134.33333333333334</ele><time>2026-05-02T07:49:50.278Z</time></trkpt><trkpt lat="43.4717122" lon="13.0677221"><ele>133.66666666666669</ele><time>2026-05-02T07:49:52.079Z</time></trkpt><trkpt lat="43.4716159" lon="13.0675929"><ele>133.0</ele><time>2026-05-02T07:49:52.982Z</time></trkpt><trkpt lat="43.4714289" lon="13.0673459"><ele>133.0</ele><time>2026-05-02T07:49:54.782Z</time></trkpt><trkpt lat="43.4713444" lon="13.0672193"><ele>133.0</ele><time>2026-05-02T07:49:55.671Z</time></trkpt><trkpt lat="43.4712604" lon="13.0671091"><ele>133.0</ele><time>2026-05-02T07:49:56.618Z</time></trkpt><trkpt lat="43.4711817" lon="13.0669995"><ele>133.0</ele><time>2026-05-02T07:49:57.621Z</time></trkpt><trkpt lat="43.4711032" lon="13.0668879"><ele>133.0</ele><time>2026-05-02T07:49:58.621Z</time></trkpt><trkpt lat="43.4710264" lon="13.0667593"><ele>133.0</ele><time>2026-05-02T07:49:59.625Z</time></trkpt><trkpt lat="43.4709378" lon="13.0666271"><ele>133.0</ele><time>2026-05-02T07:50:00.611Z</time></trkpt><trkpt lat="43.4708507" lon="13.0664872"><ele>133.0</ele><time>2026-05-02T07:50:01.614Z</time></trkpt><trkpt lat="43.4707504" lon="13.0663374"><ele>133.0</ele><time>2026-05-02T07:50:02.616Z</time></trkpt><trkpt lat="43.4706456" lon="13.066187"><ele>133.0</ele><time>2026-05-02T07:50:03.616Z</time></trkpt><trkpt lat="43.4705399" lon="13.0660392"><ele>133.0</ele><time>2026-05-02T07:50:04.623Z</time></trkpt><trkpt lat="43.4704311" lon="13.0659036"><ele>133.0</ele><time>2026-05-02T07:50:05.616Z</time></trkpt><trkpt lat="43.470327" lon="13.0657545"><ele>133.0</ele><time>2026-05-02T07:50:06.616Z</time></trkpt><trkpt lat="43.4702343" lon="13.0656108"><ele>133.0</ele><time>2026-05-02T07:50:07.614Z</time></trkpt><trkpt lat="43.4701357" lon="13.0654884"><ele>133.0</ele><time>2026-05-02T07:50:08.624Z</time></trkpt><trkpt lat="43.4700401" lon="13.0653691"><ele>133.0</ele><time>2026-05-02T07:50:09.624Z</time></trkpt><trkpt lat="43.4699533" lon="13.0652344"><ele>133.0</ele><time>2026-05-02T07:50:10.624Z</time></trkpt><trkpt lat="43.4698728" lon="13.0650901"><ele>133.0</ele><time>2026-05-02T07:50:11.627Z</time></trkpt><trkpt lat="43.4697857" lon="13.064948"><ele>133.0</ele><time>2026-05-02T07:50:12.624Z</time></trkpt><trkpt lat="43.4696968" lon="13.0648039"><ele>133.0</ele><time>2026-05-02T07:50:13.623Z</time></trkpt><trkpt lat="43.4695894" lon="13.0646662"><ele>133.66666666666669</ele><time>2026-05-02T07:50:14.625Z</time></trkpt><trkpt lat="43.4694833" lon="13.0645182"><ele>134.33333333333334</ele><time>2026-05-02T07:50:15.622Z</time></trkpt><trkpt lat="43.4693789" lon="13.064375"><ele>135.0</ele><time>2026-05-02T07:50:16.619Z</time></trkpt><trkpt lat="43.4692762" lon="13.0642208"><ele>136.75</ele><time>2026-05-02T07:50:17.619Z</time></trkpt><trkpt lat="43.4691804" lon="13.0640758"><ele>138.5</ele><time>2026-05-02T07:50:18.627Z</time></trkpt><trkpt lat="43.469076" lon="13.0639355"><ele>140.25</ele><time>2026-05-02T07:50:19.627Z</time></trkpt><trkpt lat="43.4689766" lon="13.0637766"><ele>142.0</ele><time>2026-05-02T07:50:20.623Z</time></trkpt><trkpt lat="43.4688777" lon="13.0636337"><ele>141.5</ele><time>2026-05-02T07:50:21.626Z</time></trkpt><trkpt lat="43.4687664" lon="13.0634916"><ele>141.0</ele><time>2026-05-02T07:50:22.632Z</time></trkpt><trkpt lat="43.4686576" lon="13.0633494"><ele>140.5</ele><time>2026-05-02T07:50:23.624Z</time></trkpt><trkpt lat="43.4685547" lon="13.0632271"><ele>140.0</ele><time>2026-05-02T07:50:24.63Z</time></trkpt><trkpt lat="43.4684766" lon="13.0631076"><ele>140.0</ele><time>2026-05-02T07:50:25.624Z</time></trkpt><trkpt lat="43.4683986" lon="13.0629836"><ele>140.0</ele><time>2026-05-02T07:50:26.626Z</time></trkpt><trkpt lat="43.4683073" lon="13.0628777"><ele>140.0</ele><time>2026-05-02T07:50:27.624Z</time></trkpt><trkpt lat="43.468233" lon="13.0627732"><ele>140.0</ele><time>2026-05-02T07:50:28.628Z</time></trkpt><trkpt lat="43.4681725" lon="13.0626568"><ele>140.0</ele><time>2026-05-02T07:50:29.634Z</time></trkpt><trkpt lat="43.468123" lon="13.0625435"><ele>140.0</ele><time>2026-05-02T07:50:30.628Z</time></trkpt><trkpt lat="43.4680719" lon="13.0624525"><ele>140.0</ele><time>2026-05-02T07:50:31.629Z</time></trkpt><trkpt lat="43.4680284" lon="13.06238"><ele>140.0</ele><time>2026-05-02T07:50:32.626Z</time></trkpt><trkpt lat="43.4679823" lon="13.0623111"><ele>140.0</ele><time>2026-05-02T07:50:34.629Z</time></trkpt><trkpt lat="43.4679499" lon="13.0622344"><ele>140.0</ele><time>2026-05-02T07:50:38.634Z</time></trkpt><trkpt lat="43.4679019" lon="13.062154"><ele>140.0</ele><time>2026-05-02T07:50:42.642Z</time></trkpt><trkpt lat="43.4678619" lon="13.0620537"><ele>140.0</ele><time>2026-05-02T07:50:45.639Z</time></trkpt><trkpt lat="43.4679016" lon="13.0619071"><ele>140.8</ele><time>2026-05-02T07:50:47.664Z</time></trkpt><trkpt lat="43.467946" lon="13.0618206"><ele>141.6</ele><time>2026-05-02T07:50:48.638Z</time></trkpt><trkpt lat="43.4679988" lon="13.0617164"><ele>142.4</ele><time>2026-05-02T07:50:49.639Z</time></trkpt><trkpt lat="43.4680533" lon="13.0615969"><ele>143.2</ele><time>2026-05-02T07:50:50.635Z</time></trkpt><trkpt lat="43.4681107" lon="13.061462"><ele>144.0</ele><time>2026-05-02T07:50:51.643Z</time></trkpt><trkpt lat="43.4681719" lon="13.061323"><ele>145.5</ele><time>2026-05-02T07:50:52.646Z</time></trkpt><trkpt lat="43.4682361" lon="13.0611755"><ele>147.0</ele><time>2026-05-02T07:50:53.65Z</time></trkpt><trkpt lat="43.4683054" lon="13.0610234"><ele>148.5</ele><time>2026-05-02T07:50:54.643Z</time></trkpt><trkpt lat="43.4683743" lon="13.0608675"><ele>150.0</ele><time>2026-05-02T07:50:55.646Z</time></trkpt><trkpt lat="43.4684431" lon="13.06072"><ele>151.25</ele><time>2026-05-02T07:50:56.64Z</time></trkpt><trkpt lat="43.4685101" lon="13.0605783"><ele>152.5</ele><time>2026-05-02T07:50:57.647Z</time></trkpt><trkpt lat="43.4685741" lon="13.0604368"><ele>153.75</ele><time>2026-05-02T07:50:58.65Z</time></trkpt><trkpt lat="43.4686237" lon="13.060294"><ele>155.0</ele><time>2026-05-02T07:50:59.645Z</time></trkpt><trkpt lat="43.4686604" lon="13.060143"><ele>155.0</ele><time>2026-05-02T07:51:00.641Z</time></trkpt><trkpt lat="43.4686805" lon="13.0599853"><ele>155.0</ele><time>2026-05-02T07:51:01.645Z</time></trkpt><trkpt lat="43.468688" lon="13.0598218"><ele>155.0</ele><time>2026-05-02T07:51:02.643Z</time></trkpt><trkpt lat="43.4686916" lon="13.0596498"><ele>155.0</ele><time>2026-05-02T07:51:03.643Z</time></trkpt><trkpt lat="43.4686753" lon="13.0594784"><ele>155.25</ele><time>2026-05-02T07:51:04.644Z</time></trkpt><trkpt lat="43.4686501" lon="13.0593058"><ele>155.5</ele><time>2026-05-02T07:51:05.642Z</time></trkpt><trkpt lat="43.4686129" lon="13.0591363"><ele>155.75</ele><time>2026-05-02T07:51:06.645Z</time></trkpt><trkpt lat="43.4685623" lon="13.0589727"><ele>156.0</ele><time>2026-05-02T07:51:07.646Z</time></trkpt><trkpt lat="43.4684973" lon="13.0588149"><ele>157.25</ele><time>2026-05-02T07:51:08.642Z</time></trkpt><trkpt lat="43.4684173" lon="13.05866"><ele>158.5</ele><time>2026-05-02T07:51:09.646Z</time></trkpt><trkpt lat="43.4683298" lon="13.0585173"><ele>159.75</ele><time>2026-05-02T07:51:10.648Z</time></trkpt><trkpt lat="43.4682233" lon="13.0583945"><ele>161.0</ele><time>2026-05-02T07:51:11.645Z</time></trkpt><trkpt lat="43.468117" lon="13.0582733"><ele>163.25</ele><time>2026-05-02T07:51:12.649Z</time></trkpt><trkpt lat="43.4680065" lon="13.0581482"><ele>165.5</ele><time>2026-05-02T07:51:13.645Z</time></trkpt><trkpt lat="43.4679" lon="13.0580276"><ele>167.75</ele><time>2026-05-02T07:51:14.642Z</time></trkpt><trkpt lat="43.4678015" lon="13.0579039"><ele>170.0</ele><time>2026-05-02T07:51:15.645Z</time></trkpt><trkpt lat="43.467697" lon="13.0577748"><ele>170.0</ele><time>2026-05-02T07:51:16.652Z</time></trkpt><trkpt lat="43.4676028" lon="13.057636"><ele>170.0</ele><time>2026-05-02T07:51:17.645Z</time></trkpt><trkpt lat="43.4675094" lon="13.0574902"><ele>170.0</ele><time>2026-05-02T07:51:18.645Z</time></trkpt><trkpt lat="43.4674245" lon="13.0573489"><ele>170.0</ele><time>2026-05-02T07:51:19.644Z</time></trkpt><trkpt lat="43.4673286" lon="13.0572114"><ele>170.75</ele><time>2026-05-02T07:51:20.651Z</time></trkpt><trkpt lat="43.4672286" lon="13.0570825"><ele>171.5</ele><time>2026-05-02T07:51:21.642Z</time></trkpt><trkpt lat="43.4671201" lon="13.0569744"><ele>172.25</ele><time>2026-05-02T07:51:22.646Z</time></trkpt><trkpt lat="43.4670166" lon="13.0568676"><ele>173.0</ele><time>2026-05-02T07:51:23.639Z</time></trkpt><trkpt lat="43.4669183" lon="13.0567588"><ele>173.0</ele><time>2026-05-02T07:51:24.648Z</time></trkpt><trkpt lat="43.4668074" lon="13.0566514"><ele>173.0</ele><time>2026-05-02T07:51:25.641Z</time></trkpt><trkpt lat="43.4666947" lon="13.0565589"><ele>173.0</ele><time>2026-05-02T07:51:26.643Z</time></trkpt><trkpt lat="43.4665902" lon="13.0564609"><ele>173.0</ele><time>2026-05-02T07:51:27.647Z</time></trkpt><trkpt lat="43.4664944" lon="13.0563648"><ele>171.2</ele><time>2026-05-02T07:51:28.639Z</time></trkpt><trkpt lat="43.4664055" lon="13.0562843"><ele>169.4</ele><time>2026-05-02T07:51:29.644Z</time></trkpt><trkpt lat="43.4663294" lon="13.0562134"><ele>167.6</ele><time>2026-05-02T07:51:30.639Z</time></trkpt><trkpt lat="43.4662678" lon="13.0561404"><ele>165.79999999999998</ele><time>2026-05-02T07:51:31.647Z</time></trkpt><trkpt lat="43.4662213" lon="13.0560528"><ele>164.0</ele><time>2026-05-02T07:51:32.64Z</time></trkpt><trkpt lat="43.4661819" lon="13.0559329"><ele>164.0</ele><time>2026-05-02T07:51:33.643Z</time></trkpt><trkpt lat="43.466154" lon="13.0557914"><ele>164.0</ele><time>2026-05-02T07:51:34.643Z</time></trkpt><trkpt lat="43.466137" lon="13.0556371"><ele>164.0</ele><time>2026-05-02T07:51:35.64Z</time></trkpt><trkpt lat="43.4661196" lon="13.0554698"><ele>164.0</ele><time>2026-05-02T07:51:36.644Z</time></trkpt><trkpt lat="43.4660975" lon="13.0552946"><ele>166.0</ele><time>2026-05-02T07:51:37.642Z</time></trkpt><trkpt lat="43.4660826" lon="13.0551294"><ele>168.0</ele><time>2026-05-02T07:51:38.642Z</time></trkpt><trkpt lat="43.4660693" lon="13.054982"><ele>170.0</ele><time>2026-05-02T07:51:39.641Z</time></trkpt><trkpt lat="43.4660528" lon="13.0548571"><ele>172.0</ele><time>2026-05-02T07:51:40.644Z</time></trkpt><trkpt lat="43.4660435" lon="13.0547607"><ele>174.0</ele><time>2026-05-02T07:51:41.64Z</time></trkpt><trkpt lat="43.4660813" lon="13.0546211"><ele>175.66666666666666</ele><time>2026-05-02T07:51:43.646Z</time></trkpt><trkpt lat="43.4661381" lon="13.0545824"><ele>177.33333333333334</ele><time>2026-05-02T07:51:44.647Z</time></trkpt><trkpt lat="43.4662509" lon="13.0546206"><ele>179.0</ele><time>2026-05-02T07:51:46.645Z</time></trkpt><trkpt lat="43.4663022" lon="13.0546989"><ele>180.66666666666669</ele><time>2026-05-02T07:51:47.64Z</time></trkpt><trkpt lat="43.4663426" lon="13.0547989"><ele>182.33333333333334</ele><time>2026-05-02T07:51:48.639Z</time></trkpt><trkpt lat="43.4663758" lon="13.0549198"><ele>184.0</ele><time>2026-05-02T07:51:49.644Z</time></trkpt><trkpt lat="43.4664088" lon="13.0550445"><ele>186.83333333333334</ele><time>2026-05-02T07:51:50.642Z</time></trkpt><trkpt lat="43.4664543" lon="13.0551667"><ele>189.66666666666669</ele><time>2026-05-02T07:51:51.644Z</time></trkpt><trkpt lat="43.4665055" lon="13.0552783"><ele>192.5</ele><time>2026-05-02T07:51:52.649Z</time></trkpt><trkpt lat="43.4665607" lon="13.0553793"><ele>195.33333333333334</ele><time>2026-05-02T07:51:53.642Z</time></trkpt><trkpt lat="43.4666075" lon="13.0554695"><ele>198.16666666666666</ele><time>2026-05-02T07:51:54.645Z</time></trkpt><trkpt lat="43.4666517" lon="13.0555489"><ele>201.0</ele><time>2026-05-02T07:51:55.649Z</time></trkpt><trkpt lat="43.4666982" lon="13.055631"><ele>201.0</ele><time>2026-05-02T07:51:56.646Z</time></trkpt><trkpt lat="43.4667575" lon="13.055719"><ele>201.0</ele><time>2026-05-02T07:51:57.65Z</time></trkpt><trkpt lat="43.4668214" lon="13.0558087"><ele>201.0</ele><time>2026-05-02T07:51:58.651Z</time></trkpt><trkpt lat="43.4668847" lon="13.0559001"><ele>201.0</ele><time>2026-05-02T07:51:59.648Z</time></trkpt><trkpt lat="43.4669621" lon="13.0559907"><ele>201.0</ele><time>2026-05-02T07:52:00.649Z</time></trkpt><trkpt lat="43.4670461" lon="13.0560768"><ele>202.4</ele><time>2026-05-02T07:52:01.649Z</time></trkpt><trkpt lat="43.4671335" lon="13.0561589"><ele>203.8</ele><time>2026-05-02T07:52:02.647Z</time></trkpt><trkpt lat="43.4672183" lon="13.056229"><ele>205.20000000000002</ele><time>2026-05-02T07:52:03.647Z</time></trkpt><trkpt lat="43.4673004" lon="13.0562824"><ele>206.60000000000002</ele><time>2026-05-02T07:52:04.639Z</time></trkpt><trkpt lat="43.4673862" lon="13.0563123"><ele>208.0</ele><time>2026-05-02T07:52:05.636Z</time></trkpt><trkpt lat="43.4674823" lon="13.0563144"><ele>208.0</ele><time>2026-05-02T07:52:06.633Z</time></trkpt><trkpt lat="43.4675838" lon="13.0562913"><ele>208.0</ele><time>2026-05-02T07:52:07.632Z</time></trkpt><trkpt lat="43.4676848" lon="13.0562557"><ele>208.0</ele><time>2026-05-02T07:52:08.637Z</time></trkpt><trkpt lat="43.4677716" lon="13.0562159"><ele>208.0</ele><time>2026-05-02T07:52:09.641Z</time></trkpt><trkpt lat="43.4678502" lon="13.0561693"><ele>208.0</ele><time>2026-05-02T07:52:10.642Z</time></trkpt><trkpt lat="43.4679169" lon="13.0561092"><ele>208.0</ele><time>2026-05-02T07:52:11.637Z</time></trkpt><trkpt lat="43.4679796" lon="13.0560081"><ele>208.0</ele><time>2026-05-02T07:52:12.635Z</time></trkpt><trkpt lat="43.468023" lon="13.0558852"><ele>208.0</ele><time>2026-05-02T07:52:13.64Z</time></trkpt><trkpt lat="43.4680551" lon="13.0557604"><ele>208.0</ele><time>2026-05-02T07:52:14.639Z</time></trkpt><trkpt lat="43.4680845" lon="13.0556529"><ele>208.0</ele><time>2026-05-02T07:52:15.637Z</time></trkpt><trkpt lat="43.4681276" lon="13.0555678"><ele>211.60000000000002</ele><time>2026-05-02T07:52:16.635Z</time></trkpt><trkpt lat="43.4682005" lon="13.0555137"><ele>215.20000000000002</ele><time>2026-05-02T07:52:17.64Z</time></trkpt><trkpt lat="43.468298" lon="13.0554943"><ele>218.8</ele><time>2026-05-02T07:52:18.637Z</time></trkpt><trkpt lat="43.4684175" lon="13.0555048"><ele>222.4</ele><time>2026-05-02T07:52:19.633Z</time></trkpt><trkpt lat="43.4685459" lon="13.0555245"><ele>226.0</ele><time>2026-05-02T07:52:20.636Z</time></trkpt><trkpt lat="43.4686644" lon="13.0555364"><ele>226.0</ele><time>2026-05-02T07:52:21.637Z</time></trkpt><trkpt lat="43.4687684" lon="13.0555412"><ele>226.00000000000003</ele><time>2026-05-02T07:52:22.637Z</time></trkpt><trkpt lat="43.4688698" lon="13.0555283"><ele>226.00000000000003</ele><time>2026-05-02T07:52:23.634Z</time></trkpt><trkpt lat="43.4689691" lon="13.0554894"><ele>226.0</ele><time>2026-05-02T07:52:24.635Z</time></trkpt><trkpt lat="43.4690596" lon="13.0554281"><ele>226.0</ele><time>2026-05-02T07:52:25.634Z</time></trkpt><trkpt lat="43.4691444" lon="13.05534"><ele>224.5</ele><time>2026-05-02T07:52:26.636Z</time></trkpt><trkpt lat="43.4692168" lon="13.0552362"><ele>223.0</ele><time>2026-05-02T07:52:27.63Z</time></trkpt><trkpt lat="43.4692816" lon="13.0551137"><ele>221.5</ele><time>2026-05-02T07:52:28.63Z</time></trkpt><trkpt lat="43.4693233" lon="13.0549598"><ele>220.0</ele><time>2026-05-02T07:52:29.638Z</time></trkpt><trkpt lat="43.4693428" lon="13.0547908"><ele>223.25</ele><time>2026-05-02T07:52:30.633Z</time></trkpt><trkpt lat="43.4693535" lon="13.05463"><ele>226.5</ele><time>2026-05-02T07:52:31.629Z</time></trkpt><trkpt lat="43.4693604" lon="13.0544676"><ele>229.75</ele><time>2026-05-02T07:52:32.634Z</time></trkpt><trkpt lat="43.4693839" lon="13.0543103"><ele>233.0</ele><time>2026-05-02T07:52:33.636Z</time></trkpt><trkpt lat="43.4694217" lon="13.0541685"><ele>231.8</ele><time>2026-05-02T07:52:34.637Z</time></trkpt><trkpt lat="43.4694682" lon="13.0540467"><ele>230.60000000000002</ele><time>2026-05-02T07:52:35.633Z</time></trkpt><trkpt lat="43.4695313" lon="13.0539329"><ele>229.39999999999998</ele><time>2026-05-02T07:52:36.641Z</time></trkpt><trkpt lat="43.4696011" lon="13.0538255"><ele>228.2</ele><time>2026-05-02T07:52:37.63Z</time></trkpt><trkpt lat="43.4696773" lon="13.0537149"><ele>227.0</ele><time>2026-05-02T07:52:38.633Z</time></trkpt><trkpt lat="43.4697563" lon="13.0536129"><ele>227.0</ele><time>2026-05-02T07:52:39.635Z</time></trkpt><trkpt lat="43.4698289" lon="13.0535069"><ele>227.0</ele><time>2026-05-02T07:52:40.633Z</time></trkpt><trkpt lat="43.4698903" lon="13.0534061"><ele>227.0</ele><time>2026-05-02T07:52:41.638Z</time></trkpt><trkpt lat="43.4699451" lon="13.0533146"><ele>227.0</ele><time>2026-05-02T07:52:42.631Z</time></trkpt><trkpt lat="43.4699895" lon="13.0532378"><ele>227.0</ele><time>2026-05-02T07:52:43.636Z</time></trkpt><trkpt lat="43.4700218" lon="13.0530806"><ele>228.83333333333334</ele><time>2026-05-02T07:52:45.637Z</time></trkpt><trkpt lat="43.4699994" lon="13.0529949"><ele>230.66666666666669</ele><time>2026-05-02T07:52:46.643Z</time></trkpt><trkpt lat="43.4699478" lon="13.0529194"><ele>232.5</ele><time>2026-05-02T07:52:47.638Z</time></trkpt><trkpt lat="43.4698827" lon="13.0528859"><ele>234.33333333333331</ele><time>2026-05-02T07:52:48.637Z</time></trkpt><trkpt lat="43.4698053" lon="13.0528984"><ele>236.16666666666666</ele><time>2026-05-02T07:52:49.637Z</time></trkpt><trkpt lat="43.4697282" lon="13.0529654"><ele>238.0</ele><time>2026-05-02T07:52:50.637Z</time></trkpt><trkpt lat="43.4696662" lon="13.0530741"><ele>238.0</ele><time>2026-05-02T07:52:51.641Z</time></trkpt><trkpt lat="43.4696189" lon="13.0532001"><ele>238.0</ele><time>2026-05-02T07:52:52.641Z</time></trkpt><trkpt lat="43.4695642" lon="13.0533279"><ele>238.0</ele><time>2026-05-02T07:52:53.641Z</time></trkpt><trkpt lat="43.4695075" lon="13.0534545"><ele>238.0</ele><time>2026-05-02T07:52:54.638Z</time></trkpt><trkpt lat="43.4694472" lon="13.0535717"><ele>238.0</ele><time>2026-05-02T07:52:55.639Z</time></trkpt><trkpt lat="43.4693859" lon="13.0536634"><ele>238.60000000000002</ele><time>2026-05-02T07:52:56.638Z</time></trkpt><trkpt lat="43.4693129" lon="13.0537249"><ele>239.20000000000002</ele><time>2026-05-02T07:52:57.639Z</time></trkpt><trkpt lat="43.4692104" lon="13.0537674"><ele>239.8</ele><time>2026-05-02T07:52:58.642Z</time></trkpt><trkpt lat="43.469086" lon="13.0537726"><ele>240.4</ele><time>2026-05-02T07:52:59.641Z</time></trkpt><trkpt lat="43.4689597" lon="13.053769"><ele>241.0</ele><time>2026-05-02T07:53:00.64Z</time></trkpt><trkpt lat="43.4688349" lon="13.0537724"><ele>243.5</ele><time>2026-05-02T07:53:01.641Z</time></trkpt><trkpt lat="43.4687083" lon="13.0537851"><ele>246.0</ele><time>2026-05-02T07:53:02.639Z</time></trkpt><trkpt lat="43.468583" lon="13.053801"><ele>248.5</ele><time>2026-05-02T07:53:03.643Z</time></trkpt><trkpt lat="43.4684669" lon="13.0538153"><ele>251.0</ele><time>2026-05-02T07:53:04.663Z</time></trkpt><trkpt lat="43.4683685" lon="13.0538284"><ele>251.0</ele><time>2026-05-02T07:53:05.645Z</time></trkpt><trkpt lat="43.4682757" lon="13.0538318"><ele>251.00000000000003</ele><time>2026-05-02T07:53:06.645Z</time></trkpt><trkpt lat="43.4681772" lon="13.0538457"><ele>251.00000000000003</ele><time>2026-05-02T07:53:07.647Z</time></trkpt><trkpt lat="43.468069" lon="13.0538591"><ele>251.0</ele><time>2026-05-02T07:53:08.643Z</time></trkpt><trkpt lat="43.4679612" lon="13.0538672"><ele>251.0</ele><time>2026-05-02T07:53:09.636Z</time></trkpt><trkpt lat="43.4678655" lon="13.0538795"><ele>251.20000000000002</ele><time>2026-05-02T07:53:10.645Z</time></trkpt><trkpt lat="43.4677787" lon="13.0538853"><ele>251.40000000000003</ele><time>2026-05-02T07:53:11.646Z</time></trkpt><trkpt lat="43.4676929" lon="13.0538723"><ele>251.6</ele><time>2026-05-02T07:53:12.639Z</time></trkpt><trkpt lat="43.4676031" lon="13.0538305"><ele>251.8</ele><time>2026-05-02T07:53:13.647Z</time></trkpt><trkpt lat="43.4675383" lon="13.0537485"><ele>252.0</ele><time>2026-05-02T07:53:14.644Z</time></trkpt><trkpt lat="43.4674985" lon="13.0536258"><ele>252.0</ele><time>2026-05-02T07:53:15.648Z</time></trkpt><trkpt lat="43.4674836" lon="13.0534698"><ele>252.0</ele><time>2026-05-02T07:53:16.649Z</time></trkpt><trkpt lat="43.4674659" lon="13.053316"><ele>252.0</ele><time>2026-05-02T07:53:17.651Z</time></trkpt><trkpt lat="43.467447" lon="13.0531745"><ele>252.0</ele><time>2026-05-02T07:53:18.656Z</time></trkpt><trkpt lat="43.4674235" lon="13.0530481"><ele>252.0</ele><time>2026-05-02T07:53:19.656Z</time></trkpt><trkpt lat="43.4674038" lon="13.0529465"><ele>254.33333333333334</ele><time>2026-05-02T07:53:20.654Z</time></trkpt><trkpt lat="43.4673902" lon="13.0528553"><ele>256.6666666666667</ele><time>2026-05-02T07:53:21.655Z</time></trkpt><trkpt lat="43.4674262" lon="13.0527242"><ele>259.0</ele><time>2026-05-02T07:53:23.662Z</time></trkpt><trkpt lat="43.4675306" lon="13.052722"><ele>261.33333333333337</ele><time>2026-05-02T07:53:25.656Z</time></trkpt><trkpt lat="43.46758" lon="13.0527905"><ele>263.6666666666667</ele><time>2026-05-02T07:53:26.651Z</time></trkpt><trkpt lat="43.4676144" lon="13.0528854"><ele>266.0</ele><time>2026-05-02T07:53:27.65Z</time></trkpt><trkpt lat="43.4676265" lon="13.0529928"><ele>266.0</ele><time>2026-05-02T07:53:28.658Z</time></trkpt><trkpt lat="43.4676465" lon="13.0530959"><ele>266.0</ele><time>2026-05-02T07:53:29.656Z</time></trkpt><trkpt lat="43.4676898" lon="13.0531785"><ele>266.0</ele><time>2026-05-02T07:53:30.66Z</time></trkpt><trkpt lat="43.4677518" lon="13.0532193"><ele>266.0</ele><time>2026-05-02T07:53:31.652Z</time></trkpt><trkpt lat="43.4678149" lon="13.053212"><ele>266.0</ele><time>2026-05-02T07:53:32.661Z</time></trkpt><trkpt lat="43.4678805" lon="13.0531497"><ele>266.0</ele><time>2026-05-02T07:53:33.639Z</time></trkpt><trkpt lat="43.4679361" lon="13.0530667"><ele>266.0</ele><time>2026-05-02T07:53:34.645Z</time></trkpt><trkpt lat="43.4679845" lon="13.0529489"><ele>266.6</ele><time>2026-05-02T07:53:35.642Z</time></trkpt><trkpt lat="43.468009" lon="13.0528109"><ele>267.20000000000005</ele><time>2026-05-02T07:53:36.649Z</time></trkpt><trkpt lat="43.4680114" lon="13.0526704"><ele>267.79999999999995</ele><time>2026-05-02T07:53:37.65Z</time></trkpt><trkpt lat="43.4679876" lon="13.0525366"><ele>268.4</ele><time>2026-05-02T07:53:38.651Z</time></trkpt><trkpt lat="43.467962" lon="13.052396"><ele>269.0</ele><time>2026-05-02T07:53:39.645Z</time></trkpt><trkpt lat="43.4679465" lon="13.0522567"><ele>269.0</ele><time>2026-05-02T07:53:40.653Z</time></trkpt><trkpt lat="43.4679567" lon="13.0521269"><ele>269.0</ele><time>2026-05-02T07:53:41.648Z</time></trkpt><trkpt lat="43.4679895" lon="13.05199"><ele>269.0</ele><time>2026-05-02T07:53:42.642Z</time></trkpt><trkpt lat="43.4680476" lon="13.0518262"><ele>269.0</ele><time>2026-05-02T07:53:43.646Z</time></trkpt><trkpt lat="43.4681253" lon="13.0516288"><ele>273.0</ele><time>2026-05-02T07:53:44.65Z</time></trkpt><trkpt lat="43.4682116" lon="13.0514221"><ele>277.0</ele><time>2026-05-02T07:53:45.652Z</time></trkpt><trkpt lat="43.4683072" lon="13.051207"><ele>281.0</ele><time>2026-05-02T07:53:46.646Z</time></trkpt><trkpt lat="43.4684128" lon="13.0509993"><ele>281.0</ele><time>2026-05-02T07:53:47.653Z</time></trkpt><trkpt lat="43.4685052" lon="13.0507984"><ele>281.0</ele><time>2026-05-02T07:53:48.653Z</time></trkpt><trkpt lat="43.4685835" lon="13.0505964"><ele>281.0</ele><time>2026-05-02T07:53:49.649Z</time></trkpt><trkpt lat="43.4686574" lon="13.0504044"><ele>282.0</ele><time>2026-05-02T07:53:50.647Z</time></trkpt><trkpt lat="43.4687245" lon="13.0502237"><ele>283.0</ele><time>2026-05-02T07:53:51.654Z</time></trkpt><trkpt lat="43.4687922" lon="13.0500686"><ele>284.0</ele><time>2026-05-02T07:53:52.651Z</time></trkpt><trkpt lat="43.4688726" lon="13.0499263"><ele>285.0</ele><time>2026-05-02T07:53:53.645Z</time></trkpt><trkpt lat="43.4689675" lon="13.0497968"><ele>285.0</ele><time>2026-05-02T07:53:54.643Z</time></trkpt><trkpt lat="43.4690536" lon="13.0496832"><ele>285.0</ele><time>2026-05-02T07:53:55.648Z</time></trkpt><trkpt lat="43.4691209" lon="13.0495607"><ele>285.0</ele><time>2026-05-02T07:53:56.639Z</time></trkpt><trkpt lat="43.4691781" lon="13.049404"><ele>285.0</ele><time>2026-05-02T07:53:57.646Z</time></trkpt><trkpt lat="43.4692195" lon="13.0492305"><ele>287.0</ele><time>2026-05-02T07:53:58.646Z</time></trkpt><trkpt lat="43.4692522" lon="13.0490438"><ele>289.0</ele><time>2026-05-02T07:53:59.648Z</time></trkpt><trkpt lat="43.4692908" lon="13.0488676"><ele>291.0</ele><time>2026-05-02T07:54:00.648Z</time></trkpt><trkpt lat="43.4693385" lon="13.0486914"><ele>293.0</ele><time>2026-05-02T07:54:01.639Z</time></trkpt><trkpt lat="43.4693856" lon="13.0484927"><ele>293.0</ele><time>2026-05-02T07:54:02.649Z</time></trkpt><trkpt lat="43.4694138" lon="13.048297"><ele>293.0</ele><time>2026-05-02T07:54:03.654Z</time></trkpt><trkpt lat="43.4694365" lon="13.0480988"><ele>293.0</ele><time>2026-05-02T07:54:04.653Z</time></trkpt><trkpt lat="43.4694488" lon="13.0479006"><ele>293.0</ele><time>2026-05-02T07:54:05.658Z</time></trkpt><trkpt lat="43.4694466" lon="13.0477255"><ele>294.0</ele><time>2026-05-02T07:54:06.66Z</time></trkpt><trkpt lat="43.4694203" lon="13.0475553"><ele>295.0</ele><time>2026-05-02T07:54:07.654Z</time></trkpt><trkpt lat="43.4693529" lon="13.047406"><ele>296.0</ele><time>2026-05-02T07:54:08.656Z</time></trkpt><trkpt lat="43.4692748" lon="13.0472637"><ele>297.0</ele><time>2026-05-02T07:54:09.659Z</time></trkpt><trkpt lat="43.4691712" lon="13.0471177"><ele>297.5</ele><time>2026-05-02T07:54:10.658Z</time></trkpt><trkpt lat="43.4690793" lon="13.0469786"><ele>298.0</ele><time>2026-05-02T07:54:11.656Z</time></trkpt><trkpt lat="43.4689853" lon="13.046849"><ele>298.5</ele><time>2026-05-02T07:54:12.661Z</time></trkpt><trkpt lat="43.4689016" lon="13.0467094"><ele>299.0</ele><time>2026-05-02T07:54:13.657Z</time></trkpt><trkpt lat="43.4688397" lon="13.046571"><ele>299.5</ele><time>2026-05-02T07:54:14.661Z</time></trkpt><trkpt lat="43.4688069" lon="13.0464156"><ele>300.0</ele><time>2026-05-02T07:54:15.661Z</time></trkpt><trkpt lat="43.4688031" lon="13.0462515"><ele>300.5</ele><time>2026-05-02T07:54:16.651Z</time></trkpt><trkpt lat="43.4688185" lon="13.0460876"><ele>301.0</ele><time>2026-05-02T07:54:17.657Z</time></trkpt><trkpt lat="43.4688488" lon="13.0459299"><ele>302.25</ele><time>2026-05-02T07:54:18.654Z</time></trkpt><trkpt lat="43.4689048" lon="13.0457917"><ele>303.5</ele><time>2026-05-02T07:54:19.657Z</time></trkpt><trkpt lat="43.4689838" lon="13.0456664"><ele>304.75</ele><time>2026-05-02T07:54:20.667Z</time></trkpt><trkpt lat="43.4690887" lon="13.0455715"><ele>306.0</ele><time>2026-05-02T07:54:21.664Z</time></trkpt><trkpt lat="43.4692091" lon="13.0455021"><ele>306.0</ele><time>2026-05-02T07:54:22.661Z</time></trkpt><trkpt lat="43.4693453" lon="13.0454386"><ele>306.0</ele><time>2026-05-02T07:54:23.667Z</time></trkpt><trkpt lat="43.4694897" lon="13.045376"><ele>306.0</ele><time>2026-05-02T07:54:24.664Z</time></trkpt><trkpt lat="43.4696436" lon="13.04529"><ele>304.6666666666667</ele><time>2026-05-02T07:54:25.663Z</time></trkpt><trkpt lat="43.4697879" lon="13.0451927"><ele>303.33333333333337</ele><time>2026-05-02T07:54:26.669Z</time></trkpt><trkpt lat="43.4699337" lon="13.0450959"><ele>302.0</ele><time>2026-05-02T07:54:27.658Z</time></trkpt><trkpt lat="43.4700762" lon="13.0449968"><ele>302.5</ele><time>2026-05-02T07:54:28.668Z</time></trkpt><trkpt lat="43.4702047" lon="13.0449059"><ele>303.0</ele><time>2026-05-02T07:54:29.662Z</time></trkpt><trkpt lat="43.4703168" lon="13.044821"><ele>303.5</ele><time>2026-05-02T07:54:30.661Z</time></trkpt><trkpt lat="43.4704084" lon="13.0447433"><ele>304.0</ele><time>2026-05-02T07:54:31.661Z</time></trkpt><trkpt lat="43.4704729" lon="13.0446358"><ele>304.0</ele><time>2026-05-02T07:54:32.664Z</time></trkpt><trkpt lat="43.4705165" lon="13.0444935"><ele>304.0</ele><time>2026-05-02T07:54:33.65Z</time></trkpt><trkpt lat="43.4705488" lon="13.0443278"><ele>304.0</ele><time>2026-05-02T07:54:34.657Z</time></trkpt><trkpt lat="43.4705526" lon="13.0441476"><ele>304.0</ele><time>2026-05-02T07:54:35.658Z</time></trkpt><trkpt lat="43.4705477" lon="13.0439501"><ele>304.3333333333333</ele><time>2026-05-02T07:54:36.664Z</time></trkpt><trkpt lat="43.4705462" lon="13.0437436"><ele>304.6666666666667</ele><time>2026-05-02T07:54:37.667Z</time></trkpt><trkpt lat="43.4705469" lon="13.0435312"><ele>305.0</ele><time>2026-05-02T07:54:38.666Z</time></trkpt><trkpt lat="43.4705449" lon="13.0433081"><ele>306.33333333333337</ele><time>2026-05-02T07:54:39.666Z</time></trkpt><trkpt lat="43.4705482" lon="13.0430829"><ele>307.6666666666667</ele><time>2026-05-02T07:54:40.665Z</time></trkpt><trkpt lat="43.4705545" lon="13.0428561"><ele>309.0</ele><time>2026-05-02T07:54:41.666Z</time></trkpt><trkpt lat="43.4705628" lon="13.0426285"><ele>311.0</ele><time>2026-05-02T07:54:42.665Z</time></trkpt><trkpt lat="43.470568" lon="13.0424024"><ele>313.0</ele><time>2026-05-02T07:54:43.668Z</time></trkpt><trkpt lat="43.4705653" lon="13.0422041"><ele>315.0</ele><time>2026-05-02T07:54:44.672Z</time></trkpt><trkpt lat="43.4705751" lon="13.0420296"><ele>317.0</ele><time>2026-05-02T07:54:45.667Z</time></trkpt><trkpt lat="43.4706007" lon="13.0418693"><ele>317.0</ele><time>2026-05-02T07:54:46.673Z</time></trkpt><trkpt lat="43.4706566" lon="13.0417286"><ele>317.0</ele><time>2026-05-02T07:54:47.676Z</time></trkpt><trkpt lat="43.4707292" lon="13.041598"><ele>317.0</ele><time>2026-05-02T07:54:48.688Z</time></trkpt><trkpt lat="43.470837" lon="13.0414759"><ele>317.0</ele><time>2026-05-02T07:54:49.674Z</time></trkpt><trkpt lat="43.4709438" lon="13.0413542"><ele>318.25</ele><time>2026-05-02T07:54:50.68Z</time></trkpt><trkpt lat="43.4710465" lon="13.0412344"><ele>319.5</ele><time>2026-05-02T07:54:51.683Z</time></trkpt><trkpt lat="43.4711431" lon="13.0411132"><ele>320.75</ele><time>2026-05-02T07:54:52.685Z</time></trkpt><trkpt lat="43.4712201" lon="13.0409756"><ele>322.0</ele><time>2026-05-02T07:54:53.682Z</time></trkpt><trkpt lat="43.4712855" lon="13.0408211"><ele>324.5</ele><time>2026-05-02T07:54:54.679Z</time></trkpt><trkpt lat="43.4713359" lon="13.0406435"><ele>327.0</ele><time>2026-05-02T07:54:55.68Z</time></trkpt><trkpt lat="43.4713692" lon="13.0404526"><ele>329.5</ele><time>2026-05-02T07:54:56.688Z</time></trkpt><trkpt lat="43.4713931" lon="13.0402554"><ele>332.0</ele><time>2026-05-02T07:54:57.692Z</time></trkpt><trkpt lat="43.4714271" lon="13.0400592"><ele>333.0</ele><time>2026-05-02T07:54:58.692Z</time></trkpt><trkpt lat="43.4714621" lon="13.039873"><ele>334.0</ele><time>2026-05-02T07:54:59.688Z</time></trkpt><trkpt lat="43.4714986" lon="13.0396949"><ele>335.0</ele><time>2026-05-02T07:55:00.681Z</time></trkpt><trkpt lat="43.4715292" lon="13.0395314"><ele>336.0</ele><time>2026-05-02T07:55:01.684Z</time></trkpt><trkpt lat="43.4715402" lon="13.0393826"><ele>336.0</ele><time>2026-05-02T07:55:02.674Z</time></trkpt><trkpt lat="43.471523" lon="13.0392443"><ele>336.0</ele><time>2026-05-02T07:55:03.675Z</time></trkpt><trkpt lat="43.4714748" lon="13.0391233"><ele>336.0</ele><time>2026-05-02T07:55:04.673Z</time></trkpt><trkpt lat="43.4714039" lon="13.0390255"><ele>336.0</ele><time>2026-05-02T07:55:05.676Z</time></trkpt><trkpt lat="43.4713007" lon="13.0389664"><ele>336.0</ele><time>2026-05-02T07:55:06.681Z</time></trkpt><trkpt lat="43.4711806" lon="13.0389436"><ele>339.75</ele><time>2026-05-02T07:55:07.665Z</time></trkpt><trkpt lat="43.4710529" lon="13.0389553"><ele>343.5</ele><time>2026-05-02T07:55:08.676Z</time></trkpt><trkpt lat="43.4709262" lon="13.0389808"><ele>347.25</ele><time>2026-05-02T07:55:09.68Z</time></trkpt><trkpt lat="43.4707869" lon="13.0389997"><ele>351.0</ele><time>2026-05-02T07:55:10.678Z</time></trkpt><trkpt lat="43.4706495" lon="13.0389988"><ele>351.0</ele><time>2026-05-02T07:55:11.673Z</time></trkpt><trkpt lat="43.4705287" lon="13.038993"><ele>351.0</ele><time>2026-05-02T07:55:12.675Z</time></trkpt><trkpt lat="43.4704342" lon="13.0389774"><ele>351.0</ele><time>2026-05-02T07:55:13.664Z</time></trkpt><trkpt lat="43.4703664" lon="13.0389419"><ele>351.0</ele><time>2026-05-02T07:55:14.668Z</time></trkpt><trkpt lat="43.4703165" lon="13.0388884"><ele>351.0</ele><time>2026-05-02T07:55:15.663Z</time></trkpt><trkpt lat="43.4702889" lon="13.0388093"><ele>351.0</ele><time>2026-05-02T07:55:16.667Z</time></trkpt><trkpt lat="43.4702922" lon="13.0387129"><ele>351.0</ele><time>2026-05-02T07:55:17.672Z</time></trkpt><trkpt lat="43.4703321" lon="13.0386169"><ele>351.0</ele><time>2026-05-02T07:55:18.672Z</time></trkpt><trkpt lat="43.4703952" lon="13.0385331"><ele>351.0</ele><time>2026-05-02T07:55:19.676Z</time></trkpt><trkpt lat="43.4704763" lon="13.038469"><ele>351.0</ele><time>2026-05-02T07:55:20.671Z</time></trkpt><trkpt lat="43.4705726" lon="13.0384192"><ele>351.0</ele><time>2026-05-02T07:55:21.677Z</time></trkpt><trkpt lat="43.4706736" lon="13.038376"><ele>351.0</ele><time>2026-05-02T07:55:22.674Z</time></trkpt><trkpt lat="43.4707774" lon="13.0383462"><ele>351.0</ele><time>2026-05-02T07:55:23.672Z</time></trkpt><trkpt lat="43.4708814" lon="13.0383354"><ele>351.0</ele><time>2026-05-02T07:55:24.67Z</time></trkpt><trkpt lat="43.4709893" lon="13.038343"><ele>351.0</ele><time>2026-05-02T07:55:25.664Z</time></trkpt><trkpt lat="43.4710977" lon="13.0383445"><ele>351.0</ele><time>2026-05-02T07:55:26.675Z</time></trkpt><trkpt lat="43.4712072" lon="13.0383352"><ele>352.0</ele><time>2026-05-02T07:55:27.673Z</time></trkpt><trkpt lat="43.471323" lon="13.0383142"><ele>353.0</ele><time>2026-05-02T07:55:28.678Z</time></trkpt><trkpt lat="43.4714295" lon="13.038288"><ele>354.0</ele><time>2026-05-02T07:55:29.68Z</time></trkpt><trkpt lat="43.4715288" lon="13.038259"><ele>355.0</ele><time>2026-05-02T07:55:30.68Z</time></trkpt><trkpt lat="43.471615" lon="13.038236"><ele>356.0</ele><time>2026-05-02T07:55:31.676Z</time></trkpt><trkpt lat="43.4716782" lon="13.0382038"><ele>357.6666666666667</ele><time>2026-05-02T07:55:32.679Z</time></trkpt><trkpt lat="43.4717062" lon="13.038063"><ele>359.33333333333337</ele><time>2026-05-02T07:55:34.661Z</time></trkpt><trkpt lat="43.4716894" lon="13.0379723"><ele>361.0</ele><time>2026-05-02T07:55:35.664Z</time></trkpt><trkpt lat="43.4716652" lon="13.0378683"><ele>362.6666666666667</ele><time>2026-05-02T07:55:36.674Z</time></trkpt><trkpt lat="43.4716413" lon="13.0377502"><ele>364.3333333333333</ele><time>2026-05-02T07:55:37.668Z</time></trkpt><trkpt lat="43.4716233" lon="13.0376343"><ele>366.0</ele><time>2026-05-02T07:55:38.661Z</time></trkpt><trkpt lat="43.4716305" lon="13.0375197"><ele>363.6</ele><time>2026-05-02T07:55:39.661Z</time></trkpt><trkpt lat="43.4716587" lon="13.0374093"><ele>361.20000000000005</ele><time>2026-05-02T07:55:40.66Z</time></trkpt><trkpt lat="43.4717179" lon="13.0373121"><ele>358.79999999999995</ele><time>2026-05-02T07:55:41.669Z</time></trkpt><trkpt lat="43.4718012" lon="13.0372308"><ele>356.4</ele><time>2026-05-02T07:55:42.67Z</time></trkpt><trkpt lat="43.4718891" lon="13.0371528"><ele>354.0</ele><time>2026-05-02T07:55:43.673Z</time></trkpt><trkpt lat="43.4719757" lon="13.0370707"><ele>354.0</ele><time>2026-05-02T07:55:44.666Z</time></trkpt><trkpt lat="43.4720636" lon="13.0369781"><ele>354.0</ele><time>2026-05-02T07:55:45.67Z</time></trkpt><trkpt lat="43.4721591" lon="13.0368842"><ele>354.0</ele><time>2026-05-02T07:55:46.671Z</time></trkpt><trkpt lat="43.4722569" lon="13.0367962"><ele>354.0</ele><time>2026-05-02T07:55:47.666Z</time></trkpt><trkpt lat="43.4723654" lon="13.0366984"><ele>355.75</ele><time>2026-05-02T07:55:48.669Z</time></trkpt><trkpt lat="43.4724662" lon="13.0365903"><ele>357.5</ele><time>2026-05-02T07:55:49.664Z</time></trkpt><trkpt lat="43.4725554" lon="13.0364781"><ele>359.25</ele><time>2026-05-02T07:55:50.669Z</time></trkpt><trkpt lat="43.4726468" lon="13.0363676"><ele>361.0</ele><time>2026-05-02T07:55:51.662Z</time></trkpt><trkpt lat="43.4727384" lon="13.0362595"><ele>361.0</ele><time>2026-05-02T07:55:52.666Z</time></trkpt><trkpt lat="43.4728341" lon="13.0361485"><ele>361.0</ele><time>2026-05-02T07:55:53.669Z</time></trkpt><trkpt lat="43.4729237" lon="13.0360171"><ele>361.0</ele><time>2026-05-02T07:55:54.665Z</time></trkpt><trkpt lat="43.4730017" lon="13.0358664"><ele>361.0</ele><time>2026-05-02T07:55:55.664Z</time></trkpt><trkpt lat="43.4730667" lon="13.0356987"><ele>362.0</ele><time>2026-05-02T07:55:56.667Z</time></trkpt><trkpt lat="43.4731189" lon="13.0355288"><ele>363.0</ele><time>2026-05-02T07:55:57.669Z</time></trkpt><trkpt lat="43.4731716" lon="13.0353519"><ele>364.0</ele><time>2026-05-02T07:55:58.672Z</time></trkpt><trkpt lat="43.4732303" lon="13.0351849"><ele>365.0</ele><time>2026-05-02T07:55:59.669Z</time></trkpt><trkpt lat="43.473292" lon="13.0350254"><ele>365.75</ele><time>2026-05-02T07:56:00.671Z</time></trkpt><trkpt lat="43.4733729" lon="13.0348631"><ele>366.5</ele><time>2026-05-02T07:56:01.666Z</time></trkpt><trkpt lat="43.4734553" lon="13.0347058"><ele>367.25</ele><time>2026-05-02T07:56:02.667Z</time></trkpt><trkpt lat="43.4735435" lon="13.0345513"><ele>368.0</ele><time>2026-05-02T07:56:03.663Z</time></trkpt><trkpt lat="43.4736166" lon="13.0343943"><ele>368.0</ele><time>2026-05-02T07:56:04.672Z</time></trkpt><trkpt lat="43.4736838" lon="13.0342123"><ele>368.0</ele><time>2026-05-02T07:56:05.655Z</time></trkpt><trkpt lat="43.4737456" lon="13.0340452"><ele>368.0</ele><time>2026-05-02T07:56:06.664Z</time></trkpt><trkpt lat="43.4737756" lon="13.0339071"><ele>368.0</ele><time>2026-05-02T07:56:07.657Z</time></trkpt><trkpt lat="43.4738003" lon="13.0337748"><ele>370.0</ele><time>2026-05-02T07:56:08.659Z</time></trkpt><trkpt lat="43.4738363" lon="13.0336478"><ele>372.0</ele><time>2026-05-02T07:56:09.656Z</time></trkpt><trkpt lat="43.4738823" lon="13.0335355"><ele>374.0</ele><time>2026-05-02T07:56:10.661Z</time></trkpt><trkpt lat="43.4739494" lon="13.0334169"><ele>376.0</ele><time>2026-05-02T07:56:11.657Z</time></trkpt><trkpt lat="43.4740319" lon="13.0333164"><ele>378.0</ele><time>2026-05-02T07:56:12.664Z</time></trkpt><trkpt lat="43.4741205" lon="13.033206"><ele>378.0</ele><time>2026-05-02T07:56:13.664Z</time></trkpt><trkpt lat="43.4742026" lon="13.0330926"><ele>378.0</ele><time>2026-05-02T07:56:14.666Z</time></trkpt><trkpt lat="43.4742869" lon="13.0329822"><ele>378.0</ele><time>2026-05-02T07:56:15.667Z</time></trkpt><trkpt lat="43.4743693" lon="13.0328776"><ele>378.0</ele><time>2026-05-02T07:56:16.663Z</time></trkpt><trkpt lat="43.4744406" lon="13.0327708"><ele>378.0</ele><time>2026-05-02T07:56:17.657Z</time></trkpt><trkpt lat="43.4744943" lon="13.0326605"><ele>378.0</ele><time>2026-05-02T07:56:18.657Z</time></trkpt><trkpt lat="43.4745287" lon="13.0325286"><ele>378.0</ele><time>2026-05-02T07:56:19.67Z</time></trkpt><trkpt lat="43.4745527" lon="13.0323911"><ele>378.0</ele><time>2026-05-02T07:56:20.668Z</time></trkpt><trkpt lat="43.4745661" lon="13.0322338"><ele>378.0</ele><time>2026-05-02T07:56:21.674Z</time></trkpt><trkpt lat="43.4745707" lon="13.032058"><ele>378.5</ele><time>2026-05-02T07:56:22.682Z</time></trkpt><trkpt lat="43.4745764" lon="13.0318785"><ele>379.0</ele><time>2026-05-02T07:56:23.674Z</time></trkpt><trkpt lat="43.4745788" lon="13.0316952"><ele>379.5</ele><time>2026-05-02T07:56:24.68Z</time></trkpt><trkpt lat="43.4745708" lon="13.031517"><ele>380.0</ele><time>2026-05-02T07:56:25.669Z</time></trkpt><trkpt lat="43.474553" lon="13.0313464"><ele>380.6</ele><time>2026-05-02T07:56:26.677Z</time></trkpt><trkpt lat="43.4745295" lon="13.0311923"><ele>381.2</ele><time>2026-05-02T07:56:27.667Z</time></trkpt><trkpt lat="43.4745104" lon="13.0310591"><ele>381.79999999999995</ele><time>2026-05-02T07:56:28.67Z</time></trkpt><trkpt lat="43.4745061" lon="13.0309238"><ele>382.4</ele><time>2026-05-02T07:56:29.674Z</time></trkpt><trkpt lat="43.4745258" lon="13.0307748"><ele>383.0</ele><time>2026-05-02T07:56:30.67Z</time></trkpt><trkpt lat="43.474564" lon="13.0306225"><ele>387.0</ele><time>2026-05-02T07:56:31.671Z</time></trkpt><trkpt lat="43.4746142" lon="13.0304804"><ele>391.0</ele><time>2026-05-02T07:56:32.67Z</time></trkpt><trkpt lat="43.4746636" lon="13.0303619"><ele>395.0</ele><time>2026-05-02T07:56:33.666Z</time></trkpt><trkpt lat="43.4747095" lon="13.0302625"><ele>399.0</ele><time>2026-05-02T07:56:34.671Z</time></trkpt><trkpt lat="43.4747636" lon="13.0301772"><ele>403.0</ele><time>2026-05-02T07:56:35.668Z</time></trkpt><trkpt lat="43.4748372" lon="13.0301184"><ele>403.0</ele><time>2026-05-02T07:56:36.667Z</time></trkpt><trkpt lat="43.4749288" lon="13.0300717"><ele>403.0</ele><time>2026-05-02T07:56:37.666Z</time></trkpt><trkpt lat="43.4750451" lon="13.030034"><ele>403.0</ele><time>2026-05-02T07:56:38.674Z</time></trkpt><trkpt lat="43.4751729" lon="13.0300036"><ele>403.0</ele><time>2026-05-02T07:56:39.672Z</time></trkpt><trkpt lat="43.4753014" lon="13.029959"><ele>402.5</ele><time>2026-05-02T07:56:40.679Z</time></trkpt><trkpt lat="43.4754262" lon="13.0298925"><ele>402.0</ele><time>2026-05-02T07:56:41.666Z</time></trkpt><trkpt lat="43.4755451" lon="13.0298014"><ele>401.5</ele><time>2026-05-02T07:56:42.668Z</time></trkpt><trkpt lat="43.4756579" lon="13.0296999"><ele>401.0</ele><time>2026-05-02T07:56:43.666Z</time></trkpt><trkpt lat="43.4757721" lon="13.029591"><ele>401.0</ele><time>2026-05-02T07:56:44.672Z</time></trkpt><trkpt lat="43.4758828" lon="13.0294871"><ele>401.0</ele><time>2026-05-02T07:56:45.672Z</time></trkpt><trkpt lat="43.475994" lon="13.029377"><ele>401.0</ele><time>2026-05-02T07:56:46.671Z</time></trkpt><trkpt lat="43.4760926" lon="13.0292541"><ele>401.0</ele><time>2026-05-02T07:56:47.668Z</time></trkpt><trkpt lat="43.4761698" lon="13.0291203"><ele>401.25</ele><time>2026-05-02T07:56:48.676Z</time></trkpt><trkpt lat="43.4762288" lon="13.0289788"><ele>401.5</ele><time>2026-05-02T07:56:49.67Z</time></trkpt><trkpt lat="43.476282" lon="13.0288382"><ele>401.75</ele><time>2026-05-02T07:56:50.669Z</time></trkpt><trkpt lat="43.4763304" lon="13.0287024"><ele>402.0</ele><time>2026-05-02T07:56:51.667Z</time></trkpt><trkpt lat="43.4763713" lon="13.0285663"><ele>402.0</ele><time>2026-05-02T07:56:52.669Z</time></trkpt><trkpt lat="43.4764002" lon="13.0284485"><ele>402.0</ele><time>2026-05-02T07:56:53.667Z</time></trkpt><trkpt lat="43.4764237" lon="13.0283555"><ele>402.0</ele><time>2026-05-02T07:56:54.671Z</time></trkpt><trkpt lat="43.476463" lon="13.0282157"><ele>402.0</ele><time>2026-05-02T07:56:56.673Z</time></trkpt><trkpt lat="43.476507" lon="13.0281311"><ele>402.0</ele><time>2026-05-02T07:56:58.675Z</time></trkpt><trkpt lat="43.4764961" lon="13.0280115"><ele>402.0</ele><time>2026-05-02T07:57:00.668Z</time></trkpt><trkpt lat="43.4764646" lon="13.0279325"><ele>402.8</ele><time>2026-05-02T07:57:01.671Z</time></trkpt><trkpt lat="43.4764146" lon="13.0278521"><ele>403.6</ele><time>2026-05-02T07:57:02.67Z</time></trkpt><trkpt lat="43.4763685" lon="13.0277588"><ele>404.40000000000003</ele><time>2026-05-02T07:57:03.673Z</time></trkpt><trkpt lat="43.4763369" lon="13.0276505"><ele>405.20000000000005</ele><time>2026-05-02T07:57:04.672Z</time></trkpt><trkpt lat="43.4763117" lon="13.0275164"><ele>406.0</ele><time>2026-05-02T07:57:05.671Z</time></trkpt><trkpt lat="43.4762944" lon="13.0273701"><ele>405.25</ele><time>2026-05-02T07:57:06.668Z</time></trkpt><trkpt lat="43.4762758" lon="13.0272181"><ele>404.5</ele><time>2026-05-02T07:57:07.668Z</time></trkpt><trkpt lat="43.4762531" lon="13.0270626"><ele>403.75</ele><time>2026-05-02T07:57:08.671Z</time></trkpt><trkpt lat="43.4762263" lon="13.0268888"><ele>403.0</ele><time>2026-05-02T07:57:09.667Z</time></trkpt><trkpt lat="43.476201" lon="13.0267157"><ele>405.5</ele><time>2026-05-02T07:57:10.676Z</time></trkpt><trkpt lat="43.4761757" lon="13.0265483"><ele>408.0</ele><time>2026-05-02T07:57:11.669Z</time></trkpt><trkpt lat="43.4761497" lon="13.0263742"><ele>410.5</ele><time>2026-05-02T07:57:12.674Z</time></trkpt><trkpt lat="43.4761211" lon="13.0261957"><ele>413.0</ele><time>2026-05-02T07:57:13.674Z</time></trkpt><trkpt lat="43.4760804" lon="13.0260157"><ele>413.0</ele><time>2026-05-02T07:57:14.676Z</time></trkpt><trkpt lat="43.4760304" lon="13.0258449"><ele>413.0</ele><time>2026-05-02T07:57:15.677Z</time></trkpt><trkpt lat="43.4759765" lon="13.0256689"><ele>413.0</ele><time>2026-05-02T07:57:16.677Z</time></trkpt><trkpt lat="43.4759137" lon="13.0254896"><ele>413.0</ele><time>2026-05-02T07:57:17.669Z</time></trkpt><trkpt lat="43.4758435" lon="13.0253146"><ele>415.75</ele><time>2026-05-02T07:57:18.677Z</time></trkpt><trkpt lat="43.4757664" lon="13.0251451"><ele>418.5</ele><time>2026-05-02T07:57:19.672Z</time></trkpt><trkpt lat="43.4756854" lon="13.0249835"><ele>421.25</ele><time>2026-05-02T07:57:20.672Z</time></trkpt><trkpt lat="43.4756037" lon="13.0248164"><ele>424.0</ele><time>2026-05-02T07:57:21.668Z</time></trkpt><trkpt lat="43.4755237" lon="13.0246529"><ele>423.0</ele><time>2026-05-02T07:57:22.679Z</time></trkpt><trkpt lat="43.4754529" lon="13.0244809"><ele>422.0</ele><time>2026-05-02T07:57:23.668Z</time></trkpt><trkpt lat="43.4753826" lon="13.0242916"><ele>421.0</ele><time>2026-05-02T07:57:24.666Z</time></trkpt><trkpt lat="43.4753211" lon="13.0241024"><ele>420.0</ele><time>2026-05-02T07:57:25.673Z</time></trkpt><trkpt lat="43.4752987" lon="13.023912"><ele>420.0</ele><time>2026-05-02T07:57:26.671Z</time></trkpt><trkpt lat="43.4752809" lon="13.0237261"><ele>420.0</ele><time>2026-05-02T07:57:27.667Z</time></trkpt><trkpt lat="43.4752821" lon="13.0235327"><ele>420.0</ele><time>2026-05-02T07:57:28.675Z</time></trkpt><trkpt lat="43.4752887" lon="13.0233394"><ele>420.0</ele><time>2026-05-02T07:57:29.673Z</time></trkpt><trkpt lat="43.4752962" lon="13.0231431"><ele>422.66666666666663</ele><time>2026-05-02T07:57:30.675Z</time></trkpt><trkpt lat="43.4752993" lon="13.0229358"><ele>425.3333333333333</ele><time>2026-05-02T07:57:31.674Z</time></trkpt><trkpt lat="43.4752979" lon="13.0227252"><ele>428.0</ele><time>2026-05-02T07:57:32.674Z</time></trkpt><trkpt lat="43.4752999" lon="13.0225164"><ele>429.25</ele><time>2026-05-02T07:57:33.678Z</time></trkpt><trkpt lat="43.4752995" lon="13.0223163"><ele>430.5</ele><time>2026-05-02T07:57:34.675Z</time></trkpt><trkpt lat="43.4753014" lon="13.0221204"><ele>431.75</ele><time>2026-05-02T07:57:35.674Z</time></trkpt><trkpt lat="43.475313" lon="13.0219245"><ele>433.0</ele><time>2026-05-02T07:57:36.676Z</time></trkpt><trkpt lat="43.4753055" lon="13.021735"><ele>435.0</ele><time>2026-05-02T07:57:37.68Z</time></trkpt><trkpt lat="43.4752923" lon="13.0215458"><ele>437.0</ele><time>2026-05-02T07:57:38.677Z</time></trkpt><trkpt lat="43.4752553" lon="13.0213717"><ele>439.0</ele><time>2026-05-02T07:57:39.674Z</time></trkpt><trkpt lat="43.4751983" lon="13.0212012"><ele>441.0</ele><time>2026-05-02T07:57:40.675Z</time></trkpt><trkpt lat="43.4751137" lon="13.0210496"><ele>441.0</ele><time>2026-05-02T07:57:41.674Z</time></trkpt><trkpt lat="43.4750132" lon="13.0209011"><ele>441.0</ele><time>2026-05-02T07:57:42.678Z</time></trkpt><trkpt lat="43.4749119" lon="13.0207499"><ele>441.0</ele><time>2026-05-02T07:57:43.679Z</time></trkpt><trkpt lat="43.4748211" lon="13.0205887"><ele>441.0</ele><time>2026-05-02T07:57:44.681Z</time></trkpt><trkpt lat="43.4747252" lon="13.0204226"><ele>440.0</ele><time>2026-05-02T07:57:45.676Z</time></trkpt><trkpt lat="43.4746367" lon="13.0202534"><ele>439.0</ele><time>2026-05-02T07:57:46.676Z</time></trkpt><trkpt lat="43.474544" lon="13.0200838"><ele>438.0</ele><time>2026-05-02T07:57:47.675Z</time></trkpt><trkpt lat="43.4744521" lon="13.0199246"><ele>440.25</ele><time>2026-05-02T07:57:48.671Z</time></trkpt><trkpt lat="43.4743732" lon="13.0197718"><ele>442.5</ele><time>2026-05-02T07:57:49.675Z</time></trkpt><trkpt lat="43.4743" lon="13.019614"><ele>444.75</ele><time>2026-05-02T07:57:50.67Z</time></trkpt><trkpt lat="43.4742407" lon="13.0194358"><ele>447.0</ele><time>2026-05-02T07:57:51.66Z</time></trkpt><trkpt lat="43.4742008" lon="13.0192524"><ele>448.5</ele><time>2026-05-02T07:57:52.681Z</time></trkpt><trkpt lat="43.4741727" lon="13.019067"><ele>450.0</ele><time>2026-05-02T07:57:53.67Z</time></trkpt><trkpt lat="43.4741497" lon="13.0188771"><ele>451.5</ele><time>2026-05-02T07:57:54.676Z</time></trkpt><trkpt lat="43.4741264" lon="13.0186814"><ele>453.0</ele><time>2026-05-02T07:57:55.666Z</time></trkpt><trkpt lat="43.4741039" lon="13.0184702"><ele>454.0</ele><time>2026-05-02T07:57:56.682Z</time></trkpt><trkpt lat="43.4740719" lon="13.0182654"><ele>455.0</ele><time>2026-05-02T07:57:57.671Z</time></trkpt><trkpt lat="43.4740394" lon="13.0180507"><ele>456.0</ele><time>2026-05-02T07:57:58.682Z</time></trkpt><trkpt lat="43.4740121" lon="13.0178341"><ele>456.0</ele><time>2026-05-02T07:57:59.679Z</time></trkpt><trkpt lat="43.4739836" lon="13.0176305"><ele>456.0</ele><time>2026-05-02T07:58:00.676Z</time></trkpt><trkpt lat="43.4739545" lon="13.0174245"><ele>456.0</ele><time>2026-05-02T07:58:01.674Z</time></trkpt><trkpt lat="43.4739213" lon="13.0172242"><ele>456.0</ele><time>2026-05-02T07:58:02.68Z</time></trkpt><trkpt lat="43.4738843" lon="13.0170322"><ele>456.0</ele><time>2026-05-02T07:58:03.676Z</time></trkpt><trkpt lat="43.4738431" lon="13.0168504"><ele>456.0</ele><time>2026-05-02T07:58:04.683Z</time></trkpt><trkpt lat="43.4738007" lon="13.0166867"><ele>456.0</ele><time>2026-05-02T07:58:05.672Z</time></trkpt><trkpt lat="43.473755" lon="13.0165386"><ele>456.0</ele><time>2026-05-02T07:58:06.674Z</time></trkpt><trkpt lat="43.4737001" lon="13.0164033"><ele>456.0</ele><time>2026-05-02T07:58:07.674Z</time></trkpt><trkpt lat="43.4736102" lon="13.0162631"><ele>456.0</ele><time>2026-05-02T07:58:08.673Z</time></trkpt><trkpt lat="43.4735034" lon="13.0161564"><ele>456.0</ele><time>2026-05-02T07:58:09.678Z</time></trkpt><trkpt lat="43.4733879" lon="13.0160566"><ele>456.0</ele><time>2026-05-02T07:58:10.677Z</time></trkpt><trkpt lat="43.4732717" lon="13.015973"><ele>456.0</ele><time>2026-05-02T07:58:11.674Z</time></trkpt><trkpt lat="43.4731357" lon="13.0158897"><ele>456.0</ele><time>2026-05-02T07:58:12.676Z</time></trkpt><trkpt lat="43.4729967" lon="13.0158008"><ele>456.0</ele><time>2026-05-02T07:58:13.677Z</time></trkpt><trkpt lat="43.4728729" lon="13.0157197"><ele>455.0</ele><time>2026-05-02T07:58:14.674Z</time></trkpt><trkpt lat="43.4727746" lon="13.0156488"><ele>454.0</ele><time>2026-05-02T07:58:15.67Z</time></trkpt><trkpt lat="43.4727127" lon="13.0155829"><ele>453.0</ele><time>2026-05-02T07:58:16.674Z</time></trkpt><trkpt lat="43.4726694" lon="13.0154982"><ele>452.0</ele><time>2026-05-02T07:58:17.673Z</time></trkpt><trkpt lat="43.4726477" lon="13.0153804"><ele>451.0</ele><time>2026-05-02T07:58:18.671Z</time></trkpt><trkpt lat="43.472649" lon="13.0152258"><ele>451.0</ele><time>2026-05-02T07:58:19.669Z</time></trkpt><trkpt lat="43.4726593" lon="13.0150588"><ele>451.0</ele><time>2026-05-02T07:58:20.676Z</time></trkpt><trkpt lat="43.4726589" lon="13.0148955"><ele>451.0</ele><time>2026-05-02T07:58:21.669Z</time></trkpt><trkpt lat="43.4726376" lon="13.0147287"><ele>451.0</ele><time>2026-05-02T07:58:22.678Z</time></trkpt><trkpt lat="43.4725919" lon="13.0145684"><ele>453.0</ele><time>2026-05-02T07:58:23.675Z</time></trkpt><trkpt lat="43.47253" lon="13.0144164"><ele>455.0</ele><time>2026-05-02T07:58:24.679Z</time></trkpt><trkpt lat="43.4724507" lon="13.0142703"><ele>457.0</ele><time>2026-05-02T07:58:25.67Z</time></trkpt><trkpt lat="43.4723594" lon="13.0141365"><ele>459.0</ele><time>2026-05-02T07:58:26.676Z</time></trkpt><trkpt lat="43.4722695" lon="13.0139974"><ele>461.0</ele><time>2026-05-02T07:58:27.671Z</time></trkpt><trkpt lat="43.4721926" lon="13.0138591"><ele>463.0</ele><time>2026-05-02T07:58:28.672Z</time></trkpt><trkpt lat="43.4721332" lon="13.0137117"><ele>465.0</ele><time>2026-05-02T07:58:29.671Z</time></trkpt><trkpt lat="43.4720904" lon="13.0135553"><ele>467.0</ele><time>2026-05-02T07:58:30.668Z</time></trkpt><trkpt lat="43.472065" lon="13.0133899"><ele>464.25</ele><time>2026-05-02T07:58:31.667Z</time></trkpt><trkpt lat="43.4720437" lon="13.0132164"><ele>461.5</ele><time>2026-05-02T07:58:32.675Z</time></trkpt><trkpt lat="43.4720231" lon="13.0130491"><ele>458.75</ele><time>2026-05-02T07:58:33.674Z</time></trkpt><trkpt lat="43.4719887" lon="13.0128982"><ele>456.0</ele><time>2026-05-02T07:58:34.672Z</time></trkpt><trkpt lat="43.4719355" lon="13.0127709"><ele>456.0</ele><time>2026-05-02T07:58:35.666Z</time></trkpt><trkpt lat="43.4718673" lon="13.0126451"><ele>456.0</ele><time>2026-05-02T07:58:36.668Z</time></trkpt><trkpt lat="43.4717749" lon="13.0125227"><ele>456.0</ele><time>2026-05-02T07:58:37.675Z</time></trkpt><trkpt lat="43.4716768" lon="13.0124023"><ele>456.0</ele><time>2026-05-02T07:58:38.674Z</time></trkpt><trkpt lat="43.471575" lon="13.0122718"><ele>456.5</ele><time>2026-05-02T07:58:39.674Z</time></trkpt><trkpt lat="43.4714753" lon="13.0121315"><ele>457.0</ele><time>2026-05-02T07:58:40.675Z</time></trkpt><trkpt lat="43.471382" lon="13.0119873"><ele>457.5</ele><time>2026-05-02T07:58:41.672Z</time></trkpt><trkpt lat="43.4712861" lon="13.011842"><ele>458.0</ele><time>2026-05-02T07:58:42.674Z</time></trkpt><trkpt lat="43.4711994" lon="13.0117121"><ele>461.25</ele><time>2026-05-02T07:58:43.678Z</time></trkpt><trkpt lat="43.4711119" lon="13.0115968"><ele>464.5</ele><time>2026-05-02T07:58:44.676Z</time></trkpt><trkpt lat="43.4710265" lon="13.0115051"><ele>467.75</ele><time>2026-05-02T07:58:45.678Z</time></trkpt><trkpt lat="43.4709193" lon="13.0114488"><ele>471.0</ele><time>2026-05-02T07:58:46.677Z</time></trkpt><trkpt lat="43.470803" lon="13.0114125"><ele>471.0</ele><time>2026-05-02T07:58:47.678Z</time></trkpt><trkpt lat="43.4706709" lon="13.0114044"><ele>471.0</ele><time>2026-05-02T07:58:48.677Z</time></trkpt><trkpt lat="43.4705246" lon="13.0114132"><ele>471.0</ele><time>2026-05-02T07:58:49.678Z</time></trkpt><trkpt lat="43.4703768" lon="13.0114225"><ele>471.0</ele><time>2026-05-02T07:58:50.684Z</time></trkpt><trkpt lat="43.4702292" lon="13.0114329"><ele>468.75</ele><time>2026-05-02T07:58:51.685Z</time></trkpt><trkpt lat="43.47009" lon="13.0114448"><ele>466.5</ele><time>2026-05-02T07:58:52.679Z</time></trkpt><trkpt lat="43.4699493" lon="13.0114571"><ele>464.25</ele><time>2026-05-02T07:58:53.688Z</time></trkpt><trkpt lat="43.4698279" lon="13.011471"><ele>462.0</ele><time>2026-05-02T07:58:54.682Z</time></trkpt><trkpt lat="43.469708" lon="13.0114905"><ele>461.20000000000005</ele><time>2026-05-02T07:58:55.686Z</time></trkpt><trkpt lat="43.4696013" lon="13.011492"><ele>460.40000000000003</ele><time>2026-05-02T07:58:56.674Z</time></trkpt><trkpt lat="43.4694995" lon="13.011467"><ele>459.59999999999997</ele><time>2026-05-02T07:58:57.675Z</time></trkpt><trkpt lat="43.4694026" lon="13.0114284"><ele>458.79999999999995</ele><time>2026-05-02T07:58:58.679Z</time></trkpt><trkpt lat="43.4693093" lon="13.0113686"><ele>458.0</ele><time>2026-05-02T07:58:59.674Z</time></trkpt><trkpt lat="43.4692146" lon="13.0112815"><ele>458.0</ele><time>2026-05-02T07:59:00.675Z</time></trkpt><trkpt lat="43.4691344" lon="13.011181"><ele>458.0</ele><time>2026-05-02T07:59:01.673Z</time></trkpt><trkpt lat="43.4690829" lon="13.0110509"><ele>458.0</ele><time>2026-05-02T07:59:02.675Z</time></trkpt><trkpt lat="43.4690493" lon="13.0108985"><ele>458.0</ele><time>2026-05-02T07:59:03.668Z</time></trkpt><trkpt lat="43.4690341" lon="13.0107327"><ele>459.2</ele><time>2026-05-02T07:59:04.68Z</time></trkpt><trkpt lat="43.4690271" lon="13.0105656"><ele>460.4</ele><time>2026-05-02T07:59:05.679Z</time></trkpt><trkpt lat="43.4690103" lon="13.0104212"><ele>461.59999999999997</ele><time>2026-05-02T07:59:06.679Z</time></trkpt><trkpt lat="43.4689693" lon="13.0102989"><ele>462.79999999999995</ele><time>2026-05-02T07:59:07.677Z</time></trkpt><trkpt lat="43.4689056" lon="13.0101895"><ele>464.0</ele><time>2026-05-02T07:59:08.675Z</time></trkpt><trkpt lat="43.4688153" lon="13.0100931"><ele>464.5</ele><time>2026-05-02T07:59:09.678Z</time></trkpt><trkpt lat="43.4687063" lon="13.0100024"><ele>465.0</ele><time>2026-05-02T07:59:10.682Z</time></trkpt><trkpt lat="43.4685896" lon="13.0099145"><ele>465.5</ele><time>2026-05-02T07:59:11.679Z</time></trkpt><trkpt lat="43.4684653" lon="13.009839"><ele>466.0</ele><time>2026-05-02T07:59:12.678Z</time></trkpt><trkpt lat="43.4683418" lon="13.009758"><ele>466.0</ele><time>2026-05-02T07:59:13.678Z</time></trkpt><trkpt lat="43.4682271" lon="13.0096531"><ele>466.0</ele><time>2026-05-02T07:59:14.679Z</time></trkpt><trkpt lat="43.4681318" lon="13.0095297"><ele>466.0</ele><time>2026-05-02T07:59:15.684Z</time></trkpt><trkpt lat="43.4680405" lon="13.0094008"><ele>466.0</ele><time>2026-05-02T07:59:16.683Z</time></trkpt><trkpt lat="43.4679556" lon="13.0092833"><ele>463.5</ele><time>2026-05-02T07:59:17.683Z</time></trkpt><trkpt lat="43.467879" lon="13.0091609"><ele>461.0</ele><time>2026-05-02T07:59:18.686Z</time></trkpt><trkpt lat="43.46781" lon="13.009032"><ele>458.5</ele><time>2026-05-02T07:59:19.691Z</time></trkpt><trkpt lat="43.4677439" lon="13.0089016"><ele>456.0</ele><time>2026-05-02T07:59:20.682Z</time></trkpt><trkpt lat="43.4676793" lon="13.0087824"><ele>456.0</ele><time>2026-05-02T07:59:21.687Z</time></trkpt><trkpt lat="43.4676219" lon="13.0086589"><ele>456.0</ele><time>2026-05-02T07:59:22.697Z</time></trkpt><trkpt lat="43.4675697" lon="13.0085204"><ele>456.0</ele><time>2026-05-02T07:59:23.691Z</time></trkpt><trkpt lat="43.4675282" lon="13.0083566"><ele>456.0</ele><time>2026-05-02T07:59:24.693Z</time></trkpt><trkpt lat="43.4674928" lon="13.0081703"><ele>457.0</ele><time>2026-05-02T07:59:25.693Z</time></trkpt><trkpt lat="43.4674572" lon="13.0079792"><ele>458.0</ele><time>2026-05-02T07:59:26.69Z</time></trkpt><trkpt lat="43.4674198" lon="13.0078069"><ele>459.0</ele><time>2026-05-02T07:59:27.688Z</time></trkpt><trkpt lat="43.4673923" lon="13.0076458"><ele>460.0</ele><time>2026-05-02T07:59:28.685Z</time></trkpt><trkpt lat="43.467376" lon="13.0074998"><ele>460.4</ele><time>2026-05-02T07:59:29.688Z</time></trkpt><trkpt lat="43.4673785" lon="13.0073597"><ele>460.8</ele><time>2026-05-02T07:59:30.688Z</time></trkpt><trkpt lat="43.4673945" lon="13.0072164"><ele>461.20000000000005</ele><time>2026-05-02T07:59:31.687Z</time></trkpt><trkpt lat="43.4674189" lon="13.0070651"><ele>461.6</ele><time>2026-05-02T07:59:32.678Z</time></trkpt><trkpt lat="43.467443" lon="13.0069055"><ele>462.0</ele><time>2026-05-02T07:59:33.689Z</time></trkpt><trkpt lat="43.4674562" lon="13.0067353"><ele>462.75</ele><time>2026-05-02T07:59:34.681Z</time></trkpt><trkpt lat="43.4674604" lon="13.0065568"><ele>463.5</ele><time>2026-05-02T07:59:35.681Z</time></trkpt><trkpt lat="43.4674434" lon="13.0063721"><ele>464.25</ele><time>2026-05-02T07:59:36.68Z</time></trkpt><trkpt lat="43.4674156" lon="13.0061833"><ele>465.0</ele><time>2026-05-02T07:59:37.68Z</time></trkpt><trkpt lat="43.4673876" lon="13.0059934"><ele>467.0</ele><time>2026-05-02T07:59:38.681Z</time></trkpt><trkpt lat="43.4673505" lon="13.0057891"><ele>469.0</ele><time>2026-05-02T07:59:39.684Z</time></trkpt><trkpt lat="43.4673126" lon="13.0055852"><ele>471.0</ele><time>2026-05-02T07:59:40.68Z</time></trkpt><trkpt lat="43.4672859" lon="13.0053901"><ele>471.0</ele><time>2026-05-02T07:59:41.684Z</time></trkpt><trkpt lat="43.4672523" lon="13.0052035"><ele>471.0</ele><time>2026-05-02T07:59:42.68Z</time></trkpt><trkpt lat="43.467206" lon="13.0050154"><ele>471.0</ele><time>2026-05-02T07:59:43.688Z</time></trkpt><trkpt lat="43.4671605" lon="13.0048238"><ele>471.0</ele><time>2026-05-02T07:59:44.683Z</time></trkpt><trkpt lat="43.4670943" lon="13.0046402"><ele>468.66666666666663</ele><time>2026-05-02T07:59:45.684Z</time></trkpt><trkpt lat="43.4670236" lon="13.0044703"><ele>466.3333333333333</ele><time>2026-05-02T07:59:46.68Z</time></trkpt><trkpt lat="43.4669418" lon="13.0042867"><ele>464.0</ele><time>2026-05-02T07:59:47.685Z</time></trkpt><trkpt lat="43.4668584" lon="13.0041045"><ele>464.0</ele><time>2026-05-02T07:59:48.677Z</time></trkpt><trkpt lat="43.4667782" lon="13.0039288"><ele>464.0</ele><time>2026-05-02T07:59:49.677Z</time></trkpt><trkpt lat="43.4666968" lon="13.0037539"><ele>464.0</ele><time>2026-05-02T07:59:50.674Z</time></trkpt><trkpt lat="43.4666069" lon="13.0035891"><ele>464.0</ele><time>2026-05-02T07:59:51.683Z</time></trkpt><trkpt lat="43.4665171" lon="13.0034047"><ele>464.0</ele><time>2026-05-02T07:59:52.679Z</time></trkpt><trkpt lat="43.4664441" lon="13.0032439"><ele>464.0</ele><time>2026-05-02T07:59:53.684Z</time></trkpt><trkpt lat="43.4663693" lon="13.003093"><ele>464.0</ele><time>2026-05-02T07:59:54.683Z</time></trkpt><trkpt lat="43.4662976" lon="13.0029343"><ele>462.4</ele><time>2026-05-02T07:59:55.686Z</time></trkpt><trkpt lat="43.4662375" lon="13.0027956"><ele>460.79999999999995</ele><time>2026-05-02T07:59:56.678Z</time></trkpt><trkpt lat="43.4661769" lon="13.0026586"><ele>459.20000000000005</ele><time>2026-05-02T07:59:57.679Z</time></trkpt><trkpt lat="43.4661246" lon="13.0025633"><ele>457.6</ele><time>2026-05-02T07:59:58.679Z</time></trkpt><trkpt lat="43.4660723" lon="13.0024795"><ele>456.0</ele><time>2026-05-02T07:59:59.685Z</time></trkpt><trkpt lat="43.4660107" lon="13.002388"><ele>454.0</ele><time>2026-05-02T08:00:00.686Z</time></trkpt><trkpt lat="43.4659446" lon="13.0023011"><ele>452.0</ele><time>2026-05-02T08:00:01.687Z</time></trkpt><trkpt lat="43.4658661" lon="13.0022193"><ele>450.0</ele><time>2026-05-02T08:00:02.683Z</time></trkpt><trkpt lat="43.4657813" lon="13.0021438"><ele>448.0</ele><time>2026-05-02T08:00:03.686Z</time></trkpt><trkpt lat="43.4656904" lon="13.0020604"><ele>446.0</ele><time>2026-05-02T08:00:04.687Z</time></trkpt><trkpt lat="43.465595" lon="13.0019663"><ele>446.0</ele><time>2026-05-02T08:00:05.689Z</time></trkpt><trkpt lat="43.4655016" lon="13.0018585"><ele>446.0</ele><time>2026-05-02T08:00:06.687Z</time></trkpt><trkpt lat="43.4654119" lon="13.0017427"><ele>446.0</ele><time>2026-05-02T08:00:07.686Z</time></trkpt><trkpt lat="43.4653252" lon="13.0016051"><ele>446.0</ele><time>2026-05-02T08:00:08.682Z</time></trkpt><trkpt lat="43.4652398" lon="13.0014552"><ele>448.5</ele><time>2026-05-02T08:00:09.687Z</time></trkpt><trkpt lat="43.4651586" lon="13.0012996"><ele>451.0</ele><time>2026-05-02T08:00:10.685Z</time></trkpt><trkpt lat="43.4650799" lon="13.001153"><ele>453.5</ele><time>2026-05-02T08:00:11.68Z</time></trkpt><trkpt lat="43.4649996" lon="13.0010206"><ele>456.0</ele><time>2026-05-02T08:00:12.679Z</time></trkpt><trkpt lat="43.4649267" lon="13.0008899"><ele>455.4</ele><time>2026-05-02T08:00:13.682Z</time></trkpt><trkpt lat="43.4648589" lon="13.0007549"><ele>454.8</ele><time>2026-05-02T08:00:14.68Z</time></trkpt><trkpt lat="43.4647926" lon="13.0006407"><ele>454.19999999999993</ele><time>2026-05-02T08:00:15.683Z</time></trkpt><trkpt lat="43.4647247" lon="13.0005453"><ele>453.59999999999997</ele><time>2026-05-02T08:00:16.682Z</time></trkpt><trkpt lat="43.4646718" lon="13.000462"><ele>453.0</ele><time>2026-05-02T08:00:17.678Z</time></trkpt><trkpt lat="43.4646252" lon="13.0003896"><ele>457.2</ele><time>2026-05-02T08:00:18.676Z</time></trkpt><trkpt lat="43.4645589" lon="13.0003169"><ele>461.4</ele><time>2026-05-02T08:00:20.682Z</time></trkpt><trkpt lat="43.4644545" lon="13.0003442"><ele>465.59999999999997</ele><time>2026-05-02T08:00:24.689Z</time></trkpt><trkpt lat="43.4643242" lon="13.0004226"><ele>469.79999999999995</ele><time>2026-05-02T08:00:26.68Z</time></trkpt><trkpt lat="43.4642411" lon="13.0004823"><ele>474.0</ele><time>2026-05-02T08:00:27.677Z</time></trkpt><trkpt lat="43.4641481" lon="13.0005452"><ele>474.0</ele><time>2026-05-02T08:00:28.672Z</time></trkpt><trkpt lat="43.4640393" lon="13.0006078"><ele>474.0</ele><time>2026-05-02T08:00:29.677Z</time></trkpt><trkpt lat="43.4639184" lon="13.0006866"><ele>474.0</ele><time>2026-05-02T08:00:30.677Z</time></trkpt><trkpt lat="43.4637964" lon="13.0007642"><ele>474.0</ele><time>2026-05-02T08:00:31.682Z</time></trkpt><trkpt lat="43.4636696" lon="13.0008359"><ele>470.5</ele><time>2026-05-02T08:00:32.682Z</time></trkpt><trkpt lat="43.4635514" lon="13.0009085"><ele>467.0</ele><time>2026-05-02T08:00:33.677Z</time></trkpt><trkpt lat="43.463443" lon="13.0009997"><ele>463.5</ele><time>2026-05-02T08:00:34.681Z</time></trkpt><trkpt lat="43.4633506" lon="13.0011054"><ele>460.0</ele><time>2026-05-02T08:00:35.671Z</time></trkpt><trkpt lat="43.4632624" lon="13.0012197"><ele>460.0</ele><time>2026-05-02T08:00:36.678Z</time></trkpt><trkpt lat="43.4631798" lon="13.0013522"><ele>460.0</ele><time>2026-05-02T08:00:37.673Z</time></trkpt><trkpt lat="43.4630851" lon="13.0014914"><ele>460.0</ele><time>2026-05-02T08:00:38.675Z</time></trkpt><trkpt lat="43.4629859" lon="13.0016368"><ele>460.0</ele><time>2026-05-02T08:00:39.688Z</time></trkpt><trkpt lat="43.4628905" lon="13.0017714"><ele>460.5</ele><time>2026-05-02T08:00:40.68Z</time></trkpt><trkpt lat="43.4627958" lon="13.0019025"><ele>461.0</ele><time>2026-05-02T08:00:41.676Z</time></trkpt><trkpt lat="43.4627006" lon="13.0020205"><ele>461.5</ele><time>2026-05-02T08:00:42.684Z</time></trkpt><trkpt lat="43.462617" lon="13.0021126"><ele>462.0</ele><time>2026-05-02T08:00:43.678Z</time></trkpt><trkpt lat="43.4625261" lon="13.002197"><ele>462.0</ele><time>2026-05-02T08:00:44.681Z</time></trkpt><trkpt lat="43.4624219" lon="13.0022662"><ele>462.0</ele><time>2026-05-02T08:00:45.676Z</time></trkpt><trkpt lat="43.4622955" lon="13.0023272"><ele>462.0</ele><time>2026-05-02T08:00:46.682Z</time></trkpt><trkpt lat="43.4621673" lon="13.0023777"><ele>462.0</ele><time>2026-05-02T08:00:47.682Z</time></trkpt><trkpt lat="43.4620359" lon="13.0024299"><ele>458.66666666666663</ele><time>2026-05-02T08:00:48.682Z</time></trkpt><trkpt lat="43.4619049" lon="13.0024968"><ele>455.3333333333333</ele><time>2026-05-02T08:00:49.684Z</time></trkpt><trkpt lat="43.4617613" lon="13.0025692"><ele>452.0</ele><time>2026-05-02T08:00:50.678Z</time></trkpt><trkpt lat="43.4616137" lon="13.0026565"><ele>452.0</ele><time>2026-05-02T08:00:51.678Z</time></trkpt><trkpt lat="43.4614786" lon="13.002745"><ele>452.0</ele><time>2026-05-02T08:00:52.677Z</time></trkpt><trkpt lat="43.4613355" lon="13.0028301"><ele>452.0</ele><time>2026-05-02T08:00:53.677Z</time></trkpt><trkpt lat="43.4611974" lon="13.002919"><ele>456.25</ele><time>2026-05-02T08:00:54.677Z</time></trkpt><trkpt lat="43.4610724" lon="13.0030124"><ele>460.5</ele><time>2026-05-02T08:00:55.679Z</time></trkpt><trkpt lat="43.4609428" lon="13.0031038"><ele>464.75</ele><time>2026-05-02T08:00:56.675Z</time></trkpt><trkpt lat="43.4608103" lon="13.0031953"><ele>469.0</ele><time>2026-05-02T08:00:57.682Z</time></trkpt><trkpt lat="43.4606861" lon="13.0032806"><ele>463.5</ele><time>2026-05-02T08:00:58.678Z</time></trkpt><trkpt lat="43.4605523" lon="13.0033753"><ele>458.0</ele><time>2026-05-02T08:00:59.689Z</time></trkpt><trkpt lat="43.4604319" lon="13.003474"><ele>452.5</ele><time>2026-05-02T08:01:00.676Z</time></trkpt><trkpt lat="43.4603142" lon="13.0035628"><ele>447.0</ele><time>2026-05-02T08:01:01.691Z</time></trkpt><trkpt lat="43.4602124" lon="13.0036606"><ele>447.0</ele><time>2026-05-02T08:01:02.682Z</time></trkpt><trkpt lat="43.4601132" lon="13.0037701"><ele>447.00000000000006</ele><time>2026-05-02T08:01:03.681Z</time></trkpt><trkpt lat="43.4600264" lon="13.0038599"><ele>447.00000000000006</ele><time>2026-05-02T08:01:04.677Z</time></trkpt><trkpt lat="43.4599494" lon="13.00392"><ele>447.0</ele><time>2026-05-02T08:01:05.682Z</time></trkpt><trkpt lat="43.4598814" lon="13.0039678"><ele>447.0</ele><time>2026-05-02T08:01:06.684Z</time></trkpt><trkpt lat="43.459799" lon="13.0040027"><ele>447.0</ele><time>2026-05-02T08:01:07.684Z</time></trkpt><trkpt lat="43.4596966" lon="13.0040197"><ele>447.00000000000006</ele><time>2026-05-02T08:01:08.681Z</time></trkpt><trkpt lat="43.4595873" lon="13.0040179"><ele>447.00000000000006</ele><time>2026-05-02T08:01:09.687Z</time></trkpt><trkpt lat="43.4594753" lon="13.0040052"><ele>447.0</ele><time>2026-05-02T08:01:10.68Z</time></trkpt><trkpt lat="43.4593675" lon="13.003995"><ele>447.0</ele><time>2026-05-02T08:01:11.68Z</time></trkpt><trkpt lat="43.4592683" lon="13.0039807"><ele>447.6</ele><time>2026-05-02T08:01:12.682Z</time></trkpt><trkpt lat="43.45917" lon="13.0039675"><ele>448.20000000000005</ele><time>2026-05-02T08:01:13.679Z</time></trkpt><trkpt lat="43.4590831" lon="13.00396"><ele>448.8</ele><time>2026-05-02T08:01:14.677Z</time></trkpt><trkpt lat="43.4590037" lon="13.0039785"><ele>449.4</ele><time>2026-05-02T08:01:15.671Z</time></trkpt><trkpt lat="43.4589452" lon="13.0040305"><ele>450.0</ele><time>2026-05-02T08:01:16.685Z</time></trkpt><trkpt lat="43.4589004" lon="13.004179"><ele>450.1666666666667</ele><time>2026-05-02T08:01:18.676Z</time></trkpt><trkpt lat="43.4588841" lon="13.0043015"><ele>450.33333333333337</ele><time>2026-05-02T08:01:20.67Z</time></trkpt><trkpt lat="43.4588098" lon="13.0042829"><ele>450.5</ele><time>2026-05-02T08:01:22.684Z</time></trkpt><trkpt lat="43.4587529" lon="13.0042412"><ele>450.6666666666667</ele><time>2026-05-02T08:01:23.68Z</time></trkpt><trkpt lat="43.4586956" lon="13.0041957"><ele>450.83333333333337</ele><time>2026-05-02T08:01:24.674Z</time></trkpt><trkpt lat="43.4586245" lon="13.0041578"><ele>451.0</ele><time>2026-05-02T08:01:25.678Z</time></trkpt><trkpt lat="43.4585471" lon="13.0041203"><ele>451.0</ele><time>2026-05-02T08:01:26.678Z</time></trkpt><trkpt lat="43.4584565" lon="13.0041026"><ele>451.0</ele><time>2026-05-02T08:01:27.675Z</time></trkpt><trkpt lat="43.4583602" lon="13.0040838"><ele>451.0</ele><time>2026-05-02T08:01:28.681Z</time></trkpt><trkpt lat="43.4582594" lon="13.0040593"><ele>451.0</ele><time>2026-05-02T08:01:29.682Z</time></trkpt><trkpt lat="43.4581631" lon="13.0040341"><ele>451.0</ele><time>2026-05-02T08:01:30.68Z</time></trkpt><trkpt lat="43.4580691" lon="13.0040084"><ele>451.0</ele><time>2026-05-02T08:01:31.678Z</time></trkpt><trkpt lat="43.4579746" lon="13.0039756"><ele>451.0</ele><time>2026-05-02T08:01:32.671Z</time></trkpt><trkpt lat="43.4578819" lon="13.0039365"><ele>451.0</ele><time>2026-05-02T08:01:33.672Z</time></trkpt><trkpt lat="43.4577902" lon="13.0038773"><ele>451.0</ele><time>2026-05-02T08:01:34.662Z</time></trkpt><trkpt lat="43.4576968" lon="13.0038291"><ele>451.0</ele><time>2026-05-02T08:01:35.668Z</time></trkpt><trkpt lat="43.4576097" lon="13.0037747"><ele>450.8</ele><time>2026-05-02T08:01:36.671Z</time></trkpt><trkpt lat="43.4575241" lon="13.0037191"><ele>450.6</ele><time>2026-05-02T08:01:37.675Z</time></trkpt><trkpt lat="43.4574318" lon="13.0036571"><ele>450.4</ele><time>2026-05-02T08:01:38.677Z</time></trkpt><trkpt lat="43.4573403" lon="13.0035989"><ele>450.2</ele><time>2026-05-02T08:01:39.678Z</time></trkpt><trkpt lat="43.4572495" lon="13.0035285"><ele>450.0</ele><time>2026-05-02T08:01:40.67Z</time></trkpt><trkpt lat="43.4571572" lon="13.0034501"><ele>450.5</ele><time>2026-05-02T08:01:41.68Z</time></trkpt><trkpt lat="43.4570608" lon="13.0033755"><ele>451.0</ele><time>2026-05-02T08:01:42.671Z</time></trkpt><trkpt lat="43.4569586" lon="13.0032989"><ele>451.5</ele><time>2026-05-02T08:01:43.682Z</time></trkpt><trkpt lat="43.456849" lon="13.0032189"><ele>452.0</ele><time>2026-05-02T08:01:44.675Z</time></trkpt><trkpt lat="43.4567487" lon="13.0031337"><ele>455.20000000000005</ele><time>2026-05-02T08:01:45.684Z</time></trkpt><trkpt lat="43.4566566" lon="13.003056"><ele>458.40000000000003</ele><time>2026-05-02T08:01:46.685Z</time></trkpt><trkpt lat="43.4565964" lon="13.0030038"><ele>461.59999999999997</ele><time>2026-05-02T08:01:47.68Z</time></trkpt><trkpt lat="43.4565463" lon="13.0029384"><ele>464.79999999999995</ele><time>2026-05-02T08:01:49.682Z</time></trkpt><trkpt lat="43.4564665" lon="13.0028584"><ele>468.0</ele><time>2026-05-02T08:02:01.69Z</time></trkpt><trkpt lat="43.4563747" lon="13.0027696"><ele>468.0</ele><time>2026-05-02T08:02:03.683Z</time></trkpt><trkpt lat="43.4563118" lon="13.0027276"><ele>468.0</ele><time>2026-05-02T08:02:04.681Z</time></trkpt><trkpt lat="43.4562412" lon="13.0026873"><ele>468.0</ele><time>2026-05-02T08:02:05.687Z</time></trkpt><trkpt lat="43.4561641" lon="13.0026485"><ele>468.0</ele><time>2026-05-02T08:02:06.681Z</time></trkpt><trkpt lat="43.4560827" lon="13.0026104"><ele>468.0</ele><time>2026-05-02T08:02:07.68Z</time></trkpt><trkpt lat="43.4559908" lon="13.0025829"><ele>468.0</ele><time>2026-05-02T08:02:08.681Z</time></trkpt><trkpt lat="43.4558967" lon="13.0025535"><ele>469.79999999999995</ele><time>2026-05-02T08:02:09.675Z</time></trkpt><trkpt lat="43.455809" lon="13.002505"><ele>471.59999999999997</ele><time>2026-05-02T08:02:10.681Z</time></trkpt><trkpt lat="43.4557227" lon="13.0024564"><ele>473.40000000000003</ele><time>2026-05-02T08:02:11.679Z</time></trkpt><trkpt lat="43.4556419" lon="13.0023921"><ele>475.20000000000005</ele><time>2026-05-02T08:02:12.68Z</time></trkpt><trkpt lat="43.455573" lon="13.0023108"><ele>477.0</ele><time>2026-05-02T08:02:13.674Z</time></trkpt><trkpt lat="43.4555016" lon="13.0022368"><ele>474.8</ele><time>2026-05-02T08:02:14.675Z</time></trkpt><trkpt lat="43.4554412" lon="13.0021426"><ele>472.6</ele><time>2026-05-02T08:02:15.673Z</time></trkpt><trkpt lat="43.4553898" lon="13.0020389"><ele>470.40000000000003</ele><time>2026-05-02T08:02:16.683Z</time></trkpt><trkpt lat="43.4553355" lon="13.00192"><ele>468.20000000000005</ele><time>2026-05-02T08:02:17.675Z</time></trkpt><trkpt lat="43.4552734" lon="13.0018035"><ele>466.0</ele><time>2026-05-02T08:02:18.671Z</time></trkpt><trkpt lat="43.4552078" lon="13.001702"><ele>469.0</ele><time>2026-05-02T08:02:19.672Z</time></trkpt><trkpt lat="43.4551394" lon="13.0015918"><ele>472.0</ele><time>2026-05-02T08:02:20.68Z</time></trkpt><trkpt lat="43.4550743" lon="13.0014757"><ele>475.0</ele><time>2026-05-02T08:02:21.67Z</time></trkpt><trkpt lat="43.4550087" lon="13.0013589"><ele>478.0</ele><time>2026-05-02T08:02:22.672Z</time></trkpt><trkpt lat="43.4549435" lon="13.0012473"><ele>481.0</ele><time>2026-05-02T08:02:23.675Z</time></trkpt><trkpt lat="43.4548727" lon="13.0011397"><ele>481.0</ele><time>2026-05-02T08:02:24.678Z</time></trkpt><trkpt lat="43.4547924" lon="13.0010464"><ele>481.0</ele><time>2026-05-02T08:02:25.676Z</time></trkpt><trkpt lat="43.4546991" lon="13.0009571"><ele>481.0</ele><time>2026-05-02T08:02:26.677Z</time></trkpt><trkpt lat="43.4546094" lon="13.0008727"><ele>481.0</ele><time>2026-05-02T08:02:27.674Z</time></trkpt><trkpt lat="43.4545323" lon="13.0007662"><ele>481.0</ele><time>2026-05-02T08:02:28.673Z</time></trkpt><trkpt lat="43.4544509" lon="13.000663"><ele>482.25</ele><time>2026-05-02T08:02:29.675Z</time></trkpt><trkpt lat="43.4543671" lon="13.0005679"><ele>483.5</ele><time>2026-05-02T08:02:30.675Z</time></trkpt><trkpt lat="43.4542764" lon="13.0004715"><ele>484.75</ele><time>2026-05-02T08:02:31.671Z</time></trkpt><trkpt lat="43.454195" lon="13.0003664"><ele>486.0</ele><time>2026-05-02T08:02:32.676Z</time></trkpt><trkpt lat="43.4541118" lon="13.0002557"><ele>486.0</ele><time>2026-05-02T08:02:33.675Z</time></trkpt><trkpt lat="43.4540268" lon="13.0001406"><ele>486.0</ele><time>2026-05-02T08:02:34.678Z</time></trkpt><trkpt lat="43.4539417" lon="13.0000301"><ele>486.0</ele><time>2026-05-02T08:02:35.675Z</time></trkpt><trkpt lat="43.4538603" lon="12.9999209"><ele>486.0</ele><time>2026-05-02T08:02:36.676Z</time></trkpt><trkpt lat="43.4537846" lon="12.9998119"><ele>490.5</ele><time>2026-05-02T08:02:37.673Z</time></trkpt><trkpt lat="43.4537036" lon="12.9997037"><ele>495.0</ele><time>2026-05-02T08:02:38.675Z</time></trkpt><trkpt lat="43.4536355" lon="12.999582"><ele>499.5</ele><time>2026-05-02T08:02:39.673Z</time></trkpt><trkpt lat="43.4535678" lon="12.9994506"><ele>504.0</ele><time>2026-05-02T08:02:40.676Z</time></trkpt><trkpt lat="43.4535114" lon="12.9993159"><ele>504.0</ele><time>2026-05-02T08:02:41.674Z</time></trkpt><trkpt lat="43.4534661" lon="12.9991751"><ele>504.0</ele><time>2026-05-02T08:02:42.676Z</time></trkpt><trkpt lat="43.4534319" lon="12.9990206"><ele>504.0</ele><time>2026-05-02T08:02:43.676Z</time></trkpt><trkpt lat="43.4533868" lon="12.9988682"><ele>504.0</ele><time>2026-05-02T08:02:44.678Z</time></trkpt><trkpt lat="43.4533371" lon="12.9987222"><ele>503.5</ele><time>2026-05-02T08:02:45.665Z</time></trkpt><trkpt lat="43.4532791" lon="12.9985773"><ele>503.0</ele><time>2026-05-02T08:02:46.672Z</time></trkpt><trkpt lat="43.4532325" lon="12.9984214"><ele>502.5</ele><time>2026-05-02T08:02:47.672Z</time></trkpt><trkpt lat="43.4531891" lon="12.998257"><ele>502.0</ele><time>2026-05-02T08:02:48.676Z</time></trkpt><trkpt lat="43.453141" lon="12.9981"><ele>502.0</ele><time>2026-05-02T08:02:49.669Z</time></trkpt><trkpt lat="43.4530815" lon="12.9979416"><ele>502.0</ele><time>2026-05-02T08:02:50.67Z</time></trkpt><trkpt lat="43.4530203" lon="12.9977794"><ele>502.0</ele><time>2026-05-02T08:02:51.671Z</time></trkpt><trkpt lat="43.4529608" lon="12.997627"><ele>502.0</ele><time>2026-05-02T08:02:52.678Z</time></trkpt><trkpt lat="43.4529049" lon="12.9974824"><ele>505.75</ele><time>2026-05-02T08:02:53.676Z</time></trkpt><trkpt lat="43.4528492" lon="12.9973433"><ele>509.5</ele><time>2026-05-02T08:02:54.682Z</time></trkpt><trkpt lat="43.4527956" lon="12.9972035"><ele>513.25</ele><time>2026-05-02T08:02:55.678Z</time></trkpt><trkpt lat="43.4527447" lon="12.9970563"><ele>517.0</ele><time>2026-05-02T08:02:56.678Z</time></trkpt><trkpt lat="43.4527091" lon="12.9968965"><ele>517.0</ele><time>2026-05-02T08:02:57.68Z</time></trkpt><trkpt lat="43.4526765" lon="12.9967245"><ele>517.0</ele><time>2026-05-02T08:02:58.677Z</time></trkpt><trkpt lat="43.4526447" lon="12.9965452"><ele>517.0</ele><time>2026-05-02T08:02:59.686Z</time></trkpt><trkpt lat="43.452614" lon="12.9963661"><ele>517.0</ele><time>2026-05-02T08:03:00.681Z</time></trkpt><trkpt lat="43.4525844" lon="12.9961793"><ele>515.25</ele><time>2026-05-02T08:03:01.682Z</time></trkpt><trkpt lat="43.4525557" lon="12.9959923"><ele>513.5</ele><time>2026-05-02T08:03:02.686Z</time></trkpt><trkpt lat="43.4525383" lon="12.9958107"><ele>511.75</ele><time>2026-05-02T08:03:03.686Z</time></trkpt><trkpt lat="43.4525269" lon="12.9956402"><ele>510.0</ele><time>2026-05-02T08:03:04.685Z</time></trkpt><trkpt lat="43.4525184" lon="12.9954626"><ele>509.75</ele><time>2026-05-02T08:03:05.687Z</time></trkpt><trkpt lat="43.4525141" lon="12.9952787"><ele>509.5</ele><time>2026-05-02T08:03:06.685Z</time></trkpt><trkpt lat="43.4525122" lon="12.9950942"><ele>509.25</ele><time>2026-05-02T08:03:07.687Z</time></trkpt><trkpt lat="43.4525186" lon="12.9949092"><ele>509.0</ele><time>2026-05-02T08:03:08.689Z</time></trkpt><trkpt lat="43.4525287" lon="12.9947288"><ele>509.0</ele><time>2026-05-02T08:03:09.688Z</time></trkpt><trkpt lat="43.4525406" lon="12.9945476"><ele>509.0</ele><time>2026-05-02T08:03:10.685Z</time></trkpt><trkpt lat="43.4525432" lon="12.9943757"><ele>509.0</ele><time>2026-05-02T08:03:11.69Z</time></trkpt><trkpt lat="43.4525336" lon="12.9942005"><ele>509.0</ele><time>2026-05-02T08:03:12.691Z</time></trkpt><trkpt lat="43.4525071" lon="12.9940243"><ele>510.75</ele><time>2026-05-02T08:03:13.691Z</time></trkpt><trkpt lat="43.4524628" lon="12.9938485"><ele>512.5</ele><time>2026-05-02T08:03:14.695Z</time></trkpt><trkpt lat="43.4524056" lon="12.9936725"><ele>514.25</ele><time>2026-05-02T08:03:15.686Z</time></trkpt><trkpt lat="43.4523441" lon="12.9935131"><ele>516.0</ele><time>2026-05-02T08:03:16.686Z</time></trkpt><trkpt lat="43.452277" lon="12.9933594"><ele>514.75</ele><time>2026-05-02T08:03:17.689Z</time></trkpt><trkpt lat="43.4522047" lon="12.9932117"><ele>513.5</ele><time>2026-05-02T08:03:18.682Z</time></trkpt><trkpt lat="43.4521386" lon="12.9930653"><ele>512.25</ele><time>2026-05-02T08:03:19.683Z</time></trkpt><trkpt lat="43.4520714" lon="12.9929253"><ele>511.0</ele><time>2026-05-02T08:03:20.694Z</time></trkpt><trkpt lat="43.4520113" lon="12.9927956"><ele>511.0</ele><time>2026-05-02T08:03:21.69Z</time></trkpt><trkpt lat="43.4519506" lon="12.9926679"><ele>511.0</ele><time>2026-05-02T08:03:22.692Z</time></trkpt><trkpt lat="43.4518852" lon="12.9925465"><ele>511.0</ele><time>2026-05-02T08:03:23.696Z</time></trkpt><trkpt lat="43.451804" lon="12.9924487"><ele>511.0</ele><time>2026-05-02T08:03:24.697Z</time></trkpt><trkpt lat="43.4517092" lon="12.9923785"><ele>511.0</ele><time>2026-05-02T08:03:25.689Z</time></trkpt><trkpt lat="43.4516064" lon="12.9923131"><ele>513.0</ele><time>2026-05-02T08:03:26.695Z</time></trkpt><trkpt lat="43.4514961" lon="12.9922364"><ele>515.0</ele><time>2026-05-02T08:03:27.693Z</time></trkpt><trkpt lat="43.4513972" lon="12.9921497"><ele>517.0</ele><time>2026-05-02T08:03:28.695Z</time></trkpt><trkpt lat="43.4513078" lon="12.9920504"><ele>519.0</ele><time>2026-05-02T08:03:29.693Z</time></trkpt><trkpt lat="43.4512138" lon="12.9919485"><ele>519.0</ele><time>2026-05-02T08:03:30.693Z</time></trkpt><trkpt lat="43.4511201" lon="12.9918419"><ele>519.0</ele><time>2026-05-02T08:03:31.692Z</time></trkpt><trkpt lat="43.4510316" lon="12.9917353"><ele>519.0</ele><time>2026-05-02T08:03:32.693Z</time></trkpt><trkpt lat="43.4509459" lon="12.9916388"><ele>519.0</ele><time>2026-05-02T08:03:33.694Z</time></trkpt><trkpt lat="43.4508547" lon="12.9915453"><ele>522.75</ele><time>2026-05-02T08:03:34.693Z</time></trkpt><trkpt lat="43.4507684" lon="12.9914426"><ele>526.5</ele><time>2026-05-02T08:03:35.691Z</time></trkpt><trkpt lat="43.4506735" lon="12.9913332"><ele>530.25</ele><time>2026-05-02T08:03:36.693Z</time></trkpt><trkpt lat="43.4505792" lon="12.9912165"><ele>534.0</ele><time>2026-05-02T08:03:37.682Z</time></trkpt><trkpt lat="43.4504897" lon="12.9910948"><ele>532.5</ele><time>2026-05-02T08:03:38.696Z</time></trkpt><trkpt lat="43.4504064" lon="12.9909725"><ele>531.0</ele><time>2026-05-02T08:03:39.687Z</time></trkpt><trkpt lat="43.450314" lon="12.9908574"><ele>529.5</ele><time>2026-05-02T08:03:40.693Z</time></trkpt><trkpt lat="43.450217" lon="12.9907551"><ele>528.0</ele><time>2026-05-02T08:03:41.688Z</time></trkpt><trkpt lat="43.450117" lon="12.9906542"><ele>531.0</ele><time>2026-05-02T08:03:42.688Z</time></trkpt><trkpt lat="43.4500142" lon="12.9905669"><ele>534.0</ele><time>2026-05-02T08:03:43.687Z</time></trkpt><trkpt lat="43.449916" lon="12.9905052"><ele>537.0</ele><time>2026-05-02T08:03:44.684Z</time></trkpt><trkpt lat="43.4498286" lon="12.9904662"><ele>540.0</ele><time>2026-05-02T08:03:45.679Z</time></trkpt><trkpt lat="43.4497599" lon="12.9904434"><ele>543.0</ele><time>2026-05-02T08:03:46.682Z</time></trkpt><trkpt lat="43.4496712" lon="12.9904153"><ele>543.0</ele><time>2026-05-02T08:03:48.692Z</time></trkpt><trkpt lat="43.4496213" lon="12.9903531"><ele>543.0</ele><time>2026-05-02T08:03:50.695Z</time></trkpt><trkpt lat="43.4496589" lon="12.990257"><ele>543.0</ele><time>2026-05-02T08:03:53.691Z</time></trkpt><trkpt lat="43.4497245" lon="12.9902661"><ele>543.0</ele><time>2026-05-02T08:03:55.69Z</time></trkpt><trkpt lat="43.449824" lon="12.9902942"><ele>543.0</ele><time>2026-05-02T08:03:57.686Z</time></trkpt><trkpt lat="43.4499451" lon="12.9903481"><ele>543.0</ele><time>2026-05-02T08:03:59.679Z</time></trkpt><trkpt lat="43.450022" lon="12.9903794"><ele>543.0</ele><time>2026-05-02T08:04:00.682Z</time></trkpt><trkpt lat="43.4501045" lon="12.9904061"><ele>543.0</ele><time>2026-05-02T08:04:01.694Z</time></trkpt><trkpt lat="43.4501889" lon="12.9904384"><ele>543.0</ele><time>2026-05-02T08:04:02.697Z</time></trkpt><trkpt lat="43.4502629" lon="12.990464"><ele>543.0</ele><time>2026-05-02T08:04:03.694Z</time></trkpt><trkpt lat="43.4503343" lon="12.9904869"><ele>543.0</ele><time>2026-05-02T08:04:04.697Z</time></trkpt><trkpt lat="43.4504001" lon="12.9905133"><ele>543.0</ele><time>2026-05-02T08:04:05.699Z</time></trkpt><trkpt lat="43.4504666" lon="12.9905428"><ele>545.0</ele><time>2026-05-02T08:04:06.703Z</time></trkpt><trkpt lat="43.4505734" lon="12.9905638"><ele>547.0</ele><time>2026-05-02T08:04:08.701Z</time></trkpt><trkpt lat="43.450641" lon="12.9905098"><ele>549.0</ele><time>2026-05-02T08:04:11.693Z</time></trkpt><trkpt lat="43.4506391" lon="12.9904196"><ele>551.0</ele><time>2026-05-02T08:04:13.695Z</time></trkpt><trkpt lat="43.4505649" lon="12.9903475"><ele>553.0</ele><time>2026-05-02T08:04:15.699Z</time></trkpt><trkpt lat="43.4504605" lon="12.9902779"><ele>551.5714285714286</ele><time>2026-05-02T08:04:17.697Z</time></trkpt><trkpt lat="43.4504014" lon="12.9902409"><ele>550.1428571428571</ele><time>2026-05-02T08:04:18.697Z</time></trkpt><trkpt lat="43.4503434" lon="12.9901973"><ele>548.7142857142858</ele><time>2026-05-02T08:04:19.684Z</time></trkpt><trkpt lat="43.4502871" lon="12.9901519"><ele>547.2857142857142</ele><time>2026-05-02T08:04:20.682Z</time></trkpt><trkpt lat="43.4502334" lon="12.9901036"><ele>545.8571428571429</ele><time>2026-05-02T08:04:21.681Z</time></trkpt><trkpt lat="43.4501726" lon="12.9900588"><ele>544.4285714285714</ele><time>2026-05-02T08:04:22.686Z</time></trkpt><trkpt lat="43.450103" lon="12.9900162"><ele>543.0</ele><time>2026-05-02T08:04:23.688Z</time></trkpt><trkpt lat="43.4500316" lon="12.9899616"><ele>546.5</ele><time>2026-05-02T08:04:24.684Z</time></trkpt><trkpt lat="43.4499577" lon="12.9898996"><ele>550.0</ele><time>2026-05-02T08:04:25.693Z</time></trkpt><trkpt lat="43.4498832" lon="12.9898452"><ele>553.5</ele><time>2026-05-02T08:04:26.693Z</time></trkpt><trkpt lat="43.4498122" lon="12.9897949"><ele>557.0</ele><time>2026-05-02T08:04:27.685Z</time></trkpt><trkpt lat="43.4497463" lon="12.9897444"><ele>560.5</ele><time>2026-05-02T08:04:28.692Z</time></trkpt><trkpt lat="43.4496838" lon="12.9896942"><ele>564.0</ele><time>2026-05-02T08:04:29.684Z</time></trkpt><trkpt lat="43.4496212" lon="12.9896317"><ele>564.0</ele><time>2026-05-02T08:04:30.679Z</time></trkpt><trkpt lat="43.4495657" lon="12.9895888"><ele>564.0</ele><time>2026-05-02T08:04:31.681Z</time></trkpt><trkpt lat="43.4494823" lon="12.9895246"><ele>564.0</ele><time>2026-05-02T08:04:33.675Z</time></trkpt><trkpt lat="43.4494055" lon="12.9894096"><ele>564.0</ele><time>2026-05-02T08:04:35.677Z</time></trkpt><trkpt lat="43.449384" lon="12.9893189"><ele>564.0</ele><time>2026-05-02T08:04:36.679Z</time></trkpt><trkpt lat="43.4493798" lon="12.989221"><ele>564.0</ele><time>2026-05-02T08:04:37.68Z</time></trkpt><trkpt lat="43.449378" lon="12.989113"><ele>566.5</ele><time>2026-05-02T08:04:38.69Z</time></trkpt><trkpt lat="43.4493659" lon="12.9890043"><ele>569.0</ele><time>2026-05-02T08:04:39.684Z</time></trkpt><trkpt lat="43.4493482" lon="12.988887"><ele>571.5</ele><time>2026-05-02T08:04:40.681Z</time></trkpt><trkpt lat="43.4493164" lon="12.9887884"><ele>574.0</ele><time>2026-05-02T08:04:41.689Z</time></trkpt><trkpt lat="43.4492711" lon="12.988697"><ele>576.5</ele><time>2026-05-02T08:04:42.687Z</time></trkpt><trkpt lat="43.4492196" lon="12.9886104"><ele>579.0</ele><time>2026-05-02T08:04:43.671Z</time></trkpt><trkpt lat="43.4491664" lon="12.9885271"><ele>579.0</ele><time>2026-05-02T08:04:44.668Z</time></trkpt><trkpt lat="43.4491186" lon="12.9884176"><ele>579.0</ele><time>2026-05-02T08:04:45.669Z</time></trkpt><trkpt lat="43.4490688" lon="12.9883125"><ele>579.0</ele><time>2026-05-02T08:04:46.674Z</time></trkpt><trkpt lat="43.4490324" lon="12.988207"><ele>579.0</ele><time>2026-05-02T08:04:47.669Z</time></trkpt><trkpt lat="43.4490138" lon="12.988073"><ele>579.0</ele><time>2026-05-02T08:04:48.669Z</time></trkpt><trkpt lat="43.448982" lon="12.9879564"><ele>577.6</ele><time>2026-05-02T08:04:49.664Z</time></trkpt><trkpt lat="43.4489363" lon="12.9878539"><ele>576.2</ele><time>2026-05-02T08:04:50.669Z</time></trkpt><trkpt lat="43.448889" lon="12.9877648"><ele>574.8000000000001</ele><time>2026-05-02T08:04:51.665Z</time></trkpt><trkpt lat="43.4488322" lon="12.9876931"><ele>573.4</ele><time>2026-05-02T08:04:52.678Z</time></trkpt><trkpt lat="43.4487397" lon="12.9876284"><ele>572.0</ele><time>2026-05-02T08:04:53.669Z</time></trkpt><trkpt lat="43.4486277" lon="12.9875873"><ele>575.75</ele><time>2026-05-02T08:04:54.666Z</time></trkpt><trkpt lat="43.448517" lon="12.9875398"><ele>579.5</ele><time>2026-05-02T08:04:55.669Z</time></trkpt><trkpt lat="43.4484145" lon="12.9874653"><ele>583.25</ele><time>2026-05-02T08:04:56.675Z</time></trkpt><trkpt lat="43.4483159" lon="12.9873778"><ele>587.0</ele><time>2026-05-02T08:04:57.674Z</time></trkpt><trkpt lat="43.4482161" lon="12.9872933"><ele>587.0</ele><time>2026-05-02T08:04:58.679Z</time></trkpt><trkpt lat="43.4481207" lon="12.9871987"><ele>587.0</ele><time>2026-05-02T08:04:59.674Z</time></trkpt><trkpt lat="43.4480349" lon="12.9871059"><ele>587.0</ele><time>2026-05-02T08:05:00.677Z</time></trkpt><trkpt lat="43.4479457" lon="12.9870258"><ele>587.0</ele><time>2026-05-02T08:05:01.677Z</time></trkpt><trkpt lat="43.447857" lon="12.9869329"><ele>587.0</ele><time>2026-05-02T08:05:02.677Z</time></trkpt><trkpt lat="43.4477789" lon="12.9868426"><ele>589.0</ele><time>2026-05-02T08:05:03.676Z</time></trkpt><trkpt lat="43.4477093" lon="12.9867467"><ele>591.0</ele><time>2026-05-02T08:05:04.678Z</time></trkpt><trkpt lat="43.4476417" lon="12.9866494"><ele>593.0</ele><time>2026-05-02T08:05:05.683Z</time></trkpt><trkpt lat="43.4475738" lon="12.986558"><ele>595.0</ele><time>2026-05-02T08:05:06.687Z</time></trkpt><trkpt lat="43.447508" lon="12.9864635"><ele>597.0</ele><time>2026-05-02T08:05:07.675Z</time></trkpt><trkpt lat="43.4474439" lon="12.9863556"><ele>597.0</ele><time>2026-05-02T08:05:08.678Z</time></trkpt><trkpt lat="43.4473754" lon="12.9862462"><ele>597.0</ele><time>2026-05-02T08:05:09.675Z</time></trkpt><trkpt lat="43.4473088" lon="12.9861237"><ele>597.0</ele><time>2026-05-02T08:05:10.678Z</time></trkpt><trkpt lat="43.447232" lon="12.9860034"><ele>597.0</ele><time>2026-05-02T08:05:11.678Z</time></trkpt><trkpt lat="43.4471578" lon="12.9858771"><ele>602.5</ele><time>2026-05-02T08:05:12.672Z</time></trkpt><trkpt lat="43.4470904" lon="12.985752"><ele>608.0</ele><time>2026-05-02T08:05:13.668Z</time></trkpt><trkpt lat="43.4470192" lon="12.9856296"><ele>613.5</ele><time>2026-05-02T08:05:14.678Z</time></trkpt><trkpt lat="43.4469409" lon="12.9855142"><ele>619.0</ele><time>2026-05-02T08:05:15.672Z</time></trkpt><trkpt lat="43.4468663" lon="12.9853996"><ele>619.0</ele><time>2026-05-02T08:05:16.672Z</time></trkpt><trkpt lat="43.4467933" lon="12.9852847"><ele>619.0</ele><time>2026-05-02T08:05:17.667Z</time></trkpt><trkpt lat="43.4467149" lon="12.9851751"><ele>619.0</ele><time>2026-05-02T08:05:18.675Z</time></trkpt><trkpt lat="43.4466407" lon="12.9850617"><ele>619.0</ele><time>2026-05-02T08:05:19.672Z</time></trkpt><trkpt lat="43.4465711" lon="12.9849455"><ele>619.0</ele><time>2026-05-02T08:05:20.672Z</time></trkpt><trkpt lat="43.4464992" lon="12.9848354"><ele>622.8</ele><time>2026-05-02T08:05:21.674Z</time></trkpt><trkpt lat="43.4464267" lon="12.9847243"><ele>626.5999999999999</ele><time>2026-05-02T08:05:22.675Z</time></trkpt><trkpt lat="43.4463564" lon="12.9846128"><ele>630.4</ele><time>2026-05-02T08:05:23.672Z</time></trkpt><trkpt lat="43.4462858" lon="12.9844956"><ele>634.1999999999999</ele><time>2026-05-02T08:05:24.674Z</time></trkpt><trkpt lat="43.4462157" lon="12.9843775"><ele>638.0</ele><time>2026-05-02T08:05:25.671Z</time></trkpt><trkpt lat="43.4461429" lon="12.9842565"><ele>632.5</ele><time>2026-05-02T08:05:26.673Z</time></trkpt><trkpt lat="43.4460659" lon="12.9841335"><ele>627.0</ele><time>2026-05-02T08:05:27.667Z</time></trkpt><trkpt lat="43.4459916" lon="12.9840125"><ele>621.5</ele><time>2026-05-02T08:05:28.671Z</time></trkpt><trkpt lat="43.4459189" lon="12.9838954"><ele>616.0</ele><time>2026-05-02T08:05:29.665Z</time></trkpt><trkpt lat="43.4458542" lon="12.9837669"><ele>616.0</ele><time>2026-05-02T08:05:30.668Z</time></trkpt><trkpt lat="43.4457913" lon="12.9836412"><ele>616.0</ele><time>2026-05-02T08:05:31.67Z</time></trkpt><trkpt lat="43.4457163" lon="12.9835289"><ele>616.0</ele><time>2026-05-02T08:05:32.665Z</time></trkpt><trkpt lat="43.4456432" lon="12.9834171"><ele>616.0</ele><time>2026-05-02T08:05:33.671Z</time></trkpt><trkpt lat="43.4455667" lon="12.9832947"><ele>616.0</ele><time>2026-05-02T08:05:34.667Z</time></trkpt><trkpt lat="43.4454954" lon="12.9831689"><ele>621.75</ele><time>2026-05-02T08:05:35.668Z</time></trkpt><trkpt lat="43.4454288" lon="12.9830333"><ele>627.5</ele><time>2026-05-02T08:05:36.662Z</time></trkpt><trkpt lat="43.4453652" lon="12.9828941"><ele>633.25</ele><time>2026-05-02T08:05:37.668Z</time></trkpt><trkpt lat="43.4452978" lon="12.9827608"><ele>639.0</ele><time>2026-05-02T08:05:38.663Z</time></trkpt><trkpt lat="43.4452396" lon="12.9826154"><ele>634.25</ele><time>2026-05-02T08:05:39.666Z</time></trkpt><trkpt lat="43.4451786" lon="12.9824672"><ele>629.5</ele><time>2026-05-02T08:05:40.663Z</time></trkpt><trkpt lat="43.4451182" lon="12.9823111"><ele>624.75</ele><time>2026-05-02T08:05:41.665Z</time></trkpt><trkpt lat="43.4450605" lon="12.9821505"><ele>620.0</ele><time>2026-05-02T08:05:42.664Z</time></trkpt><trkpt lat="43.4450069" lon="12.981991"><ele>620.0</ele><time>2026-05-02T08:05:43.665Z</time></trkpt><trkpt lat="43.4449507" lon="12.9818398"><ele>620.0</ele><time>2026-05-02T08:05:44.668Z</time></trkpt><trkpt lat="43.4448982" lon="12.9816986"><ele>620.0</ele><time>2026-05-02T08:05:45.669Z</time></trkpt><trkpt lat="43.4448503" lon="12.9815703"><ele>620.0</ele><time>2026-05-02T08:05:46.661Z</time></trkpt><trkpt lat="43.4448141" lon="12.981449"><ele>620.0</ele><time>2026-05-02T08:05:47.659Z</time></trkpt><trkpt lat="43.4447893" lon="12.9813432"><ele>617.6666666666666</ele><time>2026-05-02T08:05:48.665Z</time></trkpt><trkpt lat="43.4447686" lon="12.9812424"><ele>615.3333333333333</ele><time>2026-05-02T08:05:49.666Z</time></trkpt><trkpt lat="43.4447506" lon="12.9811565"><ele>613.0</ele><time>2026-05-02T08:05:50.664Z</time></trkpt><trkpt lat="43.4447135" lon="12.9810182"><ele>610.6666666666666</ele><time>2026-05-02T08:05:52.673Z</time></trkpt><trkpt lat="43.4447202" lon="12.9808592"><ele>608.3333333333334</ele><time>2026-05-02T08:05:54.664Z</time></trkpt><trkpt lat="43.4447474" lon="12.9807647"><ele>606.0</ele><time>2026-05-02T08:05:55.659Z</time></trkpt><trkpt lat="43.4447854" lon="12.9806726"><ele>605.0</ele><time>2026-05-02T08:05:56.66Z</time></trkpt><trkpt lat="43.4448414" lon="12.9805791"><ele>604.0</ele><time>2026-05-02T08:05:57.664Z</time></trkpt><trkpt lat="43.4448961" lon="12.9804811"><ele>603.0</ele><time>2026-05-02T08:05:58.662Z</time></trkpt><trkpt lat="43.4449454" lon="12.9803657"><ele>602.0</ele><time>2026-05-02T08:05:59.666Z</time></trkpt><trkpt lat="43.4449861" lon="12.9802428"><ele>601.0</ele><time>2026-05-02T08:06:00.667Z</time></trkpt><trkpt lat="43.445013" lon="12.980099"><ele>603.75</ele><time>2026-05-02T08:06:01.672Z</time></trkpt><trkpt lat="43.44503" lon="12.9799434"><ele>606.5</ele><time>2026-05-02T08:06:02.655Z</time></trkpt><trkpt lat="43.4450463" lon="12.9797787"><ele>609.25</ele><time>2026-05-02T08:06:03.659Z</time></trkpt><trkpt lat="43.4450596" lon="12.9796087"><ele>612.0</ele><time>2026-05-02T08:06:04.659Z</time></trkpt><trkpt lat="43.4450744" lon="12.9794498"><ele>612.0</ele><time>2026-05-02T08:06:05.661Z</time></trkpt><trkpt lat="43.4450955" lon="12.9793086"><ele>612.0</ele><time>2026-05-02T08:06:06.66Z</time></trkpt><trkpt lat="43.4451258" lon="12.9791749"><ele>612.0</ele><time>2026-05-02T08:06:07.662Z</time></trkpt><trkpt lat="43.445165" lon="12.9790559"><ele>612.0</ele><time>2026-05-02T08:06:08.66Z</time></trkpt><trkpt lat="43.4452025" lon="12.97894"><ele>612.0</ele><time>2026-05-02T08:06:09.659Z</time></trkpt><trkpt lat="43.4452321" lon="12.9788302"><ele>613.0</ele><time>2026-05-02T08:06:10.657Z</time></trkpt><trkpt lat="43.4452502" lon="12.9787166"><ele>614.0</ele><time>2026-05-02T08:06:11.664Z</time></trkpt><trkpt lat="43.4452545" lon="12.9786127"><ele>615.0</ele><time>2026-05-02T08:06:12.661Z</time></trkpt><trkpt lat="43.4452532" lon="12.9785159"><ele>616.0</ele><time>2026-05-02T08:06:13.665Z</time></trkpt><trkpt lat="43.445268" lon="12.9784143"><ele>617.0</ele><time>2026-05-02T08:06:14.667Z</time></trkpt><trkpt lat="43.445307" lon="12.9783261"><ele>618.0</ele><time>2026-05-02T08:06:15.665Z</time></trkpt><trkpt lat="43.4453541" lon="12.97824"><ele>619.0</ele><time>2026-05-02T08:06:16.663Z</time></trkpt><trkpt lat="43.4454128" lon="12.9781547"><ele>620.0</ele><time>2026-05-02T08:06:17.665Z</time></trkpt><trkpt lat="43.4454714" lon="12.978067"><ele>621.0</ele><time>2026-05-02T08:06:18.664Z</time></trkpt><trkpt lat="43.4455203" lon="12.9779708"><ele>622.0</ele><time>2026-05-02T08:06:19.673Z</time></trkpt><trkpt lat="43.4455611" lon="12.9778716"><ele>623.0</ele><time>2026-05-02T08:06:20.664Z</time></trkpt><trkpt lat="43.4455901" lon="12.9777773"><ele>624.0</ele><time>2026-05-02T08:06:21.673Z</time></trkpt><trkpt lat="43.4456056" lon="12.977674"><ele>624.8</ele><time>2026-05-02T08:06:22.668Z</time></trkpt><trkpt lat="43.4456029" lon="12.9775573"><ele>625.5999999999999</ele><time>2026-05-02T08:06:23.668Z</time></trkpt><trkpt lat="43.4455807" lon="12.9774331"><ele>626.4</ele><time>2026-05-02T08:06:24.673Z</time></trkpt><trkpt lat="43.4455431" lon="12.9772972"><ele>627.1999999999999</ele><time>2026-05-02T08:06:25.676Z</time></trkpt><trkpt lat="43.4454985" lon="12.9771649"><ele>628.0</ele><time>2026-05-02T08:06:26.673Z</time></trkpt><trkpt lat="43.4454554" lon="12.9770195"><ele>628.0</ele><time>2026-05-02T08:06:27.667Z</time></trkpt><trkpt lat="43.4454144" lon="12.9768649"><ele>628.0</ele><time>2026-05-02T08:06:28.67Z</time></trkpt><trkpt lat="43.4453638" lon="12.976718"><ele>628.0</ele><time>2026-05-02T08:06:29.666Z</time></trkpt><trkpt lat="43.4453161" lon="12.9765684"><ele>628.0</ele><time>2026-05-02T08:06:30.661Z</time></trkpt><trkpt lat="43.4452688" lon="12.9764079"><ele>627.3333333333334</ele><time>2026-05-02T08:06:31.67Z</time></trkpt><trkpt lat="43.4452125" lon="12.9762318"><ele>626.6666666666666</ele><time>2026-05-02T08:06:32.659Z</time></trkpt><trkpt lat="43.4451563" lon="12.9760217"><ele>626.0</ele><time>2026-05-02T08:06:33.659Z</time></trkpt><trkpt lat="43.4451071" lon="12.9757979"><ele>624.75</ele><time>2026-05-02T08:06:34.645Z</time></trkpt><trkpt lat="43.4450581" lon="12.9755817"><ele>623.5</ele><time>2026-05-02T08:06:35.648Z</time></trkpt><trkpt lat="43.4450052" lon="12.9754024"><ele>622.25</ele><time>2026-05-02T08:06:36.65Z</time></trkpt><trkpt lat="43.4449435" lon="12.9752592"><ele>621.0</ele><time>2026-05-02T08:06:37.652Z</time></trkpt><trkpt lat="43.4448779" lon="12.9751172"><ele>621.0</ele><time>2026-05-02T08:06:38.65Z</time></trkpt><trkpt lat="43.444815" lon="12.9750274"><ele>621.0</ele><time>2026-05-02T08:06:39.662Z</time></trkpt><trkpt lat="43.4447425" lon="12.9749816"><ele>621.0</ele><time>2026-05-02T08:06:40.665Z</time></trkpt><trkpt lat="43.4446708" lon="12.9749553"><ele>621.0</ele><time>2026-05-02T08:06:41.669Z</time></trkpt><trkpt lat="43.4446066" lon="12.9749377"><ele>621.0</ele><time>2026-05-02T08:06:42.665Z</time></trkpt><trkpt lat="43.4445312" lon="12.9748948"><ele>621.0</ele><time>2026-05-02T08:06:43.668Z</time></trkpt><trkpt lat="43.4444479" lon="12.97482"><ele>622.8</ele><time>2026-05-02T08:06:44.655Z</time></trkpt><trkpt lat="43.4443607" lon="12.974743"><ele>624.6</ele><time>2026-05-02T08:06:45.658Z</time></trkpt><trkpt lat="43.4442759" lon="12.9746696"><ele>626.4</ele><time>2026-05-02T08:06:46.658Z</time></trkpt><trkpt lat="43.4441932" lon="12.9745833"><ele>628.2</ele><time>2026-05-02T08:06:47.665Z</time></trkpt><trkpt lat="43.4441099" lon="12.9744933"><ele>630.0</ele><time>2026-05-02T08:06:48.664Z</time></trkpt><trkpt lat="43.4440225" lon="12.974408"><ele>630.0</ele><time>2026-05-02T08:06:49.665Z</time></trkpt><trkpt lat="43.4439372" lon="12.9743203"><ele>630.0</ele><time>2026-05-02T08:06:50.665Z</time></trkpt><trkpt lat="43.4438516" lon="12.9742381"><ele>630.0</ele><time>2026-05-02T08:06:51.658Z</time></trkpt><trkpt lat="43.4437655" lon="12.9741607"><ele>630.0</ele><time>2026-05-02T08:06:52.659Z</time></trkpt><trkpt lat="43.4436847" lon="12.9740838"><ele>630.0</ele><time>2026-05-02T08:06:53.661Z</time></trkpt><trkpt lat="43.4436126" lon="12.9740109"><ele>630.6</ele><time>2026-05-02T08:06:54.659Z</time></trkpt><trkpt lat="43.4435533" lon="12.9739465"><ele>631.2</ele><time>2026-05-02T08:06:55.66Z</time></trkpt><trkpt lat="43.4435005" lon="12.973888"><ele>631.8</ele><time>2026-05-02T08:06:56.657Z</time></trkpt><trkpt lat="43.4434063" lon="12.9737933"><ele>632.4</ele><time>2026-05-02T08:06:58.66Z</time></trkpt><trkpt lat="43.4432838" lon="12.9737475"><ele>633.0</ele><time>2026-05-02T08:07:00.662Z</time></trkpt><trkpt lat="43.4432123" lon="12.9737567"><ele>633.0</ele><time>2026-05-02T08:07:01.678Z</time></trkpt><trkpt lat="43.4431329" lon="12.9737774"><ele>633.0</ele><time>2026-05-02T08:07:02.666Z</time></trkpt><trkpt lat="43.4430514" lon="12.9738052"><ele>633.0</ele><time>2026-05-02T08:07:03.671Z</time></trkpt><trkpt lat="43.4429731" lon="12.9738311"><ele>633.0</ele><time>2026-05-02T08:07:04.664Z</time></trkpt><trkpt lat="43.4428928" lon="12.9738601"><ele>633.0</ele><time>2026-05-02T08:07:05.668Z</time></trkpt><trkpt lat="43.4428034" lon="12.9738874"><ele>633.0</ele><time>2026-05-02T08:07:06.671Z</time></trkpt><trkpt lat="43.4427068" lon="12.9739167"><ele>633.1999999999999</ele><time>2026-05-02T08:07:07.669Z</time></trkpt><trkpt lat="43.4426094" lon="12.9739411"><ele>633.4</ele><time>2026-05-02T08:07:08.668Z</time></trkpt><trkpt lat="43.4425079" lon="12.9739708"><ele>633.5999999999999</ele><time>2026-05-02T08:07:09.675Z</time></trkpt><trkpt lat="43.4424036" lon="12.9740116"><ele>633.8</ele><time>2026-05-02T08:07:10.672Z</time></trkpt><trkpt lat="43.4423012" lon="12.9740485"><ele>634.0</ele><time>2026-05-02T08:07:11.67Z</time></trkpt><trkpt lat="43.4422059" lon="12.9740797"><ele>635.1666666666667</ele><time>2026-05-02T08:07:12.667Z</time></trkpt><trkpt lat="43.4421077" lon="12.974116"><ele>636.3333333333334</ele><time>2026-05-02T08:07:13.668Z</time></trkpt><trkpt lat="43.4420107" lon="12.9741404"><ele>637.5</ele><time>2026-05-02T08:07:14.665Z</time></trkpt><trkpt lat="43.4419205" lon="12.974144"><ele>638.6666666666666</ele><time>2026-05-02T08:07:15.67Z</time></trkpt><trkpt lat="43.4418365" lon="12.9741434"><ele>639.8333333333333</ele><time>2026-05-02T08:07:16.661Z</time></trkpt><trkpt lat="43.4417796" lon="12.9741806"><ele>641.0</ele><time>2026-05-02T08:07:17.663Z</time></trkpt><trkpt lat="43.4417231" lon="12.9742258"><ele>641.0</ele><time>2026-05-02T08:07:18.655Z</time></trkpt><trkpt lat="43.4416655" lon="12.9742616"><ele>641.0</ele><time>2026-05-02T08:07:19.657Z</time></trkpt><trkpt lat="43.4415729" lon="12.9743249"><ele>641.0</ele><time>2026-05-02T08:07:21.664Z</time></trkpt><trkpt lat="43.441514" lon="12.9744351"><ele>641.0</ele><time>2026-05-02T08:07:23.665Z</time></trkpt><trkpt lat="43.4415034" lon="12.9745263"><ele>641.0</ele><time>2026-05-02T08:07:24.661Z</time></trkpt><trkpt lat="43.4415051" lon="12.9746237"><ele>641.0</ele><time>2026-05-02T08:07:25.667Z</time></trkpt><trkpt lat="43.4415191" lon="12.9747287"><ele>641.0</ele><time>2026-05-02T08:07:26.667Z</time></trkpt><trkpt lat="43.4415436" lon="12.9748333"><ele>641.0</ele><time>2026-05-02T08:07:27.667Z</time></trkpt><trkpt lat="43.4415659" lon="12.9749361"><ele>641.0</ele><time>2026-05-02T08:07:28.666Z</time></trkpt><trkpt lat="43.4415843" lon="12.9750214"><ele>641.0</ele><time>2026-05-02T08:07:29.665Z</time></trkpt><trkpt lat="43.4415781" lon="12.9751807"><ele>641.0</ele><time>2026-05-02T08:07:31.665Z</time></trkpt><trkpt lat="43.4415074" lon="12.9753013"><ele>642.6666666666666</ele><time>2026-05-02T08:07:33.668Z</time></trkpt><trkpt lat="43.4414428" lon="12.9753388"><ele>644.3333333333333</ele><time>2026-05-02T08:07:34.668Z</time></trkpt><trkpt lat="43.4413639" lon="12.9753674"><ele>646.0</ele><time>2026-05-02T08:07:35.664Z</time></trkpt><trkpt lat="43.4412784" lon="12.9753967"><ele>647.6666666666666</ele><time>2026-05-02T08:07:36.666Z</time></trkpt><trkpt lat="43.4411965" lon="12.975414"><ele>649.3333333333334</ele><time>2026-05-02T08:07:37.668Z</time></trkpt><trkpt lat="43.4411149" lon="12.9754336"><ele>651.0</ele><time>2026-05-02T08:07:38.657Z</time></trkpt><trkpt lat="43.4410234" lon="12.9754462"><ele>651.5999999999999</ele><time>2026-05-02T08:07:39.663Z</time></trkpt><trkpt lat="43.4409213" lon="12.9754494"><ele>652.2</ele><time>2026-05-02T08:07:40.662Z</time></trkpt><trkpt lat="43.4408206" lon="12.9754465"><ele>652.8</ele><time>2026-05-02T08:07:41.662Z</time></trkpt><trkpt lat="43.4407242" lon="12.975438"><ele>653.4000000000001</ele><time>2026-05-02T08:07:42.677Z</time></trkpt><trkpt lat="43.440622" lon="12.9754296"><ele>654.0</ele><time>2026-05-02T08:07:43.675Z</time></trkpt><trkpt lat="43.4405204" lon="12.9754205"><ele>655.8000000000001</ele><time>2026-05-02T08:07:44.675Z</time></trkpt><trkpt lat="43.4404264" lon="12.975395"><ele>657.6</ele><time>2026-05-02T08:07:45.673Z</time></trkpt><trkpt lat="43.4403384" lon="12.9753697"><ele>659.4</ele><time>2026-05-02T08:07:46.678Z</time></trkpt><trkpt lat="43.4402495" lon="12.9753531"><ele>661.2</ele><time>2026-05-02T08:07:47.673Z</time></trkpt><trkpt lat="43.4401498" lon="12.9753377"><ele>663.0</ele><time>2026-05-02T08:07:48.673Z</time></trkpt><trkpt lat="43.4400474" lon="12.9753147"><ele>663.0</ele><time>2026-05-02T08:07:49.669Z</time></trkpt><trkpt lat="43.4399486" lon="12.9752811"><ele>663.0</ele><time>2026-05-02T08:07:50.673Z</time></trkpt><trkpt lat="43.4398457" lon="12.975247"><ele>663.0</ele><time>2026-05-02T08:07:51.674Z</time></trkpt><trkpt lat="43.4397375" lon="12.975207"><ele>663.0</ele><time>2026-05-02T08:07:52.675Z</time></trkpt><trkpt lat="43.4396263" lon="12.9751633"><ele>663.0</ele><time>2026-05-02T08:07:53.673Z</time></trkpt><trkpt lat="43.4395107" lon="12.9751254"><ele>665.0</ele><time>2026-05-02T08:07:54.674Z</time></trkpt><trkpt lat="43.4394005" lon="12.9750915"><ele>667.0</ele><time>2026-05-02T08:07:55.676Z</time></trkpt><trkpt lat="43.4392989" lon="12.9750419"><ele>669.0</ele><time>2026-05-02T08:07:56.672Z</time></trkpt><trkpt lat="43.439202" lon="12.9749922"><ele>671.0</ele><time>2026-05-02T08:07:57.671Z</time></trkpt><trkpt lat="43.4391133" lon="12.9749462"><ele>673.0</ele><time>2026-05-02T08:07:58.671Z</time></trkpt><trkpt lat="43.4390201" lon="12.9749121"><ele>665.8</ele><time>2026-05-02T08:07:59.676Z</time></trkpt><trkpt lat="43.4389206" lon="12.9748919"><ele>658.5999999999999</ele><time>2026-05-02T08:08:00.675Z</time></trkpt><trkpt lat="43.438824" lon="12.9748879"><ele>651.4000000000001</ele><time>2026-05-02T08:08:01.681Z</time></trkpt><trkpt lat="43.4387195" lon="12.9748944"><ele>644.2</ele><time>2026-05-02T08:08:02.673Z</time></trkpt><trkpt lat="43.4386153" lon="12.9749138"><ele>637.0</ele><time>2026-05-02T08:08:03.672Z</time></trkpt><trkpt lat="43.4385079" lon="12.97494"><ele>636.8000000000001</ele><time>2026-05-02T08:08:04.668Z</time></trkpt><trkpt lat="43.4384029" lon="12.9749596"><ele>636.6</ele><time>2026-05-02T08:08:05.671Z</time></trkpt><trkpt lat="43.4382976" lon="12.9749774"><ele>636.4000000000001</ele><time>2026-05-02T08:08:06.666Z</time></trkpt><trkpt lat="43.4381985" lon="12.9749854"><ele>636.2</ele><time>2026-05-02T08:08:07.664Z</time></trkpt><trkpt lat="43.4381123" lon="12.9749969"><ele>636.0</ele><time>2026-05-02T08:08:08.666Z</time></trkpt><trkpt lat="43.4380335" lon="12.9750016"><ele>638.5</ele><time>2026-05-02T08:08:09.663Z</time></trkpt><trkpt lat="43.4379587" lon="12.9750068"><ele>641.0</ele><time>2026-05-02T08:08:10.663Z</time></trkpt><trkpt lat="43.4378838" lon="12.974993"><ele>643.5</ele><time>2026-05-02T08:08:11.673Z</time></trkpt><trkpt lat="43.437812" lon="12.9749565"><ele>646.0</ele><time>2026-05-02T08:08:12.661Z</time></trkpt><trkpt lat="43.4377423" lon="12.9748935"><ele>648.5</ele><time>2026-05-02T08:08:13.667Z</time></trkpt><trkpt lat="43.4376811" lon="12.9748123"><ele>651.0</ele><time>2026-05-02T08:08:14.67Z</time></trkpt><trkpt lat="43.4376115" lon="12.9747299"><ele>651.0</ele><time>2026-05-02T08:08:15.67Z</time></trkpt><trkpt lat="43.4375389" lon="12.9746339"><ele>651.0</ele><time>2026-05-02T08:08:16.671Z</time></trkpt><trkpt lat="43.4374621" lon="12.9745507"><ele>651.0</ele><time>2026-05-02T08:08:17.673Z</time></trkpt><trkpt lat="43.4373846" lon="12.9744669"><ele>651.0</ele><time>2026-05-02T08:08:18.67Z</time></trkpt><trkpt lat="43.4373087" lon="12.9744002"><ele>651.0</ele><time>2026-05-02T08:08:19.673Z</time></trkpt><trkpt lat="43.4372352" lon="12.9743512"><ele>651.0</ele><time>2026-05-02T08:08:20.67Z</time></trkpt><trkpt lat="43.4371644" lon="12.9743212"><ele>651.0</ele><time>2026-05-02T08:08:21.672Z</time></trkpt><trkpt lat="43.4370941" lon="12.9743017"><ele>651.0</ele><time>2026-05-02T08:08:22.672Z</time></trkpt><trkpt lat="43.4370139" lon="12.9743079"><ele>651.0</ele><time>2026-05-02T08:08:23.672Z</time></trkpt><trkpt lat="43.4369295" lon="12.9743293"><ele>651.0</ele><time>2026-05-02T08:08:24.668Z</time></trkpt><trkpt lat="43.4368473" lon="12.9743758"><ele>651.0</ele><time>2026-05-02T08:08:25.672Z</time></trkpt><trkpt lat="43.4367733" lon="12.9744435"><ele>651.5714285714286</ele><time>2026-05-02T08:08:26.667Z</time></trkpt><trkpt lat="43.4367111" lon="12.9745181"><ele>652.1428571428571</ele><time>2026-05-02T08:08:27.667Z</time></trkpt><trkpt lat="43.4366592" lon="12.9745928"><ele>652.7142857142858</ele><time>2026-05-02T08:08:28.668Z</time></trkpt><trkpt lat="43.4366078" lon="12.974662"><ele>653.2857142857142</ele><time>2026-05-02T08:08:29.67Z</time></trkpt><trkpt lat="43.4365541" lon="12.9747184"><ele>653.8571428571429</ele><time>2026-05-02T08:08:30.67Z</time></trkpt><trkpt lat="43.436496" lon="12.9747608"><ele>654.4285714285714</ele><time>2026-05-02T08:08:31.673Z</time></trkpt><trkpt lat="43.4364278" lon="12.9747839"><ele>655.0</ele><time>2026-05-02T08:08:32.665Z</time></trkpt><trkpt lat="43.4363603" lon="12.9747831"><ele>655.3333333333334</ele><time>2026-05-02T08:08:33.67Z</time></trkpt><trkpt lat="43.4362912" lon="12.9747552"><ele>655.6666666666667</ele><time>2026-05-02T08:08:34.669Z</time></trkpt><trkpt lat="43.4362307" lon="12.9747127"><ele>656.0</ele><time>2026-05-02T08:08:35.67Z</time></trkpt><trkpt lat="43.4361706" lon="12.9746507"><ele>656.3333333333334</ele><time>2026-05-02T08:08:36.67Z</time></trkpt><trkpt lat="43.4361124" lon="12.974577"><ele>656.6666666666666</ele><time>2026-05-02T08:08:37.674Z</time></trkpt><trkpt lat="43.436044" lon="12.9744961"><ele>657.0</ele><time>2026-05-02T08:08:38.661Z</time></trkpt><trkpt lat="43.4359658" lon="12.9744224"><ele>657.0</ele><time>2026-05-02T08:08:39.669Z</time></trkpt><trkpt lat="43.4358829" lon="12.9743597"><ele>657.0</ele><time>2026-05-02T08:08:40.666Z</time></trkpt><trkpt lat="43.4358012" lon="12.9743093"><ele>657.0</ele><time>2026-05-02T08:08:41.666Z</time></trkpt><trkpt lat="43.4357183" lon="12.9742677"><ele>657.0</ele><time>2026-05-02T08:08:42.669Z</time></trkpt><trkpt lat="43.4356404" lon="12.9742232"><ele>657.0</ele><time>2026-05-02T08:08:43.665Z</time></trkpt><trkpt lat="43.4355695" lon="12.9741848"><ele>657.0</ele><time>2026-05-02T08:08:44.669Z</time></trkpt><trkpt lat="43.4354952" lon="12.9741617"><ele>657.6666666666666</ele><time>2026-05-02T08:08:45.665Z</time></trkpt><trkpt lat="43.4354092" lon="12.9741637"><ele>658.3333333333334</ele><time>2026-05-02T08:08:46.664Z</time></trkpt><trkpt lat="43.4353214" lon="12.9741831"><ele>659.0</ele><time>2026-05-02T08:08:47.664Z</time></trkpt><trkpt lat="43.4352372" lon="12.9741988"><ele>659.6666666666667</ele><time>2026-05-02T08:08:48.669Z</time></trkpt><trkpt lat="43.4351483" lon="12.9742048"><ele>660.3333333333334</ele><time>2026-05-02T08:08:49.672Z</time></trkpt><trkpt lat="43.4350643" lon="12.9742235"><ele>661.0</ele><time>2026-05-02T08:08:50.673Z</time></trkpt><trkpt lat="43.4349778" lon="12.9742269"><ele>656.3333333333334</ele><time>2026-05-02T08:08:51.664Z</time></trkpt><trkpt lat="43.434909" lon="12.9741852"><ele>651.6666666666667</ele><time>2026-05-02T08:08:52.666Z</time></trkpt><trkpt lat="43.4348515" lon="12.9740788"><ele>647.0</ele><time>2026-05-02T08:08:54.662Z</time></trkpt><trkpt lat="43.4348344" lon="12.9739918"><ele>642.3333333333334</ele><time>2026-05-02T08:08:55.658Z</time></trkpt><trkpt lat="43.4348194" lon="12.9738945"><ele>637.6666666666666</ele><time>2026-05-02T08:08:56.653Z</time></trkpt><trkpt lat="43.4347941" lon="12.9737819"><ele>633.0</ele><time>2026-05-02T08:08:57.657Z</time></trkpt><trkpt lat="43.4347766" lon="12.9736701"><ele>633.0</ele><time>2026-05-02T08:08:58.658Z</time></trkpt><trkpt lat="43.4347569" lon="12.973551"><ele>633.0</ele><time>2026-05-02T08:08:59.666Z</time></trkpt><trkpt lat="43.4347447" lon="12.973427"><ele>633.0</ele><time>2026-05-02T08:09:00.665Z</time></trkpt><trkpt lat="43.4347313" lon="12.9733019"><ele>633.0</ele><time>2026-05-02T08:09:01.669Z</time></trkpt><trkpt lat="43.4347141" lon="12.9731794"><ele>633.0</ele><time>2026-05-02T08:09:02.669Z</time></trkpt><trkpt lat="43.4347003" lon="12.9730646"><ele>633.0</ele><time>2026-05-02T08:09:03.674Z</time></trkpt><trkpt lat="43.4346909" lon="12.9729684"><ele>629.1428571428571</ele><time>2026-05-02T08:09:04.67Z</time></trkpt><trkpt lat="43.4346879" lon="12.9728512"><ele>625.2857142857143</ele><time>2026-05-02T08:09:06.662Z</time></trkpt><trkpt lat="43.4347014" lon="12.9727549"><ele>621.4285714285714</ele><time>2026-05-02T08:09:08.667Z</time></trkpt><trkpt lat="43.4347156" lon="12.9726628"><ele>617.5714285714286</ele><time>2026-05-02T08:09:20.664Z</time></trkpt><trkpt lat="43.4347307" lon="12.9725762"><ele>613.7142857142857</ele><time>2026-05-02T08:09:28.674Z</time></trkpt><trkpt lat="43.434698" lon="12.9726566"><ele>609.8571428571429</ele><time>2026-05-02T08:10:23.66Z</time></trkpt><trkpt lat="43.4347551" lon="12.9727062"><ele>606.0</ele><time>2026-05-02T08:15:04.651Z</time></trkpt><trkpt lat="43.4346879" lon="12.9726963"><ele>610.4</ele><time>2026-05-02T08:15:51.663Z</time></trkpt><trkpt lat="43.4346148" lon="12.9726141"><ele>614.8</ele><time>2026-05-02T08:16:01.657Z</time></trkpt><trkpt lat="43.4345357" lon="12.9725698"><ele>619.1999999999999</ele><time>2026-05-02T08:16:03.648Z</time></trkpt><trkpt lat="43.4344469" lon="12.9724794"><ele>623.6</ele><time>2026-05-02T08:16:05.647Z</time></trkpt><trkpt lat="43.4344143" lon="12.9723395"><ele>628.0</ele><time>2026-05-02T08:16:07.649Z</time></trkpt><trkpt lat="43.4343784" lon="12.9722508"><ele>628.0</ele><time>2026-05-02T08:16:08.66Z</time></trkpt><trkpt lat="43.434324" lon="12.9721521"><ele>628.0</ele><time>2026-05-02T08:16:09.665Z</time></trkpt><trkpt lat="43.4342495" lon="12.9720539"><ele>628.0</ele><time>2026-05-02T08:16:10.663Z</time></trkpt><trkpt lat="43.4341614" lon="12.9719518"><ele>628.0</ele><time>2026-05-02T08:16:11.663Z</time></trkpt><trkpt lat="43.4340768" lon="12.9718403"><ele>628.0</ele><time>2026-05-02T08:16:12.655Z</time></trkpt><trkpt lat="43.4340026" lon="12.971715"><ele>631.5999999999999</ele><time>2026-05-02T08:16:13.664Z</time></trkpt><trkpt lat="43.4339477" lon="12.971583"><ele>635.1999999999999</ele><time>2026-05-02T08:16:14.657Z</time></trkpt><trkpt lat="43.4338978" lon="12.9714502"><ele>638.8</ele><time>2026-05-02T08:16:15.664Z</time></trkpt><trkpt lat="43.4338486" lon="12.9713283"><ele>642.4</ele><time>2026-05-02T08:16:16.667Z</time></trkpt><trkpt lat="43.4338026" lon="12.9712073"><ele>646.0</ele><time>2026-05-02T08:16:17.669Z</time></trkpt><trkpt lat="43.4337647" lon="12.9710921"><ele>646.0</ele><time>2026-05-02T08:16:18.665Z</time></trkpt><trkpt lat="43.4337355" lon="12.9709817"><ele>646.0</ele><time>2026-05-02T08:16:19.663Z</time></trkpt><trkpt lat="43.433714" lon="12.9708625"><ele>646.0</ele><time>2026-05-02T08:16:20.662Z</time></trkpt><trkpt lat="43.4336902" lon="12.9707404"><ele>646.0</ele><time>2026-05-02T08:16:21.659Z</time></trkpt><trkpt lat="43.4336668" lon="12.970609"><ele>646.0</ele><time>2026-05-02T08:16:22.658Z</time></trkpt><trkpt lat="43.433633" lon="12.970462"><ele>639.0</ele><time>2026-05-02T08:16:23.664Z</time></trkpt><trkpt lat="43.4335814" lon="12.9703103"><ele>632.0</ele><time>2026-05-02T08:16:24.662Z</time></trkpt><trkpt lat="43.4335064" lon="12.9701571"><ele>625.0</ele><time>2026-05-02T08:16:25.67Z</time></trkpt><trkpt lat="43.4334296" lon="12.9700146"><ele>618.0</ele><time>2026-05-02T08:16:26.665Z</time></trkpt><trkpt lat="43.4333456" lon="12.9698763"><ele>612.25</ele><time>2026-05-02T08:16:27.672Z</time></trkpt><trkpt lat="43.4332667" lon="12.9697471"><ele>606.5</ele><time>2026-05-02T08:16:28.67Z</time></trkpt><trkpt lat="43.4331868" lon="12.9696174"><ele>600.75</ele><time>2026-05-02T08:16:29.666Z</time></trkpt><trkpt lat="43.4331146" lon="12.9695009"><ele>595.0</ele><time>2026-05-02T08:16:30.664Z</time></trkpt><trkpt lat="43.4330511" lon="12.9693818"><ele>595.0</ele><time>2026-05-02T08:16:31.671Z</time></trkpt><trkpt lat="43.4329917" lon="12.9692563"><ele>595.0</ele><time>2026-05-02T08:16:32.663Z</time></trkpt><trkpt lat="43.4329309" lon="12.9691258"><ele>595.0</ele><time>2026-05-02T08:16:33.669Z</time></trkpt><trkpt lat="43.432868" lon="12.9689907"><ele>595.0</ele><time>2026-05-02T08:16:34.67Z</time></trkpt><trkpt lat="43.4328042" lon="12.9688536"><ele>595.2</ele><time>2026-05-02T08:16:35.671Z</time></trkpt><trkpt lat="43.4327426" lon="12.9687185"><ele>595.4</ele><time>2026-05-02T08:16:36.672Z</time></trkpt><trkpt lat="43.4326828" lon="12.9685847"><ele>595.6</ele><time>2026-05-02T08:16:37.668Z</time></trkpt><trkpt lat="43.4326313" lon="12.9684482"><ele>595.8</ele><time>2026-05-02T08:16:38.668Z</time></trkpt><trkpt lat="43.4325819" lon="12.9683221"><ele>596.0</ele><time>2026-05-02T08:16:39.671Z</time></trkpt><trkpt lat="43.4325306" lon="12.9682045"><ele>593.3333333333333</ele><time>2026-05-02T08:16:40.67Z</time></trkpt><trkpt lat="43.4324774" lon="12.9680876"><ele>590.6666666666666</ele><time>2026-05-02T08:16:41.677Z</time></trkpt><trkpt lat="43.4324268" lon="12.9679749"><ele>588.0</ele><time>2026-05-02T08:16:42.67Z</time></trkpt><trkpt lat="43.4323807" lon="12.9678689"><ele>585.3333333333334</ele><time>2026-05-02T08:16:43.669Z</time></trkpt><trkpt lat="43.432341" lon="12.9677701"><ele>582.6666666666667</ele><time>2026-05-02T08:16:44.664Z</time></trkpt><trkpt lat="43.4322989" lon="12.9676921"><ele>580.0</ele><time>2026-05-02T08:16:45.665Z</time></trkpt><trkpt lat="43.4322523" lon="12.9676126"><ele>580.0</ele><time>2026-05-02T08:16:46.662Z</time></trkpt><trkpt lat="43.4322137" lon="12.9675415"><ele>580.0</ele><time>2026-05-02T08:16:47.665Z</time></trkpt><trkpt lat="43.4321519" lon="12.9674516"><ele>580.0</ele><time>2026-05-02T08:16:49.671Z</time></trkpt><trkpt lat="43.4320844" lon="12.9673991"><ele>580.0</ele><time>2026-05-02T08:16:52.676Z</time></trkpt><trkpt lat="43.4320056" lon="12.9674617"><ele>580.0</ele><time>2026-05-02T08:16:55.672Z</time></trkpt><trkpt lat="43.4319627" lon="12.9676004"><ele>580.0</ele><time>2026-05-02T08:16:57.678Z</time></trkpt><trkpt lat="43.4319465" lon="12.9676927"><ele>578.1666666666667</ele><time>2026-05-02T08:16:58.665Z</time></trkpt><trkpt lat="43.431929" lon="12.9677951"><ele>576.3333333333334</ele><time>2026-05-02T08:16:59.678Z</time></trkpt><trkpt lat="43.4319117" lon="12.967904"><ele>574.5</ele><time>2026-05-02T08:17:00.678Z</time></trkpt><trkpt lat="43.4318909" lon="12.9680286"><ele>572.6666666666666</ele><time>2026-05-02T08:17:01.678Z</time></trkpt><trkpt lat="43.4318645" lon="12.9681586"><ele>570.8333333333333</ele><time>2026-05-02T08:17:02.674Z</time></trkpt><trkpt lat="43.4318311" lon="12.9682807"><ele>569.0</ele><time>2026-05-02T08:17:03.678Z</time></trkpt><trkpt lat="43.4317921" lon="12.9684013"><ele>569.0</ele><time>2026-05-02T08:17:04.681Z</time></trkpt><trkpt lat="43.4317485" lon="12.9685296"><ele>569.0</ele><time>2026-05-02T08:17:05.677Z</time></trkpt><trkpt lat="43.4317077" lon="12.968662"><ele>569.0</ele><time>2026-05-02T08:17:06.677Z</time></trkpt><trkpt lat="43.431662" lon="12.9687938"><ele>569.0</ele><time>2026-05-02T08:17:07.678Z</time></trkpt><trkpt lat="43.4316138" lon="12.9689265"><ele>569.0</ele><time>2026-05-02T08:17:08.677Z</time></trkpt><trkpt lat="43.4315608" lon="12.9690549"><ele>569.0</ele><time>2026-05-02T08:17:09.672Z</time></trkpt><trkpt lat="43.4315041" lon="12.96918"><ele>569.0</ele><time>2026-05-02T08:17:10.668Z</time></trkpt><trkpt lat="43.4314514" lon="12.9693062"><ele>569.0</ele><time>2026-05-02T08:17:11.675Z</time></trkpt><trkpt lat="43.4313906" lon="12.9694251"><ele>569.0</ele><time>2026-05-02T08:17:12.672Z</time></trkpt><trkpt lat="43.4313237" lon="12.9695425"><ele>569.0</ele><time>2026-05-02T08:17:13.666Z</time></trkpt><trkpt lat="43.431268" lon="12.9696572"><ele>568.6666666666666</ele><time>2026-05-02T08:17:14.668Z</time></trkpt><trkpt lat="43.4312171" lon="12.9697691"><ele>568.3333333333333</ele><time>2026-05-02T08:17:15.665Z</time></trkpt><trkpt lat="43.4311694" lon="12.9698728"><ele>568.0</ele><time>2026-05-02T08:17:16.668Z</time></trkpt><trkpt lat="43.4311157" lon="12.9699682"><ele>567.6666666666666</ele><time>2026-05-02T08:17:17.671Z</time></trkpt><trkpt lat="43.4310671" lon="12.970064"><ele>567.3333333333334</ele><time>2026-05-02T08:17:18.672Z</time></trkpt><trkpt lat="43.4310173" lon="12.9701558"><ele>567.0</ele><time>2026-05-02T08:17:19.672Z</time></trkpt><trkpt lat="43.4309691" lon="12.9702456"><ele>567.0</ele><time>2026-05-02T08:17:20.665Z</time></trkpt><trkpt lat="43.4309195" lon="12.9703376"><ele>567.0</ele><time>2026-05-02T08:17:21.677Z</time></trkpt><trkpt lat="43.4308696" lon="12.970416"><ele>567.0</ele><time>2026-05-02T08:17:22.672Z</time></trkpt><trkpt lat="43.4308148" lon="12.9704879"><ele>567.0</ele><time>2026-05-02T08:17:23.672Z</time></trkpt><trkpt lat="43.4307495" lon="12.9705598"><ele>567.0</ele><time>2026-05-02T08:17:24.665Z</time></trkpt><trkpt lat="43.4306793" lon="12.9706201"><ele>567.0</ele><time>2026-05-02T08:17:25.662Z</time></trkpt><trkpt lat="43.43061" lon="12.9706776"><ele>567.0</ele><time>2026-05-02T08:17:26.664Z</time></trkpt><trkpt lat="43.4305399" lon="12.9707367"><ele>567.0</ele><time>2026-05-02T08:17:27.669Z</time></trkpt><trkpt lat="43.4304681" lon="12.9708065"><ele>567.0</ele><time>2026-05-02T08:17:28.667Z</time></trkpt><trkpt lat="43.4303967" lon="12.970882"><ele>567.0</ele><time>2026-05-02T08:17:29.667Z</time></trkpt><trkpt lat="43.4303403" lon="12.9709663"><ele>567.0</ele><time>2026-05-02T08:17:30.662Z</time></trkpt><trkpt lat="43.4302941" lon="12.9710702"><ele>567.0</ele><time>2026-05-02T08:17:31.666Z</time></trkpt><trkpt lat="43.4302654" lon="12.9711866"><ele>568.1666666666666</ele><time>2026-05-02T08:17:32.659Z</time></trkpt><trkpt lat="43.4302562" lon="12.9713148"><ele>569.3333333333334</ele><time>2026-05-02T08:17:33.666Z</time></trkpt><trkpt lat="43.4302582" lon="12.9714485"><ele>570.5</ele><time>2026-05-02T08:17:34.663Z</time></trkpt><trkpt lat="43.430251" lon="12.9715744"><ele>571.6666666666667</ele><time>2026-05-02T08:17:35.654Z</time></trkpt><trkpt lat="43.430243" lon="12.9716906"><ele>572.8333333333334</ele><time>2026-05-02T08:17:36.656Z</time></trkpt><trkpt lat="43.4302324" lon="12.9718024"><ele>574.0</ele><time>2026-05-02T08:17:37.657Z</time></trkpt><trkpt lat="43.4302104" lon="12.9719027"><ele>574.0</ele><time>2026-05-02T08:17:38.66Z</time></trkpt><trkpt lat="43.4301879" lon="12.9719902"><ele>574.0</ele><time>2026-05-02T08:17:39.653Z</time></trkpt><trkpt lat="43.4301595" lon="12.9720698"><ele>574.0</ele><time>2026-05-02T08:17:40.653Z</time></trkpt><trkpt lat="43.4300798" lon="12.9721695"><ele>574.0</ele><time>2026-05-02T08:17:42.658Z</time></trkpt><trkpt lat="43.430018" lon="12.9721903"><ele>574.0</ele><time>2026-05-02T08:17:43.655Z</time></trkpt><trkpt lat="43.4299525" lon="12.972182"><ele>574.0</ele><time>2026-05-02T08:17:44.655Z</time></trkpt><trkpt lat="43.4298841" lon="12.9721565"><ele>574.0</ele><time>2026-05-02T08:17:45.658Z</time></trkpt><trkpt lat="43.4298173" lon="12.9721104"><ele>574.0</ele><time>2026-05-02T08:17:46.659Z</time></trkpt><trkpt lat="43.4297439" lon="12.9720445"><ele>574.0</ele><time>2026-05-02T08:17:47.664Z</time></trkpt><trkpt lat="43.4296725" lon="12.9719859"><ele>574.0</ele><time>2026-05-02T08:17:48.661Z</time></trkpt><trkpt lat="43.4296083" lon="12.9719197"><ele>574.0</ele><time>2026-05-02T08:17:49.658Z</time></trkpt><trkpt lat="43.4295454" lon="12.9718494"><ele>574.0</ele><time>2026-05-02T08:17:50.663Z</time></trkpt><trkpt lat="43.429486" lon="12.971761"><ele>574.0</ele><time>2026-05-02T08:17:51.661Z</time></trkpt><trkpt lat="43.429442" lon="12.9716635"><ele>573.6666666666667</ele><time>2026-05-02T08:17:52.666Z</time></trkpt><trkpt lat="43.4294053" lon="12.9715558"><ele>573.3333333333334</ele><time>2026-05-02T08:17:53.666Z</time></trkpt><trkpt lat="43.4293679" lon="12.9714465"><ele>573.0</ele><time>2026-05-02T08:17:54.665Z</time></trkpt><trkpt lat="43.4293338" lon="12.9713405"><ele>572.6666666666666</ele><time>2026-05-02T08:17:55.667Z</time></trkpt><trkpt lat="43.4293143" lon="12.9712318"><ele>572.3333333333333</ele><time>2026-05-02T08:17:56.666Z</time></trkpt><trkpt lat="43.4292992" lon="12.9711177"><ele>572.0</ele><time>2026-05-02T08:17:57.668Z</time></trkpt><trkpt lat="43.4292785" lon="12.9710041"><ele>572.0</ele><time>2026-05-02T08:17:58.664Z</time></trkpt><trkpt lat="43.4292504" lon="12.9708881"><ele>572.0</ele><time>2026-05-02T08:17:59.663Z</time></trkpt><trkpt lat="43.4292154" lon="12.9707674"><ele>572.0</ele><time>2026-05-02T08:18:00.663Z</time></trkpt><trkpt lat="43.4291733" lon="12.9706461"><ele>572.0</ele><time>2026-05-02T08:18:01.667Z</time></trkpt><trkpt lat="43.4291301" lon="12.970528"><ele>572.0</ele><time>2026-05-02T08:18:02.662Z</time></trkpt><trkpt lat="43.4290794" lon="12.9704077"><ele>567.6</ele><time>2026-05-02T08:18:03.663Z</time></trkpt><trkpt lat="43.4290343" lon="12.9702868"><ele>563.2</ele><time>2026-05-02T08:18:04.661Z</time></trkpt><trkpt lat="43.4289879" lon="12.9701684"><ele>558.8</ele><time>2026-05-02T08:18:05.667Z</time></trkpt><trkpt lat="43.4289349" lon="12.9700495"><ele>554.4</ele><time>2026-05-02T08:18:06.663Z</time></trkpt><trkpt lat="43.4288849" lon="12.9699305"><ele>550.0</ele><time>2026-05-02T08:18:07.666Z</time></trkpt><trkpt lat="43.4288353" lon="12.9698127"><ele>554.6</ele><time>2026-05-02T08:18:08.661Z</time></trkpt><trkpt lat="43.4287979" lon="12.9696911"><ele>559.2</ele><time>2026-05-02T08:18:09.664Z</time></trkpt><trkpt lat="43.4287482" lon="12.9695716"><ele>563.8</ele><time>2026-05-02T08:18:10.662Z</time></trkpt><trkpt lat="43.4286924" lon="12.9694563"><ele>568.4</ele><time>2026-05-02T08:18:11.669Z</time></trkpt><trkpt lat="43.4286317" lon="12.9693369"><ele>573.0</ele><time>2026-05-02T08:18:12.662Z</time></trkpt><trkpt lat="43.4285733" lon="12.9692186"><ele>566.8</ele><time>2026-05-02T08:18:13.669Z</time></trkpt><trkpt lat="43.4285174" lon="12.9691055"><ele>560.5999999999999</ele><time>2026-05-02T08:18:14.663Z</time></trkpt><trkpt lat="43.4284587" lon="12.9689902"><ele>554.4000000000001</ele><time>2026-05-02T08:18:15.669Z</time></trkpt><trkpt lat="43.4284088" lon="12.9688671"><ele>548.2</ele><time>2026-05-02T08:18:16.667Z</time></trkpt><trkpt lat="43.4283654" lon="12.9687399"><ele>542.0</ele><time>2026-05-02T08:18:17.662Z</time></trkpt><trkpt lat="43.4283289" lon="12.9686058"><ele>542.0</ele><time>2026-05-02T08:18:18.662Z</time></trkpt><trkpt lat="43.4282979" lon="12.968467"><ele>542.0</ele><time>2026-05-02T08:18:19.662Z</time></trkpt><trkpt lat="43.4282813" lon="12.9683355"><ele>542.0</ele><time>2026-05-02T08:18:20.659Z</time></trkpt><trkpt lat="43.4282763" lon="12.9682029"><ele>542.0</ele><time>2026-05-02T08:18:21.662Z</time></trkpt><trkpt lat="43.4282628" lon="12.9680761"><ele>542.0</ele><time>2026-05-02T08:18:22.659Z</time></trkpt><trkpt lat="43.4282444" lon="12.9679504"><ele>537.4</ele><time>2026-05-02T08:18:23.662Z</time></trkpt><trkpt lat="43.4282152" lon="12.9678251"><ele>532.8000000000001</ele><time>2026-05-02T08:18:24.657Z</time></trkpt><trkpt lat="43.4281792" lon="12.9676953"><ele>528.2</ele><time>2026-05-02T08:18:25.662Z</time></trkpt><trkpt lat="43.4281436" lon="12.9675689"><ele>523.6</ele><time>2026-05-02T08:18:26.661Z</time></trkpt><trkpt lat="43.42811" lon="12.9674446"><ele>519.0</ele><time>2026-05-02T08:18:27.661Z</time></trkpt><trkpt lat="43.428075" lon="12.9673316"><ele>514.8</ele><time>2026-05-02T08:18:28.652Z</time></trkpt><trkpt lat="43.4280406" lon="12.9672126"><ele>510.59999999999997</ele><time>2026-05-02T08:18:29.656Z</time></trkpt><trkpt lat="43.4280018" lon="12.9670893"><ele>506.4</ele><time>2026-05-02T08:18:30.66Z</time></trkpt><trkpt lat="43.4279689" lon="12.9669613"><ele>502.2</ele><time>2026-05-02T08:18:31.657Z</time></trkpt><trkpt lat="43.427948" lon="12.9668474"><ele>498.0</ele><time>2026-05-02T08:18:32.66Z</time></trkpt><trkpt lat="43.4279217" lon="12.9667425"><ele>500.8333333333333</ele><time>2026-05-02T08:18:33.66Z</time></trkpt><trkpt lat="43.4279003" lon="12.9666297"><ele>503.66666666666663</ele><time>2026-05-02T08:18:34.659Z</time></trkpt><trkpt lat="43.4278677" lon="12.9665177"><ele>506.5</ele><time>2026-05-02T08:18:35.662Z</time></trkpt><trkpt lat="43.4278293" lon="12.9664205"><ele>509.3333333333333</ele><time>2026-05-02T08:18:36.664Z</time></trkpt><trkpt lat="43.4277937" lon="12.9663338"><ele>512.1666666666666</ele><time>2026-05-02T08:18:37.665Z</time></trkpt><trkpt lat="43.4277589" lon="12.9662361"><ele>515.0</ele><time>2026-05-02T08:18:38.662Z</time></trkpt><trkpt lat="43.4277401" lon="12.9661308"><ele>515.0</ele><time>2026-05-02T08:18:39.666Z</time></trkpt><trkpt lat="43.4276955" lon="12.9660526"><ele>515.0</ele><time>2026-05-02T08:18:40.652Z</time></trkpt><trkpt lat="43.4276429" lon="12.9659849"><ele>515.0</ele><time>2026-05-02T08:18:41.66Z</time></trkpt><trkpt lat="43.4275794" lon="12.9659329"><ele>515.0</ele><time>2026-05-02T08:18:42.662Z</time></trkpt><trkpt lat="43.4275143" lon="12.9659031"><ele>515.0</ele><time>2026-05-02T08:18:43.665Z</time></trkpt><trkpt lat="43.4274423" lon="12.9658925"><ele>515.0</ele><time>2026-05-02T08:18:44.663Z</time></trkpt><trkpt lat="43.4273528" lon="12.9658985"><ele>515.0</ele><time>2026-05-02T08:18:45.659Z</time></trkpt><trkpt lat="43.427256" lon="12.9659213"><ele>515.0</ele><time>2026-05-02T08:18:46.66Z</time></trkpt><trkpt lat="43.427149" lon="12.9659498"><ele>515.0</ele><time>2026-05-02T08:18:47.663Z</time></trkpt><trkpt lat="43.42705" lon="12.9659785"><ele>515.0</ele><time>2026-05-02T08:18:48.658Z</time></trkpt><trkpt lat="43.4269588" lon="12.9660078"><ele>515.0</ele><time>2026-05-02T08:18:49.666Z</time></trkpt><trkpt lat="43.4268649" lon="12.9660307"><ele>515.0</ele><time>2026-05-02T08:18:50.662Z</time></trkpt><trkpt lat="43.4267704" lon="12.9660491"><ele>515.8</ele><time>2026-05-02T08:18:51.664Z</time></trkpt><trkpt lat="43.426674" lon="12.966063"><ele>516.6</ele><time>2026-05-02T08:18:52.661Z</time></trkpt><trkpt lat="43.4265759" lon="12.9660732"><ele>517.4</ele><time>2026-05-02T08:18:53.667Z</time></trkpt><trkpt lat="43.4264822" lon="12.9660875"><ele>518.2</ele><time>2026-05-02T08:18:54.66Z</time></trkpt><trkpt lat="43.4263931" lon="12.9661086"><ele>519.0</ele><time>2026-05-02T08:18:55.661Z</time></trkpt><trkpt lat="43.4262978" lon="12.9661296"><ele>517.0</ele><time>2026-05-02T08:18:56.661Z</time></trkpt><trkpt lat="43.4262055" lon="12.9661418"><ele>515.0</ele><time>2026-05-02T08:18:57.662Z</time></trkpt><trkpt lat="43.4261116" lon="12.9661565"><ele>513.0</ele><time>2026-05-02T08:18:58.659Z</time></trkpt><trkpt lat="43.4260174" lon="12.9661785"><ele>511.0</ele><time>2026-05-02T08:18:59.663Z</time></trkpt><trkpt lat="43.4259338" lon="12.966206"><ele>509.0</ele><time>2026-05-02T08:19:00.659Z</time></trkpt><trkpt lat="43.4258573" lon="12.9662388"><ele>507.0</ele><time>2026-05-02T08:19:01.665Z</time></trkpt><trkpt lat="43.4257784" lon="12.9662874"><ele>507.0</ele><time>2026-05-02T08:19:02.655Z</time></trkpt><trkpt lat="43.4256987" lon="12.9663322"><ele>507.0</ele><time>2026-05-02T08:19:03.652Z</time></trkpt><trkpt lat="43.4256275" lon="12.9663853"><ele>507.0</ele><time>2026-05-02T08:19:04.653Z</time></trkpt><trkpt lat="43.4255612" lon="12.9664394"><ele>507.0</ele><time>2026-05-02T08:19:05.665Z</time></trkpt><trkpt lat="43.4254916" lon="12.9664848"><ele>507.0</ele><time>2026-05-02T08:19:06.665Z</time></trkpt><trkpt lat="43.4253668" lon="12.9664652"><ele>507.0</ele><time>2026-05-02T08:19:08.668Z</time></trkpt><trkpt lat="43.4252982" lon="12.9664287"><ele>506.5</ele><time>2026-05-02T08:19:09.669Z</time></trkpt><trkpt lat="43.4252367" lon="12.9663754"><ele>506.0</ele><time>2026-05-02T08:19:10.671Z</time></trkpt><trkpt lat="43.4251825" lon="12.9663137"><ele>505.5</ele><time>2026-05-02T08:19:11.665Z</time></trkpt><trkpt lat="43.4251197" lon="12.9662587"><ele>505.0</ele><time>2026-05-02T08:19:12.665Z</time></trkpt><trkpt lat="43.4250455" lon="12.9662106"><ele>504.5</ele><time>2026-05-02T08:19:13.671Z</time></trkpt><trkpt lat="43.4249594" lon="12.9661673"><ele>504.0</ele><time>2026-05-02T08:19:14.67Z</time></trkpt><trkpt lat="43.4248711" lon="12.966138"><ele>504.0</ele><time>2026-05-02T08:19:15.669Z</time></trkpt><trkpt lat="43.4247808" lon="12.9661228"><ele>504.0</ele><time>2026-05-02T08:19:16.668Z</time></trkpt><trkpt lat="43.4246844" lon="12.966115"><ele>504.0</ele><time>2026-05-02T08:19:17.667Z</time></trkpt><trkpt lat="43.4245933" lon="12.9661112"><ele>504.0</ele><time>2026-05-02T08:19:18.665Z</time></trkpt><trkpt lat="43.4245031" lon="12.9661044"><ele>504.0</ele><time>2026-05-02T08:19:19.662Z</time></trkpt><trkpt lat="43.4244107" lon="12.9661039"><ele>502.4</ele><time>2026-05-02T08:19:20.659Z</time></trkpt><trkpt lat="43.4243187" lon="12.9661052"><ele>500.79999999999995</ele><time>2026-05-02T08:19:21.657Z</time></trkpt><trkpt lat="43.4242294" lon="12.9661072"><ele>499.20000000000005</ele><time>2026-05-02T08:19:22.666Z</time></trkpt><trkpt lat="43.4241366" lon="12.9661154"><ele>497.6</ele><time>2026-05-02T08:19:23.663Z</time></trkpt><trkpt lat="43.4240384" lon="12.9661264"><ele>496.0</ele><time>2026-05-02T08:19:24.66Z</time></trkpt><trkpt lat="43.4239514" lon="12.9661238"><ele>496.00000000000006</ele><time>2026-05-02T08:19:25.668Z</time></trkpt><trkpt lat="43.4238653" lon="12.9661139"><ele>496.0</ele><time>2026-05-02T08:19:26.666Z</time></trkpt><trkpt lat="43.4237771" lon="12.9661041"><ele>496.0</ele><time>2026-05-02T08:19:27.668Z</time></trkpt><trkpt lat="43.4236888" lon="12.9660946"><ele>496.0</ele><time>2026-05-02T08:19:28.667Z</time></trkpt><trkpt lat="43.4236015" lon="12.9660852"><ele>496.00000000000006</ele><time>2026-05-02T08:19:29.668Z</time></trkpt><trkpt lat="43.4235196" lon="12.9660657"><ele>496.0</ele><time>2026-05-02T08:19:30.666Z</time></trkpt><trkpt lat="43.4234488" lon="12.9660292"><ele>495.0</ele><time>2026-05-02T08:19:31.669Z</time></trkpt><trkpt lat="43.4233752" lon="12.9659746"><ele>494.0</ele><time>2026-05-02T08:19:32.669Z</time></trkpt><trkpt lat="43.4232942" lon="12.9659119"><ele>493.0</ele><time>2026-05-02T08:19:33.667Z</time></trkpt><trkpt lat="43.4232058" lon="12.9658361"><ele>492.0</ele><time>2026-05-02T08:19:34.663Z</time></trkpt><trkpt lat="43.4231188" lon="12.9657444"><ele>491.0</ele><time>2026-05-02T08:19:35.664Z</time></trkpt><trkpt lat="43.4230368" lon="12.9656517"><ele>486.4</ele><time>2026-05-02T08:19:36.663Z</time></trkpt><trkpt lat="43.4229621" lon="12.9655638"><ele>481.8</ele><time>2026-05-02T08:19:37.659Z</time></trkpt><trkpt lat="43.4228871" lon="12.9654827"><ele>477.19999999999993</ele><time>2026-05-02T08:19:38.665Z</time></trkpt><trkpt lat="43.4228075" lon="12.9654136"><ele>472.59999999999997</ele><time>2026-05-02T08:19:39.665Z</time></trkpt><trkpt lat="43.4227265" lon="12.9653518"><ele>468.0</ele><time>2026-05-02T08:19:40.67Z</time></trkpt><trkpt lat="43.4226503" lon="12.9652986"><ele>468.0</ele><time>2026-05-02T08:19:41.668Z</time></trkpt><trkpt lat="43.4225763" lon="12.9652611"><ele>468.0</ele><time>2026-05-02T08:19:42.67Z</time></trkpt><trkpt lat="43.4224878" lon="12.9652238"><ele>468.0</ele><time>2026-05-02T08:19:44.668Z</time></trkpt><trkpt lat="43.4223923" lon="12.9651855"><ele>468.0</ele><time>2026-05-02T08:19:49.675Z</time></trkpt><trkpt lat="43.4223042" lon="12.965194"><ele>468.0</ele><time>2026-05-02T08:19:51.677Z</time></trkpt><trkpt lat="43.4222412" lon="12.9652213"><ele>468.0</ele><time>2026-05-02T08:19:52.681Z</time></trkpt><trkpt lat="43.4221745" lon="12.9652208"><ele>468.0</ele><time>2026-05-02T08:19:53.683Z</time></trkpt><trkpt lat="43.4221051" lon="12.9652073"><ele>467.99999999999994</ele><time>2026-05-02T08:19:54.679Z</time></trkpt><trkpt lat="43.4220282" lon="12.965185"><ele>467.99999999999994</ele><time>2026-05-02T08:19:55.679Z</time></trkpt><trkpt lat="43.4219487" lon="12.9651203"><ele>468.0</ele><time>2026-05-02T08:19:56.671Z</time></trkpt><trkpt lat="43.4218594" lon="12.9650487"><ele>468.0</ele><time>2026-05-02T08:19:57.677Z</time></trkpt><trkpt lat="43.4217684" lon="12.9649759"><ele>468.0</ele><time>2026-05-02T08:19:58.674Z</time></trkpt><trkpt lat="43.4216748" lon="12.9649165"><ele>468.0</ele><time>2026-05-02T08:19:59.671Z</time></trkpt><trkpt lat="43.4215649" lon="12.9648826"><ele>468.0</ele><time>2026-05-02T08:20:00.67Z</time></trkpt><trkpt lat="43.4214477" lon="12.9648739"><ele>468.0</ele><time>2026-05-02T08:20:01.67Z</time></trkpt><trkpt lat="43.4213294" lon="12.9648823"><ele>467.25</ele><time>2026-05-02T08:20:02.661Z</time></trkpt><trkpt lat="43.4212123" lon="12.9648989"><ele>466.5</ele><time>2026-05-02T08:20:03.666Z</time></trkpt><trkpt lat="43.4211019" lon="12.9649734"><ele>465.75</ele><time>2026-05-02T08:20:04.659Z</time></trkpt><trkpt lat="43.4209738" lon="12.965037"><ele>465.0</ele><time>2026-05-02T08:20:05.664Z</time></trkpt><trkpt lat="43.4208425" lon="12.9650633"><ele>458.2</ele><time>2026-05-02T08:20:06.654Z</time></trkpt><trkpt lat="43.4207451" lon="12.9650579"><ele>451.4</ele><time>2026-05-02T08:20:07.653Z</time></trkpt><trkpt lat="43.4206669" lon="12.9650499"><ele>444.6</ele><time>2026-05-02T08:20:08.652Z</time></trkpt><trkpt lat="43.4205743" lon="12.965056"><ele>437.8</ele><time>2026-05-02T08:20:09.657Z</time></trkpt><trkpt lat="43.4204563" lon="12.9650865"><ele>431.0</ele><time>2026-05-02T08:20:10.656Z</time></trkpt><trkpt lat="43.4203331" lon="12.965144"><ele>431.0</ele><time>2026-05-02T08:20:11.658Z</time></trkpt><trkpt lat="43.4202011" lon="12.9651945"><ele>431.0</ele><time>2026-05-02T08:20:12.654Z</time></trkpt><trkpt lat="43.4200664" lon="12.9652284"><ele>431.0</ele><time>2026-05-02T08:20:13.659Z</time></trkpt><trkpt lat="43.4199359" lon="12.9652469"><ele>431.0</ele><time>2026-05-02T08:20:14.664Z</time></trkpt><trkpt lat="43.4198047" lon="12.965257"><ele>431.0</ele><time>2026-05-02T08:20:15.665Z</time></trkpt><trkpt lat="43.4196671" lon="12.9652574"><ele>431.0</ele><time>2026-05-02T08:20:16.667Z</time></trkpt><trkpt lat="43.4195312" lon="12.9652445"><ele>431.0</ele><time>2026-05-02T08:20:17.667Z</time></trkpt><trkpt lat="43.4193954" lon="12.9652414"><ele>431.0</ele><time>2026-05-02T08:20:18.671Z</time></trkpt><trkpt lat="43.4192667" lon="12.9652414"><ele>429.8</ele><time>2026-05-02T08:20:19.671Z</time></trkpt><trkpt lat="43.4191484" lon="12.9652371"><ele>428.6</ele><time>2026-05-02T08:20:20.668Z</time></trkpt><trkpt lat="43.4190382" lon="12.9652259"><ele>427.4</ele><time>2026-05-02T08:20:21.673Z</time></trkpt><trkpt lat="43.418938" lon="12.9651885"><ele>426.2</ele><time>2026-05-02T08:20:22.673Z</time></trkpt><trkpt lat="43.4188453" lon="12.965159"><ele>425.0</ele><time>2026-05-02T08:20:23.675Z</time></trkpt><trkpt lat="43.4187539" lon="12.9651024"><ele>427.8</ele><time>2026-05-02T08:20:24.674Z</time></trkpt><trkpt lat="43.4186578" lon="12.9650208"><ele>430.6</ele><time>2026-05-02T08:20:25.664Z</time></trkpt><trkpt lat="43.4185737" lon="12.9649101"><ele>433.4</ele><time>2026-05-02T08:20:26.673Z</time></trkpt><trkpt lat="43.4185002" lon="12.964804"><ele>436.2</ele><time>2026-05-02T08:20:27.677Z</time></trkpt><trkpt lat="43.418431" lon="12.9647186"><ele>439.0</ele><time>2026-05-02T08:20:28.672Z</time></trkpt><trkpt lat="43.4183604" lon="12.9646557"><ele>439.0</ele><time>2026-05-02T08:20:29.678Z</time></trkpt><trkpt lat="43.4182863" lon="12.9646442"><ele>439.0</ele><time>2026-05-02T08:20:30.671Z</time></trkpt><trkpt lat="43.4182016" lon="12.9646479"><ele>439.0</ele><time>2026-05-02T08:20:31.672Z</time></trkpt><trkpt lat="43.4181101" lon="12.9646883"><ele>439.0</ele><time>2026-05-02T08:20:32.673Z</time></trkpt><trkpt lat="43.4180021" lon="12.9647422"><ele>439.0</ele><time>2026-05-02T08:20:33.678Z</time></trkpt><trkpt lat="43.4178941" lon="12.9648118"><ele>440.0</ele><time>2026-05-02T08:20:34.67Z</time></trkpt><trkpt lat="43.4177809" lon="12.964914"><ele>441.0</ele><time>2026-05-02T08:20:35.667Z</time></trkpt><trkpt lat="43.4176664" lon="12.9650085"><ele>442.0</ele><time>2026-05-02T08:20:36.665Z</time></trkpt><trkpt lat="43.4175472" lon="12.965076"><ele>443.0</ele><time>2026-05-02T08:20:37.665Z</time></trkpt><trkpt lat="43.4174197" lon="12.965117"><ele>434.75</ele><time>2026-05-02T08:20:38.661Z</time></trkpt><trkpt lat="43.4172957" lon="12.9651663"><ele>426.5</ele><time>2026-05-02T08:20:39.664Z</time></trkpt><trkpt lat="43.4171772" lon="12.9651962"><ele>418.25</ele><time>2026-05-02T08:20:40.663Z</time></trkpt><trkpt lat="43.4170701" lon="12.965233"><ele>410.0</ele><time>2026-05-02T08:20:41.673Z</time></trkpt><trkpt lat="43.4169731" lon="12.9652559"><ele>409.66666666666663</ele><time>2026-05-02T08:20:42.669Z</time></trkpt><trkpt lat="43.4168847" lon="12.9652561"><ele>409.3333333333333</ele><time>2026-05-02T08:20:43.672Z</time></trkpt><trkpt lat="43.4168088" lon="12.9652259"><ele>409.0</ele><time>2026-05-02T08:20:44.674Z</time></trkpt><trkpt lat="43.4167378" lon="12.9651591"><ele>408.66666666666663</ele><time>2026-05-02T08:20:45.671Z</time></trkpt><trkpt lat="43.4166691" lon="12.9650691"><ele>408.3333333333333</ele><time>2026-05-02T08:20:46.67Z</time></trkpt><trkpt lat="43.4166134" lon="12.9649571"><ele>408.0</ele><time>2026-05-02T08:20:47.675Z</time></trkpt><trkpt lat="43.4165627" lon="12.964815"><ele>412.5</ele><time>2026-05-02T08:20:48.67Z</time></trkpt><trkpt lat="43.4165219" lon="12.9646368"><ele>417.0</ele><time>2026-05-02T08:20:49.672Z</time></trkpt><trkpt lat="43.4164798" lon="12.9644594"><ele>421.5</ele><time>2026-05-02T08:20:50.671Z</time></trkpt><trkpt lat="43.4164291" lon="12.9642993"><ele>426.0</ele><time>2026-05-02T08:20:51.665Z</time></trkpt><trkpt lat="43.416376" lon="12.9641482"><ele>422.6</ele><time>2026-05-02T08:20:52.664Z</time></trkpt><trkpt lat="43.4163217" lon="12.9640126"><ele>419.20000000000005</ele><time>2026-05-02T08:20:53.669Z</time></trkpt><trkpt lat="43.4162604" lon="12.9638897"><ele>415.79999999999995</ele><time>2026-05-02T08:20:54.663Z</time></trkpt><trkpt lat="43.4161966" lon="12.9637824"><ele>412.4</ele><time>2026-05-02T08:20:55.672Z</time></trkpt><trkpt lat="43.4161184" lon="12.9637031"><ele>409.0</ele><time>2026-05-02T08:20:56.676Z</time></trkpt><trkpt lat="43.4160278" lon="12.9636312"><ele>409.0</ele><time>2026-05-02T08:20:57.665Z</time></trkpt><trkpt lat="43.4159159" lon="12.9635617"><ele>409.0</ele><time>2026-05-02T08:20:58.664Z</time></trkpt><trkpt lat="43.4157898" lon="12.9635023"><ele>409.0</ele><time>2026-05-02T08:20:59.658Z</time></trkpt><trkpt lat="43.4156503" lon="12.9634702"><ele>409.0</ele><time>2026-05-02T08:21:00.663Z</time></trkpt><trkpt lat="43.4155061" lon="12.9634364"><ele>406.5</ele><time>2026-05-02T08:21:01.663Z</time></trkpt><trkpt lat="43.41537" lon="12.9634046"><ele>404.0</ele><time>2026-05-02T08:21:02.661Z</time></trkpt><trkpt lat="43.415259" lon="12.9633729"><ele>401.5</ele><time>2026-05-02T08:21:03.659Z</time></trkpt><trkpt lat="43.4151585" lon="12.9633535"><ele>399.0</ele><time>2026-05-02T08:21:04.658Z</time></trkpt><trkpt lat="43.4150607" lon="12.9633565"><ele>399.0</ele><time>2026-05-02T08:21:05.664Z</time></trkpt><trkpt lat="43.4149619" lon="12.9633915"><ele>399.0</ele><time>2026-05-02T08:21:06.656Z</time></trkpt><trkpt lat="43.4148721" lon="12.9634421"><ele>399.0</ele><time>2026-05-02T08:21:07.652Z</time></trkpt><trkpt lat="43.4147755" lon="12.9635187"><ele>399.0</ele><time>2026-05-02T08:21:08.645Z</time></trkpt><trkpt lat="43.414678" lon="12.9636328"><ele>399.0</ele><time>2026-05-02T08:21:09.654Z</time></trkpt><trkpt lat="43.4145996" lon="12.9637173"><ele>400.0</ele><time>2026-05-02T08:21:10.657Z</time></trkpt><trkpt lat="43.4145376" lon="12.9638303"><ele>401.0</ele><time>2026-05-02T08:21:11.659Z</time></trkpt><trkpt lat="43.4144926" lon="12.9639401"><ele>402.0</ele><time>2026-05-02T08:21:12.661Z</time></trkpt><trkpt lat="43.4144511" lon="12.9640307"><ele>403.0</ele><time>2026-05-02T08:21:13.659Z</time></trkpt><trkpt lat="43.4144142" lon="12.9641096"><ele>404.0</ele><time>2026-05-02T08:21:14.657Z</time></trkpt><trkpt lat="43.4143705" lon="12.9641842"><ele>405.0</ele><time>2026-05-02T08:21:15.66Z</time></trkpt><trkpt lat="43.4143019" lon="12.964246"><ele>405.0</ele><time>2026-05-02T08:21:16.661Z</time></trkpt><trkpt lat="43.4142256" lon="12.9642878"><ele>405.0</ele><time>2026-05-02T08:21:17.659Z</time></trkpt><trkpt lat="43.4141481" lon="12.96432"><ele>405.0</ele><time>2026-05-02T08:21:18.657Z</time></trkpt><trkpt lat="43.4140764" lon="12.9643791"><ele>405.0</ele><time>2026-05-02T08:21:19.656Z</time></trkpt><trkpt lat="43.4140046" lon="12.964474"><ele>405.0</ele><time>2026-05-02T08:21:20.654Z</time></trkpt><trkpt lat="43.413938" lon="12.9645922"><ele>405.0</ele><time>2026-05-02T08:21:21.654Z</time></trkpt><trkpt lat="43.4138718" lon="12.9647345"><ele>405.0</ele><time>2026-05-02T08:21:22.653Z</time></trkpt><trkpt lat="43.4138264" lon="12.9648902"><ele>405.0</ele><time>2026-05-02T08:21:23.655Z</time></trkpt><trkpt lat="43.4137955" lon="12.9650524"><ele>405.0</ele><time>2026-05-02T08:21:24.659Z</time></trkpt><trkpt lat="43.4137771" lon="12.965225"><ele>411.0</ele><time>2026-05-02T08:21:25.656Z</time></trkpt><trkpt lat="43.413763" lon="12.9653879"><ele>417.0</ele><time>2026-05-02T08:21:26.659Z</time></trkpt><trkpt lat="43.4137259" lon="12.9655263"><ele>423.0</ele><time>2026-05-02T08:21:27.659Z</time></trkpt><trkpt lat="43.4136805" lon="12.9656635"><ele>429.0</ele><time>2026-05-02T08:21:28.656Z</time></trkpt><trkpt lat="43.413628" lon="12.9658057"><ele>424.25</ele><time>2026-05-02T08:21:29.661Z</time></trkpt><trkpt lat="43.4135736" lon="12.9659515"><ele>419.5</ele><time>2026-05-02T08:21:30.667Z</time></trkpt><trkpt lat="43.4135175" lon="12.9660897"><ele>414.75</ele><time>2026-05-02T08:21:31.666Z</time></trkpt><trkpt lat="43.4134528" lon="12.9662137"><ele>410.0</ele><time>2026-05-02T08:21:32.666Z</time></trkpt><trkpt lat="43.4133812" lon="12.966334"><ele>410.0</ele><time>2026-05-02T08:21:33.662Z</time></trkpt><trkpt lat="43.4133031" lon="12.9664548"><ele>410.0</ele><time>2026-05-02T08:21:34.665Z</time></trkpt><trkpt lat="43.4132168" lon="12.966569"><ele>410.0</ele><time>2026-05-02T08:21:35.664Z</time></trkpt><trkpt lat="43.4131254" lon="12.9666765"><ele>410.0</ele><time>2026-05-02T08:21:36.661Z</time></trkpt><trkpt lat="43.413038" lon="12.9667917"><ele>409.75</ele><time>2026-05-02T08:21:37.656Z</time></trkpt><trkpt lat="43.4129603" lon="12.9669175"><ele>409.5</ele><time>2026-05-02T08:21:38.655Z</time></trkpt><trkpt lat="43.4128887" lon="12.9670478"><ele>409.25</ele><time>2026-05-02T08:21:39.659Z</time></trkpt><trkpt lat="43.4128392" lon="12.9671858"><ele>409.0</ele><time>2026-05-02T08:21:40.661Z</time></trkpt><trkpt lat="43.4128062" lon="12.9673299"><ele>409.0</ele><time>2026-05-02T08:21:41.669Z</time></trkpt><trkpt lat="43.4127878" lon="12.9674746"><ele>409.0</ele><time>2026-05-02T08:21:42.665Z</time></trkpt><trkpt lat="43.4127828" lon="12.9676219"><ele>409.0</ele><time>2026-05-02T08:21:43.659Z</time></trkpt><trkpt lat="43.4127768" lon="12.9677623"><ele>409.0</ele><time>2026-05-02T08:21:44.657Z</time></trkpt><trkpt lat="43.4127618" lon="12.9678656"><ele>409.0</ele><time>2026-05-02T08:21:45.662Z</time></trkpt><trkpt lat="43.4126959" lon="12.9679968"><ele>404.0</ele><time>2026-05-02T08:21:47.666Z</time></trkpt><trkpt lat="43.4126318" lon="12.9680321"><ele>399.0</ele><time>2026-05-02T08:21:48.666Z</time></trkpt><trkpt lat="43.4125363" lon="12.9680391"><ele>394.0</ele><time>2026-05-02T08:21:49.665Z</time></trkpt><trkpt lat="43.4124247" lon="12.9680106"><ele>389.0</ele><time>2026-05-02T08:21:50.663Z</time></trkpt><trkpt lat="43.4123053" lon="12.9679619"><ele>384.0</ele><time>2026-05-02T08:21:51.655Z</time></trkpt><trkpt lat="43.4121847" lon="12.9679265"><ele>382.4</ele><time>2026-05-02T08:21:52.671Z</time></trkpt><trkpt lat="43.4120647" lon="12.9679199"><ele>380.79999999999995</ele><time>2026-05-02T08:21:53.665Z</time></trkpt><trkpt lat="43.4119457" lon="12.9679179"><ele>379.20000000000005</ele><time>2026-05-02T08:21:54.665Z</time></trkpt><trkpt lat="43.4118404" lon="12.9678919"><ele>377.6</ele><time>2026-05-02T08:21:55.669Z</time></trkpt><trkpt lat="43.4117557" lon="12.967841"><ele>376.0</ele><time>2026-05-02T08:21:56.666Z</time></trkpt><trkpt lat="43.4116889" lon="12.9677955"><ele>376.0</ele><time>2026-05-02T08:21:57.677Z</time></trkpt><trkpt lat="43.4115972" lon="12.9678051"><ele>376.0</ele><time>2026-05-02T08:21:59.68Z</time></trkpt><trkpt lat="43.4116142" lon="12.9679411"><ele>376.0</ele><time>2026-05-02T08:22:02.657Z</time></trkpt><trkpt lat="43.4117057" lon="12.9679927"><ele>376.0</ele><time>2026-05-02T08:22:04.669Z</time></trkpt><trkpt lat="43.4117751" lon="12.968007"><ele>376.0</ele><time>2026-05-02T08:22:05.671Z</time></trkpt><trkpt lat="43.4118616" lon="12.9680232"><ele>376.0</ele><time>2026-05-02T08:22:06.672Z</time></trkpt><trkpt lat="43.4119544" lon="12.9680362"><ele>376.0</ele><time>2026-05-02T08:22:07.667Z</time></trkpt><trkpt lat="43.4120568" lon="12.9680536"><ele>376.0</ele><time>2026-05-02T08:22:08.667Z</time></trkpt><trkpt lat="43.4121641" lon="12.9680946"><ele>376.0</ele><time>2026-05-02T08:22:09.665Z</time></trkpt><trkpt lat="43.412275" lon="12.968149"><ele>376.0</ele><time>2026-05-02T08:22:10.667Z</time></trkpt><trkpt lat="43.4123784" lon="12.9682189"><ele>376.0</ele><time>2026-05-02T08:22:11.666Z</time></trkpt><trkpt lat="43.412474" lon="12.9682914"><ele>373.20000000000005</ele><time>2026-05-02T08:22:12.674Z</time></trkpt><trkpt lat="43.4125644" lon="12.9683614"><ele>370.40000000000003</ele><time>2026-05-02T08:22:13.675Z</time></trkpt><trkpt lat="43.4126491" lon="12.9684282"><ele>367.6</ele><time>2026-05-02T08:22:14.672Z</time></trkpt><trkpt lat="43.4127246" lon="12.9684867"><ele>364.8</ele><time>2026-05-02T08:22:15.674Z</time></trkpt><trkpt lat="43.4127819" lon="12.9685333"><ele>362.0</ele><time>2026-05-02T08:22:16.671Z</time></trkpt><trkpt lat="43.4128652" lon="12.9686326"><ele>362.0</ele><time>2026-05-02T08:22:18.67Z</time></trkpt><trkpt lat="43.4128495" lon="12.9687638"><ele>362.0</ele><time>2026-05-02T08:22:20.679Z</time></trkpt><trkpt lat="43.4127579" lon="12.9688147"><ele>362.0</ele><time>2026-05-02T08:22:22.68Z</time></trkpt><trkpt lat="43.4126955" lon="12.9687863"><ele>362.0</ele><time>2026-05-02T08:22:23.672Z</time></trkpt><trkpt lat="43.4126293" lon="12.9687298"><ele>362.0</ele><time>2026-05-02T08:22:24.671Z</time></trkpt><trkpt lat="43.412557" lon="12.9686561"><ele>362.0</ele><time>2026-05-02T08:22:25.673Z</time></trkpt><trkpt lat="43.4124706" lon="12.9685774"><ele>362.0</ele><time>2026-05-02T08:22:26.678Z</time></trkpt><trkpt lat="43.4123743" lon="12.9685076"><ele>362.0</ele><time>2026-05-02T08:22:27.675Z</time></trkpt><trkpt lat="43.4122633" lon="12.9684587"><ele>362.0</ele><time>2026-05-02T08:22:28.668Z</time></trkpt><trkpt lat="43.4121468" lon="12.9684238"><ele>362.0</ele><time>2026-05-02T08:22:29.67Z</time></trkpt><trkpt lat="43.4120283" lon="12.9684085"><ele>359.6</ele><time>2026-05-02T08:22:30.67Z</time></trkpt><trkpt lat="43.4119144" lon="12.9684227"><ele>357.20000000000005</ele><time>2026-05-02T08:22:31.67Z</time></trkpt><trkpt lat="43.4118079" lon="12.968458"><ele>354.8</ele><time>2026-05-02T08:22:32.663Z</time></trkpt><trkpt lat="43.4117077" lon="12.9685087"><ele>352.4</ele><time>2026-05-02T08:22:33.671Z</time></trkpt><trkpt lat="43.411609" lon="12.9685558"><ele>350.0</ele><time>2026-05-02T08:22:34.665Z</time></trkpt><trkpt lat="43.4115066" lon="12.9685902"><ele>350.0</ele><time>2026-05-02T08:22:35.672Z</time></trkpt><trkpt lat="43.4114091" lon="12.9686224"><ele>350.0</ele><time>2026-05-02T08:22:36.665Z</time></trkpt><trkpt lat="43.411318" lon="12.9686693"><ele>350.0</ele><time>2026-05-02T08:22:37.677Z</time></trkpt><trkpt lat="43.4112375" lon="12.9687308"><ele>350.0</ele><time>2026-05-02T08:22:38.665Z</time></trkpt><trkpt lat="43.4111594" lon="12.9688047"><ele>350.0</ele><time>2026-05-02T08:22:39.674Z</time></trkpt><trkpt lat="43.4110889" lon="12.9688858"><ele>350.4</ele><time>2026-05-02T08:22:40.676Z</time></trkpt><trkpt lat="43.4110259" lon="12.9689766"><ele>350.8</ele><time>2026-05-02T08:22:41.673Z</time></trkpt><trkpt lat="43.4109682" lon="12.969081"><ele>351.20000000000005</ele><time>2026-05-02T08:22:42.668Z</time></trkpt><trkpt lat="43.4109222" lon="12.969189"><ele>351.6</ele><time>2026-05-02T08:22:43.673Z</time></trkpt><trkpt lat="43.4108861" lon="12.9693046"><ele>352.0</ele><time>2026-05-02T08:22:44.67Z</time></trkpt><trkpt lat="43.410856" lon="12.9694078"><ele>352.0</ele><time>2026-05-02T08:22:45.673Z</time></trkpt><trkpt lat="43.4108182" lon="12.9694862"><ele>352.0</ele><time>2026-05-02T08:22:46.665Z</time></trkpt><trkpt lat="43.4107742" lon="12.9695571"><ele>352.0</ele><time>2026-05-02T08:22:47.672Z</time></trkpt><trkpt lat="43.4107265" lon="12.9696365"><ele>352.0</ele><time>2026-05-02T08:22:48.672Z</time></trkpt><trkpt lat="43.4106712" lon="12.9697211"><ele>352.0</ele><time>2026-05-02T08:22:49.672Z</time></trkpt><trkpt lat="43.4106089" lon="12.9698099"><ele>352.0</ele><time>2026-05-02T08:22:50.668Z</time></trkpt><trkpt lat="43.4105234" lon="12.9699036"><ele>352.20000000000005</ele><time>2026-05-02T08:22:51.666Z</time></trkpt><trkpt lat="43.4104381" lon="12.9699986"><ele>352.4</ele><time>2026-05-02T08:22:52.665Z</time></trkpt><trkpt lat="43.4103679" lon="12.9700862"><ele>352.6</ele><time>2026-05-02T08:22:53.673Z</time></trkpt><trkpt lat="43.4103094" lon="12.9701529"><ele>352.79999999999995</ele><time>2026-05-02T08:22:54.67Z</time></trkpt><trkpt lat="43.4102641" lon="12.9702144"><ele>353.0</ele><time>2026-05-02T08:22:55.675Z</time></trkpt><trkpt lat="43.4101903" lon="12.9703452"><ele>356.4</ele><time>2026-05-02T08:22:57.677Z</time></trkpt><trkpt lat="43.4101549" lon="12.9704998"><ele>359.79999999999995</ele><time>2026-05-02T08:22:59.667Z</time></trkpt><trkpt lat="43.4101457" lon="12.9706118"><ele>363.2</ele><time>2026-05-02T08:23:01.671Z</time></trkpt><trkpt lat="43.4100912" lon="12.9706656"><ele>366.6</ele><time>2026-05-02T08:23:03.668Z</time></trkpt><trkpt lat="43.4099764" lon="12.9706833"><ele>370.0</ele><time>2026-05-02T08:23:05.665Z</time></trkpt><trkpt lat="43.409907" lon="12.9706963"><ele>370.0</ele><time>2026-05-02T08:23:06.662Z</time></trkpt><trkpt lat="43.4098299" lon="12.9707363"><ele>370.0</ele><time>2026-05-02T08:23:07.655Z</time></trkpt><trkpt lat="43.4097489" lon="12.9707975"><ele>370.0</ele><time>2026-05-02T08:23:08.659Z</time></trkpt><trkpt lat="43.4096711" lon="12.9708765"><ele>370.0</ele><time>2026-05-02T08:23:09.658Z</time></trkpt><trkpt lat="43.4095883" lon="12.9709715"><ele>370.0</ele><time>2026-05-02T08:23:10.661Z</time></trkpt><trkpt lat="43.409496" lon="12.9710605"><ele>371.25</ele><time>2026-05-02T08:23:11.663Z</time></trkpt><trkpt lat="43.4093965" lon="12.971129"><ele>372.5</ele><time>2026-05-02T08:23:12.663Z</time></trkpt><trkpt lat="43.4092894" lon="12.9711852"><ele>373.75</ele><time>2026-05-02T08:23:13.663Z</time></trkpt><trkpt lat="43.4091745" lon="12.971225"><ele>375.0</ele><time>2026-05-02T08:23:14.662Z</time></trkpt><trkpt lat="43.4090498" lon="12.9712594"><ele>375.0</ele><time>2026-05-02T08:23:15.66Z</time></trkpt><trkpt lat="43.4089226" lon="12.9712983"><ele>375.0</ele><time>2026-05-02T08:23:16.658Z</time></trkpt><trkpt lat="43.4088014" lon="12.9713339"><ele>375.0</ele><time>2026-05-02T08:23:17.659Z</time></trkpt><trkpt lat="43.4086841" lon="12.9713624"><ele>375.0</ele><time>2026-05-02T08:23:18.653Z</time></trkpt><trkpt lat="43.4085695" lon="12.9713942"><ele>370.75</ele><time>2026-05-02T08:23:19.657Z</time></trkpt><trkpt lat="43.40845" lon="12.9714293"><ele>366.5</ele><time>2026-05-02T08:23:20.655Z</time></trkpt><trkpt lat="43.4083257" lon="12.9714696"><ele>362.25</ele><time>2026-05-02T08:23:21.661Z</time></trkpt><trkpt lat="43.408199" lon="12.9715107"><ele>358.0</ele><time>2026-05-02T08:23:22.661Z</time></trkpt><trkpt lat="43.4080812" lon="12.9715642"><ele>358.75</ele><time>2026-05-02T08:23:23.657Z</time></trkpt><trkpt lat="43.4079592" lon="12.971618"><ele>359.5</ele><time>2026-05-02T08:23:24.66Z</time></trkpt><trkpt lat="43.407841" lon="12.9716674"><ele>360.25</ele><time>2026-05-02T08:23:25.656Z</time></trkpt><trkpt lat="43.4077237" lon="12.9717188"><ele>361.0</ele><time>2026-05-02T08:23:26.661Z</time></trkpt><trkpt lat="43.4076026" lon="12.9717836"><ele>361.0</ele><time>2026-05-02T08:23:27.659Z</time></trkpt><trkpt lat="43.4074811" lon="12.9718584"><ele>361.0</ele><time>2026-05-02T08:23:28.668Z</time></trkpt><trkpt lat="43.4073666" lon="12.9719481"><ele>361.0</ele><time>2026-05-02T08:23:29.661Z</time></trkpt><trkpt lat="43.4072511" lon="12.9720459"><ele>361.0</ele><time>2026-05-02T08:23:30.668Z</time></trkpt><trkpt lat="43.4071408" lon="12.97215"><ele>359.0</ele><time>2026-05-02T08:23:31.667Z</time></trkpt><trkpt lat="43.4070337" lon="12.9722475"><ele>357.0</ele><time>2026-05-02T08:23:32.672Z</time></trkpt><trkpt lat="43.4069301" lon="12.9723451"><ele>355.0</ele><time>2026-05-02T08:23:33.666Z</time></trkpt><trkpt lat="43.4068255" lon="12.9724475"><ele>353.0</ele><time>2026-05-02T08:23:34.67Z</time></trkpt><trkpt lat="43.4067278" lon="12.9725505"><ele>353.0</ele><time>2026-05-02T08:23:35.667Z</time></trkpt><trkpt lat="43.4066302" lon="12.9726577"><ele>353.0</ele><time>2026-05-02T08:23:36.664Z</time></trkpt><trkpt lat="43.4065351" lon="12.9727578"><ele>353.0</ele><time>2026-05-02T08:23:37.661Z</time></trkpt><trkpt lat="43.4064331" lon="12.9728442"><ele>353.0</ele><time>2026-05-02T08:23:38.663Z</time></trkpt><trkpt lat="43.4063353" lon="12.9729326"><ele>348.25</ele><time>2026-05-02T08:23:39.661Z</time></trkpt><trkpt lat="43.4062329" lon="12.973011"><ele>343.5</ele><time>2026-05-02T08:23:40.664Z</time></trkpt><trkpt lat="43.4061294" lon="12.973082"><ele>338.75</ele><time>2026-05-02T08:23:41.661Z</time></trkpt><trkpt lat="43.4060178" lon="12.9731514"><ele>334.0</ele><time>2026-05-02T08:23:42.658Z</time></trkpt><trkpt lat="43.4059088" lon="12.9732199"><ele>334.0</ele><time>2026-05-02T08:23:43.663Z</time></trkpt><trkpt lat="43.4058096" lon="12.9732925"><ele>334.0</ele><time>2026-05-02T08:23:44.666Z</time></trkpt><trkpt lat="43.4057161" lon="12.9733716"><ele>334.0</ele><time>2026-05-02T08:23:45.662Z</time></trkpt><trkpt lat="43.4056374" lon="12.9734498"><ele>334.0</ele><time>2026-05-02T08:23:46.663Z</time></trkpt><trkpt lat="43.4055801" lon="12.9735184"><ele>334.0</ele><time>2026-05-02T08:23:47.661Z</time></trkpt><trkpt lat="43.4055104" lon="12.9736275"><ele>334.0</ele><time>2026-05-02T08:23:49.661Z</time></trkpt><trkpt lat="43.4054507" lon="12.9735873"><ele>334.0</ele><time>2026-05-02T08:23:52.669Z</time></trkpt><trkpt lat="43.4054739" lon="12.9734807"><ele>334.0</ele><time>2026-05-02T08:23:54.669Z</time></trkpt><trkpt lat="43.4055838" lon="12.9733894"><ele>334.0</ele><time>2026-05-02T08:23:56.668Z</time></trkpt><trkpt lat="43.4056608" lon="12.9733325"><ele>334.0</ele><time>2026-05-02T08:23:57.668Z</time></trkpt><trkpt lat="43.4057585" lon="12.9732543"><ele>334.0</ele><time>2026-05-02T08:23:58.668Z</time></trkpt><trkpt lat="43.4058672" lon="12.973157"><ele>334.0</ele><time>2026-05-02T08:23:59.666Z</time></trkpt><trkpt lat="43.4059825" lon="12.9730571"><ele>334.0</ele><time>2026-05-02T08:24:00.664Z</time></trkpt><trkpt lat="43.4061016" lon="12.9729423"><ele>334.0</ele><time>2026-05-02T08:24:01.668Z</time></trkpt><trkpt lat="43.4062134" lon="12.9728146"><ele>334.0</ele><time>2026-05-02T08:24:02.661Z</time></trkpt><trkpt lat="43.4063131" lon="12.9726824"><ele>334.0</ele><time>2026-05-02T08:24:03.666Z</time></trkpt><trkpt lat="43.4064059" lon="12.9725401"><ele>334.0</ele><time>2026-05-02T08:24:04.66Z</time></trkpt><trkpt lat="43.406507" lon="12.9723916"><ele>334.0</ele><time>2026-05-02T08:24:05.664Z</time></trkpt><trkpt lat="43.4066127" lon="12.9722399"><ele>335.0</ele><time>2026-05-02T08:24:06.665Z</time></trkpt><trkpt lat="43.4066826" lon="12.9720668"><ele>336.0</ele><time>2026-05-02T08:24:07.663Z</time></trkpt><trkpt lat="43.4067672" lon="12.971905"><ele>337.0</ele><time>2026-05-02T08:24:08.661Z</time></trkpt><trkpt lat="43.4068511" lon="12.9717542"><ele>338.0</ele><time>2026-05-02T08:24:09.668Z</time></trkpt><trkpt lat="43.4069392" lon="12.9716154"><ele>338.0</ele><time>2026-05-02T08:24:10.663Z</time></trkpt><trkpt lat="43.4070216" lon="12.9714826"><ele>338.0</ele><time>2026-05-02T08:24:11.664Z</time></trkpt><trkpt lat="43.4070925" lon="12.971343"><ele>338.0</ele><time>2026-05-02T08:24:12.66Z</time></trkpt><trkpt lat="43.4071586" lon="12.9712135"><ele>338.0</ele><time>2026-05-02T08:24:13.658Z</time></trkpt><trkpt lat="43.407231" lon="12.9710906"><ele>338.0</ele><time>2026-05-02T08:24:14.66Z</time></trkpt><trkpt lat="43.4073065" lon="12.9709769"><ele>338.0</ele><time>2026-05-02T08:24:15.662Z</time></trkpt><trkpt lat="43.4073953" lon="12.9708797"><ele>338.0</ele><time>2026-05-02T08:24:16.658Z</time></trkpt><trkpt lat="43.4074896" lon="12.9707978"><ele>338.0</ele><time>2026-05-02T08:24:17.663Z</time></trkpt><trkpt lat="43.4075966" lon="12.9707267"><ele>335.25</ele><time>2026-05-02T08:24:18.66Z</time></trkpt><trkpt lat="43.4077084" lon="12.9706519"><ele>332.5</ele><time>2026-05-02T08:24:19.661Z</time></trkpt><trkpt lat="43.4078204" lon="12.9705785"><ele>329.75</ele><time>2026-05-02T08:24:20.66Z</time></trkpt><trkpt lat="43.4079316" lon="12.9705058"><ele>327.0</ele><time>2026-05-02T08:24:21.66Z</time></trkpt><trkpt lat="43.4080429" lon="12.9704406"><ele>327.0</ele><time>2026-05-02T08:24:22.663Z</time></trkpt><trkpt lat="43.4081513" lon="12.9703846"><ele>327.0</ele><time>2026-05-02T08:24:23.662Z</time></trkpt><trkpt lat="43.4082646" lon="12.9703354"><ele>327.0</ele><time>2026-05-02T08:24:24.66Z</time></trkpt><trkpt lat="43.4083757" lon="12.9702986"><ele>327.0</ele><time>2026-05-02T08:24:25.667Z</time></trkpt><trkpt lat="43.4084785" lon="12.9702692"><ele>327.0</ele><time>2026-05-02T08:24:26.665Z</time></trkpt><trkpt lat="43.4085675" lon="12.970251"><ele>327.0</ele><time>2026-05-02T08:24:27.667Z</time></trkpt><trkpt lat="43.4086313" lon="12.9702215"><ele>327.0</ele><time>2026-05-02T08:24:28.661Z</time></trkpt><trkpt lat="43.4087074" lon="12.9701039"><ele>327.0</ele><time>2026-05-02T08:24:30.656Z</time></trkpt><trkpt lat="43.408677" lon="12.9699675"><ele>327.0</ele><time>2026-05-02T08:24:32.656Z</time></trkpt><trkpt lat="43.4085664" lon="12.9698972"><ele>327.0</ele><time>2026-05-02T08:24:34.66Z</time></trkpt><trkpt lat="43.408498" lon="12.9699194"><ele>327.0</ele><time>2026-05-02T08:24:35.656Z</time></trkpt><trkpt lat="43.4084113" lon="12.9699691"><ele>327.0</ele><time>2026-05-02T08:24:36.657Z</time></trkpt><trkpt lat="43.4083029" lon="12.9700289"><ele>327.0</ele><time>2026-05-02T08:24:37.662Z</time></trkpt><trkpt lat="43.4081826" lon="12.9700955"><ele>327.0</ele><time>2026-05-02T08:24:38.656Z</time></trkpt><trkpt lat="43.4080533" lon="12.9701651"><ele>322.0</ele><time>2026-05-02T08:24:39.66Z</time></trkpt><trkpt lat="43.4079155" lon="12.970227"><ele>317.0</ele><time>2026-05-02T08:24:40.659Z</time></trkpt><trkpt lat="43.4077809" lon="12.9702884"><ele>312.0</ele><time>2026-05-02T08:24:41.66Z</time></trkpt><trkpt lat="43.4076503" lon="12.9703362"><ele>307.0</ele><time>2026-05-02T08:24:42.651Z</time></trkpt><trkpt lat="43.407531" lon="12.9703863"><ele>307.0</ele><time>2026-05-02T08:24:43.66Z</time></trkpt><trkpt lat="43.4074134" lon="12.970429"><ele>307.0</ele><time>2026-05-02T08:24:44.656Z</time></trkpt><trkpt lat="43.4072969" lon="12.9704695"><ele>307.0</ele><time>2026-05-02T08:24:45.658Z</time></trkpt><trkpt lat="43.4071799" lon="12.9705006"><ele>307.0</ele><time>2026-05-02T08:24:46.658Z</time></trkpt><trkpt lat="43.4070646" lon="12.9705227"><ele>303.0</ele><time>2026-05-02T08:24:47.654Z</time></trkpt><trkpt lat="43.4069516" lon="12.9705419"><ele>299.0</ele><time>2026-05-02T08:24:48.658Z</time></trkpt><trkpt lat="43.4068397" lon="12.9705616"><ele>295.0</ele><time>2026-05-02T08:24:49.658Z</time></trkpt><trkpt lat="43.4067344" lon="12.9705934"><ele>291.0</ele><time>2026-05-02T08:24:50.657Z</time></trkpt><trkpt lat="43.4066385" lon="12.9706482"><ele>287.0</ele><time>2026-05-02T08:24:51.661Z</time></trkpt><trkpt lat="43.4065351" lon="12.9707355"><ele>283.5</ele><time>2026-05-02T08:24:52.667Z</time></trkpt><trkpt lat="43.4064371" lon="12.9708628"><ele>280.0</ele><time>2026-05-02T08:24:53.667Z</time></trkpt><trkpt lat="43.4063406" lon="12.9710035"><ele>276.5</ele><time>2026-05-02T08:24:54.66Z</time></trkpt><trkpt lat="43.4062468" lon="12.971152"><ele>273.0</ele><time>2026-05-02T08:24:55.661Z</time></trkpt><trkpt lat="43.4061555" lon="12.9713081"><ele>273.0</ele><time>2026-05-02T08:24:56.657Z</time></trkpt><trkpt lat="43.4060638" lon="12.9714451"><ele>273.0</ele><time>2026-05-02T08:24:57.66Z</time></trkpt><trkpt lat="43.4059769" lon="12.9715526"><ele>273.0</ele><time>2026-05-02T08:24:58.66Z</time></trkpt><trkpt lat="43.4058819" lon="12.9716566"><ele>273.0</ele><time>2026-05-02T08:24:59.659Z</time></trkpt><trkpt lat="43.4057882" lon="12.9717722"><ele>272.25</ele><time>2026-05-02T08:25:00.655Z</time></trkpt><trkpt lat="43.4056937" lon="12.9718863"><ele>271.5</ele><time>2026-05-02T08:25:01.656Z</time></trkpt><trkpt lat="43.4055916" lon="12.9720032"><ele>270.75</ele><time>2026-05-02T08:25:02.654Z</time></trkpt><trkpt lat="43.4054995" lon="12.9721064"><ele>270.0</ele><time>2026-05-02T08:25:03.655Z</time></trkpt><trkpt lat="43.4054026" lon="12.9721892"><ele>270.0</ele><time>2026-05-02T08:25:04.657Z</time></trkpt><trkpt lat="43.4052998" lon="12.9722651"><ele>270.0</ele><time>2026-05-02T08:25:05.653Z</time></trkpt><trkpt lat="43.4051873" lon="12.9723297"><ele>270.0</ele><time>2026-05-02T08:25:06.65Z</time></trkpt><trkpt lat="43.4050699" lon="12.9723895"><ele>270.0</ele><time>2026-05-02T08:25:07.648Z</time></trkpt><trkpt lat="43.4049591" lon="12.9724604"><ele>272.25</ele><time>2026-05-02T08:25:08.652Z</time></trkpt><trkpt lat="43.4048515" lon="12.9725357"><ele>274.5</ele><time>2026-05-02T08:25:09.65Z</time></trkpt><trkpt lat="43.4047426" lon="12.9726088"><ele>276.75</ele><time>2026-05-02T08:25:10.657Z</time></trkpt><trkpt lat="43.4046279" lon="12.972659"><ele>279.0</ele><time>2026-05-02T08:25:11.658Z</time></trkpt><trkpt lat="43.4045144" lon="12.9727003"><ele>279.0</ele><time>2026-05-02T08:25:12.667Z</time></trkpt><trkpt lat="43.4043966" lon="12.9727308"><ele>279.0</ele><time>2026-05-02T08:25:13.663Z</time></trkpt><trkpt lat="43.404277" lon="12.9727618"><ele>279.0</ele><time>2026-05-02T08:25:14.659Z</time></trkpt><trkpt lat="43.4041616" lon="12.9727775"><ele>279.0</ele><time>2026-05-02T08:25:15.653Z</time></trkpt><trkpt lat="43.4040486" lon="12.9727756"><ele>279.0</ele><time>2026-05-02T08:25:16.654Z</time></trkpt><trkpt lat="43.4039398" lon="12.9727609"><ele>279.0</ele><time>2026-05-02T08:25:17.656Z</time></trkpt><trkpt lat="43.4038325" lon="12.9727471"><ele>279.0</ele><time>2026-05-02T08:25:18.657Z</time></trkpt><trkpt lat="43.4037261" lon="12.9727318"><ele>279.0</ele><time>2026-05-02T08:25:19.661Z</time></trkpt><trkpt lat="43.4036246" lon="12.9727289"><ele>279.0</ele><time>2026-05-02T08:25:20.66Z</time></trkpt><trkpt lat="43.4035243" lon="12.9727706"><ele>272.0</ele><time>2026-05-02T08:25:21.658Z</time></trkpt><trkpt lat="43.403426" lon="12.9728481"><ele>265.0</ele><time>2026-05-02T08:25:22.658Z</time></trkpt><trkpt lat="43.4033271" lon="12.9729444"><ele>258.0</ele><time>2026-05-02T08:25:23.66Z</time></trkpt><trkpt lat="43.403229" lon="12.9730535"><ele>251.0</ele><time>2026-05-02T08:25:24.659Z</time></trkpt><trkpt lat="43.403134" lon="12.9731694"><ele>251.0</ele><time>2026-05-02T08:25:25.665Z</time></trkpt><trkpt lat="43.4030481" lon="12.9732735"><ele>251.00000000000003</ele><time>2026-05-02T08:25:26.661Z</time></trkpt><trkpt lat="43.4029732" lon="12.9733798"><ele>251.00000000000003</ele><time>2026-05-02T08:25:27.664Z</time></trkpt><trkpt lat="43.4029234" lon="12.9734799"><ele>251.0</ele><time>2026-05-02T08:25:28.661Z</time></trkpt><trkpt lat="43.4028915" lon="12.9735736"><ele>251.0</ele><time>2026-05-02T08:25:29.666Z</time></trkpt><trkpt lat="43.4028653" lon="12.9737296"><ele>244.8</ele><time>2026-05-02T08:25:31.667Z</time></trkpt><trkpt lat="43.4028197" lon="12.9738195"><ele>238.60000000000002</ele><time>2026-05-02T08:25:33.665Z</time></trkpt><trkpt lat="43.4027429" lon="12.973803"><ele>232.4</ele><time>2026-05-02T08:25:35.662Z</time></trkpt><trkpt lat="43.4027275" lon="12.9736998"><ele>226.2</ele><time>2026-05-02T08:25:37.666Z</time></trkpt><trkpt lat="43.4027969" lon="12.973538"><ele>220.0</ele><time>2026-05-02T08:25:39.665Z</time></trkpt><trkpt lat="43.4028446" lon="12.9734434"><ele>219.25</ele><time>2026-05-02T08:25:40.663Z</time></trkpt><trkpt lat="43.4029008" lon="12.9733373"><ele>218.5</ele><time>2026-05-02T08:25:41.671Z</time></trkpt><trkpt lat="43.4029693" lon="12.9732117"><ele>217.75</ele><time>2026-05-02T08:25:42.669Z</time></trkpt><trkpt lat="43.4030432" lon="12.9730787"><ele>217.0</ele><time>2026-05-02T08:25:43.669Z</time></trkpt><trkpt lat="43.4031157" lon="12.9729422"><ele>220.5</ele><time>2026-05-02T08:25:44.663Z</time></trkpt><trkpt lat="43.403188" lon="12.9728002"><ele>224.0</ele><time>2026-05-02T08:25:45.66Z</time></trkpt><trkpt lat="43.4032618" lon="12.9726628"><ele>227.5</ele><time>2026-05-02T08:25:46.667Z</time></trkpt><trkpt lat="43.4033383" lon="12.9725299"><ele>231.0</ele><time>2026-05-02T08:25:47.662Z</time></trkpt><trkpt lat="43.4034162" lon="12.9724029"><ele>231.0</ele><time>2026-05-02T08:25:48.664Z</time></trkpt><trkpt lat="43.4034974" lon="12.9722934"><ele>231.0</ele><time>2026-05-02T08:25:49.656Z</time></trkpt><trkpt lat="43.4035877" lon="12.9721901"><ele>231.0</ele><time>2026-05-02T08:25:50.657Z</time></trkpt><trkpt lat="43.4036786" lon="12.9720863"><ele>231.0</ele><time>2026-05-02T08:25:51.653Z</time></trkpt><trkpt lat="43.4037665" lon="12.9719883"><ele>231.20000000000002</ele><time>2026-05-02T08:25:52.66Z</time></trkpt><trkpt lat="43.4038532" lon="12.9718881"><ele>231.40000000000003</ele><time>2026-05-02T08:25:53.66Z</time></trkpt><trkpt lat="43.403929" lon="12.9717757"><ele>231.6</ele><time>2026-05-02T08:25:54.656Z</time></trkpt><trkpt lat="43.4039968" lon="12.9716505"><ele>231.8</ele><time>2026-05-02T08:25:55.659Z</time></trkpt><trkpt lat="43.4040543" lon="12.9715222"><ele>232.0</ele><time>2026-05-02T08:25:56.66Z</time></trkpt><trkpt lat="43.4040958" lon="12.9713794"><ele>232.0</ele><time>2026-05-02T08:25:57.66Z</time></trkpt><trkpt lat="43.4041185" lon="12.9712317"><ele>232.0</ele><time>2026-05-02T08:25:58.657Z</time></trkpt><trkpt lat="43.4041201" lon="12.9710845"><ele>232.0</ele><time>2026-05-02T08:25:59.659Z</time></trkpt><trkpt lat="43.4041129" lon="12.9709406"><ele>232.0</ele><time>2026-05-02T08:26:00.659Z</time></trkpt><trkpt lat="43.4041029" lon="12.9708003"><ele>232.0</ele><time>2026-05-02T08:26:01.662Z</time></trkpt><trkpt lat="43.4041" lon="12.9706635"><ele>230.16666666666666</ele><time>2026-05-02T08:26:02.658Z</time></trkpt><trkpt lat="43.4041034" lon="12.9705297"><ele>228.33333333333331</ele><time>2026-05-02T08:26:03.662Z</time></trkpt><trkpt lat="43.4041032" lon="12.9704008"><ele>226.5</ele><time>2026-05-02T08:26:04.656Z</time></trkpt><trkpt lat="43.4041021" lon="12.9702926"><ele>224.66666666666669</ele><time>2026-05-02T08:26:05.662Z</time></trkpt><trkpt lat="43.4040991" lon="12.9702028"><ele>222.83333333333334</ele><time>2026-05-02T08:26:06.657Z</time></trkpt><trkpt lat="43.4040625" lon="12.9700827"><ele>221.0</ele><time>2026-05-02T08:26:08.658Z</time></trkpt><trkpt lat="43.4039645" lon="12.9700622"><ele>221.0</ele><time>2026-05-02T08:26:10.66Z</time></trkpt><trkpt lat="43.4038709" lon="12.9701788"><ele>221.00000000000003</ele><time>2026-05-02T08:26:12.658Z</time></trkpt><trkpt lat="43.4038246" lon="12.9702687"><ele>221.00000000000003</ele><time>2026-05-02T08:26:13.655Z</time></trkpt><trkpt lat="43.4037821" lon="12.9703776"><ele>221.0</ele><time>2026-05-02T08:26:14.657Z</time></trkpt><trkpt lat="43.4037482" lon="12.9704998"><ele>221.0</ele><time>2026-05-02T08:26:15.658Z</time></trkpt><trkpt lat="43.4037111" lon="12.9706319"><ele>220.0</ele><time>2026-05-02T08:26:16.656Z</time></trkpt><trkpt lat="43.4036705" lon="12.9707587"><ele>219.00000000000003</ele><time>2026-05-02T08:26:17.659Z</time></trkpt><trkpt lat="43.4036308" lon="12.9708763"><ele>218.00000000000003</ele><time>2026-05-02T08:26:18.662Z</time></trkpt><trkpt lat="43.403584" lon="12.9709854"><ele>217.0</ele><time>2026-05-02T08:26:19.659Z</time></trkpt><trkpt lat="43.403528" lon="12.9710717"><ele>216.0</ele><time>2026-05-02T08:26:20.653Z</time></trkpt><trkpt lat="43.4034639" lon="12.9711421"><ele>216.0</ele><time>2026-05-02T08:26:21.656Z</time></trkpt><trkpt lat="43.4033858" lon="12.9711906"><ele>216.0</ele><time>2026-05-02T08:26:22.658Z</time></trkpt><trkpt lat="43.4033108" lon="12.9712232"><ele>216.0</ele><time>2026-05-02T08:26:23.652Z</time></trkpt><trkpt lat="43.4032417" lon="12.971246"><ele>216.0</ele><time>2026-05-02T08:26:24.659Z</time></trkpt><trkpt lat="43.4031784" lon="12.9712442"><ele>216.0</ele><time>2026-05-02T08:26:25.655Z</time></trkpt><trkpt lat="43.4031132" lon="12.9712385"><ele>216.0</ele><time>2026-05-02T08:26:26.656Z</time></trkpt><trkpt lat="43.4030441" lon="12.97124"><ele>216.0</ele><time>2026-05-02T08:26:27.659Z</time></trkpt><trkpt lat="43.4029763" lon="12.9712573"><ele>214.42857142857142</ele><time>2026-05-02T08:26:28.66Z</time></trkpt><trkpt lat="43.4029076" lon="12.9712844"><ele>212.85714285714283</ele><time>2026-05-02T08:26:29.656Z</time></trkpt><trkpt lat="43.4028449" lon="12.971332"><ele>211.28571428571428</ele><time>2026-05-02T08:26:30.659Z</time></trkpt><trkpt lat="43.4027916" lon="12.9714001"><ele>209.71428571428572</ele><time>2026-05-02T08:26:31.663Z</time></trkpt><trkpt lat="43.4027477" lon="12.971486"><ele>208.14285714285714</ele><time>2026-05-02T08:26:32.66Z</time></trkpt><trkpt lat="43.4027151" lon="12.9715702"><ele>206.57142857142858</ele><time>2026-05-02T08:26:33.657Z</time></trkpt><trkpt lat="43.4026948" lon="12.9716592"><ele>205.0</ele><time>2026-05-02T08:26:34.653Z</time></trkpt><trkpt lat="43.4026907" lon="12.9717575"><ele>204.99999999999997</ele><time>2026-05-02T08:26:35.657Z</time></trkpt><trkpt lat="43.4026874" lon="12.9718604"><ele>205.0</ele><time>2026-05-02T08:26:36.659Z</time></trkpt><trkpt lat="43.4026815" lon="12.971964"><ele>205.0</ele><time>2026-05-02T08:26:37.659Z</time></trkpt><trkpt lat="43.4026714" lon="12.9720867"><ele>205.0</ele><time>2026-05-02T08:26:38.655Z</time></trkpt><trkpt lat="43.4026565" lon="12.9722205"><ele>204.99999999999997</ele><time>2026-05-02T08:26:39.654Z</time></trkpt><trkpt lat="43.4026373" lon="12.9723601"><ele>205.0</ele><time>2026-05-02T08:26:40.651Z</time></trkpt><trkpt lat="43.402613" lon="12.9724953"><ele>206.99999999999997</ele><time>2026-05-02T08:26:41.656Z</time></trkpt><trkpt lat="43.4025949" lon="12.9726092"><ele>209.0</ele><time>2026-05-02T08:26:42.658Z</time></trkpt><trkpt lat="43.4025751" lon="12.97271"><ele>211.0</ele><time>2026-05-02T08:26:43.654Z</time></trkpt><trkpt lat="43.4025543" lon="12.9728063"><ele>213.0</ele><time>2026-05-02T08:26:44.654Z</time></trkpt><trkpt lat="43.402532" lon="12.9729035"><ele>214.99999999999997</ele><time>2026-05-02T08:26:45.653Z</time></trkpt><trkpt lat="43.4024927" lon="12.9729992"><ele>217.0</ele><time>2026-05-02T08:26:46.655Z</time></trkpt><trkpt lat="43.4024392" lon="12.9730862"><ele>216.99999999999997</ele><time>2026-05-02T08:26:47.655Z</time></trkpt><trkpt lat="43.4023804" lon="12.9731742"><ele>217.0</ele><time>2026-05-02T08:26:48.661Z</time></trkpt><trkpt lat="43.4023217" lon="12.97326"><ele>217.0</ele><time>2026-05-02T08:26:49.656Z</time></trkpt><trkpt lat="43.4022621" lon="12.9733347"><ele>217.0</ele><time>2026-05-02T08:26:50.658Z</time></trkpt><trkpt lat="43.4021982" lon="12.9734019"><ele>216.99999999999997</ele><time>2026-05-02T08:26:51.656Z</time></trkpt><trkpt lat="43.4021363" lon="12.9734637"><ele>217.0</ele><time>2026-05-02T08:26:52.655Z</time></trkpt><trkpt lat="43.4020766" lon="12.9735147"><ele>216.49999999999997</ele><time>2026-05-02T08:26:53.656Z</time></trkpt><trkpt lat="43.4020124" lon="12.9735635"><ele>216.0</ele><time>2026-05-02T08:26:54.651Z</time></trkpt><trkpt lat="43.4019435" lon="12.9736062"><ele>215.5</ele><time>2026-05-02T08:26:55.659Z</time></trkpt><trkpt lat="43.401874" lon="12.9736412"><ele>215.0</ele><time>2026-05-02T08:26:56.652Z</time></trkpt><trkpt lat="43.4018115" lon="12.973658"><ele>214.49999999999997</ele><time>2026-05-02T08:26:57.656Z</time></trkpt><trkpt lat="43.401727" lon="12.9736345"><ele>214.0</ele><time>2026-05-02T08:26:59.661Z</time></trkpt><trkpt lat="43.401649" lon="12.9736052"><ele>213.99999999999997</ele><time>2026-05-02T08:27:01.659Z</time></trkpt><trkpt lat="43.4015834" lon="12.9735975"><ele>214.0</ele><time>2026-05-02T08:27:07.658Z</time></trkpt><trkpt lat="43.4015193" lon="12.9735992"><ele>214.0</ele><time>2026-05-02T08:27:09.664Z</time></trkpt><trkpt lat="43.40149" lon="12.9736879"><ele>214.0</ele><time>2026-05-02T08:27:12.664Z</time></trkpt><trkpt lat="43.4015088" lon="12.9737966"><ele>213.99999999999997</ele><time>2026-05-02T08:28:57.673Z</time></trkpt><trkpt lat="43.4015692" lon="12.973865"><ele>214.0</ele><time>2026-05-02T08:29:05.676Z</time></trkpt><trkpt lat="43.4016338" lon="12.9739984"><ele>214.0</ele><time>2026-05-02T08:29:07.668Z</time></trkpt><trkpt lat="43.4016882" lon="12.974079"><ele>213.99999999999997</ele><time>2026-05-02T08:29:08.667Z</time></trkpt><trkpt lat="43.4017466" lon="12.974178"><ele>213.99999999999997</ele><time>2026-05-02T08:29:09.672Z</time></trkpt><trkpt lat="43.4018126" lon="12.9742627"><ele>214.0</ele><time>2026-05-02T08:29:10.662Z</time></trkpt><trkpt lat="43.4018874" lon="12.9743398"><ele>214.0</ele><time>2026-05-02T08:29:11.672Z</time></trkpt><trkpt lat="43.40198" lon="12.9744142"><ele>214.75</ele><time>2026-05-02T08:29:12.666Z</time></trkpt><trkpt lat="43.4020897" lon="12.9744387"><ele>215.5</ele><time>2026-05-02T08:29:13.667Z</time></trkpt><trkpt lat="43.4022025" lon="12.9744446"><ele>216.25</ele><time>2026-05-02T08:29:14.663Z</time></trkpt><trkpt lat="43.4023347" lon="12.9744372"><ele>217.0</ele><time>2026-05-02T08:29:15.662Z</time></trkpt><trkpt lat="43.4024411" lon="12.9744619"><ele>212.0</ele><time>2026-05-02T08:29:16.661Z</time></trkpt><trkpt lat="43.4025719" lon="12.9744606"><ele>207.0</ele><time>2026-05-02T08:29:17.666Z</time></trkpt><trkpt lat="43.402703" lon="12.9744832"><ele>202.0</ele><time>2026-05-02T08:29:18.665Z</time></trkpt><trkpt lat="43.4028338" lon="12.9745125"><ele>197.0</ele><time>2026-05-02T08:29:19.661Z</time></trkpt><trkpt lat="43.4029616" lon="12.9745324"><ele>196.75</ele><time>2026-05-02T08:29:20.664Z</time></trkpt><trkpt lat="43.4030809" lon="12.9745542"><ele>196.5</ele><time>2026-05-02T08:29:21.668Z</time></trkpt><trkpt lat="43.4031955" lon="12.9745823"><ele>196.25</ele><time>2026-05-02T08:29:22.669Z</time></trkpt><trkpt lat="43.4033113" lon="12.9746028"><ele>196.0</ele><time>2026-05-02T08:29:23.662Z</time></trkpt><trkpt lat="43.403418" lon="12.9746273"><ele>196.0</ele><time>2026-05-02T08:29:24.662Z</time></trkpt><trkpt lat="43.4035262" lon="12.9746489"><ele>196.0</ele><time>2026-05-02T08:29:25.666Z</time></trkpt><trkpt lat="43.4036365" lon="12.9746751"><ele>196.0</ele><time>2026-05-02T08:29:26.661Z</time></trkpt><trkpt lat="43.4037466" lon="12.9747112"><ele>196.0</ele><time>2026-05-02T08:29:27.663Z</time></trkpt><trkpt lat="43.4038531" lon="12.9747592"><ele>196.0</ele><time>2026-05-02T08:29:28.663Z</time></trkpt><trkpt lat="43.4039458" lon="12.9748128"><ele>195.20000000000002</ele><time>2026-05-02T08:29:29.658Z</time></trkpt><trkpt lat="43.4040465" lon="12.9748719"><ele>194.4</ele><time>2026-05-02T08:29:30.659Z</time></trkpt><trkpt lat="43.4041264" lon="12.9749489"><ele>193.6</ele><time>2026-05-02T08:29:31.663Z</time></trkpt><trkpt lat="43.4041985" lon="12.9750264"><ele>192.8</ele><time>2026-05-02T08:29:32.66Z</time></trkpt><trkpt lat="43.404266" lon="12.9751053"><ele>192.0</ele><time>2026-05-02T08:29:33.661Z</time></trkpt><trkpt lat="43.4043291" lon="12.9751812"><ele>192.0</ele><time>2026-05-02T08:29:34.667Z</time></trkpt><trkpt lat="43.4043833" lon="12.9752617"><ele>192.0</ele><time>2026-05-02T08:29:35.668Z</time></trkpt><trkpt lat="43.4044395" lon="12.9753471"><ele>192.0</ele><time>2026-05-02T08:29:36.665Z</time></trkpt><trkpt lat="43.4044914" lon="12.9754395"><ele>192.0</ele><time>2026-05-02T08:29:37.663Z</time></trkpt><trkpt lat="43.4045365" lon="12.9755307"><ele>192.0</ele><time>2026-05-02T08:29:38.655Z</time></trkpt><trkpt lat="43.4045796" lon="12.9756176"><ele>192.0</ele><time>2026-05-02T08:29:39.667Z</time></trkpt><trkpt lat="43.4046172" lon="12.975708"><ele>192.0</ele><time>2026-05-02T08:29:40.663Z</time></trkpt><trkpt lat="43.4046492" lon="12.9758088"><ele>192.0</ele><time>2026-05-02T08:29:41.664Z</time></trkpt><trkpt lat="43.4046728" lon="12.9759445"><ele>192.0</ele><time>2026-05-02T08:29:42.67Z</time></trkpt><trkpt lat="43.4046882" lon="12.9760979"><ele>192.0</ele><time>2026-05-02T08:29:43.672Z</time></trkpt><trkpt lat="43.4046962" lon="12.9762457"><ele>192.0</ele><time>2026-05-02T08:29:44.671Z</time></trkpt><trkpt lat="43.4047047" lon="12.9764048"><ele>193.39999999999998</ele><time>2026-05-02T08:29:45.673Z</time></trkpt><trkpt lat="43.4047193" lon="12.9765585"><ele>194.79999999999998</ele><time>2026-05-02T08:29:46.673Z</time></trkpt><trkpt lat="43.4047389" lon="12.976705"><ele>196.2</ele><time>2026-05-02T08:29:47.674Z</time></trkpt><trkpt lat="43.4047605" lon="12.9768386"><ele>197.6</ele><time>2026-05-02T08:29:48.673Z</time></trkpt><trkpt lat="43.4047829" lon="12.9769628"><ele>199.0</ele><time>2026-05-02T08:29:49.673Z</time></trkpt><trkpt lat="43.4047986" lon="12.9770726"><ele>198.99999999999997</ele><time>2026-05-02T08:29:50.675Z</time></trkpt><trkpt lat="43.4048094" lon="12.9771791"><ele>199.0</ele><time>2026-05-02T08:29:51.67Z</time></trkpt><trkpt lat="43.4048224" lon="12.9772902"><ele>199.0</ele><time>2026-05-02T08:29:52.674Z</time></trkpt><trkpt lat="43.4048362" lon="12.9773998"><ele>199.0</ele><time>2026-05-02T08:29:53.668Z</time></trkpt><trkpt lat="43.4048633" lon="12.9774996"><ele>198.99999999999997</ele><time>2026-05-02T08:29:54.676Z</time></trkpt><trkpt lat="43.404893" lon="12.9775801"><ele>199.0</ele><time>2026-05-02T08:29:55.674Z</time></trkpt><trkpt lat="43.40496" lon="12.9776965"><ele>197.2</ele><time>2026-05-02T08:29:57.675Z</time></trkpt><trkpt lat="43.4050284" lon="12.9778221"><ele>195.39999999999998</ele><time>2026-05-02T08:29:59.678Z</time></trkpt><trkpt lat="43.4050717" lon="12.9778944"><ele>193.6</ele><time>2026-05-02T08:30:00.681Z</time></trkpt><trkpt lat="43.405121" lon="12.9779731"><ele>191.8</ele><time>2026-05-02T08:30:01.676Z</time></trkpt><trkpt lat="43.4051744" lon="12.9780731"><ele>190.0</ele><time>2026-05-02T08:30:02.675Z</time></trkpt><trkpt lat="43.4052325" lon="12.9781886"><ele>190.0</ele><time>2026-05-02T08:30:03.682Z</time></trkpt><trkpt lat="43.4052895" lon="12.9783035"><ele>190.0</ele><time>2026-05-02T08:30:04.678Z</time></trkpt><trkpt lat="43.4053459" lon="12.9784072"><ele>190.0</ele><time>2026-05-02T08:30:05.68Z</time></trkpt><trkpt lat="43.4054008" lon="12.9785078"><ele>190.0</ele><time>2026-05-02T08:30:06.673Z</time></trkpt><trkpt lat="43.4054515" lon="12.9786017"><ele>190.0</ele><time>2026-05-02T08:30:07.675Z</time></trkpt><trkpt lat="43.4054918" lon="12.9786875"><ele>190.0</ele><time>2026-05-02T08:30:08.673Z</time></trkpt><trkpt lat="43.4055322" lon="12.9787711"><ele>189.33333333333334</ele><time>2026-05-02T08:30:09.677Z</time></trkpt><trkpt lat="43.4055694" lon="12.9788497"><ele>188.66666666666669</ele><time>2026-05-02T08:30:10.672Z</time></trkpt><trkpt lat="43.4056347" lon="12.9789561"><ele>188.0</ele><time>2026-05-02T08:30:12.66Z</time></trkpt><trkpt lat="43.4056797" lon="12.9790323"><ele>187.33333333333334</ele><time>2026-05-02T08:30:14.661Z</time></trkpt><trkpt lat="43.4057187" lon="12.9791179"><ele>186.66666666666666</ele><time>2026-05-02T08:30:19.66Z</time></trkpt><trkpt lat="43.4057543" lon="12.9791918"><ele>186.0</ele><time>2026-05-02T08:30:21.668Z</time></trkpt><trkpt lat="43.4058107" lon="12.9793021"><ele>185.8</ele><time>2026-05-02T08:30:23.671Z</time></trkpt><trkpt lat="43.4058822" lon="12.9794336"><ele>185.60000000000002</ele><time>2026-05-02T08:30:25.674Z</time></trkpt><trkpt lat="43.4059219" lon="12.9795017"><ele>185.4</ele><time>2026-05-02T08:30:26.669Z</time></trkpt><trkpt lat="43.4059914" lon="12.9796291"><ele>185.2</ele><time>2026-05-02T08:30:28.664Z</time></trkpt><trkpt lat="43.4060511" lon="12.9797623"><ele>185.0</ele><time>2026-05-02T08:30:30.663Z</time></trkpt><trkpt lat="43.4061038" lon="12.9798491"><ele>185.0</ele><time>2026-05-02T08:30:32.663Z</time></trkpt><trkpt lat="43.4061643" lon="12.9799671"><ele>185.0</ele><time>2026-05-02T08:30:34.662Z</time></trkpt><trkpt lat="43.406205" lon="12.9800489"><ele>185.0</ele><time>2026-05-02T08:30:35.663Z</time></trkpt><trkpt lat="43.4062557" lon="12.9801432"><ele>185.0</ele><time>2026-05-02T08:30:36.666Z</time></trkpt><trkpt lat="43.4063133" lon="12.9802391"><ele>185.0</ele><time>2026-05-02T08:30:37.662Z</time></trkpt><trkpt lat="43.4063715" lon="12.9803379"><ele>185.0</ele><time>2026-05-02T08:30:38.67Z</time></trkpt><trkpt lat="43.4064269" lon="12.9804354"><ele>185.5</ele><time>2026-05-02T08:30:39.663Z</time></trkpt><trkpt lat="43.4064692" lon="12.9805192"><ele>186.0</ele><time>2026-05-02T08:30:40.66Z</time></trkpt><trkpt lat="43.4065036" lon="12.9806009"><ele>186.5</ele><time>2026-05-02T08:30:41.666Z</time></trkpt><trkpt lat="43.4065285" lon="12.980681"><ele>187.0</ele><time>2026-05-02T08:30:42.664Z</time></trkpt><trkpt lat="43.4065414" lon="12.9808571"><ele>187.5</ele><time>2026-05-02T08:30:44.668Z</time></trkpt><trkpt lat="43.4065177" lon="12.9809395"><ele>188.0</ele><time>2026-05-02T08:30:45.666Z</time></trkpt><trkpt lat="43.4064396" lon="12.9810652"><ele>191.60000000000002</ele><time>2026-05-02T08:30:47.661Z</time></trkpt><trkpt lat="43.4063841" lon="12.9811167"><ele>195.20000000000002</ele><time>2026-05-02T08:30:48.666Z</time></trkpt><trkpt lat="43.4063066" lon="12.9811601"><ele>198.8</ele><time>2026-05-02T08:30:49.665Z</time></trkpt><trkpt lat="43.4062069" lon="12.9811962"><ele>202.4</ele><time>2026-05-02T08:30:50.666Z</time></trkpt><trkpt lat="43.4060921" lon="12.9812252"><ele>206.0</ele><time>2026-05-02T08:30:51.667Z</time></trkpt><trkpt lat="43.4059781" lon="12.9812703"><ele>206.0</ele><time>2026-05-02T08:30:52.673Z</time></trkpt><trkpt lat="43.4058595" lon="12.9813145"><ele>206.0</ele><time>2026-05-02T08:30:53.669Z</time></trkpt><trkpt lat="43.4057443" lon="12.9813579"><ele>206.0</ele><time>2026-05-02T08:30:54.667Z</time></trkpt><trkpt lat="43.4056241" lon="12.9813977"><ele>206.0</ele><time>2026-05-02T08:30:55.669Z</time></trkpt><trkpt lat="43.4054996" lon="12.9814358"><ele>205.0</ele><time>2026-05-02T08:30:56.669Z</time></trkpt><trkpt lat="43.4053739" lon="12.9814757"><ele>204.0</ele><time>2026-05-02T08:30:57.665Z</time></trkpt><trkpt lat="43.4052514" lon="12.9815076"><ele>203.0</ele><time>2026-05-02T08:30:58.665Z</time></trkpt><trkpt lat="43.4051248" lon="12.981538"><ele>202.0</ele><time>2026-05-02T08:30:59.666Z</time></trkpt><trkpt lat="43.4049954" lon="12.981583"><ele>202.0</ele><time>2026-05-02T08:31:00.665Z</time></trkpt><trkpt lat="43.4048643" lon="12.9816398"><ele>202.0</ele><time>2026-05-02T08:31:01.661Z</time></trkpt><trkpt lat="43.4047299" lon="12.9817134"><ele>202.0</ele><time>2026-05-02T08:31:02.668Z</time></trkpt><trkpt lat="43.4045916" lon="12.9817777"><ele>202.0</ele><time>2026-05-02T08:31:03.665Z</time></trkpt><trkpt lat="43.4044505" lon="12.9818187"><ele>206.75</ele><time>2026-05-02T08:31:04.667Z</time></trkpt><trkpt lat="43.4043087" lon="12.9818304"><ele>211.5</ele><time>2026-05-02T08:31:05.664Z</time></trkpt><trkpt lat="43.4041671" lon="12.9818327"><ele>216.25</ele><time>2026-05-02T08:31:06.668Z</time></trkpt><trkpt lat="43.4040359" lon="12.9818251"><ele>221.0</ele><time>2026-05-02T08:31:07.663Z</time></trkpt><trkpt lat="43.4039013" lon="12.9818299"><ele>220.5</ele><time>2026-05-02T08:31:08.669Z</time></trkpt><trkpt lat="43.4037679" lon="12.9818328"><ele>220.0</ele><time>2026-05-02T08:31:09.663Z</time></trkpt><trkpt lat="43.4036317" lon="12.9818598"><ele>219.5</ele><time>2026-05-02T08:31:10.668Z</time></trkpt><trkpt lat="43.4034979" lon="12.9818687"><ele>219.0</ele><time>2026-05-02T08:31:11.665Z</time></trkpt><trkpt lat="43.4033518" lon="12.9818728"><ele>219.0</ele><time>2026-05-02T08:31:12.673Z</time></trkpt><trkpt lat="43.4032052" lon="12.98188"><ele>219.0</ele><time>2026-05-02T08:31:13.67Z</time></trkpt><trkpt lat="43.4030679" lon="12.9818849"><ele>219.0</ele><time>2026-05-02T08:31:14.672Z</time></trkpt><trkpt lat="43.4029481" lon="12.9818783"><ele>219.0</ele><time>2026-05-02T08:31:15.673Z</time></trkpt><trkpt lat="43.4028442" lon="12.9818798"><ele>218.2</ele><time>2026-05-02T08:31:16.673Z</time></trkpt><trkpt lat="43.4027421" lon="12.9818816"><ele>217.39999999999998</ele><time>2026-05-02T08:31:17.666Z</time></trkpt><trkpt lat="43.4026535" lon="12.9818508"><ele>216.6</ele><time>2026-05-02T08:31:18.669Z</time></trkpt><trkpt lat="43.4025677" lon="12.9818001"><ele>215.8</ele><time>2026-05-02T08:31:19.666Z</time></trkpt><trkpt lat="43.402498" lon="12.9817309"><ele>215.0</ele><time>2026-05-02T08:31:20.665Z</time></trkpt><trkpt lat="43.4024443" lon="12.9816356"><ele>211.8</ele><time>2026-05-02T08:31:21.659Z</time></trkpt><trkpt lat="43.402407" lon="12.9815289"><ele>208.6</ele><time>2026-05-02T08:31:22.674Z</time></trkpt><trkpt lat="43.402381" lon="12.9814265"><ele>205.39999999999998</ele><time>2026-05-02T08:31:23.665Z</time></trkpt><trkpt lat="43.4023607" lon="12.981309"><ele>202.2</ele><time>2026-05-02T08:31:24.667Z</time></trkpt><trkpt lat="43.4023445" lon="12.9811846"><ele>199.0</ele><time>2026-05-02T08:31:25.663Z</time></trkpt><trkpt lat="43.4023189" lon="12.9810419"><ele>199.0</ele><time>2026-05-02T08:31:26.665Z</time></trkpt><trkpt lat="43.4022924" lon="12.9808856"><ele>199.0</ele><time>2026-05-02T08:31:27.668Z</time></trkpt><trkpt lat="43.402278" lon="12.9807043"><ele>199.0</ele><time>2026-05-02T08:31:28.656Z</time></trkpt><trkpt lat="43.4022795" lon="12.9805087"><ele>199.0</ele><time>2026-05-02T08:31:29.664Z</time></trkpt><trkpt lat="43.4022773" lon="12.9803054"><ele>198.75</ele><time>2026-05-02T08:31:30.657Z</time></trkpt><trkpt lat="43.4022677" lon="12.9801106"><ele>198.5</ele><time>2026-05-02T08:31:31.66Z</time></trkpt><trkpt lat="43.4022694" lon="12.9799163"><ele>198.25</ele><time>2026-05-02T08:31:32.66Z</time></trkpt><trkpt lat="43.4022887" lon="12.9797367"><ele>198.0</ele><time>2026-05-02T08:31:33.664Z</time></trkpt><trkpt lat="43.4023166" lon="12.9795734"><ele>198.0</ele><time>2026-05-02T08:31:34.656Z</time></trkpt><trkpt lat="43.4023494" lon="12.9794266"><ele>198.0</ele><time>2026-05-02T08:31:35.663Z</time></trkpt><trkpt lat="43.4023838" lon="12.9793094"><ele>198.0</ele><time>2026-05-02T08:31:36.661Z</time></trkpt><trkpt lat="43.4024316" lon="12.9791938"><ele>198.0</ele><time>2026-05-02T08:31:37.661Z</time></trkpt><trkpt lat="43.4024824" lon="12.9790865"><ele>198.0</ele><time>2026-05-02T08:31:38.664Z</time></trkpt><trkpt lat="43.4025203" lon="12.9789896"><ele>197.66666666666666</ele><time>2026-05-02T08:31:39.658Z</time></trkpt><trkpt lat="43.4025398" lon="12.978885"><ele>197.33333333333331</ele><time>2026-05-02T08:31:40.656Z</time></trkpt><trkpt lat="43.4025359" lon="12.9787727"><ele>197.0</ele><time>2026-05-02T08:31:41.657Z</time></trkpt><trkpt lat="43.4025073" lon="12.9786684"><ele>196.66666666666666</ele><time>2026-05-02T08:31:42.665Z</time></trkpt><trkpt lat="43.4024477" lon="12.9785986"><ele>196.33333333333331</ele><time>2026-05-02T08:31:43.68Z</time></trkpt><trkpt lat="43.4023726" lon="12.9785646"><ele>196.0</ele><time>2026-05-02T08:31:44.668Z</time></trkpt><trkpt lat="43.4022916" lon="12.9785582"><ele>196.0</ele><time>2026-05-02T08:31:45.679Z</time></trkpt><trkpt lat="43.402213" lon="12.9786069"><ele>196.0</ele><time>2026-05-02T08:31:46.67Z</time></trkpt><trkpt lat="43.4021475" lon="12.9786798"><ele>196.0</ele><time>2026-05-02T08:31:47.665Z</time></trkpt><trkpt lat="43.4021005" lon="12.9787798"><ele>196.0</ele><time>2026-05-02T08:31:48.667Z</time></trkpt><trkpt lat="43.4020721" lon="12.9789014"><ele>196.0</ele><time>2026-05-02T08:31:49.667Z</time></trkpt><trkpt lat="43.4020647" lon="12.9790483"><ele>198.16666666666666</ele><time>2026-05-02T08:31:50.672Z</time></trkpt><trkpt lat="43.4020652" lon="12.9792045"><ele>200.33333333333331</ele><time>2026-05-02T08:31:51.674Z</time></trkpt><trkpt lat="43.4020618" lon="12.9793497"><ele>202.5</ele><time>2026-05-02T08:31:52.673Z</time></trkpt><trkpt lat="43.4020578" lon="12.9794685"><ele>204.66666666666669</ele><time>2026-05-02T08:31:53.678Z</time></trkpt><trkpt lat="43.4020492" lon="12.9795627"><ele>206.83333333333334</ele><time>2026-05-02T08:31:54.672Z</time></trkpt><trkpt lat="43.4020305" lon="12.9796557"><ele>209.0</ele><time>2026-05-02T08:31:55.683Z</time></trkpt><trkpt lat="43.4020077" lon="12.9797542"><ele>209.00000000000003</ele><time>2026-05-02T08:31:56.677Z</time></trkpt><trkpt lat="43.4019653" lon="12.9798459"><ele>209.0</ele><time>2026-05-02T08:31:57.677Z</time></trkpt><trkpt lat="43.4019111" lon="12.9799287"><ele>209.0</ele><time>2026-05-02T08:31:58.669Z</time></trkpt><trkpt lat="43.4018464" lon="12.98"><ele>209.0</ele><time>2026-05-02T08:31:59.674Z</time></trkpt><trkpt lat="43.4017691" lon="12.980068"><ele>209.00000000000003</ele><time>2026-05-02T08:32:00.668Z</time></trkpt><trkpt lat="43.401689" lon="12.9801321"><ele>209.0</ele><time>2026-05-02T08:32:01.668Z</time></trkpt><trkpt lat="43.4016007" lon="12.9801866"><ele>212.0</ele><time>2026-05-02T08:32:02.665Z</time></trkpt><trkpt lat="43.4015062" lon="12.9802356"><ele>215.0</ele><time>2026-05-02T08:32:03.665Z</time></trkpt><trkpt lat="43.4014064" lon="12.9802738"><ele>217.99999999999997</ele><time>2026-05-02T08:32:04.666Z</time></trkpt><trkpt lat="43.4013007" lon="12.9803047"><ele>221.0</ele><time>2026-05-02T08:32:05.665Z</time></trkpt><trkpt lat="43.401191" lon="12.9803349"><ele>224.0</ele><time>2026-05-02T08:32:06.673Z</time></trkpt><trkpt lat="43.4010774" lon="12.9803764"><ele>224.5</ele><time>2026-05-02T08:32:07.67Z</time></trkpt><trkpt lat="43.4009601" lon="12.9804201"><ele>225.0</ele><time>2026-05-02T08:32:08.669Z</time></trkpt><trkpt lat="43.4008459" lon="12.9804684"><ele>225.5</ele><time>2026-05-02T08:32:09.675Z</time></trkpt><trkpt lat="43.4007331" lon="12.9805196"><ele>226.0</ele><time>2026-05-02T08:32:10.672Z</time></trkpt><trkpt lat="43.4006176" lon="12.980575"><ele>226.0</ele><time>2026-05-02T08:32:11.675Z</time></trkpt><trkpt lat="43.4005014" lon="12.9806403"><ele>226.0</ele><time>2026-05-02T08:32:12.673Z</time></trkpt><trkpt lat="43.4003872" lon="12.9807036"><ele>226.0</ele><time>2026-05-02T08:32:13.679Z</time></trkpt><trkpt lat="43.400272" lon="12.9807705"><ele>226.0</ele><time>2026-05-02T08:32:14.679Z</time></trkpt><trkpt lat="43.4001631" lon="12.9808387"><ele>228.75</ele><time>2026-05-02T08:32:15.676Z</time></trkpt><trkpt lat="43.4000506" lon="12.9809023"><ele>231.5</ele><time>2026-05-02T08:32:16.676Z</time></trkpt><trkpt lat="43.3999357" lon="12.9809652"><ele>234.25</ele><time>2026-05-02T08:32:17.685Z</time></trkpt><trkpt lat="43.3998187" lon="12.9810294"><ele>237.0</ele><time>2026-05-02T08:32:18.683Z</time></trkpt><trkpt lat="43.3997079" lon="12.9810987"><ele>236.8</ele><time>2026-05-02T08:32:19.692Z</time></trkpt><trkpt lat="43.3995926" lon="12.9811585"><ele>236.6</ele><time>2026-05-02T08:32:20.677Z</time></trkpt><trkpt lat="43.399487" lon="12.9812091"><ele>236.40000000000003</ele><time>2026-05-02T08:32:21.676Z</time></trkpt><trkpt lat="43.3993888" lon="12.9812632"><ele>236.20000000000002</ele><time>2026-05-02T08:32:22.669Z</time></trkpt><trkpt lat="43.3993012" lon="12.9813264"><ele>236.0</ele><time>2026-05-02T08:32:23.675Z</time></trkpt><trkpt lat="43.3992176" lon="12.9814106"><ele>236.0</ele><time>2026-05-02T08:32:24.678Z</time></trkpt><trkpt lat="43.399146" lon="12.9815127"><ele>236.00000000000003</ele><time>2026-05-02T08:32:25.665Z</time></trkpt><trkpt lat="43.3990877" lon="12.9816177"><ele>236.00000000000003</ele><time>2026-05-02T08:32:26.669Z</time></trkpt><trkpt lat="43.3990463" lon="12.981743"><ele>236.0</ele><time>2026-05-02T08:32:27.67Z</time></trkpt><trkpt lat="43.3990188" lon="12.9818721"><ele>236.0</ele><time>2026-05-02T08:32:28.665Z</time></trkpt><trkpt lat="43.3990123" lon="12.9820124"><ele>238.16666666666669</ele><time>2026-05-02T08:32:29.671Z</time></trkpt><trkpt lat="43.3989931" lon="12.9821405"><ele>240.33333333333334</ele><time>2026-05-02T08:32:30.68Z</time></trkpt><trkpt lat="43.3989674" lon="12.982248"><ele>242.5</ele><time>2026-05-02T08:32:31.673Z</time></trkpt><trkpt lat="43.3989333" lon="12.9823504"><ele>244.66666666666669</ele><time>2026-05-02T08:32:32.666Z</time></trkpt><trkpt lat="43.398885" lon="12.9824385"><ele>246.83333333333334</ele><time>2026-05-02T08:32:33.671Z</time></trkpt><trkpt lat="43.3988156" lon="12.9825122"><ele>249.0</ele><time>2026-05-02T08:32:34.664Z</time></trkpt><trkpt lat="43.3987346" lon="12.982569"><ele>252.6</ele><time>2026-05-02T08:32:35.668Z</time></trkpt><trkpt lat="43.3986376" lon="12.9825969"><ele>256.2</ele><time>2026-05-02T08:32:36.664Z</time></trkpt><trkpt lat="43.3985286" lon="12.9826184"><ele>259.79999999999995</ele><time>2026-05-02T08:32:37.678Z</time></trkpt><trkpt lat="43.3984229" lon="12.9826327"><ele>263.4</ele><time>2026-05-02T08:32:38.671Z</time></trkpt><trkpt lat="43.3983176" lon="12.9826527"><ele>267.0</ele><time>2026-05-02T08:32:39.68Z</time></trkpt><trkpt lat="43.3982015" lon="12.9826726"><ele>267.0</ele><time>2026-05-02T08:32:40.676Z</time></trkpt><trkpt lat="43.3980817" lon="12.9827006"><ele>267.0</ele><time>2026-05-02T08:32:41.68Z</time></trkpt><trkpt lat="43.397959" lon="12.9827402"><ele>267.0</ele><time>2026-05-02T08:32:42.668Z</time></trkpt><trkpt lat="43.3978298" lon="12.9827874"><ele>267.0</ele><time>2026-05-02T08:32:43.669Z</time></trkpt><trkpt lat="43.3976931" lon="12.9828342"><ele>266.25</ele><time>2026-05-02T08:32:44.668Z</time></trkpt><trkpt lat="43.397558" lon="12.9828889"><ele>265.5</ele><time>2026-05-02T08:32:45.674Z</time></trkpt><trkpt lat="43.3974123" lon="12.9829358"><ele>264.75</ele><time>2026-05-02T08:32:46.675Z</time></trkpt><trkpt lat="43.3972724" lon="12.9829928"><ele>264.0</ele><time>2026-05-02T08:32:47.675Z</time></trkpt><trkpt lat="43.3971326" lon="12.9830544"><ele>262.0</ele><time>2026-05-02T08:32:48.679Z</time></trkpt><trkpt lat="43.3969917" lon="12.9831098"><ele>260.0</ele><time>2026-05-02T08:32:49.676Z</time></trkpt><trkpt lat="43.3968555" lon="12.9831542"><ele>258.0</ele><time>2026-05-02T08:32:50.674Z</time></trkpt><trkpt lat="43.3967165" lon="12.9831917"><ele>256.0</ele><time>2026-05-02T08:32:51.675Z</time></trkpt><trkpt lat="43.3965748" lon="12.983235"><ele>256.0</ele><time>2026-05-02T08:32:52.68Z</time></trkpt><trkpt lat="43.396435" lon="12.9832702"><ele>256.0</ele><time>2026-05-02T08:32:53.675Z</time></trkpt><trkpt lat="43.3963126" lon="12.9832996"><ele>256.0</ele><time>2026-05-02T08:32:54.669Z</time></trkpt><trkpt lat="43.3961859" lon="12.9833302"><ele>256.0</ele><time>2026-05-02T08:32:55.677Z</time></trkpt><trkpt lat="43.3960672" lon="12.9833529"><ele>255.8</ele><time>2026-05-02T08:32:56.673Z</time></trkpt><trkpt lat="43.395961" lon="12.9833646"><ele>255.60000000000002</ele><time>2026-05-02T08:32:57.677Z</time></trkpt><trkpt lat="43.3958512" lon="12.9833677"><ele>255.4</ele><time>2026-05-02T08:32:58.676Z</time></trkpt><trkpt lat="43.3957468" lon="12.983332"><ele>255.2</ele><time>2026-05-02T08:32:59.681Z</time></trkpt><trkpt lat="43.3956529" lon="12.9832594"><ele>255.0</ele><time>2026-05-02T08:33:00.675Z</time></trkpt><trkpt lat="43.39556" lon="12.9831915"><ele>257.4</ele><time>2026-05-02T08:33:01.671Z</time></trkpt><trkpt lat="43.3954699" lon="12.9831315"><ele>259.8</ele><time>2026-05-02T08:33:02.676Z</time></trkpt><trkpt lat="43.3953816" lon="12.9830493"><ele>262.2</ele><time>2026-05-02T08:33:03.671Z</time></trkpt><trkpt lat="43.3952935" lon="12.9829584"><ele>264.6</ele><time>2026-05-02T08:33:04.671Z</time></trkpt><trkpt lat="43.3952014" lon="12.9828711"><ele>267.0</ele><time>2026-05-02T08:33:05.677Z</time></trkpt><trkpt lat="43.3951124" lon="12.9827933"><ele>267.0</ele><time>2026-05-02T08:33:06.67Z</time></trkpt><trkpt lat="43.3950235" lon="12.982726"><ele>267.0</ele><time>2026-05-02T08:33:07.675Z</time></trkpt><trkpt lat="43.3949396" lon="12.9826979"><ele>267.0</ele><time>2026-05-02T08:33:08.668Z</time></trkpt><trkpt lat="43.3948639" lon="12.9826783"><ele>267.0</ele><time>2026-05-02T08:33:09.671Z</time></trkpt><trkpt lat="43.3947886" lon="12.9826432"><ele>267.0</ele><time>2026-05-02T08:33:10.673Z</time></trkpt><trkpt lat="43.3946934" lon="12.9825997"><ele>267.0</ele><time>2026-05-02T08:33:11.673Z</time></trkpt><trkpt lat="43.3945811" lon="12.9825518"><ele>266.5</ele><time>2026-05-02T08:33:12.678Z</time></trkpt><trkpt lat="43.3944659" lon="12.9825024"><ele>266.0</ele><time>2026-05-02T08:33:13.676Z</time></trkpt><trkpt lat="43.39434" lon="12.9824465"><ele>265.5</ele><time>2026-05-02T08:33:14.675Z</time></trkpt><trkpt lat="43.3942095" lon="12.9824019"><ele>265.0</ele><time>2026-05-02T08:33:15.677Z</time></trkpt><trkpt lat="43.3940762" lon="12.9823716"><ele>265.0</ele><time>2026-05-02T08:33:16.683Z</time></trkpt><trkpt lat="43.3939411" lon="12.9823381"><ele>265.0</ele><time>2026-05-02T08:33:17.68Z</time></trkpt><trkpt lat="43.393812" lon="12.9823034"><ele>265.0</ele><time>2026-05-02T08:33:18.673Z</time></trkpt><trkpt lat="43.3936811" lon="12.9822589"><ele>265.0</ele><time>2026-05-02T08:33:19.684Z</time></trkpt><trkpt lat="43.3935573" lon="12.9822007"><ele>267.5</ele><time>2026-05-02T08:33:20.687Z</time></trkpt><trkpt lat="43.3934313" lon="12.9821394"><ele>270.0</ele><time>2026-05-02T08:33:21.688Z</time></trkpt><trkpt lat="43.3933059" lon="12.982075"><ele>272.5</ele><time>2026-05-02T08:33:22.686Z</time></trkpt><trkpt lat="43.3931855" lon="12.9820098"><ele>275.0</ele><time>2026-05-02T08:33:23.692Z</time></trkpt><trkpt lat="43.3930621" lon="12.9819368"><ele>276.0</ele><time>2026-05-02T08:33:24.681Z</time></trkpt><trkpt lat="43.3929381" lon="12.9818626"><ele>277.0</ele><time>2026-05-02T08:33:25.689Z</time></trkpt><trkpt lat="43.3928213" lon="12.9817907"><ele>278.0</ele><time>2026-05-02T08:33:26.681Z</time></trkpt><trkpt lat="43.3927037" lon="12.9817229"><ele>279.0</ele><time>2026-05-02T08:33:27.688Z</time></trkpt><trkpt lat="43.3925859" lon="12.9816579"><ele>279.0</ele><time>2026-05-02T08:33:28.68Z</time></trkpt><trkpt lat="43.3924731" lon="12.9815991"><ele>279.0</ele><time>2026-05-02T08:33:29.676Z</time></trkpt><trkpt lat="43.392368" lon="12.9815486"><ele>279.0</ele><time>2026-05-02T08:33:30.675Z</time></trkpt><trkpt lat="43.3922701" lon="12.9814982"><ele>279.0</ele><time>2026-05-02T08:33:31.678Z</time></trkpt><trkpt lat="43.3921845" lon="12.9814454"><ele>279.0</ele><time>2026-05-02T08:33:32.674Z</time></trkpt><trkpt lat="43.3921006" lon="12.9813995"><ele>279.1666666666667</ele><time>2026-05-02T08:33:33.679Z</time></trkpt><trkpt lat="43.3920184" lon="12.9813546"><ele>279.3333333333333</ele><time>2026-05-02T08:33:34.675Z</time></trkpt><trkpt lat="43.3919303" lon="12.9813175"><ele>279.5</ele><time>2026-05-02T08:33:35.682Z</time></trkpt><trkpt lat="43.3918417" lon="12.9812842"><ele>279.66666666666663</ele><time>2026-05-02T08:33:36.677Z</time></trkpt><trkpt lat="43.3917541" lon="12.981254"><ele>279.8333333333333</ele><time>2026-05-02T08:33:37.673Z</time></trkpt><trkpt lat="43.3916717" lon="12.9812437"><ele>280.0</ele><time>2026-05-02T08:33:38.669Z</time></trkpt><trkpt lat="43.3915916" lon="12.9812377"><ele>280.0</ele><time>2026-05-02T08:33:39.675Z</time></trkpt><trkpt lat="43.3915137" lon="12.9812387"><ele>280.0</ele><time>2026-05-02T08:33:40.673Z</time></trkpt><trkpt lat="43.3914346" lon="12.9812531"><ele>280.0</ele><time>2026-05-02T08:33:41.667Z</time></trkpt><trkpt lat="43.3913551" lon="12.9812786"><ele>280.0</ele><time>2026-05-02T08:33:42.671Z</time></trkpt><trkpt lat="43.3912746" lon="12.9813167"><ele>280.0</ele><time>2026-05-02T08:33:43.675Z</time></trkpt><trkpt lat="43.3911951" lon="12.9813717"><ele>280.0</ele><time>2026-05-02T08:33:44.667Z</time></trkpt><trkpt lat="43.3911122" lon="12.9814372"><ele>280.6</ele><time>2026-05-02T08:33:45.666Z</time></trkpt><trkpt lat="43.3910249" lon="12.9814963"><ele>281.2</ele><time>2026-05-02T08:33:46.666Z</time></trkpt><trkpt lat="43.3909353" lon="12.9815474"><ele>281.8</ele><time>2026-05-02T08:33:47.661Z</time></trkpt><trkpt lat="43.390841" lon="12.9816066"><ele>282.4</ele><time>2026-05-02T08:33:48.666Z</time></trkpt><trkpt lat="43.3907454" lon="12.9816601"><ele>283.0</ele><time>2026-05-02T08:33:49.667Z</time></trkpt><trkpt lat="43.3906607" lon="12.9817189"><ele>283.0</ele><time>2026-05-02T08:33:50.671Z</time></trkpt><trkpt lat="43.3905732" lon="12.9817768"><ele>283.0</ele><time>2026-05-02T08:33:51.661Z</time></trkpt><trkpt lat="43.3904885" lon="12.9818386"><ele>283.0</ele><time>2026-05-02T08:33:52.671Z</time></trkpt><trkpt lat="43.3904171" lon="12.9819131"><ele>283.0</ele><time>2026-05-02T08:33:53.662Z</time></trkpt><trkpt lat="43.3903476" lon="12.9820097"><ele>283.0</ele><time>2026-05-02T08:33:54.66Z</time></trkpt><trkpt lat="43.3902774" lon="12.9821132"><ele>280.2</ele><time>2026-05-02T08:33:55.665Z</time></trkpt><trkpt lat="43.3902017" lon="12.9822008"><ele>277.4</ele><time>2026-05-02T08:33:56.661Z</time></trkpt><trkpt lat="43.3901195" lon="12.9822692"><ele>274.59999999999997</ele><time>2026-05-02T08:33:57.671Z</time></trkpt><trkpt lat="43.3900276" lon="12.9823248"><ele>271.8</ele><time>2026-05-02T08:33:58.664Z</time></trkpt><trkpt lat="43.3899265" lon="12.9823647"><ele>269.0</ele><time>2026-05-02T08:33:59.669Z</time></trkpt><trkpt lat="43.3898157" lon="12.9823894"><ele>269.0</ele><time>2026-05-02T08:34:00.668Z</time></trkpt><trkpt lat="43.3897012" lon="12.9823818"><ele>269.0</ele><time>2026-05-02T08:34:01.676Z</time></trkpt><trkpt lat="43.3895845" lon="12.9823431"><ele>269.0</ele><time>2026-05-02T08:34:02.665Z</time></trkpt><trkpt lat="43.3894594" lon="12.9822787"><ele>269.0</ele><time>2026-05-02T08:34:03.666Z</time></trkpt><trkpt lat="43.3893334" lon="12.982198"><ele>266.75</ele><time>2026-05-02T08:34:04.671Z</time></trkpt><trkpt lat="43.3892138" lon="12.9821278"><ele>264.5</ele><time>2026-05-02T08:34:05.673Z</time></trkpt><trkpt lat="43.3890998" lon="12.9820682"><ele>262.25</ele><time>2026-05-02T08:34:06.674Z</time></trkpt><trkpt lat="43.388985" lon="12.9820186"><ele>260.0</ele><time>2026-05-02T08:34:07.677Z</time></trkpt><trkpt lat="43.3888703" lon="12.9819754"><ele>259.5</ele><time>2026-05-02T08:34:08.676Z</time></trkpt><trkpt lat="43.3887502" lon="12.9819395"><ele>259.0</ele><time>2026-05-02T08:34:09.678Z</time></trkpt><trkpt lat="43.3886264" lon="12.9819148"><ele>258.5</ele><time>2026-05-02T08:34:10.672Z</time></trkpt><trkpt lat="43.3885013" lon="12.9819038"><ele>258.0</ele><time>2026-05-02T08:34:11.673Z</time></trkpt><trkpt lat="43.3883657" lon="12.9818945"><ele>258.0</ele><time>2026-05-02T08:34:12.676Z</time></trkpt><trkpt lat="43.3882285" lon="12.981902"><ele>258.0</ele><time>2026-05-02T08:34:13.675Z</time></trkpt><trkpt lat="43.3880865" lon="12.9819141"><ele>258.0</ele><time>2026-05-02T08:34:14.676Z</time></trkpt><trkpt lat="43.3879372" lon="12.9819282"><ele>258.0</ele><time>2026-05-02T08:34:15.675Z</time></trkpt><trkpt lat="43.3877899" lon="12.9819571"><ele>255.0</ele><time>2026-05-02T08:34:16.678Z</time></trkpt><trkpt lat="43.3876321" lon="12.9819851"><ele>252.0</ele><time>2026-05-02T08:34:17.67Z</time></trkpt><trkpt lat="43.3874673" lon="12.982016"><ele>249.0</ele><time>2026-05-02T08:34:18.672Z</time></trkpt><trkpt lat="43.387305" lon="12.9820382"><ele>246.33333333333331</ele><time>2026-05-02T08:34:19.666Z</time></trkpt><trkpt lat="43.3871506" lon="12.9820722"><ele>243.66666666666666</ele><time>2026-05-02T08:34:20.67Z</time></trkpt><trkpt lat="43.3869931" lon="12.9821018"><ele>241.0</ele><time>2026-05-02T08:34:21.669Z</time></trkpt><trkpt lat="43.3868416" lon="12.9821221"><ele>241.0</ele><time>2026-05-02T08:34:22.67Z</time></trkpt><trkpt lat="43.386689" lon="12.9821531"><ele>241.0</ele><time>2026-05-02T08:34:23.669Z</time></trkpt><trkpt lat="43.3865487" lon="12.9821714"><ele>241.0</ele><time>2026-05-02T08:34:24.667Z</time></trkpt><trkpt lat="43.3864178" lon="12.9821943"><ele>241.0</ele><time>2026-05-02T08:34:25.678Z</time></trkpt><trkpt lat="43.3862933" lon="12.9822159"><ele>239.20000000000002</ele><time>2026-05-02T08:34:26.667Z</time></trkpt><trkpt lat="43.3861672" lon="12.9822322"><ele>237.40000000000003</ele><time>2026-05-02T08:34:27.666Z</time></trkpt><trkpt lat="43.3860539" lon="12.9822348"><ele>235.6</ele><time>2026-05-02T08:34:28.668Z</time></trkpt><trkpt lat="43.3859591" lon="12.9822272"><ele>233.8</ele><time>2026-05-02T08:34:29.665Z</time></trkpt><trkpt lat="43.3858613" lon="12.9822209"><ele>232.0</ele><time>2026-05-02T08:34:30.672Z</time></trkpt><trkpt lat="43.385761" lon="12.982221"><ele>232.0</ele><time>2026-05-02T08:34:31.672Z</time></trkpt><trkpt lat="43.385666" lon="12.9822356"><ele>232.0</ele><time>2026-05-02T08:34:32.668Z</time></trkpt><trkpt lat="43.3855689" lon="12.9822668"><ele>232.0</ele><time>2026-05-02T08:34:33.668Z</time></trkpt><trkpt lat="43.3854658" lon="12.9823056"><ele>232.0</ele><time>2026-05-02T08:34:34.664Z</time></trkpt><trkpt lat="43.3853601" lon="12.9823512"><ele>232.0</ele><time>2026-05-02T08:34:35.668Z</time></trkpt><trkpt lat="43.3852368" lon="12.9824099"><ele>235.25</ele><time>2026-05-02T08:34:36.666Z</time></trkpt><trkpt lat="43.3851059" lon="12.9824833"><ele>238.5</ele><time>2026-05-02T08:34:37.668Z</time></trkpt><trkpt lat="43.3849731" lon="12.982564"><ele>241.75</ele><time>2026-05-02T08:34:38.666Z</time></trkpt><trkpt lat="43.3848396" lon="12.9826585"><ele>245.0</ele><time>2026-05-02T08:34:39.664Z</time></trkpt><trkpt lat="43.3847061" lon="12.9827469"><ele>241.0</ele><time>2026-05-02T08:34:40.665Z</time></trkpt><trkpt lat="43.3845735" lon="12.9828285"><ele>237.0</ele><time>2026-05-02T08:34:41.671Z</time></trkpt><trkpt lat="43.3844519" lon="12.9829266"><ele>233.0</ele><time>2026-05-02T08:34:42.669Z</time></trkpt><trkpt lat="43.3843331" lon="12.9830046"><ele>229.0</ele><time>2026-05-02T08:34:43.668Z</time></trkpt><trkpt lat="43.3842241" lon="12.9830796"><ele>229.0</ele><time>2026-05-02T08:34:44.663Z</time></trkpt><trkpt lat="43.384128" lon="12.9831541"><ele>228.99999999999997</ele><time>2026-05-02T08:34:45.667Z</time></trkpt><trkpt lat="43.3840419" lon="12.9832126"><ele>228.99999999999997</ele><time>2026-05-02T08:34:46.662Z</time></trkpt><trkpt lat="43.383961" lon="12.9832801"><ele>229.0</ele><time>2026-05-02T08:34:47.666Z</time></trkpt><trkpt lat="43.3838802" lon="12.9833464"><ele>229.0</ele><time>2026-05-02T08:34:48.668Z</time></trkpt><trkpt lat="43.3838062" lon="12.9833958"><ele>229.83333333333331</ele><time>2026-05-02T08:34:49.667Z</time></trkpt><trkpt lat="43.3837435" lon="12.9834499"><ele>230.66666666666666</ele><time>2026-05-02T08:34:50.666Z</time></trkpt><trkpt lat="43.3836861" lon="12.9834947"><ele>231.5</ele><time>2026-05-02T08:34:51.666Z</time></trkpt><trkpt lat="43.3835768" lon="12.9835417"><ele>232.33333333333331</ele><time>2026-05-02T08:34:53.67Z</time></trkpt><trkpt lat="43.3835008" lon="12.9835891"><ele>233.16666666666666</ele><time>2026-05-02T08:34:55.67Z</time></trkpt><trkpt lat="43.3834465" lon="12.9836359"><ele>234.0</ele><time>2026-05-02T08:35:18.673Z</time></trkpt><trkpt lat="43.3833648" lon="12.9836962"><ele>234.0</ele><time>2026-05-02T08:35:31.663Z</time></trkpt><trkpt lat="43.3832373" lon="12.983767"><ele>234.0</ele><time>2026-05-02T08:35:33.657Z</time></trkpt><trkpt lat="43.3831418" lon="12.9838136"><ele>234.0</ele><time>2026-05-02T08:35:34.665Z</time></trkpt><trkpt lat="43.3830389" lon="12.9838636"><ele>234.0</ele><time>2026-05-02T08:35:35.672Z</time></trkpt><trkpt lat="43.382922" lon="12.9839159"><ele>232.0</ele><time>2026-05-02T08:35:36.667Z</time></trkpt><trkpt lat="43.3828042" lon="12.9839593"><ele>230.0</ele><time>2026-05-02T08:35:37.668Z</time></trkpt><trkpt lat="43.3826753" lon="12.9840019"><ele>228.0</ele><time>2026-05-02T08:35:38.664Z</time></trkpt><trkpt lat="43.3825379" lon="12.9840547"><ele>226.0</ele><time>2026-05-02T08:35:39.674Z</time></trkpt><trkpt lat="43.3823954" lon="12.9841194"><ele>233.33333333333331</ele><time>2026-05-02T08:35:40.669Z</time></trkpt><trkpt lat="43.3822518" lon="12.984196"><ele>240.66666666666669</ele><time>2026-05-02T08:35:41.673Z</time></trkpt><trkpt lat="43.3821" lon="12.984263"><ele>248.0</ele><time>2026-05-02T08:35:42.668Z</time></trkpt><trkpt lat="43.3819587" lon="12.9843286"><ele>248.0</ele><time>2026-05-02T08:35:43.667Z</time></trkpt><trkpt lat="43.3818161" lon="12.9843935"><ele>248.0</ele><time>2026-05-02T08:35:44.67Z</time></trkpt><trkpt lat="43.3816718" lon="12.9844509"><ele>248.0</ele><time>2026-05-02T08:35:45.678Z</time></trkpt><trkpt lat="43.3815172" lon="12.9845086"><ele>248.0</ele><time>2026-05-02T08:35:46.674Z</time></trkpt><trkpt lat="43.3813655" lon="12.9845786"><ele>248.0</ele><time>2026-05-02T08:35:47.669Z</time></trkpt><trkpt lat="43.3812215" lon="12.9846698"><ele>248.0</ele><time>2026-05-02T08:35:48.669Z</time></trkpt><trkpt lat="43.3810768" lon="12.9847576"><ele>243.66666666666669</ele><time>2026-05-02T08:35:49.664Z</time></trkpt><trkpt lat="43.3809364" lon="12.984832"><ele>239.33333333333331</ele><time>2026-05-02T08:35:50.671Z</time></trkpt><trkpt lat="43.3807889" lon="12.9849041"><ele>235.0</ele><time>2026-05-02T08:35:51.67Z</time></trkpt><trkpt lat="43.380647" lon="12.9849754"><ele>241.0</ele><time>2026-05-02T08:35:52.67Z</time></trkpt><trkpt lat="43.3805127" lon="12.9850565"><ele>247.0</ele><time>2026-05-02T08:35:53.669Z</time></trkpt><trkpt lat="43.3803841" lon="12.9851153"><ele>253.0</ele><time>2026-05-02T08:35:54.671Z</time></trkpt><trkpt lat="43.3802398" lon="12.9851781"><ele>259.0</ele><time>2026-05-02T08:35:55.67Z</time></trkpt><trkpt lat="43.3800931" lon="12.9852283"><ele>259.0</ele><time>2026-05-02T08:35:56.671Z</time></trkpt><trkpt lat="43.3799571" lon="12.9852797"><ele>259.0</ele><time>2026-05-02T08:35:57.668Z</time></trkpt><trkpt lat="43.379843" lon="12.9853255"><ele>259.0</ele><time>2026-05-02T08:35:58.663Z</time></trkpt><trkpt lat="43.3797341" lon="12.9853609"><ele>259.0</ele><time>2026-05-02T08:35:59.668Z</time></trkpt><trkpt lat="43.379625" lon="12.9853817"><ele>258.5</ele><time>2026-05-02T08:36:00.673Z</time></trkpt><trkpt lat="43.3795048" lon="12.9854039"><ele>258.0</ele><time>2026-05-02T08:36:01.672Z</time></trkpt><trkpt lat="43.3793755" lon="12.9854115"><ele>257.5</ele><time>2026-05-02T08:36:02.666Z</time></trkpt><trkpt lat="43.3792482" lon="12.985445"><ele>257.0</ele><time>2026-05-02T08:36:03.669Z</time></trkpt><trkpt lat="43.3791094" lon="12.9854803"><ele>257.0</ele><time>2026-05-02T08:36:04.67Z</time></trkpt><trkpt lat="43.3789644" lon="12.9855262"><ele>257.0</ele><time>2026-05-02T08:36:05.67Z</time></trkpt><trkpt lat="43.3788171" lon="12.9855804"><ele>257.0</ele><time>2026-05-02T08:36:06.666Z</time></trkpt><trkpt lat="43.3786586" lon="12.9856343"><ele>252.66666666666669</ele><time>2026-05-02T08:36:07.662Z</time></trkpt><trkpt lat="43.3785156" lon="12.985697"><ele>248.33333333333331</ele><time>2026-05-02T08:36:08.668Z</time></trkpt><trkpt lat="43.3783671" lon="12.9857529"><ele>244.0</ele><time>2026-05-02T08:36:09.665Z</time></trkpt><trkpt lat="43.3782176" lon="12.9858175"><ele>253.0</ele><time>2026-05-02T08:36:10.666Z</time></trkpt><trkpt lat="43.3780638" lon="12.985864"><ele>262.0</ele><time>2026-05-02T08:36:11.665Z</time></trkpt><trkpt lat="43.3779104" lon="12.9858997"><ele>271.0</ele><time>2026-05-02T08:36:12.671Z</time></trkpt><trkpt lat="43.3777605" lon="12.985939"><ele>271.0</ele><time>2026-05-02T08:36:13.665Z</time></trkpt><trkpt lat="43.3776227" lon="12.9859735"><ele>271.0</ele><time>2026-05-02T08:36:14.665Z</time></trkpt><trkpt lat="43.3774784" lon="12.9860078"><ele>271.0</ele><time>2026-05-02T08:36:15.664Z</time></trkpt><trkpt lat="43.3773496" lon="12.9860325"><ele>271.0</ele><time>2026-05-02T08:36:16.667Z</time></trkpt><trkpt lat="43.3772212" lon="12.9860643"><ele>264.25</ele><time>2026-05-02T08:36:17.66Z</time></trkpt><trkpt lat="43.3770944" lon="12.9860974"><ele>257.5</ele><time>2026-05-02T08:36:18.665Z</time></trkpt><trkpt lat="43.3769652" lon="12.9861522"><ele>250.75</ele><time>2026-05-02T08:36:19.664Z</time></trkpt><trkpt lat="43.3768415" lon="12.9862258"><ele>244.0</ele><time>2026-05-02T08:36:20.666Z</time></trkpt><trkpt lat="43.3767381" lon="12.986296"><ele>243.99999999999997</ele><time>2026-05-02T08:36:21.66Z</time></trkpt><trkpt lat="43.3766608" lon="12.9863797"><ele>244.0</ele><time>2026-05-02T08:36:22.668Z</time></trkpt><trkpt lat="43.3765984" lon="12.9864324"><ele>244.0</ele><time>2026-05-02T08:36:23.666Z</time></trkpt><trkpt lat="43.3765241" lon="12.9864912"><ele>244.0</ele><time>2026-05-02T08:36:25.667Z</time></trkpt><trkpt lat="43.3765237" lon="12.9865872"><ele>243.99999999999997</ele><time>2026-05-02T08:36:28.661Z</time></trkpt><trkpt lat="43.3765982" lon="12.9865855"><ele>244.0</ele><time>2026-05-02T08:36:30.664Z</time></trkpt><trkpt lat="43.3767105" lon="12.986488"><ele>244.0</ele><time>2026-05-02T08:36:32.655Z</time></trkpt><trkpt lat="43.3767864" lon="12.9864176"><ele>243.99999999999997</ele><time>2026-05-02T08:36:33.661Z</time></trkpt><trkpt lat="43.3768737" lon="12.9863507"><ele>243.99999999999997</ele><time>2026-05-02T08:36:34.661Z</time></trkpt><trkpt lat="43.3769755" lon="12.9862863"><ele>244.0</ele><time>2026-05-02T08:36:35.657Z</time></trkpt><trkpt lat="43.3770886" lon="12.986226"><ele>244.0</ele><time>2026-05-02T08:36:36.662Z</time></trkpt><trkpt lat="43.3772067" lon="12.9861754"><ele>250.75</ele><time>2026-05-02T08:36:37.664Z</time></trkpt><trkpt lat="43.3773322" lon="12.986142"><ele>257.5</ele><time>2026-05-02T08:36:38.662Z</time></trkpt><trkpt lat="43.3774638" lon="12.9861297"><ele>264.25</ele><time>2026-05-02T08:36:39.66Z</time></trkpt><trkpt lat="43.3776071" lon="12.986123"><ele>271.0</ele><time>2026-05-02T08:36:40.663Z</time></trkpt><trkpt lat="43.3777648" lon="12.9861158"><ele>271.0</ele><time>2026-05-02T08:36:41.662Z</time></trkpt><trkpt lat="43.3779436" lon="12.9860812"><ele>271.0</ele><time>2026-05-02T08:36:42.661Z</time></trkpt><trkpt lat="43.3781277" lon="12.9860495"><ele>271.0</ele><time>2026-05-02T08:36:43.662Z</time></trkpt><trkpt lat="43.3783135" lon="12.9859873"><ele>274.5</ele><time>2026-05-02T08:36:44.666Z</time></trkpt><trkpt lat="43.3784758" lon="12.9859445"><ele>278.0</ele><time>2026-05-02T08:36:45.656Z</time></trkpt><trkpt lat="43.3786204" lon="12.9859152"><ele>281.5</ele><time>2026-05-02T08:36:46.658Z</time></trkpt><trkpt lat="43.3787473" lon="12.9858729"><ele>285.0</ele><time>2026-05-02T08:36:47.66Z</time></trkpt><trkpt lat="43.3788781" lon="12.9858413"><ele>278.0</ele><time>2026-05-02T08:36:48.665Z</time></trkpt><trkpt lat="43.3790095" lon="12.9858273"><ele>271.0</ele><time>2026-05-02T08:36:49.66Z</time></trkpt><trkpt lat="43.3791256" lon="12.9858083"><ele>264.0</ele><time>2026-05-02T08:36:50.664Z</time></trkpt><trkpt lat="43.3792466" lon="12.9858098"><ele>257.0</ele><time>2026-05-02T08:36:51.663Z</time></trkpt><trkpt lat="43.3793652" lon="12.9858208"><ele>265.25</ele><time>2026-05-02T08:36:52.67Z</time></trkpt><trkpt lat="43.3794824" lon="12.9858534"><ele>273.5</ele><time>2026-05-02T08:36:53.664Z</time></trkpt><trkpt lat="43.3795945" lon="12.9858983"><ele>281.75</ele><time>2026-05-02T08:36:54.665Z</time></trkpt><trkpt lat="43.3797037" lon="12.9859645"><ele>290.0</ele><time>2026-05-02T08:36:55.66Z</time></trkpt><trkpt lat="43.3798144" lon="12.9860009"><ele>290.0</ele><time>2026-05-02T08:36:56.665Z</time></trkpt><trkpt lat="43.3799327" lon="12.9860243"><ele>290.0</ele><time>2026-05-02T08:36:57.658Z</time></trkpt><trkpt lat="43.3800634" lon="12.9860437"><ele>290.0</ele><time>2026-05-02T08:36:58.66Z</time></trkpt><trkpt lat="43.3801988" lon="12.9860336"><ele>290.0</ele><time>2026-05-02T08:36:59.66Z</time></trkpt><trkpt lat="43.3803356" lon="12.9860094"><ele>290.0</ele><time>2026-05-02T08:37:00.659Z</time></trkpt><trkpt lat="43.3804903" lon="12.9859732"><ele>290.0</ele><time>2026-05-02T08:37:01.666Z</time></trkpt><trkpt lat="43.3806484" lon="12.9859334"><ele>290.0</ele><time>2026-05-02T08:37:02.666Z</time></trkpt><trkpt lat="43.3808047" lon="12.9859193"><ele>293.0</ele><time>2026-05-02T08:37:03.668Z</time></trkpt><trkpt lat="43.3809659" lon="12.9858998"><ele>296.0</ele><time>2026-05-02T08:37:04.669Z</time></trkpt><trkpt lat="43.3811232" lon="12.9858646"><ele>299.0</ele><time>2026-05-02T08:37:05.665Z</time></trkpt><trkpt lat="43.3812778" lon="12.9858135"><ele>293.0</ele><time>2026-05-02T08:37:06.666Z</time></trkpt><trkpt lat="43.3814256" lon="12.9857452"><ele>287.0</ele><time>2026-05-02T08:37:07.666Z</time></trkpt><trkpt lat="43.3815695" lon="12.985665"><ele>281.0</ele><time>2026-05-02T08:37:08.67Z</time></trkpt><trkpt lat="43.3817134" lon="12.9855975"><ele>281.0</ele><time>2026-05-02T08:37:09.664Z</time></trkpt><trkpt lat="43.3818371" lon="12.9855399"><ele>281.0</ele><time>2026-05-02T08:37:10.663Z</time></trkpt><trkpt lat="43.3819608" lon="12.9854819"><ele>281.0</ele><time>2026-05-02T08:37:11.671Z</time></trkpt><trkpt lat="43.3820895" lon="12.9854211"><ele>281.0</ele><time>2026-05-02T08:37:12.671Z</time></trkpt><trkpt lat="43.3822128" lon="12.9853653"><ele>282.1666666666667</ele><time>2026-05-02T08:37:13.67Z</time></trkpt><trkpt lat="43.3823213" lon="12.9853237"><ele>283.33333333333337</ele><time>2026-05-02T08:37:14.667Z</time></trkpt><trkpt lat="43.3824144" lon="12.9853037"><ele>284.5</ele><time>2026-05-02T08:37:15.67Z</time></trkpt><trkpt lat="43.3824961" lon="12.9853102"><ele>285.6666666666667</ele><time>2026-05-02T08:37:16.666Z</time></trkpt><trkpt lat="43.382564" lon="12.9853434"><ele>286.8333333333333</ele><time>2026-05-02T08:37:17.672Z</time></trkpt><trkpt lat="43.3826255" lon="12.9854114"><ele>288.0</ele><time>2026-05-02T08:37:18.672Z</time></trkpt><trkpt lat="43.3826896" lon="12.9855042"><ele>288.0</ele><time>2026-05-02T08:37:19.667Z</time></trkpt><trkpt lat="43.3827518" lon="12.9856159"><ele>288.0</ele><time>2026-05-02T08:37:20.67Z</time></trkpt><trkpt lat="43.3828166" lon="12.9857239"><ele>288.0</ele><time>2026-05-02T08:37:21.669Z</time></trkpt><trkpt lat="43.3828718" lon="12.9858296"><ele>288.0</ele><time>2026-05-02T08:37:22.671Z</time></trkpt><trkpt lat="43.3829146" lon="12.9859369"><ele>288.0</ele><time>2026-05-02T08:37:23.669Z</time></trkpt><trkpt lat="43.3829482" lon="12.9860772"><ele>288.2</ele><time>2026-05-02T08:37:24.662Z</time></trkpt><trkpt lat="43.3829753" lon="12.9862294"><ele>288.4</ele><time>2026-05-02T08:37:25.666Z</time></trkpt><trkpt lat="43.3830163" lon="12.9863746"><ele>288.59999999999997</ele><time>2026-05-02T08:37:26.665Z</time></trkpt><trkpt lat="43.3830707" lon="12.9865087"><ele>288.8</ele><time>2026-05-02T08:37:27.662Z</time></trkpt><trkpt lat="43.3831344" lon="12.986621"><ele>289.0</ele><time>2026-05-02T08:37:28.657Z</time></trkpt><trkpt lat="43.383214" lon="12.9867035"><ele>289.0</ele><time>2026-05-02T08:37:29.659Z</time></trkpt><trkpt lat="43.3833001" lon="12.9867422"><ele>289.0</ele><time>2026-05-02T08:37:30.666Z</time></trkpt><trkpt lat="43.3833864" lon="12.9867378"><ele>289.0</ele><time>2026-05-02T08:37:31.673Z</time></trkpt><trkpt lat="43.3834682" lon="12.9866921"><ele>289.0</ele><time>2026-05-02T08:37:32.667Z</time></trkpt><trkpt lat="43.3835577" lon="12.9866229"><ele>289.0</ele><time>2026-05-02T08:37:33.675Z</time></trkpt><trkpt lat="43.3836603" lon="12.9865181"><ele>289.0</ele><time>2026-05-02T08:37:34.662Z</time></trkpt><trkpt lat="43.3837622" lon="12.9863907"><ele>289.0</ele><time>2026-05-02T08:37:35.666Z</time></trkpt><trkpt lat="43.3838689" lon="12.9862744"><ele>289.0</ele><time>2026-05-02T08:37:36.661Z</time></trkpt><trkpt lat="43.3839635" lon="12.9861532"><ele>289.0</ele><time>2026-05-02T08:37:37.657Z</time></trkpt><trkpt lat="43.384048" lon="12.9860108"><ele>290.75</ele><time>2026-05-02T08:37:38.649Z</time></trkpt><trkpt lat="43.3841129" lon="12.9858565"><ele>292.5</ele><time>2026-05-02T08:37:39.659Z</time></trkpt><trkpt lat="43.3841597" lon="12.9856983"><ele>294.25</ele><time>2026-05-02T08:37:40.66Z</time></trkpt><trkpt lat="43.3842029" lon="12.985555"><ele>296.0</ele><time>2026-05-02T08:37:41.658Z</time></trkpt><trkpt lat="43.3842673" lon="12.9854422"><ele>296.0</ele><time>2026-05-02T08:37:42.669Z</time></trkpt><trkpt lat="43.3843366" lon="12.9853324"><ele>296.0</ele><time>2026-05-02T08:37:43.666Z</time></trkpt><trkpt lat="43.3843989" lon="12.985221"><ele>296.0</ele><time>2026-05-02T08:37:44.659Z</time></trkpt><trkpt lat="43.3844538" lon="12.9851203"><ele>296.0</ele><time>2026-05-02T08:37:45.663Z</time></trkpt><trkpt lat="43.3845179" lon="12.9850453"><ele>296.0</ele><time>2026-05-02T08:37:46.663Z</time></trkpt><trkpt lat="43.3846038" lon="12.9849811"><ele>297.5</ele><time>2026-05-02T08:37:47.666Z</time></trkpt><trkpt lat="43.3847032" lon="12.984918"><ele>299.0</ele><time>2026-05-02T08:37:48.666Z</time></trkpt><trkpt lat="43.3848111" lon="12.9848617"><ele>300.5</ele><time>2026-05-02T08:37:49.669Z</time></trkpt><trkpt lat="43.3849205" lon="12.9848153"><ele>302.0</ele><time>2026-05-02T08:37:50.668Z</time></trkpt><trkpt lat="43.3850259" lon="12.9847711"><ele>302.0</ele><time>2026-05-02T08:37:51.673Z</time></trkpt><trkpt lat="43.3851359" lon="12.9847416"><ele>302.0</ele><time>2026-05-02T08:37:52.666Z</time></trkpt><trkpt lat="43.3852456" lon="12.9847338"><ele>302.0</ele><time>2026-05-02T08:37:53.667Z</time></trkpt><trkpt lat="43.3853421" lon="12.9847482"><ele>302.0</ele><time>2026-05-02T08:37:54.66Z</time></trkpt><trkpt lat="43.3854136" lon="12.9847742"><ele>302.0</ele><time>2026-05-02T08:37:55.664Z</time></trkpt><trkpt lat="43.3854655" lon="12.9848345"><ele>302.0</ele><time>2026-05-02T08:37:56.663Z</time></trkpt><trkpt lat="43.385512" lon="12.9849239"><ele>302.0</ele><time>2026-05-02T08:37:57.671Z</time></trkpt><trkpt lat="43.3855612" lon="12.9850157"><ele>302.0</ele><time>2026-05-02T08:37:58.659Z</time></trkpt><trkpt lat="43.3856196" lon="12.9850715"><ele>302.0</ele><time>2026-05-02T08:37:59.67Z</time></trkpt><trkpt lat="43.3856925" lon="12.9850673"><ele>302.0</ele><time>2026-05-02T08:38:00.665Z</time></trkpt><trkpt lat="43.3857703" lon="12.9850219"><ele>302.0</ele><time>2026-05-02T08:38:01.67Z</time></trkpt><trkpt lat="43.3858441" lon="12.9849396"><ele>305.0</ele><time>2026-05-02T08:38:02.663Z</time></trkpt><trkpt lat="43.3859188" lon="12.9848438"><ele>308.0</ele><time>2026-05-02T08:38:03.663Z</time></trkpt><trkpt lat="43.3860059" lon="12.9847804"><ele>311.0</ele><time>2026-05-02T08:38:04.661Z</time></trkpt><trkpt lat="43.3861043" lon="12.9847484"><ele>314.0</ele><time>2026-05-02T08:38:05.663Z</time></trkpt><trkpt lat="43.3862223" lon="12.9847482"><ele>317.0</ele><time>2026-05-02T08:38:06.662Z</time></trkpt><trkpt lat="43.3863507" lon="12.9847646"><ele>317.5</ele><time>2026-05-02T08:38:07.661Z</time></trkpt><trkpt lat="43.3864815" lon="12.9847738"><ele>318.0</ele><time>2026-05-02T08:38:08.663Z</time></trkpt><trkpt lat="43.3866173" lon="12.9847789"><ele>318.5</ele><time>2026-05-02T08:38:09.673Z</time></trkpt><trkpt lat="43.3867531" lon="12.9847843"><ele>319.0</ele><time>2026-05-02T08:38:10.667Z</time></trkpt><trkpt lat="43.386892" lon="12.9847785"><ele>319.0</ele><time>2026-05-02T08:38:11.669Z</time></trkpt><trkpt lat="43.3870423" lon="12.9847681"><ele>319.0</ele><time>2026-05-02T08:38:12.666Z</time></trkpt><trkpt lat="43.3871934" lon="12.9847585"><ele>319.0</ele><time>2026-05-02T08:38:13.666Z</time></trkpt><trkpt lat="43.3873453" lon="12.984759"><ele>320.5</ele><time>2026-05-02T08:38:14.667Z</time></trkpt><trkpt lat="43.3874872" lon="12.9847605"><ele>322.0</ele><time>2026-05-02T08:38:15.676Z</time></trkpt><trkpt lat="43.3876326" lon="12.9847651"><ele>323.5</ele><time>2026-05-02T08:38:16.674Z</time></trkpt><trkpt lat="43.3877784" lon="12.9847612"><ele>325.0</ele><time>2026-05-02T08:38:17.674Z</time></trkpt><trkpt lat="43.3879081" lon="12.9847356"><ele>326.75</ele><time>2026-05-02T08:38:18.667Z</time></trkpt><trkpt lat="43.3880432" lon="12.984719"><ele>328.5</ele><time>2026-05-02T08:38:19.672Z</time></trkpt><trkpt lat="43.3881729" lon="12.9847215"><ele>330.25</ele><time>2026-05-02T08:38:20.667Z</time></trkpt><trkpt lat="43.3883022" lon="12.9847364"><ele>332.0</ele><time>2026-05-02T08:38:21.672Z</time></trkpt><trkpt lat="43.3884325" lon="12.9847613"><ele>332.0</ele><time>2026-05-02T08:38:22.668Z</time></trkpt><trkpt lat="43.3885693" lon="12.9847943"><ele>332.0</ele><time>2026-05-02T08:38:23.677Z</time></trkpt><trkpt lat="43.3887129" lon="12.9848309"><ele>332.0</ele><time>2026-05-02T08:38:24.67Z</time></trkpt><trkpt lat="43.3888583" lon="12.9848628"><ele>332.0</ele><time>2026-05-02T08:38:25.674Z</time></trkpt><trkpt lat="43.3889964" lon="12.9848968"><ele>332.25</ele><time>2026-05-02T08:38:26.671Z</time></trkpt><trkpt lat="43.3891299" lon="12.9849396"><ele>332.5</ele><time>2026-05-02T08:38:27.676Z</time></trkpt><trkpt lat="43.3892752" lon="12.9849809"><ele>332.75</ele><time>2026-05-02T08:38:28.671Z</time></trkpt><trkpt lat="43.3894261" lon="12.9850283"><ele>333.0</ele><time>2026-05-02T08:38:29.675Z</time></trkpt><trkpt lat="43.3895756" lon="12.9850734"><ele>340.75</ele><time>2026-05-02T08:38:30.674Z</time></trkpt><trkpt lat="43.3897247" lon="12.9850976"><ele>348.5</ele><time>2026-05-02T08:38:31.674Z</time></trkpt><trkpt lat="43.3898677" lon="12.9851228"><ele>356.25</ele><time>2026-05-02T08:38:32.668Z</time></trkpt><trkpt lat="43.3900065" lon="12.9851315"><ele>364.0</ele><time>2026-05-02T08:38:33.671Z</time></trkpt><trkpt lat="43.3901527" lon="12.9851344"><ele>364.0</ele><time>2026-05-02T08:38:34.668Z</time></trkpt><trkpt lat="43.3903034" lon="12.985132"><ele>364.0</ele><time>2026-05-02T08:38:35.67Z</time></trkpt><trkpt lat="43.39045" lon="12.9851436"><ele>364.0</ele><time>2026-05-02T08:38:36.67Z</time></trkpt><trkpt lat="43.3905898" lon="12.9851577"><ele>364.0</ele><time>2026-05-02T08:38:37.671Z</time></trkpt><trkpt lat="43.3907179" lon="12.9851756"><ele>364.0</ele><time>2026-05-02T08:38:38.666Z</time></trkpt><trkpt lat="43.3908429" lon="12.985198"><ele>364.0</ele><time>2026-05-02T08:38:39.677Z</time></trkpt><trkpt lat="43.3909754" lon="12.9852273"><ele>364.0</ele><time>2026-05-02T08:38:40.671Z</time></trkpt><trkpt lat="43.3911121" lon="12.9852676"><ele>364.0</ele><time>2026-05-02T08:38:41.678Z</time></trkpt><trkpt lat="43.3912491" lon="12.9853083"><ele>364.0</ele><time>2026-05-02T08:38:42.671Z</time></trkpt><trkpt lat="43.3913871" lon="12.98535"><ele>364.0</ele><time>2026-05-02T08:38:43.675Z</time></trkpt><trkpt lat="43.3915199" lon="12.9853971"><ele>364.0</ele><time>2026-05-02T08:38:44.671Z</time></trkpt><trkpt lat="43.3916474" lon="12.9854388"><ele>364.0</ele><time>2026-05-02T08:38:45.677Z</time></trkpt><trkpt lat="43.3917659" lon="12.9854806"><ele>364.0</ele><time>2026-05-02T08:38:46.67Z</time></trkpt><trkpt lat="43.3918822" lon="12.9855294"><ele>364.0</ele><time>2026-05-02T08:38:47.68Z</time></trkpt><trkpt lat="43.39199" lon="12.9855853"><ele>364.0</ele><time>2026-05-02T08:38:48.677Z</time></trkpt><trkpt lat="43.3920838" lon="12.9856682"><ele>364.0</ele><time>2026-05-02T08:38:49.679Z</time></trkpt><trkpt lat="43.392174" lon="12.9857498"><ele>365.4</ele><time>2026-05-02T08:38:50.678Z</time></trkpt><trkpt lat="43.3922499" lon="12.9858349"><ele>366.79999999999995</ele><time>2026-05-02T08:38:51.677Z</time></trkpt><trkpt lat="43.3923336" lon="12.9859257"><ele>368.20000000000005</ele><time>2026-05-02T08:38:52.677Z</time></trkpt><trkpt lat="43.3924203" lon="12.9860294"><ele>369.6</ele><time>2026-05-02T08:38:53.679Z</time></trkpt><trkpt lat="43.3925127" lon="12.9861415"><ele>371.0</ele><time>2026-05-02T08:38:54.677Z</time></trkpt><trkpt lat="43.392609" lon="12.9862567"><ele>371.0</ele><time>2026-05-02T08:38:55.674Z</time></trkpt><trkpt lat="43.3927048" lon="12.9863802"><ele>371.0</ele><time>2026-05-02T08:38:56.674Z</time></trkpt><trkpt lat="43.3927991" lon="12.9865049"><ele>371.0</ele><time>2026-05-02T08:38:57.677Z</time></trkpt><trkpt lat="43.3928881" lon="12.9866227"><ele>371.0</ele><time>2026-05-02T08:38:58.675Z</time></trkpt><trkpt lat="43.3929725" lon="12.9867343"><ele>373.75</ele><time>2026-05-02T08:38:59.677Z</time></trkpt><trkpt lat="43.3930584" lon="12.9868484"><ele>376.5</ele><time>2026-05-02T08:39:00.676Z</time></trkpt><trkpt lat="43.3931485" lon="12.9869657"><ele>379.25</ele><time>2026-05-02T08:39:01.678Z</time></trkpt><trkpt lat="43.3932436" lon="12.9870875"><ele>382.0</ele><time>2026-05-02T08:39:02.666Z</time></trkpt><trkpt lat="43.3933462" lon="12.9872115"><ele>382.0</ele><time>2026-05-02T08:39:03.683Z</time></trkpt><trkpt lat="43.3934591" lon="12.9873171"><ele>382.0</ele><time>2026-05-02T08:39:04.676Z</time></trkpt><trkpt lat="43.3935659" lon="12.9874254"><ele>382.0</ele><time>2026-05-02T08:39:05.678Z</time></trkpt><trkpt lat="43.3936773" lon="12.9875107"><ele>382.0</ele><time>2026-05-02T08:39:06.679Z</time></trkpt><trkpt lat="43.3937914" lon="12.9875792"><ele>383.20000000000005</ele><time>2026-05-02T08:39:07.677Z</time></trkpt><trkpt lat="43.3939037" lon="12.9876426"><ele>384.4</ele><time>2026-05-02T08:39:08.675Z</time></trkpt><trkpt lat="43.394018" lon="12.9876889"><ele>385.6</ele><time>2026-05-02T08:39:09.678Z</time></trkpt><trkpt lat="43.3941116" lon="12.9877202"><ele>386.79999999999995</ele><time>2026-05-02T08:39:10.668Z</time></trkpt><trkpt lat="43.3941944" lon="12.987743"><ele>388.0</ele><time>2026-05-02T08:39:11.668Z</time></trkpt><trkpt lat="43.3942569" lon="12.9877624"><ele>388.00000000000006</ele><time>2026-05-02T08:39:12.673Z</time></trkpt><trkpt lat="43.39433" lon="12.9878293"><ele>388.0</ele><time>2026-05-02T08:39:14.67Z</time></trkpt><trkpt lat="43.3943102" lon="12.9879421"><ele>388.0</ele><time>2026-05-02T08:39:16.664Z</time></trkpt><trkpt lat="43.3941988" lon="12.9879994"><ele>388.0</ele><time>2026-05-02T08:39:18.673Z</time></trkpt><trkpt lat="43.3941281" lon="12.987977"><ele>388.00000000000006</ele><time>2026-05-02T08:39:19.68Z</time></trkpt><trkpt lat="43.3940514" lon="12.9879332"><ele>388.0</ele><time>2026-05-02T08:39:20.667Z</time></trkpt><trkpt lat="43.3939589" lon="12.9878922"><ele>388.0</ele><time>2026-05-02T08:39:21.684Z</time></trkpt><trkpt lat="43.3938566" lon="12.9878586"><ele>388.0</ele><time>2026-05-02T08:39:22.671Z</time></trkpt><trkpt lat="43.3937475" lon="12.9878325"><ele>388.0</ele><time>2026-05-02T08:39:23.675Z</time></trkpt><trkpt lat="43.3936278" lon="12.9878111"><ele>388.0</ele><time>2026-05-02T08:39:24.673Z</time></trkpt><trkpt lat="43.3934985" lon="12.9877844"><ele>392.75</ele><time>2026-05-02T08:39:25.678Z</time></trkpt><trkpt lat="43.3933704" lon="12.9877574"><ele>397.5</ele><time>2026-05-02T08:39:26.675Z</time></trkpt><trkpt lat="43.3932449" lon="12.987721"><ele>402.25</ele><time>2026-05-02T08:39:27.677Z</time></trkpt><trkpt lat="43.3931138" lon="12.9876793"><ele>407.0</ele><time>2026-05-02T08:39:28.674Z</time></trkpt><trkpt lat="43.3929814" lon="12.9876317"><ele>404.5</ele><time>2026-05-02T08:39:29.676Z</time></trkpt><trkpt lat="43.3928465" lon="12.9875796"><ele>402.0</ele><time>2026-05-02T08:39:30.674Z</time></trkpt><trkpt lat="43.3927109" lon="12.9875166"><ele>399.5</ele><time>2026-05-02T08:39:31.68Z</time></trkpt><trkpt lat="43.3925779" lon="12.9874356"><ele>397.0</ele><time>2026-05-02T08:39:32.672Z</time></trkpt><trkpt lat="43.3924313" lon="12.9873617"><ele>397.0</ele><time>2026-05-02T08:39:33.677Z</time></trkpt><trkpt lat="43.3922869" lon="12.9872898"><ele>397.0</ele><time>2026-05-02T08:39:34.672Z</time></trkpt><trkpt lat="43.392141" lon="12.9872241"><ele>397.0</ele><time>2026-05-02T08:39:35.672Z</time></trkpt><trkpt lat="43.3919984" lon="12.9871606"><ele>401.5</ele><time>2026-05-02T08:39:36.674Z</time></trkpt><trkpt lat="43.3918618" lon="12.9871027"><ele>406.0</ele><time>2026-05-02T08:39:37.675Z</time></trkpt><trkpt lat="43.3917156" lon="12.9870638"><ele>410.5</ele><time>2026-05-02T08:39:38.67Z</time></trkpt><trkpt lat="43.3915756" lon="12.9870359"><ele>415.0</ele><time>2026-05-02T08:39:39.668Z</time></trkpt><trkpt lat="43.3914604" lon="12.9870193"><ele>415.0</ele><time>2026-05-02T08:39:40.663Z</time></trkpt><trkpt lat="43.3913653" lon="12.9870057"><ele>415.0</ele><time>2026-05-02T08:39:41.668Z</time></trkpt><trkpt lat="43.3912875" lon="12.9869966"><ele>415.0</ele><time>2026-05-02T08:39:42.667Z</time></trkpt><trkpt lat="43.3912154" lon="12.9870496"><ele>415.0</ele><time>2026-05-02T08:39:44.663Z</time></trkpt><trkpt lat="43.3912295" lon="12.9871744"><ele>415.0</ele><time>2026-05-02T08:39:46.662Z</time></trkpt><trkpt lat="43.3913611" lon="12.9872489"><ele>415.0</ele><time>2026-05-02T08:39:48.659Z</time></trkpt><trkpt lat="43.3914533" lon="12.9872627"><ele>415.0</ele><time>2026-05-02T08:39:49.657Z</time></trkpt><trkpt lat="43.391558" lon="12.9872946"><ele>415.0</ele><time>2026-05-02T08:39:50.665Z</time></trkpt><trkpt lat="43.3916639" lon="12.9873323"><ele>415.0</ele><time>2026-05-02T08:39:51.666Z</time></trkpt><trkpt lat="43.3917753" lon="12.987381"><ele>415.0</ele><time>2026-05-02T08:39:52.67Z</time></trkpt><trkpt lat="43.3918817" lon="12.9874478"><ele>417.5</ele><time>2026-05-02T08:39:53.672Z</time></trkpt><trkpt lat="43.3919844" lon="12.9875322"><ele>420.0</ele><time>2026-05-02T08:39:54.668Z</time></trkpt><trkpt lat="43.3920792" lon="12.9876299"><ele>422.5</ele><time>2026-05-02T08:39:55.669Z</time></trkpt><trkpt lat="43.3921772" lon="12.9877465"><ele>425.0</ele><time>2026-05-02T08:39:56.672Z</time></trkpt><trkpt lat="43.3922735" lon="12.9878774"><ele>425.0</ele><time>2026-05-02T08:39:57.669Z</time></trkpt><trkpt lat="43.3923656" lon="12.9880093"><ele>425.0</ele><time>2026-05-02T08:39:58.673Z</time></trkpt><trkpt lat="43.3924666" lon="12.9881535"><ele>425.0</ele><time>2026-05-02T08:39:59.668Z</time></trkpt><trkpt lat="43.3925773" lon="12.9882715"><ele>425.0</ele><time>2026-05-02T08:40:00.672Z</time></trkpt><trkpt lat="43.3927067" lon="12.9883886"><ele>427.25</ele><time>2026-05-02T08:40:01.672Z</time></trkpt><trkpt lat="43.3928167" lon="12.9884991"><ele>429.5</ele><time>2026-05-02T08:40:02.669Z</time></trkpt><trkpt lat="43.392937" lon="12.9886119"><ele>431.75</ele><time>2026-05-02T08:40:03.668Z</time></trkpt><trkpt lat="43.393041" lon="12.9887369"><ele>434.0</ele><time>2026-05-02T08:40:04.668Z</time></trkpt><trkpt lat="43.3931507" lon="12.9888534"><ele>434.0</ele><time>2026-05-02T08:40:05.67Z</time></trkpt><trkpt lat="43.3932497" lon="12.9889509"><ele>434.0</ele><time>2026-05-02T08:40:06.665Z</time></trkpt><trkpt lat="43.3933481" lon="12.9890274"><ele>434.0</ele><time>2026-05-02T08:40:07.669Z</time></trkpt><trkpt lat="43.3934342" lon="12.9891151"><ele>434.0</ele><time>2026-05-02T08:40:08.668Z</time></trkpt><trkpt lat="43.393512" lon="12.9892114"><ele>434.0</ele><time>2026-05-02T08:40:09.669Z</time></trkpt><trkpt lat="43.3935773" lon="12.9893047"><ele>434.79999999999995</ele><time>2026-05-02T08:40:10.676Z</time></trkpt><trkpt lat="43.3936526" lon="12.989405"><ele>435.59999999999997</ele><time>2026-05-02T08:40:11.679Z</time></trkpt><trkpt lat="43.3937258" lon="12.9895176"><ele>436.4</ele><time>2026-05-02T08:40:12.679Z</time></trkpt><trkpt lat="43.3937989" lon="12.9896379"><ele>437.2</ele><time>2026-05-02T08:40:13.676Z</time></trkpt><trkpt lat="43.393878" lon="12.9897583"><ele>438.0</ele><time>2026-05-02T08:40:14.676Z</time></trkpt><trkpt lat="43.3939658" lon="12.989872"><ele>438.0</ele><time>2026-05-02T08:40:15.677Z</time></trkpt><trkpt lat="43.3940561" lon="12.9899927"><ele>438.0</ele><time>2026-05-02T08:40:16.675Z</time></trkpt><trkpt lat="43.3941624" lon="12.990111"><ele>438.0</ele><time>2026-05-02T08:40:17.675Z</time></trkpt><trkpt lat="43.3942782" lon="12.9902126"><ele>438.0</ele><time>2026-05-02T08:40:18.677Z</time></trkpt><trkpt lat="43.3943966" lon="12.9903081"><ele>441.0</ele><time>2026-05-02T08:40:19.676Z</time></trkpt><trkpt lat="43.3945284" lon="12.9903986"><ele>444.0</ele><time>2026-05-02T08:40:20.678Z</time></trkpt><trkpt lat="43.394655" lon="12.9904804"><ele>447.0</ele><time>2026-05-02T08:40:21.68Z</time></trkpt><trkpt lat="43.3947957" lon="12.9905543"><ele>450.0</ele><time>2026-05-02T08:40:22.677Z</time></trkpt><trkpt lat="43.3949233" lon="12.9906238"><ele>450.0</ele><time>2026-05-02T08:40:23.677Z</time></trkpt><trkpt lat="43.3950133" lon="12.99068"><ele>450.0</ele><time>2026-05-02T08:40:24.676Z</time></trkpt><trkpt lat="43.3950945" lon="12.9907345"><ele>450.0</ele><time>2026-05-02T08:40:25.681Z</time></trkpt><trkpt lat="43.3951603" lon="12.990774"><ele>450.0</ele><time>2026-05-02T08:40:26.682Z</time></trkpt><trkpt lat="43.3952221" lon="12.9908423"><ele>450.0</ele><time>2026-05-02T08:40:28.677Z</time></trkpt><trkpt lat="43.3951892" lon="12.9909433"><ele>450.0</ele><time>2026-05-02T08:40:30.675Z</time></trkpt><trkpt lat="43.3951147" lon="12.9909801"><ele>450.0</ele><time>2026-05-02T08:40:32.673Z</time></trkpt><trkpt lat="43.3950068" lon="12.9909225"><ele>450.0</ele><time>2026-05-02T08:40:34.678Z</time></trkpt><trkpt lat="43.3949393" lon="12.9908788"><ele>450.0</ele><time>2026-05-02T08:40:35.683Z</time></trkpt><trkpt lat="43.3948585" lon="12.9908357"><ele>450.0</ele><time>2026-05-02T08:40:36.676Z</time></trkpt><trkpt lat="43.3947624" lon="12.9907901"><ele>450.0</ele><time>2026-05-02T08:40:37.684Z</time></trkpt><trkpt lat="43.3946625" lon="12.9907559"><ele>453.8</ele><time>2026-05-02T08:40:38.681Z</time></trkpt><trkpt lat="43.3945594" lon="12.9907192"><ele>457.6</ele><time>2026-05-02T08:40:39.685Z</time></trkpt><trkpt lat="43.3944603" lon="12.9906838"><ele>461.4</ele><time>2026-05-02T08:40:40.685Z</time></trkpt><trkpt lat="43.394355" lon="12.9906508"><ele>465.2</ele><time>2026-05-02T08:40:41.687Z</time></trkpt><trkpt lat="43.3942465" lon="12.990616"><ele>469.0</ele><time>2026-05-02T08:40:42.685Z</time></trkpt><trkpt lat="43.394129" lon="12.9905744"><ele>469.0</ele><time>2026-05-02T08:40:43.682Z</time></trkpt><trkpt lat="43.3940115" lon="12.9905273"><ele>469.0</ele><time>2026-05-02T08:40:44.688Z</time></trkpt><trkpt lat="43.393885" lon="12.9904767"><ele>469.0</ele><time>2026-05-02T08:40:45.689Z</time></trkpt><trkpt lat="43.3937583" lon="12.9904174"><ele>469.0</ele><time>2026-05-02T08:40:46.687Z</time></trkpt><trkpt lat="43.3936315" lon="12.9903547"><ele>474.0</ele><time>2026-05-02T08:40:47.692Z</time></trkpt><trkpt lat="43.3934985" lon="12.9902815"><ele>479.0</ele><time>2026-05-02T08:40:48.684Z</time></trkpt><trkpt lat="43.3933722" lon="12.9902065"><ele>484.0</ele><time>2026-05-02T08:40:49.689Z</time></trkpt><trkpt lat="43.3932408" lon="12.9901275"><ele>489.0</ele><time>2026-05-02T08:40:50.686Z</time></trkpt><trkpt lat="43.3931109" lon="12.9900471"><ele>486.0</ele><time>2026-05-02T08:40:51.691Z</time></trkpt><trkpt lat="43.3929943" lon="12.9899725"><ele>483.0</ele><time>2026-05-02T08:40:52.684Z</time></trkpt><trkpt lat="43.3928673" lon="12.9899124"><ele>480.0</ele><time>2026-05-02T08:40:53.685Z</time></trkpt><trkpt lat="43.3927261" lon="12.98986"><ele>477.0</ele><time>2026-05-02T08:40:54.686Z</time></trkpt><trkpt lat="43.3925901" lon="12.9898015"><ele>477.0</ele><time>2026-05-02T08:40:55.694Z</time></trkpt><trkpt lat="43.3924582" lon="12.9897393"><ele>477.0</ele><time>2026-05-02T08:40:56.686Z</time></trkpt><trkpt lat="43.3923229" lon="12.9896808"><ele>477.0</ele><time>2026-05-02T08:40:57.691Z</time></trkpt><trkpt lat="43.3921827" lon="12.989636"><ele>477.0</ele><time>2026-05-02T08:40:58.687Z</time></trkpt><trkpt lat="43.3920376" lon="12.9895999"><ele>482.25</ele><time>2026-05-02T08:40:59.69Z</time></trkpt><trkpt lat="43.3919054" lon="12.9895589"><ele>487.5</ele><time>2026-05-02T08:41:00.691Z</time></trkpt><trkpt lat="43.3917851" lon="12.9895047"><ele>492.75</ele><time>2026-05-02T08:41:01.688Z</time></trkpt><trkpt lat="43.3916779" lon="12.9894409"><ele>498.0</ele><time>2026-05-02T08:41:02.683Z</time></trkpt><trkpt lat="43.3915755" lon="12.9893548"><ele>498.0</ele><time>2026-05-02T08:41:03.695Z</time></trkpt><trkpt lat="43.3914882" lon="12.9892865"><ele>497.99999999999994</ele><time>2026-05-02T08:41:04.687Z</time></trkpt><trkpt lat="43.3914153" lon="12.9892241"><ele>497.99999999999994</ele><time>2026-05-02T08:41:05.683Z</time></trkpt><trkpt lat="43.3913536" lon="12.9891993"><ele>498.0</ele><time>2026-05-02T08:41:06.68Z</time></trkpt><trkpt lat="43.3912508" lon="12.9892357"><ele>498.0</ele><time>2026-05-02T08:41:08.686Z</time></trkpt><trkpt lat="43.3912237" lon="12.9893674"><ele>498.0</ele><time>2026-05-02T08:41:10.68Z</time></trkpt><trkpt lat="43.3913096" lon="12.9894892"><ele>497.99999999999994</ele><time>2026-05-02T08:41:12.686Z</time></trkpt><trkpt lat="43.3913842" lon="12.9895234"><ele>497.99999999999994</ele><time>2026-05-02T08:41:13.688Z</time></trkpt><trkpt lat="43.3914732" lon="12.9895493"><ele>498.0</ele><time>2026-05-02T08:41:14.687Z</time></trkpt><trkpt lat="43.3915596" lon="12.9895785"><ele>498.0</ele><time>2026-05-02T08:41:15.688Z</time></trkpt><trkpt lat="43.3916527" lon="12.9896233"><ele>498.0</ele><time>2026-05-02T08:41:16.681Z</time></trkpt><trkpt lat="43.3917535" lon="12.9896862"><ele>498.0</ele><time>2026-05-02T08:41:17.681Z</time></trkpt><trkpt lat="43.3918615" lon="12.9897674"><ele>498.0</ele><time>2026-05-02T08:41:18.686Z</time></trkpt><trkpt lat="43.3919637" lon="12.9898477"><ele>498.0</ele><time>2026-05-02T08:41:19.686Z</time></trkpt><trkpt lat="43.3920651" lon="12.9899353"><ele>501.5</ele><time>2026-05-02T08:41:20.685Z</time></trkpt><trkpt lat="43.3921695" lon="12.9900214"><ele>505.0</ele><time>2026-05-02T08:41:21.69Z</time></trkpt><trkpt lat="43.3922767" lon="12.9901106"><ele>508.5</ele><time>2026-05-02T08:41:22.684Z</time></trkpt><trkpt lat="43.3923845" lon="12.9901978"><ele>512.0</ele><time>2026-05-02T08:41:23.688Z</time></trkpt><trkpt lat="43.3924984" lon="12.9902987"><ele>512.0</ele><time>2026-05-02T08:41:24.69Z</time></trkpt><trkpt lat="43.3926096" lon="12.9903961"><ele>512.0</ele><time>2026-05-02T08:41:25.692Z</time></trkpt><trkpt lat="43.3927247" lon="12.9905058"><ele>512.0</ele><time>2026-05-02T08:41:26.69Z</time></trkpt><trkpt lat="43.392844" lon="12.9906129"><ele>512.0</ele><time>2026-05-02T08:41:27.692Z</time></trkpt><trkpt lat="43.3929578" lon="12.9907149"><ele>514.25</ele><time>2026-05-02T08:41:28.69Z</time></trkpt><trkpt lat="43.3930662" lon="12.9908277"><ele>516.5</ele><time>2026-05-02T08:41:29.692Z</time></trkpt><trkpt lat="43.3931802" lon="12.9909372"><ele>518.75</ele><time>2026-05-02T08:41:30.693Z</time></trkpt><trkpt lat="43.3932983" lon="12.9910428"><ele>521.0</ele><time>2026-05-02T08:41:31.69Z</time></trkpt><trkpt lat="43.3934183" lon="12.9911441"><ele>521.0</ele><time>2026-05-02T08:41:32.685Z</time></trkpt><trkpt lat="43.3935412" lon="12.9912467"><ele>521.0</ele><time>2026-05-02T08:41:33.691Z</time></trkpt><trkpt lat="43.3936626" lon="12.991349"><ele>521.0</ele><time>2026-05-02T08:41:34.693Z</time></trkpt><trkpt lat="43.3937841" lon="12.9914482"><ele>521.0</ele><time>2026-05-02T08:41:35.692Z</time></trkpt><trkpt lat="43.3939197" lon="12.9915415"><ele>516.75</ele><time>2026-05-02T08:41:36.691Z</time></trkpt><trkpt lat="43.3940483" lon="12.9916307"><ele>512.5</ele><time>2026-05-02T08:41:37.687Z</time></trkpt><trkpt lat="43.3941822" lon="12.9917187"><ele>508.25</ele><time>2026-05-02T08:41:38.688Z</time></trkpt><trkpt lat="43.3943155" lon="12.9918051"><ele>504.0</ele><time>2026-05-02T08:41:39.691Z</time></trkpt><trkpt lat="43.3944455" lon="12.9919003"><ele>510.33333333333337</ele><time>2026-05-02T08:41:40.688Z</time></trkpt><trkpt lat="43.3945814" lon="12.9919994"><ele>516.6666666666667</ele><time>2026-05-02T08:41:41.689Z</time></trkpt><trkpt lat="43.3947129" lon="12.9920926"><ele>523.0</ele><time>2026-05-02T08:41:42.692Z</time></trkpt><trkpt lat="43.3948645" lon="12.9921941"><ele>523.0</ele><time>2026-05-02T08:41:43.691Z</time></trkpt><trkpt lat="43.3950074" lon="12.9922973"><ele>523.0</ele><time>2026-05-02T08:41:44.696Z</time></trkpt><trkpt lat="43.3951522" lon="12.992404"><ele>523.0</ele><time>2026-05-02T08:41:45.695Z</time></trkpt><trkpt lat="43.3953009" lon="12.9925085"><ele>528.0</ele><time>2026-05-02T08:41:46.688Z</time></trkpt><trkpt lat="43.3954464" lon="12.9926168"><ele>533.0</ele><time>2026-05-02T08:41:47.689Z</time></trkpt><trkpt lat="43.3955906" lon="12.9927177"><ele>538.0</ele><time>2026-05-02T08:41:48.689Z</time></trkpt><trkpt lat="43.3957231" lon="12.9928189"><ele>538.0</ele><time>2026-05-02T08:41:49.69Z</time></trkpt><trkpt lat="43.3958567" lon="12.9929037"><ele>538.0</ele><time>2026-05-02T08:41:50.687Z</time></trkpt><trkpt lat="43.3959977" lon="12.9929829"><ele>538.0</ele><time>2026-05-02T08:41:51.684Z</time></trkpt><trkpt lat="43.3961419" lon="12.9930431"><ele>538.0</ele><time>2026-05-02T08:41:52.686Z</time></trkpt><trkpt lat="43.3962893" lon="12.9931089"><ele>538.0</ele><time>2026-05-02T08:41:53.685Z</time></trkpt><trkpt lat="43.3964304" lon="12.9931601"><ele>538.0</ele><time>2026-05-02T08:41:54.68Z</time></trkpt><trkpt lat="43.3965699" lon="12.9932027"><ele>538.0</ele><time>2026-05-02T08:41:55.689Z</time></trkpt><trkpt lat="43.3967184" lon="12.9932418"><ele>535.6666666666667</ele><time>2026-05-02T08:41:56.69Z</time></trkpt><trkpt lat="43.3968716" lon="12.9932974"><ele>533.3333333333334</ele><time>2026-05-02T08:41:57.687Z</time></trkpt><trkpt lat="43.3970219" lon="12.9933352"><ele>531.0</ele><time>2026-05-02T08:41:58.684Z</time></trkpt><trkpt lat="43.3971697" lon="12.9933631"><ele>543.6666666666666</ele><time>2026-05-02T08:41:59.687Z</time></trkpt><trkpt lat="43.3973274" lon="12.9934126"><ele>556.3333333333333</ele><time>2026-05-02T08:42:00.687Z</time></trkpt><trkpt lat="43.3974856" lon="12.9934431"><ele>569.0</ele><time>2026-05-02T08:42:01.686Z</time></trkpt><trkpt lat="43.3976418" lon="12.9934748"><ele>569.0</ele><time>2026-05-02T08:42:02.685Z</time></trkpt><trkpt lat="43.3978015" lon="12.9935155"><ele>569.0</ele><time>2026-05-02T08:42:03.686Z</time></trkpt><trkpt lat="43.397964" lon="12.9935533"><ele>569.0</ele><time>2026-05-02T08:42:04.684Z</time></trkpt><trkpt lat="43.3981278" lon="12.9935965"><ele>568.0</ele><time>2026-05-02T08:42:05.684Z</time></trkpt><trkpt lat="43.3982896" lon="12.9936288"><ele>567.0</ele><time>2026-05-02T08:42:06.69Z</time></trkpt><trkpt lat="43.3984484" lon="12.9936637"><ele>566.0</ele><time>2026-05-02T08:42:07.686Z</time></trkpt><trkpt lat="43.3985991" lon="12.9937095"><ele>566.0</ele><time>2026-05-02T08:42:08.678Z</time></trkpt><trkpt lat="43.398739" lon="12.9937471"><ele>566.0</ele><time>2026-05-02T08:42:09.685Z</time></trkpt><trkpt lat="43.398898" lon="12.9937898"><ele>566.0</ele><time>2026-05-02T08:42:10.684Z</time></trkpt><trkpt lat="43.3990442" lon="12.9938233"><ele>564.25</ele><time>2026-05-02T08:42:11.692Z</time></trkpt><trkpt lat="43.3991833" lon="12.9938704"><ele>562.5</ele><time>2026-05-02T08:42:12.687Z</time></trkpt><trkpt lat="43.3993219" lon="12.9939144"><ele>560.75</ele><time>2026-05-02T08:42:13.687Z</time></trkpt><trkpt lat="43.3994496" lon="12.9939628"><ele>559.0</ele><time>2026-05-02T08:42:14.684Z</time></trkpt><trkpt lat="43.3995878" lon="12.9940239"><ele>558.5</ele><time>2026-05-02T08:42:15.686Z</time></trkpt><trkpt lat="43.39972" lon="12.9940666"><ele>558.0</ele><time>2026-05-02T08:42:16.689Z</time></trkpt><trkpt lat="43.3998586" lon="12.994094"><ele>557.5</ele><time>2026-05-02T08:42:17.688Z</time></trkpt><trkpt lat="43.4000003" lon="12.9941149"><ele>557.0</ele><time>2026-05-02T08:42:18.69Z</time></trkpt><trkpt lat="43.4001526" lon="12.9941391"><ele>557.0</ele><time>2026-05-02T08:42:19.686Z</time></trkpt><trkpt lat="43.4003132" lon="12.9941565"><ele>557.0</ele><time>2026-05-02T08:42:20.683Z</time></trkpt><trkpt lat="43.4004774" lon="12.9941688"><ele>557.0</ele><time>2026-05-02T08:42:21.691Z</time></trkpt><trkpt lat="43.4006401" lon="12.9941941"><ele>567.6666666666666</ele><time>2026-05-02T08:42:22.679Z</time></trkpt><trkpt lat="43.4008103" lon="12.9942057"><ele>578.3333333333334</ele><time>2026-05-02T08:42:23.686Z</time></trkpt><trkpt lat="43.4009743" lon="12.9942262"><ele>589.0</ele><time>2026-05-02T08:42:24.682Z</time></trkpt><trkpt lat="43.4011379" lon="12.9942511"><ele>589.0</ele><time>2026-05-02T08:42:25.687Z</time></trkpt><trkpt lat="43.4012965" lon="12.9942879"><ele>589.0</ele><time>2026-05-02T08:42:26.688Z</time></trkpt><trkpt lat="43.4014443" lon="12.9943135"><ele>589.0</ele><time>2026-05-02T08:42:27.68Z</time></trkpt><trkpt lat="43.4015891" lon="12.9943182"><ele>591.0</ele><time>2026-05-02T08:42:28.685Z</time></trkpt><trkpt lat="43.4017367" lon="12.9943187"><ele>593.0</ele><time>2026-05-02T08:42:29.684Z</time></trkpt><trkpt lat="43.4018896" lon="12.9942996"><ele>595.0</ele><time>2026-05-02T08:42:30.687Z</time></trkpt><trkpt lat="43.402037" lon="12.9942544"><ele>596.75</ele><time>2026-05-02T08:42:31.68Z</time></trkpt><trkpt lat="43.4021909" lon="12.9942078"><ele>598.5</ele><time>2026-05-02T08:42:32.679Z</time></trkpt><trkpt lat="43.4023387" lon="12.9941612"><ele>600.25</ele><time>2026-05-02T08:42:33.676Z</time></trkpt><trkpt lat="43.4024722" lon="12.994118"><ele>602.0</ele><time>2026-05-02T08:42:34.684Z</time></trkpt><trkpt lat="43.4026117" lon="12.9940827"><ele>593.6666666666666</ele><time>2026-05-02T08:42:35.682Z</time></trkpt><trkpt lat="43.4027635" lon="12.9940735"><ele>585.3333333333334</ele><time>2026-05-02T08:42:36.688Z</time></trkpt><trkpt lat="43.4029234" lon="12.9940934"><ele>577.0</ele><time>2026-05-02T08:42:37.686Z</time></trkpt><trkpt lat="43.4030827" lon="12.994112"><ele>577.0</ele><time>2026-05-02T08:42:38.683Z</time></trkpt><trkpt lat="43.4032407" lon="12.9941321"><ele>577.0</ele><time>2026-05-02T08:42:39.69Z</time></trkpt><trkpt lat="43.4034038" lon="12.9941712"><ele>577.0</ele><time>2026-05-02T08:42:40.682Z</time></trkpt><trkpt lat="43.4035609" lon="12.9941905"><ele>584.6666666666667</ele><time>2026-05-02T08:42:41.684Z</time></trkpt><trkpt lat="43.4037193" lon="12.9942187"><ele>592.3333333333334</ele><time>2026-05-02T08:42:42.686Z</time></trkpt><trkpt lat="43.4038769" lon="12.9942485"><ele>600.0</ele><time>2026-05-02T08:42:43.688Z</time></trkpt><trkpt lat="43.4040374" lon="12.994291"><ele>601.0</ele><time>2026-05-02T08:42:44.687Z</time></trkpt><trkpt lat="43.4041955" lon="12.9943321"><ele>602.0</ele><time>2026-05-02T08:42:45.687Z</time></trkpt><trkpt lat="43.4043455" lon="12.9943706"><ele>603.0</ele><time>2026-05-02T08:42:46.678Z</time></trkpt><trkpt lat="43.4044838" lon="12.9944157"><ele>603.0</ele><time>2026-05-02T08:42:47.681Z</time></trkpt><trkpt lat="43.4046383" lon="12.9944613"><ele>603.0</ele><time>2026-05-02T08:42:48.691Z</time></trkpt><trkpt lat="43.4047882" lon="12.9944986"><ele>603.0</ele><time>2026-05-02T08:42:49.687Z</time></trkpt><trkpt lat="43.4049382" lon="12.9945561"><ele>602.6666666666666</ele><time>2026-05-02T08:42:50.691Z</time></trkpt><trkpt lat="43.4050895" lon="12.9946205"><ele>602.3333333333333</ele><time>2026-05-02T08:42:51.685Z</time></trkpt><trkpt lat="43.405247" lon="12.9946889"><ele>602.0</ele><time>2026-05-02T08:42:52.679Z</time></trkpt><trkpt lat="43.4053999" lon="12.9947553"><ele>600.6666666666666</ele><time>2026-05-02T08:42:53.68Z</time></trkpt><trkpt lat="43.4055484" lon="12.9948204"><ele>599.3333333333334</ele><time>2026-05-02T08:42:54.685Z</time></trkpt><trkpt lat="43.4056936" lon="12.9949092"><ele>598.0</ele><time>2026-05-02T08:42:55.684Z</time></trkpt><trkpt lat="43.4058404" lon="12.9949934"><ele>605.6666666666667</ele><time>2026-05-02T08:42:56.68Z</time></trkpt><trkpt lat="43.405975" lon="12.9950797"><ele>613.3333333333334</ele><time>2026-05-02T08:42:57.688Z</time></trkpt><trkpt lat="43.4061181" lon="12.9951756"><ele>621.0</ele><time>2026-05-02T08:42:58.693Z</time></trkpt><trkpt lat="43.4062655" lon="12.9952626"><ele>618.3333333333334</ele><time>2026-05-02T08:42:59.694Z</time></trkpt><trkpt lat="43.4064094" lon="12.9953543"><ele>615.6666666666667</ele><time>2026-05-02T08:43:00.691Z</time></trkpt><trkpt lat="43.4065604" lon="12.9954443"><ele>613.0</ele><time>2026-05-02T08:43:01.692Z</time></trkpt><trkpt lat="43.4066994" lon="12.9955282"><ele>613.0</ele><time>2026-05-02T08:43:02.687Z</time></trkpt><trkpt lat="43.4068278" lon="12.995614"><ele>613.0</ele><time>2026-05-02T08:43:03.689Z</time></trkpt><trkpt lat="43.406949" lon="12.9956799"><ele>613.0</ele><time>2026-05-02T08:43:04.688Z</time></trkpt><trkpt lat="43.4070541" lon="12.9957515"><ele>613.0</ele><time>2026-05-02T08:43:05.692Z</time></trkpt><trkpt lat="43.4071387" lon="12.9957953"><ele>611.6666666666667</ele><time>2026-05-02T08:43:06.687Z</time></trkpt><trkpt lat="43.4072142" lon="12.9958277"><ele>610.3333333333334</ele><time>2026-05-02T08:43:07.686Z</time></trkpt><trkpt lat="43.4072926" lon="12.9958744"><ele>609.0</ele><time>2026-05-02T08:43:08.687Z</time></trkpt><trkpt lat="43.4073537" lon="12.9959283"><ele>607.6666666666666</ele><time>2026-05-02T08:43:09.695Z</time></trkpt><trkpt lat="43.4073502" lon="12.9960357"><ele>606.3333333333333</ele><time>2026-05-02T08:43:11.689Z</time></trkpt><trkpt lat="43.407282" lon="12.9961215"><ele>605.0</ele><time>2026-05-02T08:43:13.683Z</time></trkpt><trkpt lat="43.4071662" lon="12.9961166"><ele>611.2</ele><time>2026-05-02T08:43:15.688Z</time></trkpt><trkpt lat="43.4070948" lon="12.9960657"><ele>617.4</ele><time>2026-05-02T08:43:16.68Z</time></trkpt><trkpt lat="43.4070068" lon="12.9960079"><ele>623.6</ele><time>2026-05-02T08:43:17.682Z</time></trkpt><trkpt lat="43.4069077" lon="12.9959537"><ele>629.8</ele><time>2026-05-02T08:43:18.687Z</time></trkpt><trkpt lat="43.4068068" lon="12.995917"><ele>636.0</ele><time>2026-05-02T08:43:19.691Z</time></trkpt><trkpt lat="43.4066997" lon="12.9959049"><ele>636.0</ele><time>2026-05-02T08:43:20.69Z</time></trkpt><trkpt lat="43.406587" lon="12.9959088"><ele>636.0</ele><time>2026-05-02T08:43:21.688Z</time></trkpt><trkpt lat="43.4064779" lon="12.9959146"><ele>636.0</ele><time>2026-05-02T08:43:22.69Z</time></trkpt><trkpt lat="43.4063697" lon="12.9959204"><ele>636.0</ele><time>2026-05-02T08:43:23.69Z</time></trkpt><trkpt lat="43.406258" lon="12.99593"><ele>636.0</ele><time>2026-05-02T08:43:24.687Z</time></trkpt><trkpt lat="43.406144" lon="12.9959411"><ele>639.0</ele><time>2026-05-02T08:43:25.696Z</time></trkpt><trkpt lat="43.4060303" lon="12.9959497"><ele>642.0</ele><time>2026-05-02T08:43:26.69Z</time></trkpt><trkpt lat="43.4059159" lon="12.9959551"><ele>645.0</ele><time>2026-05-02T08:43:27.697Z</time></trkpt><trkpt lat="43.405807" lon="12.9959702"><ele>648.0</ele><time>2026-05-02T08:43:28.695Z</time></trkpt><trkpt lat="43.4056926" lon="12.9959847"><ele>648.0</ele><time>2026-05-02T08:43:29.689Z</time></trkpt><trkpt lat="43.4055761" lon="12.9959957"><ele>648.0</ele><time>2026-05-02T08:43:30.693Z</time></trkpt><trkpt lat="43.405457" lon="12.9960015"><ele>648.0</ele><time>2026-05-02T08:43:31.69Z</time></trkpt><trkpt lat="43.4053315" lon="12.9960067"><ele>648.0</ele><time>2026-05-02T08:43:32.682Z</time></trkpt><trkpt lat="43.4051994" lon="12.996017"><ele>649.0</ele><time>2026-05-02T08:43:33.686Z</time></trkpt><trkpt lat="43.405067" lon="12.9960319"><ele>650.0</ele><time>2026-05-02T08:43:34.681Z</time></trkpt><trkpt lat="43.4049295" lon="12.9960509"><ele>651.0</ele><time>2026-05-02T08:43:35.686Z</time></trkpt><trkpt lat="43.4047876" lon="12.9960669"><ele>652.0</ele><time>2026-05-02T08:43:36.686Z</time></trkpt><trkpt lat="43.4046447" lon="12.996089"><ele>652.0</ele><time>2026-05-02T08:43:37.683Z</time></trkpt><trkpt lat="43.4044983" lon="12.9961017"><ele>652.0</ele><time>2026-05-02T08:43:38.684Z</time></trkpt><trkpt lat="43.4043515" lon="12.9961187"><ele>652.0</ele><time>2026-05-02T08:43:39.682Z</time></trkpt><trkpt lat="43.4042026" lon="12.9961391"><ele>652.0</ele><time>2026-05-02T08:43:40.689Z</time></trkpt><trkpt lat="43.4040587" lon="12.9961734"><ele>652.0</ele><time>2026-05-02T08:43:41.68Z</time></trkpt><trkpt lat="43.4039118" lon="12.9962042"><ele>652.0</ele><time>2026-05-02T08:43:42.685Z</time></trkpt><trkpt lat="43.4037726" lon="12.9962279"><ele>652.0</ele><time>2026-05-02T08:43:43.682Z</time></trkpt><trkpt lat="43.4036228" lon="12.9962532"><ele>652.0</ele><time>2026-05-02T08:43:44.68Z</time></trkpt><trkpt lat="43.4034794" lon="12.9962731"><ele>652.4000000000001</ele><time>2026-05-02T08:43:45.685Z</time></trkpt><trkpt lat="43.4033463" lon="12.9962709"><ele>652.8000000000001</ele><time>2026-05-02T08:43:46.687Z</time></trkpt><trkpt lat="43.4032236" lon="12.9962622"><ele>653.2</ele><time>2026-05-02T08:43:47.679Z</time></trkpt><trkpt lat="43.403125" lon="12.9962595"><ele>653.6</ele><time>2026-05-02T08:43:48.675Z</time></trkpt><trkpt lat="43.403035" lon="12.9962734"><ele>654.0</ele><time>2026-05-02T08:43:49.673Z</time></trkpt><trkpt lat="43.4029596" lon="12.9963011"><ele>653.0</ele><time>2026-05-02T08:43:50.675Z</time></trkpt><trkpt lat="43.4028753" lon="12.9963674"><ele>652.0</ele><time>2026-05-02T08:43:51.68Z</time></trkpt><trkpt lat="43.4027913" lon="12.9964557"><ele>651.0</ele><time>2026-05-02T08:43:52.677Z</time></trkpt><trkpt lat="43.4027062" lon="12.996542"><ele>650.0</ele><time>2026-05-02T08:43:53.677Z</time></trkpt><trkpt lat="43.402607" lon="12.9966183"><ele>649.0</ele><time>2026-05-02T08:43:54.682Z</time></trkpt><trkpt lat="43.4024988" lon="12.9966825"><ele>651.25</ele><time>2026-05-02T08:43:55.682Z</time></trkpt><trkpt lat="43.4023863" lon="12.9967451"><ele>653.5</ele><time>2026-05-02T08:43:56.678Z</time></trkpt><trkpt lat="43.402266" lon="12.9967928"><ele>655.75</ele><time>2026-05-02T08:43:57.677Z</time></trkpt><trkpt lat="43.4021468" lon="12.9968276"><ele>658.0</ele><time>2026-05-02T08:43:58.673Z</time></trkpt><trkpt lat="43.4020305" lon="12.9968477"><ele>658.0</ele><time>2026-05-02T08:43:59.683Z</time></trkpt><trkpt lat="43.4019253" lon="12.996861"><ele>658.0</ele><time>2026-05-02T08:44:00.677Z</time></trkpt><trkpt lat="43.4018417" lon="12.9968669"><ele>658.0</ele><time>2026-05-02T08:44:01.682Z</time></trkpt><trkpt lat="43.4017729" lon="12.9968938"><ele>658.0</ele><time>2026-05-02T08:44:03.677Z</time></trkpt><trkpt lat="43.4017845" lon="12.9969852"><ele>658.0</ele><time>2026-05-02T08:44:05.675Z</time></trkpt><trkpt lat="43.4018866" lon="12.9970522"><ele>658.0</ele><time>2026-05-02T08:44:07.671Z</time></trkpt><trkpt lat="43.4019628" lon="12.9970684"><ele>658.0</ele><time>2026-05-02T08:44:08.678Z</time></trkpt><trkpt lat="43.4020377" lon="12.997075"><ele>658.0</ele><time>2026-05-02T08:44:09.681Z</time></trkpt><trkpt lat="43.4021225" lon="12.9970824"><ele>658.0</ele><time>2026-05-02T08:44:10.684Z</time></trkpt><trkpt lat="43.402239" lon="12.997091"><ele>658.0</ele><time>2026-05-02T08:44:11.685Z</time></trkpt><trkpt lat="43.4023617" lon="12.9970824"><ele>658.0</ele><time>2026-05-02T08:44:12.683Z</time></trkpt><trkpt lat="43.4024777" lon="12.9970822"><ele>658.75</ele><time>2026-05-02T08:44:13.685Z</time></trkpt><trkpt lat="43.4025928" lon="12.9970819"><ele>659.5</ele><time>2026-05-02T08:44:14.691Z</time></trkpt><trkpt lat="43.4027089" lon="12.9970804"><ele>660.25</ele><time>2026-05-02T08:44:15.688Z</time></trkpt><trkpt lat="43.4028296" lon="12.9970768"><ele>661.0</ele><time>2026-05-02T08:44:16.676Z</time></trkpt><trkpt lat="43.4029508" lon="12.9970659"><ele>663.1999999999999</ele><time>2026-05-02T08:44:17.669Z</time></trkpt><trkpt lat="43.4030707" lon="12.9970397"><ele>665.4</ele><time>2026-05-02T08:44:18.672Z</time></trkpt><trkpt lat="43.4031705" lon="12.9970154"><ele>667.6</ele><time>2026-05-02T08:44:19.669Z</time></trkpt><trkpt lat="43.4032559" lon="12.9970028"><ele>669.8</ele><time>2026-05-02T08:44:20.671Z</time></trkpt><trkpt lat="43.4033231" lon="12.9970025"><ele>672.0</ele><time>2026-05-02T08:44:21.673Z</time></trkpt><trkpt lat="43.4034541" lon="12.9970369"><ele>672.0</ele><time>2026-05-02T08:44:23.687Z</time></trkpt><trkpt lat="43.4035368" lon="12.9970753"><ele>672.0</ele><time>2026-05-02T08:44:24.679Z</time></trkpt><trkpt lat="43.403632" lon="12.9971201"><ele>672.0</ele><time>2026-05-02T08:44:25.682Z</time></trkpt><trkpt lat="43.4037395" lon="12.9971598"><ele>672.0</ele><time>2026-05-02T08:44:26.68Z</time></trkpt><trkpt lat="43.403851" lon="12.9972044"><ele>672.0</ele><time>2026-05-02T08:44:27.69Z</time></trkpt><trkpt lat="43.4039635" lon="12.997253"><ele>672.6</ele><time>2026-05-02T08:44:28.681Z</time></trkpt><trkpt lat="43.40408" lon="12.9972974"><ele>673.2</ele><time>2026-05-02T08:44:29.681Z</time></trkpt><trkpt lat="43.4041784" lon="12.9973444"><ele>673.8</ele><time>2026-05-02T08:44:30.684Z</time></trkpt><trkpt lat="43.4042704" lon="12.997378"><ele>674.4</ele><time>2026-05-02T08:44:31.686Z</time></trkpt><trkpt lat="43.4043556" lon="12.9974129"><ele>675.0</ele><time>2026-05-02T08:44:32.686Z</time></trkpt><trkpt lat="43.4044276" lon="12.997449"><ele>675.0</ele><time>2026-05-02T08:44:33.686Z</time></trkpt><trkpt lat="43.4044931" lon="12.997479"><ele>675.0</ele><time>2026-05-02T08:44:34.683Z</time></trkpt><trkpt lat="43.4045518" lon="12.9975132"><ele>675.0</ele><time>2026-05-02T08:44:35.692Z</time></trkpt><trkpt lat="43.4046363" lon="12.9975815"><ele>675.0</ele><time>2026-05-02T08:44:37.68Z</time></trkpt><trkpt lat="43.4046975" lon="12.9976832"><ele>675.0</ele><time>2026-05-02T08:44:39.679Z</time></trkpt><trkpt lat="43.4047131" lon="12.9978716"><ele>676.2</ele><time>2026-05-02T08:44:43.668Z</time></trkpt><trkpt lat="43.4045852" lon="12.9978908"><ele>677.4</ele><time>2026-05-02T08:44:47.642Z</time></trkpt><trkpt lat="43.4044639" lon="12.9978307"><ele>678.5999999999999</ele><time>2026-05-02T08:44:48.661Z</time></trkpt><trkpt lat="43.404388" lon="12.9978386"><ele>679.8</ele><time>2026-05-02T08:44:50.686Z</time></trkpt><trkpt lat="43.4043248" lon="12.9978624"><ele>681.0</ele><time>2026-05-02T08:45:02.662Z</time></trkpt><trkpt lat="43.4042485" lon="12.9978748"><ele>681.0</ele><time>2026-05-02T08:45:04.669Z</time></trkpt><trkpt lat="43.4040938" lon="12.997933"><ele>681.0</ele><time>2026-05-02T08:45:06.674Z</time></trkpt><trkpt lat="43.4039996" lon="12.9979569"><ele>681.0</ele><time>2026-05-02T08:45:07.672Z</time></trkpt><trkpt lat="43.4039204" lon="12.9979825"><ele>681.0</ele><time>2026-05-02T08:45:08.685Z</time></trkpt><trkpt lat="43.4038491" lon="12.9980142"><ele>681.0</ele><time>2026-05-02T08:45:09.683Z</time></trkpt><trkpt lat="43.4037753" lon="12.9980629"><ele>681.5999999999999</ele><time>2026-05-02T08:45:10.692Z</time></trkpt><trkpt lat="43.403709" lon="12.9981366"><ele>682.2</ele><time>2026-05-02T08:45:11.68Z</time></trkpt><trkpt lat="43.4036439" lon="12.9982199"><ele>682.8</ele><time>2026-05-02T08:45:12.678Z</time></trkpt><trkpt lat="43.4035845" lon="12.9982963"><ele>683.4000000000001</ele><time>2026-05-02T08:45:13.679Z</time></trkpt><trkpt lat="43.4035313" lon="12.9983679"><ele>684.0</ele><time>2026-05-02T08:45:14.689Z</time></trkpt><trkpt lat="43.4034465" lon="12.9984848"><ele>684.0</ele><time>2026-05-02T08:45:16.677Z</time></trkpt><trkpt lat="43.4034293" lon="12.9986189"><ele>684.0</ele><time>2026-05-02T08:45:18.679Z</time></trkpt><trkpt lat="43.4034799" lon="12.9987687"><ele>684.0</ele><time>2026-05-02T08:45:20.685Z</time></trkpt><trkpt lat="43.4035139" lon="12.9988555"><ele>684.0</ele><time>2026-05-02T08:45:21.687Z</time></trkpt><trkpt lat="43.4035504" lon="12.9989456"><ele>684.0</ele><time>2026-05-02T08:45:22.681Z</time></trkpt><trkpt lat="43.4035879" lon="12.9990387"><ele>684.0</ele><time>2026-05-02T08:45:23.684Z</time></trkpt><trkpt lat="43.4036196" lon="12.9991324"><ele>684.3333333333334</ele><time>2026-05-02T08:45:24.681Z</time></trkpt><trkpt lat="43.40365" lon="12.9992218"><ele>684.6666666666666</ele><time>2026-05-02T08:45:25.687Z</time></trkpt><trkpt lat="43.4036758" lon="12.9993071"><ele>685.0</ele><time>2026-05-02T08:45:26.684Z</time></trkpt><trkpt lat="43.4037105" lon="12.999465"><ele>685.3333333333333</ele><time>2026-05-02T08:45:28.688Z</time></trkpt><trkpt lat="43.4037113" lon="12.9995561"><ele>685.6666666666666</ele><time>2026-05-02T08:45:29.687Z</time></trkpt><trkpt lat="43.4037031" lon="12.9996467"><ele>686.0</ele><time>2026-05-02T08:45:30.685Z</time></trkpt><trkpt lat="43.4036803" lon="12.9997311"><ele>686.0</ele><time>2026-05-02T08:45:31.683Z</time></trkpt><trkpt lat="43.4036036" lon="12.9998556"><ele>686.0</ele><time>2026-05-02T08:45:33.68Z</time></trkpt><trkpt lat="43.4035455" lon="12.9998989"><ele>686.0</ele><time>2026-05-02T08:45:34.672Z</time></trkpt><trkpt lat="43.4034765" lon="12.9999181"><ele>686.0</ele><time>2026-05-02T08:45:35.681Z</time></trkpt><trkpt lat="43.4034044" lon="12.9999274"><ele>686.0</ele><time>2026-05-02T08:45:36.684Z</time></trkpt><trkpt lat="43.4033352" lon="12.9999324"><ele>686.0</ele><time>2026-05-02T08:45:37.685Z</time></trkpt><trkpt lat="43.4032637" lon="12.9999384"><ele>686.0</ele><time>2026-05-02T08:45:38.683Z</time></trkpt><trkpt lat="43.4031895" lon="12.9999575"><ele>686.0</ele><time>2026-05-02T08:45:39.682Z</time></trkpt><trkpt lat="43.4031102" lon="12.9999705"><ele>686.0</ele><time>2026-05-02T08:45:40.684Z</time></trkpt><trkpt lat="43.4030309" lon="12.9999729"><ele>686.0</ele><time>2026-05-02T08:45:41.678Z</time></trkpt><trkpt lat="43.4029525" lon="12.9999784"><ele>686.0</ele><time>2026-05-02T08:45:42.668Z</time></trkpt><trkpt lat="43.402874" lon="12.9999787"><ele>686.0</ele><time>2026-05-02T08:45:43.672Z</time></trkpt><trkpt lat="43.4027959" lon="12.9999792"><ele>687.1999999999999</ele><time>2026-05-02T08:45:44.674Z</time></trkpt><trkpt lat="43.4027061" lon="12.9999784"><ele>688.4</ele><time>2026-05-02T08:45:45.673Z</time></trkpt><trkpt lat="43.4026065" lon="12.9999792"><ele>689.6</ele><time>2026-05-02T08:45:46.679Z</time></trkpt><trkpt lat="43.4025062" lon="12.9999831"><ele>690.8</ele><time>2026-05-02T08:45:47.68Z</time></trkpt><trkpt lat="43.4024121" lon="12.9999874"><ele>692.0</ele><time>2026-05-02T08:45:48.678Z</time></trkpt><trkpt lat="43.4023215" lon="12.9999951"><ele>692.0</ele><time>2026-05-02T08:45:49.667Z</time></trkpt><trkpt lat="43.4022287" lon="13.0000035"><ele>692.0</ele><time>2026-05-02T08:45:50.675Z</time></trkpt><trkpt lat="43.4021423" lon="13.0000041"><ele>692.0</ele><time>2026-05-02T08:45:51.674Z</time></trkpt><trkpt lat="43.402046" lon="13.000005"><ele>692.0</ele><time>2026-05-02T08:45:52.666Z</time></trkpt><trkpt lat="43.4019456" lon="13.0000029"><ele>692.0</ele><time>2026-05-02T08:45:53.673Z</time></trkpt><trkpt lat="43.4018509" lon="13.0000129"><ele>693.8</ele><time>2026-05-02T08:45:54.679Z</time></trkpt><trkpt lat="43.4017517" lon="13.0000114"><ele>695.6</ele><time>2026-05-02T08:45:55.679Z</time></trkpt><trkpt lat="43.4016519" lon="13.000011"><ele>697.4</ele><time>2026-05-02T08:45:56.671Z</time></trkpt><trkpt lat="43.4015578" lon="13.0000198"><ele>699.1999999999999</ele><time>2026-05-02T08:45:57.675Z</time></trkpt><trkpt lat="43.4014741" lon="13.0000234"><ele>701.0</ele><time>2026-05-02T08:45:58.671Z</time></trkpt><trkpt lat="43.4013959" lon="13.0000102"><ele>702.6666666666666</ele><time>2026-05-02T08:45:59.678Z</time></trkpt><trkpt lat="43.4013183" lon="12.9999898"><ele>704.3333333333333</ele><time>2026-05-02T08:46:00.676Z</time></trkpt><trkpt lat="43.4012406" lon="12.9999553"><ele>706.0</ele><time>2026-05-02T08:46:01.68Z</time></trkpt><trkpt lat="43.4011665" lon="12.9999115"><ele>707.6666666666666</ele><time>2026-05-02T08:46:02.678Z</time></trkpt><trkpt lat="43.4010826" lon="12.9998636"><ele>709.3333333333334</ele><time>2026-05-02T08:46:03.679Z</time></trkpt><trkpt lat="43.4009912" lon="12.9998108"><ele>711.0</ele><time>2026-05-02T08:46:04.681Z</time></trkpt><trkpt lat="43.4008977" lon="12.9997637"><ele>711.0</ele><time>2026-05-02T08:46:05.682Z</time></trkpt><trkpt lat="43.4008073" lon="12.9997257"><ele>711.0</ele><time>2026-05-02T08:46:06.685Z</time></trkpt><trkpt lat="43.4007171" lon="12.9996856"><ele>711.0</ele><time>2026-05-02T08:46:07.675Z</time></trkpt><trkpt lat="43.4006389" lon="12.9996499"><ele>711.0</ele><time>2026-05-02T08:46:08.682Z</time></trkpt><trkpt lat="43.4005658" lon="12.999614"><ele>711.0</ele><time>2026-05-02T08:46:09.676Z</time></trkpt><trkpt lat="43.4004642" lon="12.9995638"><ele>712.8</ele><time>2026-05-02T08:46:11.681Z</time></trkpt><trkpt lat="43.400373" lon="12.9995317"><ele>714.5999999999999</ele><time>2026-05-02T08:46:13.69Z</time></trkpt><trkpt lat="43.4002722" lon="12.9994943"><ele>716.4</ele><time>2026-05-02T08:46:15.69Z</time></trkpt><trkpt lat="43.4001727" lon="12.9994541"><ele>718.2</ele><time>2026-05-02T08:46:17.677Z</time></trkpt><trkpt lat="43.4000682" lon="12.9994241"><ele>720.0</ele><time>2026-05-02T08:46:19.679Z</time></trkpt><trkpt lat="43.3999504" lon="12.9993844"><ele>720.0</ele><time>2026-05-02T08:46:21.674Z</time></trkpt><trkpt lat="43.3998841" lon="12.9993602"><ele>720.0</ele><time>2026-05-02T08:46:22.672Z</time></trkpt><trkpt lat="43.3998129" lon="12.9993358"><ele>720.0</ele><time>2026-05-02T08:46:23.674Z</time></trkpt><trkpt lat="43.3997333" lon="12.999311"><ele>720.0</ele><time>2026-05-02T08:46:24.679Z</time></trkpt><trkpt lat="43.3996533" lon="12.9992947"><ele>720.0</ele><time>2026-05-02T08:46:25.684Z</time></trkpt><trkpt lat="43.3995747" lon="12.9992726"><ele>720.0</ele><time>2026-05-02T08:46:26.681Z</time></trkpt><trkpt lat="43.3994921" lon="12.9992513"><ele>719.8333333333334</ele><time>2026-05-02T08:46:27.682Z</time></trkpt><trkpt lat="43.3994115" lon="12.9992275"><ele>719.6666666666666</ele><time>2026-05-02T08:46:28.674Z</time></trkpt><trkpt lat="43.3993296" lon="12.9992075"><ele>719.5</ele><time>2026-05-02T08:46:29.688Z</time></trkpt><trkpt lat="43.3992498" lon="12.9991927"><ele>719.3333333333333</ele><time>2026-05-02T08:46:30.68Z</time></trkpt><trkpt lat="43.3991767" lon="12.9991705"><ele>719.1666666666666</ele><time>2026-05-02T08:46:31.689Z</time></trkpt><trkpt lat="43.3991028" lon="12.9991412"><ele>719.0</ele><time>2026-05-02T08:46:32.678Z</time></trkpt><trkpt lat="43.3990296" lon="12.9991159"><ele>718.8571428571428</ele><time>2026-05-02T08:46:33.682Z</time></trkpt><trkpt lat="43.3989602" lon="12.9990959"><ele>718.7142857142857</ele><time>2026-05-02T08:46:34.686Z</time></trkpt><trkpt lat="43.3988959" lon="12.9990749"><ele>718.5714285714286</ele><time>2026-05-02T08:46:35.683Z</time></trkpt><trkpt lat="43.3988349" lon="12.9990503"><ele>718.4285714285713</ele><time>2026-05-02T08:46:36.686Z</time></trkpt><trkpt lat="43.3987685" lon="12.9990045"><ele>718.2857142857143</ele><time>2026-05-02T08:46:37.675Z</time></trkpt><trkpt lat="43.3987081" lon="12.9989393"><ele>718.1428571428571</ele><time>2026-05-02T08:46:38.681Z</time></trkpt><trkpt lat="43.3986453" lon="12.9988722"><ele>718.0</ele><time>2026-05-02T08:46:39.681Z</time></trkpt><trkpt lat="43.3985714" lon="12.998817"><ele>718.0</ele><time>2026-05-02T08:46:40.678Z</time></trkpt><trkpt lat="43.3985018" lon="12.9987693"><ele>718.0</ele><time>2026-05-02T08:46:41.677Z</time></trkpt><trkpt lat="43.398422" lon="12.9987166"><ele>718.0</ele><time>2026-05-02T08:46:42.684Z</time></trkpt><trkpt lat="43.3983482" lon="12.998668"><ele>718.0</ele><time>2026-05-02T08:46:43.686Z</time></trkpt><trkpt lat="43.3982782" lon="12.9986125"><ele>718.0</ele><time>2026-05-02T08:46:44.681Z</time></trkpt><trkpt lat="43.3982139" lon="12.9985426"><ele>718.0</ele><time>2026-05-02T08:46:45.681Z</time></trkpt><trkpt lat="43.3981492" lon="12.9984816"><ele>718.0</ele><time>2026-05-02T08:46:46.68Z</time></trkpt><trkpt lat="43.3980749" lon="12.9984316"><ele>718.0</ele><time>2026-05-02T08:46:47.681Z</time></trkpt><trkpt lat="43.3980091" lon="12.9983894"><ele>718.0</ele><time>2026-05-02T08:46:48.683Z</time></trkpt><trkpt lat="43.3979358" lon="12.9983514"><ele>718.0</ele><time>2026-05-02T08:46:49.679Z</time></trkpt><trkpt lat="43.3978662" lon="12.9983198"><ele>718.0</ele><time>2026-05-02T08:46:50.684Z</time></trkpt><trkpt lat="43.3977968" lon="12.9982854"><ele>718.0</ele><time>2026-05-02T08:46:51.68Z</time></trkpt><trkpt lat="43.3977185" lon="12.9982532"><ele>716.5999999999999</ele><time>2026-05-02T08:46:52.679Z</time></trkpt><trkpt lat="43.3976466" lon="12.9982274"><ele>715.1999999999999</ele><time>2026-05-02T08:46:53.676Z</time></trkpt><trkpt lat="43.39758" lon="12.9982044"><ele>713.8</ele><time>2026-05-02T08:46:54.682Z</time></trkpt><trkpt lat="43.3974744" lon="12.9981521"><ele>712.4</ele><time>2026-05-02T08:46:56.682Z</time></trkpt><trkpt lat="43.3973748" lon="12.9981029"><ele>711.0</ele><time>2026-05-02T08:46:58.678Z</time></trkpt><trkpt lat="43.3972531" lon="12.9980722"><ele>710.5</ele><time>2026-05-02T08:47:00.676Z</time></trkpt><trkpt lat="43.3971399" lon="12.9980808"><ele>710.0</ele><time>2026-05-02T08:47:02.671Z</time></trkpt><trkpt lat="43.3970739" lon="12.9980761"><ele>709.5</ele><time>2026-05-02T08:47:03.679Z</time></trkpt><trkpt lat="43.3969985" lon="12.9980837"><ele>709.0</ele><time>2026-05-02T08:47:04.679Z</time></trkpt><trkpt lat="43.3969205" lon="12.9980983"><ele>708.5</ele><time>2026-05-02T08:47:05.679Z</time></trkpt><trkpt lat="43.3968482" lon="12.9981164"><ele>708.0</ele><time>2026-05-02T08:47:06.674Z</time></trkpt><trkpt lat="43.3967804" lon="12.9981355"><ele>708.0</ele><time>2026-05-02T08:47:07.662Z</time></trkpt><trkpt lat="43.3967173" lon="12.9981599"><ele>708.0</ele><time>2026-05-02T08:47:08.668Z</time></trkpt><trkpt lat="43.3966207" lon="12.9981805"><ele>708.0</ele><time>2026-05-02T08:47:10.677Z</time></trkpt><trkpt lat="43.396527" lon="12.9982189"><ele>708.0</ele><time>2026-05-02T08:47:12.663Z</time></trkpt><trkpt lat="43.3964641" lon="12.9982393"><ele>708.0</ele><time>2026-05-02T08:47:13.666Z</time></trkpt><trkpt lat="43.3963959" lon="12.9982486"><ele>708.0</ele><time>2026-05-02T08:47:14.661Z</time></trkpt><trkpt lat="43.3963243" lon="12.9982436"><ele>708.6666666666666</ele><time>2026-05-02T08:47:15.67Z</time></trkpt><trkpt lat="43.3962235" lon="12.9982459"><ele>709.3333333333334</ele><time>2026-05-02T08:47:17.666Z</time></trkpt><trkpt lat="43.396152" lon="12.9982511"><ele>710.0</ele><time>2026-05-02T08:47:18.667Z</time></trkpt><trkpt lat="43.3960798" lon="12.9982676"><ele>710.6666666666667</ele><time>2026-05-02T08:47:19.659Z</time></trkpt><trkpt lat="43.3959915" lon="12.9982928"><ele>711.3333333333334</ele><time>2026-05-02T08:47:20.677Z</time></trkpt><trkpt lat="43.3959048" lon="12.9983195"><ele>712.0</ele><time>2026-05-02T08:47:21.682Z</time></trkpt><trkpt lat="43.3958253" lon="12.9983373"><ele>711.9999999999999</ele><time>2026-05-02T08:47:22.676Z</time></trkpt><trkpt lat="43.3957542" lon="12.9983426"><ele>712.0</ele><time>2026-05-02T08:47:23.683Z</time></trkpt><trkpt lat="43.3956915" lon="12.9983301"><ele>712.0</ele><time>2026-05-02T08:47:24.672Z</time></trkpt><trkpt lat="43.3956296" lon="12.9982999"><ele>712.0</ele><time>2026-05-02T08:47:25.68Z</time></trkpt><trkpt lat="43.3955692" lon="12.9982416"><ele>712.0</ele><time>2026-05-02T08:47:26.667Z</time></trkpt><trkpt lat="43.3955037" lon="12.9981696"><ele>711.9999999999999</ele><time>2026-05-02T08:47:27.673Z</time></trkpt><trkpt lat="43.3954395" lon="12.9980851"><ele>712.0</ele><time>2026-05-02T08:47:28.668Z</time></trkpt><trkpt lat="43.3953769" lon="12.9980241"><ele>714.8333333333334</ele><time>2026-05-02T08:47:29.67Z</time></trkpt><trkpt lat="43.3953113" lon="12.9979632"><ele>717.6666666666667</ele><time>2026-05-02T08:47:30.677Z</time></trkpt><trkpt lat="43.3952438" lon="12.9979105"><ele>720.5</ele><time>2026-05-02T08:47:31.674Z</time></trkpt><trkpt lat="43.3951767" lon="12.9978486"><ele>723.3333333333334</ele><time>2026-05-02T08:47:32.679Z</time></trkpt><trkpt lat="43.395106" lon="12.9977941"><ele>726.1666666666666</ele><time>2026-05-02T08:47:33.678Z</time></trkpt><trkpt lat="43.3950302" lon="12.9977333"><ele>729.0</ele><time>2026-05-02T08:47:34.678Z</time></trkpt><trkpt lat="43.3949658" lon="12.9976703"><ele>729.0</ele><time>2026-05-02T08:47:35.675Z</time></trkpt><trkpt lat="43.3949051" lon="12.9976121"><ele>729.0</ele><time>2026-05-02T08:47:36.672Z</time></trkpt><trkpt lat="43.3948429" lon="12.9975672"><ele>729.0</ele><time>2026-05-02T08:47:37.675Z</time></trkpt><trkpt lat="43.3947756" lon="12.9975291"><ele>729.0</ele><time>2026-05-02T08:47:38.675Z</time></trkpt><trkpt lat="43.3947104" lon="12.9974648"><ele>729.0</ele><time>2026-05-02T08:47:39.69Z</time></trkpt><trkpt lat="43.3946372" lon="12.997395"><ele>729.0</ele><time>2026-05-02T08:47:40.669Z</time></trkpt><trkpt lat="43.3945834" lon="12.9973433"><ele>730.6666666666666</ele><time>2026-05-02T08:47:41.67Z</time></trkpt><trkpt lat="43.3945032" lon="12.9972718"><ele>732.3333333333334</ele><time>2026-05-02T08:47:43.675Z</time></trkpt><trkpt lat="43.3944144" lon="12.9972213"><ele>734.0</ele><time>2026-05-02T08:47:45.673Z</time></trkpt><trkpt lat="43.3943041" lon="12.9971917"><ele>735.6666666666667</ele><time>2026-05-02T08:47:47.677Z</time></trkpt><trkpt lat="43.3942419" lon="12.9971715"><ele>737.3333333333334</ele><time>2026-05-02T08:47:48.681Z</time></trkpt><trkpt lat="43.3941718" lon="12.9971402"><ele>739.0</ele><time>2026-05-02T08:47:49.677Z</time></trkpt><trkpt lat="43.3941032" lon="12.9971148"><ele>739.0</ele><time>2026-05-02T08:47:50.674Z</time></trkpt><trkpt lat="43.3940232" lon="12.9970925"><ele>739.0</ele><time>2026-05-02T08:47:51.676Z</time></trkpt><trkpt lat="43.393948" lon="12.9970649"><ele>739.0</ele><time>2026-05-02T08:47:52.679Z</time></trkpt><trkpt lat="43.3938735" lon="12.997031"><ele>739.0</ele><time>2026-05-02T08:47:53.681Z</time></trkpt><trkpt lat="43.3937965" lon="12.9969998"><ele>739.0</ele><time>2026-05-02T08:47:54.674Z</time></trkpt><trkpt lat="43.3937078" lon="12.9969745"><ele>739.0</ele><time>2026-05-02T08:47:55.679Z</time></trkpt><trkpt lat="43.3936306" lon="12.9969513"><ele>740.6</ele><time>2026-05-02T08:47:56.663Z</time></trkpt><trkpt lat="43.3935406" lon="12.9969368"><ele>742.2</ele><time>2026-05-02T08:47:57.672Z</time></trkpt><trkpt lat="43.3934689" lon="12.9969214"><ele>743.8000000000001</ele><time>2026-05-02T08:47:58.675Z</time></trkpt><trkpt lat="43.3934005" lon="12.9968752"><ele>745.4000000000001</ele><time>2026-05-02T08:47:59.676Z</time></trkpt><trkpt lat="43.3933093" lon="12.9967791"><ele>747.0</ele><time>2026-05-02T08:48:01.678Z</time></trkpt><trkpt lat="43.3931989" lon="12.996683"><ele>746.5</ele><time>2026-05-02T08:48:03.673Z</time></trkpt><trkpt lat="43.3931441" lon="12.9966198"><ele>746.0</ele><time>2026-05-02T08:48:04.674Z</time></trkpt><trkpt lat="43.393089" lon="12.996544"><ele>745.5</ele><time>2026-05-02T08:48:05.671Z</time></trkpt><trkpt lat="43.3930321" lon="12.9964668"><ele>745.0</ele><time>2026-05-02T08:48:06.675Z</time></trkpt><trkpt lat="43.3929652" lon="12.9963995"><ele>744.5</ele><time>2026-05-02T08:48:07.669Z</time></trkpt><trkpt lat="43.3928973" lon="12.9963223"><ele>744.0</ele><time>2026-05-02T08:48:08.676Z</time></trkpt><trkpt lat="43.3928418" lon="12.9962473"><ele>747.6666666666666</ele><time>2026-05-02T08:48:09.673Z</time></trkpt><trkpt lat="43.3927814" lon="12.9961663"><ele>751.3333333333334</ele><time>2026-05-02T08:48:10.679Z</time></trkpt><trkpt lat="43.3927182" lon="12.9961025"><ele>755.0</ele><time>2026-05-02T08:48:11.668Z</time></trkpt><trkpt lat="43.3926416" lon="12.9959922"><ele>758.6666666666667</ele><time>2026-05-02T08:48:13.674Z</time></trkpt><trkpt lat="43.3925753" lon="12.9959125"><ele>762.3333333333334</ele><time>2026-05-02T08:48:15.675Z</time></trkpt><trkpt lat="43.3925181" lon="12.9958712"><ele>766.0</ele><time>2026-05-02T08:48:17.675Z</time></trkpt><trkpt lat="43.3924643" lon="12.9959235"><ele>766.0</ele><time>2026-05-02T08:48:19.675Z</time></trkpt><trkpt lat="43.3924865" lon="12.9960163"><ele>766.0</ele><time>2026-05-02T08:48:21.674Z</time></trkpt><trkpt lat="43.3925591" lon="12.996106"><ele>766.0</ele><time>2026-05-02T08:48:23.673Z</time></trkpt><trkpt lat="43.3926364" lon="12.9962265"><ele>766.0</ele><time>2026-05-02T08:48:25.672Z</time></trkpt><trkpt lat="43.3926836" lon="12.9963708"><ele>766.0</ele><time>2026-05-02T08:48:27.671Z</time></trkpt><trkpt lat="43.3927071" lon="12.9965275"><ele>766.0</ele><time>2026-05-02T08:48:29.671Z</time></trkpt><trkpt lat="43.3927076" lon="12.9966187"><ele>766.0</ele><time>2026-05-02T08:48:30.676Z</time></trkpt><trkpt lat="43.392712" lon="12.9967127"><ele>766.0</ele><time>2026-05-02T08:48:31.671Z</time></trkpt><trkpt lat="43.3927136" lon="12.9968016"><ele>766.0</ele><time>2026-05-02T08:48:32.67Z</time></trkpt><trkpt lat="43.3927081" lon="12.9969013"><ele>766.0</ele><time>2026-05-02T08:48:33.673Z</time></trkpt><trkpt lat="43.392698" lon="12.9970057"><ele>766.0</ele><time>2026-05-02T08:48:34.667Z</time></trkpt><trkpt lat="43.3926941" lon="12.9971099"><ele>766.0</ele><time>2026-05-02T08:48:35.674Z</time></trkpt><trkpt lat="43.3926891" lon="12.9972191"><ele>765.8333333333334</ele><time>2026-05-02T08:48:36.674Z</time></trkpt><trkpt lat="43.3926746" lon="12.9973353"><ele>765.6666666666667</ele><time>2026-05-02T08:48:37.669Z</time></trkpt><trkpt lat="43.3926618" lon="12.997456"><ele>765.5</ele><time>2026-05-02T08:48:38.672Z</time></trkpt><trkpt lat="43.3926576" lon="12.9975786"><ele>765.3333333333334</ele><time>2026-05-02T08:48:39.675Z</time></trkpt><trkpt lat="43.3926542" lon="12.9976878"><ele>765.1666666666666</ele><time>2026-05-02T08:48:40.677Z</time></trkpt><trkpt lat="43.3926391" lon="12.9977797"><ele>765.0</ele><time>2026-05-02T08:48:41.669Z</time></trkpt><trkpt lat="43.3926014" lon="12.9979457"><ele>765.0</ele><time>2026-05-02T08:48:43.674Z</time></trkpt><trkpt lat="43.3925713" lon="12.9980386"><ele>765.0</ele><time>2026-05-02T08:48:44.675Z</time></trkpt><trkpt lat="43.3925437" lon="12.9981193"><ele>765.0</ele><time>2026-05-02T08:48:45.669Z</time></trkpt><trkpt lat="43.3924896" lon="12.9982292"><ele>765.0</ele><time>2026-05-02T08:48:47.67Z</time></trkpt><trkpt lat="43.3923971" lon="12.998313"><ele>765.0</ele><time>2026-05-02T08:48:49.673Z</time></trkpt><trkpt lat="43.3923326" lon="12.9983325"><ele>765.0</ele><time>2026-05-02T08:48:51.664Z</time></trkpt><trkpt lat="43.3922207" lon="12.9982832"><ele>768.0</ele><time>2026-05-02T08:48:53.666Z</time></trkpt><trkpt lat="43.3921025" lon="12.9983434"><ele>771.0</ele><time>2026-05-02T08:48:55.668Z</time></trkpt><trkpt lat="43.3920562" lon="12.9984168"><ele>774.0</ele><time>2026-05-02T08:48:56.667Z</time></trkpt><trkpt lat="43.3920172" lon="12.9985105"><ele>777.0</ele><time>2026-05-02T08:48:57.672Z</time></trkpt><trkpt lat="43.391982" lon="12.9986165"><ele>780.0</ele><time>2026-05-02T08:48:58.668Z</time></trkpt><trkpt lat="43.3919455" lon="12.9987187"><ele>783.0</ele><time>2026-05-02T08:48:59.674Z</time></trkpt><trkpt lat="43.3919091" lon="12.9988269"><ele>783.0</ele><time>2026-05-02T08:49:00.673Z</time></trkpt><trkpt lat="43.3918674" lon="12.9989344"><ele>783.0</ele><time>2026-05-02T08:49:01.678Z</time></trkpt><trkpt lat="43.3918393" lon="12.9990322"><ele>783.0</ele><time>2026-05-02T08:49:02.673Z</time></trkpt><trkpt lat="43.3918081" lon="12.9991306"><ele>783.0</ele><time>2026-05-02T08:49:03.675Z</time></trkpt><trkpt lat="43.3917859" lon="12.9992239"><ele>783.0</ele><time>2026-05-02T08:49:04.676Z</time></trkpt><trkpt lat="43.3917716" lon="12.9993287"><ele>783.0</ele><time>2026-05-02T08:49:05.676Z</time></trkpt><trkpt lat="43.3917687" lon="12.9994246"><ele>783.8333333333334</ele><time>2026-05-02T08:49:06.673Z</time></trkpt><trkpt lat="43.3917822" lon="12.9995105"><ele>784.6666666666667</ele><time>2026-05-02T08:49:07.672Z</time></trkpt><trkpt lat="43.3917804" lon="12.9996226"><ele>785.5</ele><time>2026-05-02T08:49:08.672Z</time></trkpt><trkpt lat="43.3917785" lon="12.9997423"><ele>786.3333333333334</ele><time>2026-05-02T08:49:09.679Z</time></trkpt><trkpt lat="43.3917762" lon="12.9998638"><ele>787.1666666666667</ele><time>2026-05-02T08:49:10.674Z</time></trkpt><trkpt lat="43.3917693" lon="12.999996"><ele>788.0</ele><time>2026-05-02T08:49:11.676Z</time></trkpt><trkpt lat="43.391768" lon="13.0001238"><ele>788.0000000000001</ele><time>2026-05-02T08:49:12.674Z</time></trkpt><trkpt lat="43.3917773" lon="13.0002565"><ele>788.0</ele><time>2026-05-02T08:49:13.68Z</time></trkpt><trkpt lat="43.3917705" lon="13.0003805"><ele>788.0</ele><time>2026-05-02T08:49:14.671Z</time></trkpt><trkpt lat="43.3917719" lon="13.0004872"><ele>788.0</ele><time>2026-05-02T08:49:15.678Z</time></trkpt><trkpt lat="43.3917594" lon="13.0006025"><ele>788.0000000000001</ele><time>2026-05-02T08:49:16.676Z</time></trkpt><trkpt lat="43.3917514" lon="13.0007049"><ele>788.0</ele><time>2026-05-02T08:49:17.672Z</time></trkpt><trkpt lat="43.391751" lon="13.0008068"><ele>788.5000000000001</ele><time>2026-05-02T08:49:18.672Z</time></trkpt><trkpt lat="43.391747" lon="13.0009111"><ele>789.0</ele><time>2026-05-02T08:49:19.676Z</time></trkpt><trkpt lat="43.3917461" lon="13.0010319"><ele>789.5</ele><time>2026-05-02T08:49:20.675Z</time></trkpt><trkpt lat="43.391742" lon="13.0011479"><ele>790.0</ele><time>2026-05-02T08:49:21.674Z</time></trkpt><trkpt lat="43.39174" lon="13.0012612"><ele>790.5000000000001</ele><time>2026-05-02T08:49:22.677Z</time></trkpt><trkpt lat="43.3917381" lon="13.0013763"><ele>791.0</ele><time>2026-05-02T08:49:23.675Z</time></trkpt><trkpt lat="43.3917429" lon="13.0014985"><ele>791.0000000000001</ele><time>2026-05-02T08:49:24.676Z</time></trkpt><trkpt lat="43.3917476" lon="13.0016206"><ele>791.0</ele><time>2026-05-02T08:49:25.681Z</time></trkpt><trkpt lat="43.3917643" lon="13.0017351"><ele>791.0</ele><time>2026-05-02T08:49:26.671Z</time></trkpt><trkpt lat="43.3917724" lon="13.0018431"><ele>791.0</ele><time>2026-05-02T08:49:27.679Z</time></trkpt><trkpt lat="43.3917863" lon="13.0019554"><ele>791.0000000000001</ele><time>2026-05-02T08:49:28.674Z</time></trkpt><trkpt lat="43.3917947" lon="13.0020706"><ele>791.0</ele><time>2026-05-02T08:49:29.682Z</time></trkpt><trkpt lat="43.3917991" lon="13.0021848"><ele>792.5999999999999</ele><time>2026-05-02T08:49:30.675Z</time></trkpt><trkpt lat="43.3918116" lon="13.0023087"><ele>794.2</ele><time>2026-05-02T08:49:31.676Z</time></trkpt><trkpt lat="43.3918276" lon="13.0024289"><ele>795.8</ele><time>2026-05-02T08:49:32.671Z</time></trkpt><trkpt lat="43.3918215" lon="13.0025537"><ele>797.4000000000001</ele><time>2026-05-02T08:49:33.669Z</time></trkpt><trkpt lat="43.3918208" lon="13.002693"><ele>799.0</ele><time>2026-05-02T08:49:34.662Z</time></trkpt><trkpt lat="43.3918308" lon="13.0028316"><ele>800.2</ele><time>2026-05-02T08:49:35.671Z</time></trkpt><trkpt lat="43.3918492" lon="13.002958"><ele>801.4000000000001</ele><time>2026-05-02T08:49:36.669Z</time></trkpt><trkpt lat="43.3918672" lon="13.0030885"><ele>802.6</ele><time>2026-05-02T08:49:37.673Z</time></trkpt><trkpt lat="43.3918803" lon="13.0032139"><ele>803.8</ele><time>2026-05-02T08:49:38.674Z</time></trkpt><trkpt lat="43.3918814" lon="13.0033333"><ele>805.0</ele><time>2026-05-02T08:49:39.67Z</time></trkpt><trkpt lat="43.3918983" lon="13.0034589"><ele>807.0</ele><time>2026-05-02T08:49:40.672Z</time></trkpt><trkpt lat="43.3919135" lon="13.0035781"><ele>809.0</ele><time>2026-05-02T08:49:41.668Z</time></trkpt><trkpt lat="43.3919301" lon="13.0037088"><ele>811.0</ele><time>2026-05-02T08:49:42.665Z</time></trkpt><trkpt lat="43.3919491" lon="13.0038465"><ele>813.0</ele><time>2026-05-02T08:49:43.665Z</time></trkpt><trkpt lat="43.391951" lon="13.0039917"><ele>815.0</ele><time>2026-05-02T08:49:44.666Z</time></trkpt><trkpt lat="43.3919564" lon="13.0041273"><ele>817.4</ele><time>2026-05-02T08:49:45.673Z</time></trkpt><trkpt lat="43.3919658" lon="13.0042654"><ele>819.8</ele><time>2026-05-02T08:49:46.669Z</time></trkpt><trkpt lat="43.3919761" lon="13.0044005"><ele>822.2</ele><time>2026-05-02T08:49:47.667Z</time></trkpt><trkpt lat="43.3919819" lon="13.0045332"><ele>824.6</ele><time>2026-05-02T08:49:48.668Z</time></trkpt><trkpt lat="43.3919832" lon="13.0046593"><ele>827.0</ele><time>2026-05-02T08:49:49.663Z</time></trkpt><trkpt lat="43.3919895" lon="13.0047844"><ele>827.0000000000001</ele><time>2026-05-02T08:49:50.664Z</time></trkpt><trkpt lat="43.391998" lon="13.004899"><ele>827.0</ele><time>2026-05-02T08:49:51.67Z</time></trkpt><trkpt lat="43.3920057" lon="13.0050082"><ele>827.0</ele><time>2026-05-02T08:49:52.659Z</time></trkpt><trkpt lat="43.3920284" lon="13.00512"><ele>827.0</ele><time>2026-05-02T08:49:53.667Z</time></trkpt><trkpt lat="43.392037" lon="13.0052342"><ele>827.0000000000001</ele><time>2026-05-02T08:49:54.671Z</time></trkpt><trkpt lat="43.3920398" lon="13.0053603"><ele>827.0</ele><time>2026-05-02T08:49:55.677Z</time></trkpt><trkpt lat="43.3920557" lon="13.005477"><ele>828.0000000000001</ele><time>2026-05-02T08:49:56.678Z</time></trkpt><trkpt lat="43.3920643" lon="13.0055934"><ele>829.0</ele><time>2026-05-02T08:49:57.676Z</time></trkpt><trkpt lat="43.3920744" lon="13.0056975"><ele>830.0</ele><time>2026-05-02T08:49:58.67Z</time></trkpt><trkpt lat="43.3920759" lon="13.0058096"><ele>831.0</ele><time>2026-05-02T08:49:59.674Z</time></trkpt><trkpt lat="43.3920708" lon="13.0059182"><ele>832.0000000000001</ele><time>2026-05-02T08:50:00.67Z</time></trkpt><trkpt lat="43.3920759" lon="13.0060217"><ele>833.0</ele><time>2026-05-02T08:50:01.674Z</time></trkpt><trkpt lat="43.3920674" lon="13.0061772"><ele>833.0000000000001</ele><time>2026-05-02T08:50:03.673Z</time></trkpt><trkpt lat="43.392049" lon="13.0062836"><ele>833.0</ele><time>2026-05-02T08:50:05.669Z</time></trkpt><trkpt lat="43.3919969" lon="13.0063752"><ele>833.0</ele><time>2026-05-02T08:50:10.672Z</time></trkpt><trkpt lat="43.391931" lon="13.0063181"><ele>833.0</ele><time>2026-05-02T08:50:18.672Z</time></trkpt><trkpt lat="43.3919404" lon="13.0062014"><ele>833.0000000000001</ele><time>2026-05-02T08:50:20.676Z</time></trkpt><trkpt lat="43.3919314" lon="13.0060417"><ele>833.0</ele><time>2026-05-02T08:50:22.67Z</time></trkpt><trkpt lat="43.391919" lon="13.0059501"><ele>833.0000000000001</ele><time>2026-05-02T08:50:23.671Z</time></trkpt><trkpt lat="43.3919036" lon="13.0058453"><ele>833.0</ele><time>2026-05-02T08:50:24.666Z</time></trkpt><trkpt lat="43.3919088" lon="13.0057381"><ele>833.0</ele><time>2026-05-02T08:50:25.668Z</time></trkpt><trkpt lat="43.3918866" lon="13.005635"><ele>833.0</ele><time>2026-05-02T08:50:26.665Z</time></trkpt><trkpt lat="43.391848" lon="13.0055313"><ele>833.0000000000001</ele><time>2026-05-02T08:50:27.668Z</time></trkpt><trkpt lat="43.3918176" lon="13.0054287"><ele>833.0</ele><time>2026-05-02T08:50:28.662Z</time></trkpt><trkpt lat="43.3917941" lon="13.0053141"><ele>833.3333333333334</ele><time>2026-05-02T08:50:29.657Z</time></trkpt><trkpt lat="43.3917873" lon="13.0052026"><ele>833.6666666666667</ele><time>2026-05-02T08:50:30.657Z</time></trkpt><trkpt lat="43.3917356" lon="13.0050949"><ele>834.0</ele><time>2026-05-02T08:50:31.663Z</time></trkpt><trkpt lat="43.391707" lon="13.0049917"><ele>834.3333333333333</ele><time>2026-05-02T08:50:32.663Z</time></trkpt><trkpt lat="43.3916622" lon="13.0049074"><ele>834.6666666666666</ele><time>2026-05-02T08:50:33.661Z</time></trkpt><trkpt lat="43.3916149" lon="13.0048247"><ele>835.0</ele><time>2026-05-02T08:50:34.657Z</time></trkpt><trkpt lat="43.3915792" lon="13.0046566"><ele>833.6666666666666</ele><time>2026-05-02T08:50:36.659Z</time></trkpt><trkpt lat="43.3915465" lon="13.0045637"><ele>832.3333333333333</ele><time>2026-05-02T08:50:37.662Z</time></trkpt><trkpt lat="43.3915089" lon="13.0044681"><ele>831.0</ele><time>2026-05-02T08:50:38.666Z</time></trkpt><trkpt lat="43.3914692" lon="13.0043537"><ele>829.6666666666667</ele><time>2026-05-02T08:50:39.664Z</time></trkpt><trkpt lat="43.391426" lon="13.0042296"><ele>828.3333333333334</ele><time>2026-05-02T08:50:40.664Z</time></trkpt><trkpt lat="43.3913798" lon="13.004106"><ele>827.0</ele><time>2026-05-02T08:50:41.674Z</time></trkpt><trkpt lat="43.3913483" lon="13.0039919"><ele>834.4000000000001</ele><time>2026-05-02T08:50:42.666Z</time></trkpt><trkpt lat="43.3912996" lon="13.0038746"><ele>841.8000000000001</ele><time>2026-05-02T08:50:43.669Z</time></trkpt><trkpt lat="43.3912717" lon="13.0037474"><ele>849.2</ele><time>2026-05-02T08:50:44.668Z</time></trkpt><trkpt lat="43.3912544" lon="13.0036204"><ele>856.6</ele><time>2026-05-02T08:50:45.669Z</time></trkpt><trkpt lat="43.391223" lon="13.0035118"><ele>864.0</ele><time>2026-05-02T08:50:46.67Z</time></trkpt><trkpt lat="43.3911819" lon="13.0033986"><ele>861.6</ele><time>2026-05-02T08:50:47.674Z</time></trkpt><trkpt lat="43.3911408" lon="13.0032728"><ele>859.2</ele><time>2026-05-02T08:50:48.68Z</time></trkpt><trkpt lat="43.3911112" lon="13.0031612"><ele>856.8000000000001</ele><time>2026-05-02T08:50:49.667Z</time></trkpt><trkpt lat="43.3910726" lon="13.0030495"><ele>854.4000000000001</ele><time>2026-05-02T08:50:50.675Z</time></trkpt><trkpt lat="43.3910337" lon="13.0029438"><ele>852.0</ele><time>2026-05-02T08:50:51.676Z</time></trkpt><trkpt lat="43.3910015" lon="13.0028243"><ele>852.0</ele><time>2026-05-02T08:50:52.675Z</time></trkpt><trkpt lat="43.3909625" lon="13.0026975"><ele>852.0</ele><time>2026-05-02T08:50:53.676Z</time></trkpt><trkpt lat="43.3909292" lon="13.0025768"><ele>852.0</ele><time>2026-05-02T08:50:54.673Z</time></trkpt><trkpt lat="43.3908852" lon="13.002463"><ele>852.0</ele><time>2026-05-02T08:50:55.671Z</time></trkpt><trkpt lat="43.390847" lon="13.0023399"><ele>852.0</ele><time>2026-05-02T08:50:56.674Z</time></trkpt><trkpt lat="43.3908124" lon="13.0022291"><ele>850.5</ele><time>2026-05-02T08:50:57.675Z</time></trkpt><trkpt lat="43.3907692" lon="13.0021278"><ele>849.0</ele><time>2026-05-02T08:50:58.677Z</time></trkpt><trkpt lat="43.3907231" lon="13.0020367"><ele>847.5</ele><time>2026-05-02T08:50:59.672Z</time></trkpt><trkpt lat="43.3906732" lon="13.0019414"><ele>846.0</ele><time>2026-05-02T08:51:00.671Z</time></trkpt><trkpt lat="43.3906242" lon="13.0018471"><ele>844.5</ele><time>2026-05-02T08:51:01.671Z</time></trkpt><trkpt lat="43.3905835" lon="13.0017357"><ele>843.0</ele><time>2026-05-02T08:51:02.675Z</time></trkpt><trkpt lat="43.3905454" lon="13.0016289"><ele>841.5</ele><time>2026-05-02T08:51:03.673Z</time></trkpt><trkpt lat="43.3905225" lon="13.0015309"><ele>840.0</ele><time>2026-05-02T08:51:04.674Z</time></trkpt><trkpt lat="43.3904714" lon="13.001433"><ele>838.5</ele><time>2026-05-02T08:51:05.67Z</time></trkpt><trkpt lat="43.3904259" lon="13.001338"><ele>837.0</ele><time>2026-05-02T08:51:06.669Z</time></trkpt><trkpt lat="43.3903857" lon="13.001257"><ele>835.5</ele><time>2026-05-02T08:51:07.672Z</time></trkpt><trkpt lat="43.3903398" lon="13.0011671"><ele>834.0</ele><time>2026-05-02T08:51:08.671Z</time></trkpt><trkpt lat="43.3902934" lon="13.0010767"><ele>840.3333333333334</ele><time>2026-05-02T08:51:09.669Z</time></trkpt><trkpt lat="43.3902668" lon="13.000964"><ele>846.6666666666667</ele><time>2026-05-02T08:51:10.667Z</time></trkpt><trkpt lat="43.3902362" lon="13.0008545"><ele>853.0</ele><time>2026-05-02T08:51:11.667Z</time></trkpt><trkpt lat="43.3902071" lon="13.0007563"><ele>859.3333333333334</ele><time>2026-05-02T08:51:12.668Z</time></trkpt><trkpt lat="43.3901758" lon="13.0006575"><ele>865.6666666666667</ele><time>2026-05-02T08:51:13.664Z</time></trkpt><trkpt lat="43.3901435" lon="13.0005563"><ele>872.0</ele><time>2026-05-02T08:51:14.665Z</time></trkpt><trkpt lat="43.3901335" lon="13.0004451"><ele>872.0000000000001</ele><time>2026-05-02T08:51:15.666Z</time></trkpt><trkpt lat="43.3901056" lon="13.0003388"><ele>872.0</ele><time>2026-05-02T08:51:16.672Z</time></trkpt><trkpt lat="43.3900768" lon="13.0002162"><ele>872.0</ele><time>2026-05-02T08:51:17.666Z</time></trkpt><trkpt lat="43.3900351" lon="13.000102"><ele>872.0</ele><time>2026-05-02T08:51:18.668Z</time></trkpt><trkpt lat="43.3899937" lon="12.999992"><ele>872.0000000000001</ele><time>2026-05-02T08:51:19.662Z</time></trkpt><trkpt lat="43.3899571" lon="12.9998953"><ele>872.0</ele><time>2026-05-02T08:51:20.665Z</time></trkpt><trkpt lat="43.3899173" lon="12.9998039"><ele>872.0000000000001</ele><time>2026-05-02T08:51:21.672Z</time></trkpt><trkpt lat="43.3898648" lon="12.9997129"><ele>872.0</ele><time>2026-05-02T08:51:22.667Z</time></trkpt><trkpt lat="43.3898391" lon="12.9996083"><ele>872.0</ele><time>2026-05-02T08:51:23.67Z</time></trkpt><trkpt lat="43.3898118" lon="12.999518"><ele>872.0</ele><time>2026-05-02T08:51:24.665Z</time></trkpt><trkpt lat="43.3897657" lon="12.9994338"><ele>872.0000000000001</ele><time>2026-05-02T08:51:25.671Z</time></trkpt><trkpt lat="43.3897133" lon="12.9993485"><ele>872.0</ele><time>2026-05-02T08:51:26.67Z</time></trkpt><trkpt lat="43.3896685" lon="12.9992671"><ele>878.6</ele><time>2026-05-02T08:51:27.671Z</time></trkpt><trkpt lat="43.3896159" lon="12.9991783"><ele>885.2</ele><time>2026-05-02T08:51:28.67Z</time></trkpt><trkpt lat="43.3895667" lon="12.9991019"><ele>891.8</ele><time>2026-05-02T08:51:29.67Z</time></trkpt><trkpt lat="43.3894994" lon="12.9989597"><ele>898.4</ele><time>2026-05-02T08:51:31.682Z</time></trkpt><trkpt lat="43.3894643" lon="12.9988873"><ele>905.0</ele><time>2026-05-02T08:51:32.665Z</time></trkpt><trkpt lat="43.3894026" lon="12.9987391"><ele>905.0000000000001</ele><time>2026-05-02T08:51:34.663Z</time></trkpt><trkpt lat="43.3893423" lon="12.9986068"><ele>905.0</ele><time>2026-05-02T08:51:36.665Z</time></trkpt><trkpt lat="43.3893045" lon="12.9985212"><ele>905.0</ele><time>2026-05-02T08:51:37.66Z</time></trkpt><trkpt lat="43.3892538" lon="12.9984355"><ele>905.0</ele><time>2026-05-02T08:51:38.654Z</time></trkpt><trkpt lat="43.3892001" lon="12.9983389"><ele>905.0000000000001</ele><time>2026-05-02T08:51:39.657Z</time></trkpt><trkpt lat="43.389134" lon="12.9982521"><ele>905.0</ele><time>2026-05-02T08:51:40.658Z</time></trkpt><trkpt lat="43.3890724" lon="12.998168"><ele>902.8</ele><time>2026-05-02T08:51:41.661Z</time></trkpt><trkpt lat="43.3889983" lon="12.9980398"><ele>900.6</ele><time>2026-05-02T08:51:43.664Z</time></trkpt><trkpt lat="43.3889485" lon="12.9979744"><ele>898.4000000000001</ele><time>2026-05-02T08:51:44.672Z</time></trkpt><trkpt lat="43.3888782" lon="12.9978857"><ele>896.2</ele><time>2026-05-02T08:51:45.665Z</time></trkpt><trkpt lat="43.3888041" lon="12.9978203"><ele>894.0</ele><time>2026-05-02T08:51:46.66Z</time></trkpt><trkpt lat="43.3887303" lon="12.9977195"><ele>895.8000000000001</ele><time>2026-05-02T08:51:47.661Z</time></trkpt><trkpt lat="43.3886789" lon="12.9976238"><ele>897.6000000000001</ele><time>2026-05-02T08:51:48.662Z</time></trkpt><trkpt lat="43.3886188" lon="12.9975297"><ele>899.4</ele><time>2026-05-02T08:51:49.664Z</time></trkpt><trkpt lat="43.3885533" lon="12.9974422"><ele>901.2</ele><time>2026-05-02T08:51:50.665Z</time></trkpt><trkpt lat="43.3884879" lon="12.9973522"><ele>903.0</ele><time>2026-05-02T08:51:51.663Z</time></trkpt><trkpt lat="43.3884482" lon="12.9972315"><ele>903.0</ele><time>2026-05-02T08:51:52.666Z</time></trkpt><trkpt lat="43.3884085" lon="12.9971343"><ele>903.0</ele><time>2026-05-02T08:51:53.658Z</time></trkpt><trkpt lat="43.3883513" lon="12.997051"><ele>903.0</ele><time>2026-05-02T08:51:54.662Z</time></trkpt><trkpt lat="43.388283" lon="12.9969924"><ele>903.0</ele><time>2026-05-02T08:51:55.669Z</time></trkpt><trkpt lat="43.3881986" lon="12.996958"><ele>903.0</ele><time>2026-05-02T08:51:56.658Z</time></trkpt><trkpt lat="43.388124" lon="12.9969692"><ele>903.0</ele><time>2026-05-02T08:51:57.663Z</time></trkpt><trkpt lat="43.3880472" lon="12.9969636"><ele>905.2</ele><time>2026-05-02T08:51:58.658Z</time></trkpt><trkpt lat="43.3879427" lon="12.9969074"><ele>907.4</ele><time>2026-05-02T08:51:59.661Z</time></trkpt><trkpt lat="43.3878537" lon="12.9968354"><ele>909.6000000000001</ele><time>2026-05-02T08:52:00.663Z</time></trkpt><trkpt lat="43.3877818" lon="12.9967802"><ele>911.8000000000001</ele><time>2026-05-02T08:52:01.669Z</time></trkpt><trkpt lat="43.3877191" lon="12.9967385"><ele>914.0</ele><time>2026-05-02T08:52:02.656Z</time></trkpt><trkpt lat="43.3876436" lon="12.9966923"><ele>914.0000000000001</ele><time>2026-05-02T08:52:03.66Z</time></trkpt><trkpt lat="43.3875822" lon="12.9966556"><ele>914.0</ele><time>2026-05-02T08:52:04.666Z</time></trkpt><trkpt lat="43.3875218" lon="12.9966302"><ele>914.0</ele><time>2026-05-02T08:52:05.669Z</time></trkpt><trkpt lat="43.3874196" lon="12.996637"><ele>914.0</ele><time>2026-05-02T08:52:07.664Z</time></trkpt><trkpt lat="43.3873763" lon="12.9967148"><ele>914.0000000000001</ele><time>2026-05-02T08:52:09.666Z</time></trkpt><trkpt lat="43.3874226" lon="12.9968029"><ele>914.0</ele><time>2026-05-02T08:52:13.647Z</time></trkpt><trkpt lat="43.3875488" lon="12.9968734"><ele>914.0</ele><time>2026-05-02T08:52:16.646Z</time></trkpt><trkpt lat="43.3876351" lon="12.9969371"><ele>914.0000000000001</ele><time>2026-05-02T08:52:18.653Z</time></trkpt><trkpt lat="43.3877071" lon="12.997051"><ele>914.0000000000001</ele><time>2026-05-02T08:52:19.65Z</time></trkpt><trkpt lat="43.3877765" lon="12.9971747"><ele>914.0</ele><time>2026-05-02T08:52:20.662Z</time></trkpt><trkpt lat="43.3878504" lon="12.9973116"><ele>914.0</ele><time>2026-05-02T08:52:22.66Z</time></trkpt><trkpt lat="43.3878971" lon="12.9973917"><ele>914.0</ele><time>2026-05-02T08:52:23.666Z</time></trkpt><trkpt lat="43.3879294" lon="12.9974894"><ele>914.0000000000001</ele><time>2026-05-02T08:52:24.659Z</time></trkpt><trkpt lat="43.3879742" lon="12.9976416"><ele>914.0000000000001</ele><time>2026-05-02T08:52:26.659Z</time></trkpt><trkpt lat="43.3880478" lon="12.9978061"><ele>914.0</ele><time>2026-05-02T08:52:28.654Z</time></trkpt><trkpt lat="43.3880865" lon="12.9978952"><ele>914.0</ele><time>2026-05-02T08:52:29.663Z</time></trkpt><trkpt lat="43.3881253" lon="12.9979847"><ele>914.5000000000001</ele><time>2026-05-02T08:52:30.659Z</time></trkpt><trkpt lat="43.3881977" lon="12.9981035"><ele>915.0</ele><time>2026-05-02T08:52:32.658Z</time></trkpt><trkpt lat="43.3882583" lon="12.9981614"><ele>915.5</ele><time>2026-05-02T08:52:34.667Z</time></trkpt><trkpt lat="43.3882156" lon="12.998227"><ele>916.0</ele><time>2026-05-02T08:52:38.671Z</time></trkpt><trkpt lat="43.388146" lon="12.9981802"><ele>916.5000000000001</ele><time>2026-05-02T08:52:41.671Z</time></trkpt><trkpt lat="43.3880612" lon="12.9981156"><ele>917.0</ele><time>2026-05-02T08:52:43.67Z</time></trkpt><trkpt lat="43.3880048" lon="12.9980715"><ele>919.6666666666667</ele><time>2026-05-02T08:52:44.672Z</time></trkpt><trkpt lat="43.3879391" lon="12.9980216"><ele>922.3333333333334</ele><time>2026-05-02T08:52:45.667Z</time></trkpt><trkpt lat="43.3878697" lon="12.9979744"><ele>925.0</ele><time>2026-05-02T08:52:46.668Z</time></trkpt><trkpt lat="43.3877992" lon="12.9979339"><ele>927.6666666666667</ele><time>2026-05-02T08:52:47.67Z</time></trkpt><trkpt lat="43.3877312" lon="12.997903"><ele>930.3333333333334</ele><time>2026-05-02T08:52:48.672Z</time></trkpt><trkpt lat="43.3876742" lon="12.9978599"><ele>933.0</ele><time>2026-05-02T08:52:49.668Z</time></trkpt><trkpt lat="43.3875571" lon="12.9978176"><ele>933.0</ele><time>2026-05-02T08:52:51.674Z</time></trkpt><trkpt lat="43.3874902" lon="12.997798"><ele>932.9999999999999</ele><time>2026-05-02T08:52:52.671Z</time></trkpt><trkpt lat="43.3874168" lon="12.9977873"><ele>933.0</ele><time>2026-05-02T08:52:53.68Z</time></trkpt><trkpt lat="43.3873444" lon="12.9977905"><ele>933.0</ele><time>2026-05-02T08:52:54.669Z</time></trkpt><trkpt lat="43.3872748" lon="12.9977961"><ele>932.9999999999999</ele><time>2026-05-02T08:52:55.674Z</time></trkpt><trkpt lat="43.3871965" lon="12.9978004"><ele>933.0</ele><time>2026-05-02T08:52:56.672Z</time></trkpt><trkpt lat="43.3871157" lon="12.9978115"><ele>933.0</ele><time>2026-05-02T08:52:57.671Z</time></trkpt><trkpt lat="43.3870262" lon="12.9978276"><ele>934.8333333333334</ele><time>2026-05-02T08:52:58.669Z</time></trkpt><trkpt lat="43.3869377" lon="12.9978492"><ele>936.6666666666667</ele><time>2026-05-02T08:52:59.669Z</time></trkpt><trkpt lat="43.3868462" lon="12.9978676"><ele>938.5</ele><time>2026-05-02T08:53:00.665Z</time></trkpt><trkpt lat="43.3867631" lon="12.9978748"><ele>940.3333333333334</ele><time>2026-05-02T08:53:01.669Z</time></trkpt><trkpt lat="43.3866761" lon="12.9978806"><ele>942.1666666666667</ele><time>2026-05-02T08:53:02.662Z</time></trkpt><trkpt lat="43.3865917" lon="12.997894"><ele>944.0</ele><time>2026-05-02T08:53:03.666Z</time></trkpt><trkpt lat="43.3865148" lon="12.9979021"><ele>944.0000000000001</ele><time>2026-05-02T08:53:04.662Z</time></trkpt><trkpt lat="43.3864407" lon="12.9979134"><ele>944.0</ele><time>2026-05-02T08:53:05.668Z</time></trkpt><trkpt lat="43.386362" lon="12.9979174"><ele>944.0</ele><time>2026-05-02T08:53:06.657Z</time></trkpt><trkpt lat="43.3862783" lon="12.9979184"><ele>944.0</ele><time>2026-05-02T08:53:07.658Z</time></trkpt><trkpt lat="43.3862132" lon="12.997898"><ele>944.0000000000001</ele><time>2026-05-02T08:53:08.655Z</time></trkpt><trkpt lat="43.3861506" lon="12.997908"><ele>944.0</ele><time>2026-05-02T08:53:09.654Z</time></trkpt><trkpt lat="43.386043" lon="12.9979683"><ele>947.2</ele><time>2026-05-02T08:53:11.646Z</time></trkpt><trkpt lat="43.3859353" lon="12.9980031"><ele>950.4000000000001</ele><time>2026-05-02T08:53:12.65Z</time></trkpt><trkpt lat="43.3858574" lon="12.9980262"><ele>953.6</ele><time>2026-05-02T08:53:13.65Z</time></trkpt><trkpt lat="43.3857748" lon="12.9980468"><ele>956.8</ele><time>2026-05-02T08:53:14.661Z</time></trkpt><trkpt lat="43.3857079" lon="12.9980688"><ele>960.0</ele><time>2026-05-02T08:53:15.662Z</time></trkpt><trkpt lat="43.3856037" lon="12.9981345"><ele>960.0</ele><time>2026-05-02T08:53:17.665Z</time></trkpt><trkpt lat="43.3855248" lon="12.9982231"><ele>960.0</ele><time>2026-05-02T08:53:19.664Z</time></trkpt><trkpt lat="43.3854477" lon="12.9982507"><ele>960.0</ele><time>2026-05-02T08:53:21.666Z</time></trkpt><trkpt lat="43.3853424" lon="12.9982228"><ele>960.0</ele><time>2026-05-02T08:53:23.66Z</time></trkpt><trkpt lat="43.3852266" lon="12.9981904"><ele>960.0</ele><time>2026-05-02T08:53:25.661Z</time></trkpt><trkpt lat="43.3851199" lon="12.9981498"><ele>962.8333333333334</ele><time>2026-05-02T08:53:27.66Z</time></trkpt><trkpt lat="43.3850507" lon="12.998063"><ele>965.6666666666667</ele><time>2026-05-02T08:53:29.66Z</time></trkpt><trkpt lat="43.3849966" lon="12.997972"><ele>968.5</ele><time>2026-05-02T08:53:31.667Z</time></trkpt><trkpt lat="43.384917" lon="12.9979244"><ele>971.3333333333334</ele><time>2026-05-02T08:53:33.661Z</time></trkpt><trkpt lat="43.3848301" lon="12.9979292"><ele>974.1666666666667</ele><time>2026-05-02T08:53:35.663Z</time></trkpt><trkpt lat="43.3847655" lon="12.9979556"><ele>977.0</ele><time>2026-05-02T08:53:37.665Z</time></trkpt><trkpt lat="43.3846866" lon="12.998008"><ele>976.0000000000001</ele><time>2026-05-02T08:53:39.664Z</time></trkpt><trkpt lat="43.3846251" lon="12.9980357"><ele>975.0</ele><time>2026-05-02T08:53:40.663Z</time></trkpt><trkpt lat="43.3845468" lon="12.9980461"><ele>974.0</ele><time>2026-05-02T08:53:41.664Z</time></trkpt><trkpt lat="43.3844631" lon="12.998033"><ele>973.0</ele><time>2026-05-02T08:53:42.664Z</time></trkpt><trkpt lat="43.3843929" lon="12.9980122"><ele>972.0000000000001</ele><time>2026-05-02T08:53:43.663Z</time></trkpt><trkpt lat="43.384274" lon="12.9979437"><ele>971.0</ele><time>2026-05-02T08:53:45.667Z</time></trkpt><trkpt lat="43.3842103" lon="12.9979238"><ele>971.0</ele><time>2026-05-02T08:53:46.666Z</time></trkpt><trkpt lat="43.3841084" lon="12.9979537"><ele>970.9999999999999</ele><time>2026-05-02T08:53:48.661Z</time></trkpt><trkpt lat="43.3840364" lon="12.9979781"><ele>970.9999999999999</ele><time>2026-05-02T08:53:49.653Z</time></trkpt><trkpt lat="43.3839741" lon="12.9980175"><ele>971.0</ele><time>2026-05-02T08:53:50.653Z</time></trkpt><trkpt lat="43.3838838" lon="12.9980568"><ele>971.0</ele><time>2026-05-02T08:53:51.653Z</time></trkpt><trkpt lat="43.3837636" lon="12.9981069"><ele>971.5999999999999</ele><time>2026-05-02T08:53:52.658Z</time></trkpt><trkpt lat="43.383676" lon="12.9981389"><ele>972.1999999999999</ele><time>2026-05-02T08:53:53.67Z</time></trkpt><trkpt lat="43.3835719" lon="12.9981754"><ele>972.8000000000001</ele><time>2026-05-02T08:53:54.665Z</time></trkpt><trkpt lat="43.3834725" lon="12.9982072"><ele>973.4000000000001</ele><time>2026-05-02T08:53:55.666Z</time></trkpt><trkpt lat="43.3833724" lon="12.9982173"><ele>974.0</ele><time>2026-05-02T08:53:56.66Z</time></trkpt><trkpt lat="43.3832618" lon="12.9982093"><ele>974.0</ele><time>2026-05-02T08:53:57.665Z</time></trkpt><trkpt lat="43.3831701" lon="12.9982177"><ele>974.0000000000001</ele><time>2026-05-02T08:53:58.661Z</time></trkpt><trkpt lat="43.3830746" lon="12.9982363"><ele>974.0000000000001</ele><time>2026-05-02T08:53:59.662Z</time></trkpt><trkpt lat="43.3829622" lon="12.9982346"><ele>974.0</ele><time>2026-05-02T08:54:00.66Z</time></trkpt><trkpt lat="43.3828785" lon="12.9982362"><ele>974.0</ele><time>2026-05-02T08:54:01.668Z</time></trkpt><trkpt lat="43.3828048" lon="12.9982333"><ele>974.1666666666667</ele><time>2026-05-02T08:54:02.672Z</time></trkpt><trkpt lat="43.3827349" lon="12.9982376"><ele>974.3333333333334</ele><time>2026-05-02T08:54:03.674Z</time></trkpt><trkpt lat="43.382656" lon="12.9982375"><ele>974.5</ele><time>2026-05-02T08:54:04.676Z</time></trkpt><trkpt lat="43.3825713" lon="12.9982114"><ele>974.6666666666667</ele><time>2026-05-02T08:54:05.676Z</time></trkpt><trkpt lat="43.3825046" lon="12.9981906"><ele>974.8333333333334</ele><time>2026-05-02T08:54:06.676Z</time></trkpt><trkpt lat="43.3824181" lon="12.9981747"><ele>975.0</ele><time>2026-05-02T08:54:07.668Z</time></trkpt><trkpt lat="43.3823194" lon="12.9982015"><ele>975.0</ele><time>2026-05-02T08:54:09.668Z</time></trkpt><trkpt lat="43.3822319" lon="12.9982428"><ele>975.0</ele><time>2026-05-02T08:54:11.669Z</time></trkpt><trkpt lat="43.3821293" lon="12.9982434"><ele>975.0</ele><time>2026-05-02T08:54:13.666Z</time></trkpt><trkpt lat="43.3820047" lon="12.9982567"><ele>975.0</ele><time>2026-05-02T08:54:15.67Z</time></trkpt><trkpt lat="43.3819184" lon="12.9982825"><ele>975.0</ele><time>2026-05-02T08:54:17.671Z</time></trkpt><trkpt lat="43.3818342" lon="12.9983"><ele>974.8</ele><time>2026-05-02T08:54:19.675Z</time></trkpt><trkpt lat="43.3817351" lon="12.9983235"><ele>974.6</ele><time>2026-05-02T08:54:21.676Z</time></trkpt><trkpt lat="43.3816149" lon="12.9983686"><ele>974.4000000000001</ele><time>2026-05-02T08:54:23.671Z</time></trkpt><trkpt lat="43.3815498" lon="12.9983909"><ele>974.2</ele><time>2026-05-02T08:54:24.668Z</time></trkpt><trkpt lat="43.3814327" lon="12.9984613"><ele>974.0</ele><time>2026-05-02T08:54:26.67Z</time></trkpt><trkpt lat="43.3813342" lon="12.9985076"><ele>976.4000000000001</ele><time>2026-05-02T08:54:28.669Z</time></trkpt><trkpt lat="43.3812322" lon="12.9985657"><ele>978.8000000000001</ele><time>2026-05-02T08:54:30.67Z</time></trkpt><trkpt lat="43.3810994" lon="12.9985874"><ele>981.1999999999999</ele><time>2026-05-02T08:54:32.668Z</time></trkpt><trkpt lat="43.3810345" lon="12.9986015"><ele>983.5999999999999</ele><time>2026-05-02T08:54:33.668Z</time></trkpt><trkpt lat="43.3809067" lon="12.9986466"><ele>986.0</ele><time>2026-05-02T08:54:35.667Z</time></trkpt><trkpt lat="43.3808367" lon="12.9986547"><ele>986.0</ele><time>2026-05-02T08:54:36.664Z</time></trkpt><trkpt lat="43.3807181" lon="12.9986543"><ele>985.9999999999999</ele><time>2026-05-02T08:54:38.665Z</time></trkpt><trkpt lat="43.3806092" lon="12.9986735"><ele>985.9999999999999</ele><time>2026-05-02T08:54:40.671Z</time></trkpt><trkpt lat="43.3805464" lon="12.9987703"><ele>986.0</ele><time>2026-05-02T08:54:42.672Z</time></trkpt><trkpt lat="43.3804784" lon="12.998911"><ele>986.0</ele><time>2026-05-02T08:54:44.675Z</time></trkpt><trkpt lat="43.380449" lon="12.9989964"><ele>981.6666666666667</ele><time>2026-05-02T08:54:45.676Z</time></trkpt><trkpt lat="43.3804375" lon="12.9990898"><ele>977.3333333333334</ele><time>2026-05-02T08:54:46.685Z</time></trkpt><trkpt lat="43.3804357" lon="12.9991813"><ele>973.0</ele><time>2026-05-02T08:54:47.685Z</time></trkpt><trkpt lat="43.380447" lon="12.9992696"><ele>968.6666666666667</ele><time>2026-05-02T08:54:48.683Z</time></trkpt><trkpt lat="43.3804536" lon="12.9993574"><ele>964.3333333333334</ele><time>2026-05-02T08:54:49.676Z</time></trkpt><trkpt lat="43.3804761" lon="12.9994986"><ele>960.0</ele><time>2026-05-02T08:54:51.674Z</time></trkpt><trkpt lat="43.3804799" lon="12.9996142"><ele>959.1666666666666</ele><time>2026-05-02T08:54:53.695Z</time></trkpt><trkpt lat="43.3804995" lon="12.9997179"><ele>958.3333333333333</ele><time>2026-05-02T08:54:55.691Z</time></trkpt><trkpt lat="43.3805165" lon="12.9998442"><ele>957.5</ele><time>2026-05-02T08:54:57.689Z</time></trkpt><trkpt lat="43.3805637" lon="12.9999885"><ele>956.6666666666666</ele><time>2026-05-02T08:54:59.685Z</time></trkpt><trkpt lat="43.380587" lon="13.0000723"><ele>955.8333333333333</ele><time>2026-05-02T08:55:00.687Z</time></trkpt><trkpt lat="43.3806111" lon="13.0001712"><ele>955.0</ele><time>2026-05-02T08:55:01.69Z</time></trkpt><trkpt lat="43.380635" lon="13.0002733"><ele>959.142857142857</ele><time>2026-05-02T08:55:02.691Z</time></trkpt><trkpt lat="43.3806666" lon="13.0003753"><ele>963.2857142857142</ele><time>2026-05-02T08:55:03.692Z</time></trkpt><trkpt lat="43.3806989" lon="13.0004716"><ele>967.4285714285714</ele><time>2026-05-02T08:55:04.695Z</time></trkpt><trkpt lat="43.3807212" lon="13.0005641"><ele>971.5714285714286</ele><time>2026-05-02T08:55:05.694Z</time></trkpt><trkpt lat="43.3807515" lon="13.0006593"><ele>975.7142857142858</ele><time>2026-05-02T08:55:06.69Z</time></trkpt><trkpt lat="43.3807777" lon="13.000753"><ele>979.857142857143</ele><time>2026-05-02T08:55:07.677Z</time></trkpt><trkpt lat="43.3808001" lon="13.0008389"><ele>984.0000000000001</ele><time>2026-05-02T08:55:08.681Z</time></trkpt><trkpt lat="43.3808369" lon="13.0010074"><ele>984.0</ele><time>2026-05-02T08:55:10.684Z</time></trkpt><trkpt lat="43.3808882" lon="13.001159"><ele>984.0000000000001</ele><time>2026-05-02T08:55:12.668Z</time></trkpt><trkpt lat="43.3809152" lon="13.0012746"><ele>984.0000000000001</ele><time>2026-05-02T08:55:14.666Z</time></trkpt><trkpt lat="43.3809652" lon="13.001428"><ele>984.0</ele><time>2026-05-02T08:55:16.671Z</time></trkpt><trkpt lat="43.3809852" lon="13.0015119"><ele>984.0</ele><time>2026-05-02T08:55:17.684Z</time></trkpt><trkpt lat="43.3810018" lon="13.001601"><ele>982.8333333333334</ele><time>2026-05-02T08:55:18.681Z</time></trkpt><trkpt lat="43.3810169" lon="13.0016993"><ele>981.6666666666667</ele><time>2026-05-02T08:55:19.68Z</time></trkpt><trkpt lat="43.3810243" lon="13.0018105"><ele>980.5</ele><time>2026-05-02T08:55:20.673Z</time></trkpt><trkpt lat="43.3810433" lon="13.0019089"><ele>979.3333333333334</ele><time>2026-05-02T08:55:21.677Z</time></trkpt><trkpt lat="43.3810737" lon="13.0020228"><ele>978.1666666666667</ele><time>2026-05-02T08:55:22.668Z</time></trkpt><trkpt lat="43.3811045" lon="13.0021202"><ele>977.0</ele><time>2026-05-02T08:55:23.679Z</time></trkpt><trkpt lat="43.3811348" lon="13.0022312"><ele>977.0000000000001</ele><time>2026-05-02T08:55:24.678Z</time></trkpt><trkpt lat="43.3811596" lon="13.0023412"><ele>977.0</ele><time>2026-05-02T08:55:25.687Z</time></trkpt><trkpt lat="43.3811856" lon="13.0024348"><ele>977.0</ele><time>2026-05-02T08:55:26.676Z</time></trkpt><trkpt lat="43.3812075" lon="13.0025452"><ele>977.0</ele><time>2026-05-02T08:55:27.679Z</time></trkpt><trkpt lat="43.3812347" lon="13.0026663"><ele>977.0000000000001</ele><time>2026-05-02T08:55:28.674Z</time></trkpt><trkpt lat="43.3812436" lon="13.0027683"><ele>977.0</ele><time>2026-05-02T08:55:29.677Z</time></trkpt><trkpt lat="43.3812563" lon="13.0028755"><ele>976.5000000000001</ele><time>2026-05-02T08:55:30.675Z</time></trkpt><trkpt lat="43.3812748" lon="13.0029848"><ele>976.0</ele><time>2026-05-02T08:55:31.68Z</time></trkpt><trkpt lat="43.3812848" lon="13.0030996"><ele>975.5</ele><time>2026-05-02T08:55:32.676Z</time></trkpt><trkpt lat="43.381299" lon="13.0032081"><ele>975.0</ele><time>2026-05-02T08:55:33.675Z</time></trkpt><trkpt lat="43.3813145" lon="13.0033093"><ele>974.5000000000001</ele><time>2026-05-02T08:55:34.674Z</time></trkpt><trkpt lat="43.3813222" lon="13.003399"><ele>974.0</ele><time>2026-05-02T08:55:35.68Z</time></trkpt><trkpt lat="43.3813276" lon="13.0035615"><ele>973.8000000000001</ele><time>2026-05-02T08:55:37.674Z</time></trkpt><trkpt lat="43.3813423" lon="13.0036484"><ele>973.6000000000001</ele><time>2026-05-02T08:55:38.67Z</time></trkpt><trkpt lat="43.3813724" lon="13.003804"><ele>973.4</ele><time>2026-05-02T08:55:40.673Z</time></trkpt><trkpt lat="43.3813961" lon="13.0038914"><ele>973.2</ele><time>2026-05-02T08:55:41.669Z</time></trkpt><trkpt lat="43.3814244" lon="13.0040633"><ele>973.0</ele><time>2026-05-02T08:55:43.667Z</time></trkpt><trkpt lat="43.3814679" lon="13.0041738"><ele>978.2</ele><time>2026-05-02T08:55:44.674Z</time></trkpt><trkpt lat="43.3815092" lon="13.004281"><ele>983.4</ele><time>2026-05-02T08:55:45.672Z</time></trkpt><trkpt lat="43.3815431" lon="13.0043895"><ele>988.6000000000001</ele><time>2026-05-02T08:55:46.678Z</time></trkpt><trkpt lat="43.3815639" lon="13.0044939"><ele>993.8000000000001</ele><time>2026-05-02T08:55:47.675Z</time></trkpt><trkpt lat="43.3815812" lon="13.0045826"><ele>999.0</ele><time>2026-05-02T08:55:48.678Z</time></trkpt><trkpt lat="43.3816185" lon="13.0047756"><ele>999.0</ele><time>2026-05-02T08:55:50.672Z</time></trkpt><trkpt lat="43.3816354" lon="13.0048867"><ele>999.0</ele><time>2026-05-02T08:55:51.685Z</time></trkpt><trkpt lat="43.3816591" lon="13.0050012"><ele>999.0</ele><time>2026-05-02T08:55:52.672Z</time></trkpt><trkpt lat="43.3816713" lon="13.0051059"><ele>999.0</ele><time>2026-05-02T08:55:53.676Z</time></trkpt><trkpt lat="43.3817084" lon="13.0052171"><ele>999.0</ele><time>2026-05-02T08:55:54.675Z</time></trkpt><trkpt lat="43.3817263" lon="13.0053111"><ele>999.0</ele><time>2026-05-02T08:55:55.678Z</time></trkpt><trkpt lat="43.3817605" lon="13.005409"><ele>998.1666666666666</ele><time>2026-05-02T08:55:56.669Z</time></trkpt><trkpt lat="43.3817757" lon="13.0055093"><ele>997.3333333333333</ele><time>2026-05-02T08:55:57.671Z</time></trkpt><trkpt lat="43.3817853" lon="13.0055967"><ele>996.5</ele><time>2026-05-02T08:55:58.669Z</time></trkpt><trkpt lat="43.3817724" lon="13.0057254"><ele>995.6666666666666</ele><time>2026-05-02T08:56:00.675Z</time></trkpt><trkpt lat="43.3817449" lon="13.0058477"><ele>994.8333333333333</ele><time>2026-05-02T08:56:02.669Z</time></trkpt><trkpt lat="43.3817932" lon="13.0059664"><ele>994.0</ele><time>2026-05-02T08:56:03.681Z</time></trkpt><trkpt lat="43.381846" lon="13.0060501"><ele>993.4999999999999</ele><time>2026-05-02T08:56:04.685Z</time></trkpt><trkpt lat="43.3818837" lon="13.0061557"><ele>993.0</ele><time>2026-05-02T08:56:05.674Z</time></trkpt><trkpt lat="43.381913" lon="13.0062852"><ele>992.5</ele><time>2026-05-02T08:56:06.675Z</time></trkpt><trkpt lat="43.3819432" lon="13.0064147"><ele>992.0</ele><time>2026-05-02T08:56:07.678Z</time></trkpt><trkpt lat="43.3819528" lon="13.00654"><ele>991.4999999999999</ele><time>2026-05-02T08:56:08.666Z</time></trkpt><trkpt lat="43.3819676" lon="13.0066371"><ele>991.0</ele><time>2026-05-02T08:56:09.667Z</time></trkpt><trkpt lat="43.3819719" lon="13.0067428"><ele>990.9999999999999</ele><time>2026-05-02T08:56:10.685Z</time></trkpt><trkpt lat="43.3819855" lon="13.0068492"><ele>991.0</ele><time>2026-05-02T08:56:11.679Z</time></trkpt><trkpt lat="43.3819882" lon="13.00695"><ele>991.0</ele><time>2026-05-02T08:56:12.682Z</time></trkpt><trkpt lat="43.381999" lon="13.007053"><ele>991.0</ele><time>2026-05-02T08:56:13.678Z</time></trkpt><trkpt lat="43.3819991" lon="13.0071439"><ele>990.9999999999999</ele><time>2026-05-02T08:56:14.681Z</time></trkpt><trkpt lat="43.3820081" lon="13.0073116"><ele>991.0</ele><time>2026-05-02T08:56:16.685Z</time></trkpt><trkpt lat="43.3820072" lon="13.0074191"><ele>992.0</ele><time>2026-05-02T08:56:18.686Z</time></trkpt><trkpt lat="43.3820306" lon="13.0075338"><ele>992.9999999999999</ele><time>2026-05-02T08:56:20.677Z</time></trkpt><trkpt lat="43.3820673" lon="13.0076676"><ele>993.9999999999999</ele><time>2026-05-02T08:56:22.68Z</time></trkpt><trkpt lat="43.3821007" lon="13.0078207"><ele>995.0</ele><time>2026-05-02T08:56:24.684Z</time></trkpt><trkpt lat="43.3821255" lon="13.0079079"><ele>996.0</ele><time>2026-05-02T08:56:25.684Z</time></trkpt><trkpt lat="43.3821874" lon="13.0080578"><ele>997.6666666666666</ele><time>2026-05-02T08:56:27.683Z</time></trkpt><trkpt lat="43.3822171" lon="13.0081377"><ele>999.3333333333333</ele><time>2026-05-02T08:56:28.689Z</time></trkpt><trkpt lat="43.3822509" lon="13.0082189"><ele>1001.0</ele><time>2026-05-02T08:56:29.679Z</time></trkpt><trkpt lat="43.382291" lon="13.0082902"><ele>1002.6666666666666</ele><time>2026-05-02T08:56:30.689Z</time></trkpt><trkpt lat="43.3823447" lon="13.008394"><ele>1004.3333333333333</ele><time>2026-05-02T08:56:32.69Z</time></trkpt><trkpt lat="43.3823712" lon="13.0084736"><ele>1006.0</ele><time>2026-05-02T08:56:34.693Z</time></trkpt><trkpt lat="43.3823129" lon="13.0085772"><ele>1006.0</ele><time>2026-05-02T08:56:37.69Z</time></trkpt><trkpt lat="43.3822158" lon="13.0085692"><ele>1005.9999999999999</ele><time>2026-05-02T08:56:40.692Z</time></trkpt><trkpt lat="43.3821321" lon="13.0085385"><ele>1005.9999999999999</ele><time>2026-05-02T08:56:42.686Z</time></trkpt><trkpt lat="43.3820669" lon="13.0085243"><ele>1006.0</ele><time>2026-05-02T08:56:44.687Z</time></trkpt><trkpt lat="43.3819545" lon="13.0085222"><ele>1006.0</ele><time>2026-05-02T08:56:46.683Z</time></trkpt><trkpt lat="43.3818418" lon="13.0085087"><ele>1006.3333333333333</ele><time>2026-05-02T08:56:48.69Z</time></trkpt><trkpt lat="43.3817241" lon="13.0084635"><ele>1006.6666666666666</ele><time>2026-05-02T08:56:50.676Z</time></trkpt><trkpt lat="43.3816612" lon="13.0084339"><ele>1007.0</ele><time>2026-05-02T08:56:51.675Z</time></trkpt><trkpt lat="43.3815987" lon="13.0083933"><ele>1007.3333333333333</ele><time>2026-05-02T08:56:52.672Z</time></trkpt><trkpt lat="43.3815195" lon="13.0083455"><ele>1007.6666666666666</ele><time>2026-05-02T08:56:53.675Z</time></trkpt><trkpt lat="43.3814569" lon="13.0082895"><ele>1008.0</ele><time>2026-05-02T08:56:54.674Z</time></trkpt><trkpt lat="43.3813976" lon="13.0082316"><ele>1007.8333333333334</ele><time>2026-05-02T08:56:55.674Z</time></trkpt><trkpt lat="43.3813324" lon="13.0081863"><ele>1007.6666666666667</ele><time>2026-05-02T08:56:56.679Z</time></trkpt><trkpt lat="43.3812337" lon="13.0080903"><ele>1007.5</ele><time>2026-05-02T08:56:58.679Z</time></trkpt><trkpt lat="43.3811676" lon="13.0080337"><ele>1007.3333333333334</ele><time>2026-05-02T08:56:59.663Z</time></trkpt><trkpt lat="43.3811145" lon="13.0079792"><ele>1007.1666666666667</ele><time>2026-05-02T08:57:00.684Z</time></trkpt><trkpt lat="43.3810665" lon="13.0079032"><ele>1007.0</ele><time>2026-05-02T08:57:01.675Z</time></trkpt><trkpt lat="43.3809975" lon="13.007852"><ele>1007.0000000000001</ele><time>2026-05-02T08:57:02.673Z</time></trkpt><trkpt lat="43.3809338" lon="13.0077957"><ele>1007.0</ele><time>2026-05-02T08:57:03.665Z</time></trkpt><trkpt lat="43.3808697" lon="13.0077337"><ele>1007.0</ele><time>2026-05-02T08:57:04.667Z</time></trkpt><trkpt lat="43.3808153" lon="13.0076805"><ele>1007.0</ele><time>2026-05-02T08:57:05.666Z</time></trkpt><trkpt lat="43.3807518" lon="13.0076243"><ele>1007.0000000000001</ele><time>2026-05-02T08:57:06.667Z</time></trkpt><trkpt lat="43.3806856" lon="13.007555"><ele>1007.0</ele><time>2026-05-02T08:57:07.675Z</time></trkpt><trkpt lat="43.3806114" lon="13.0074982"><ele>1005.4000000000001</ele><time>2026-05-02T08:57:08.675Z</time></trkpt><trkpt lat="43.380546" lon="13.0074313"><ele>1003.8000000000001</ele><time>2026-05-02T08:57:09.683Z</time></trkpt><trkpt lat="43.3804912" lon="13.0073633"><ele>1002.2</ele><time>2026-05-02T08:57:10.67Z</time></trkpt><trkpt lat="43.3804174" lon="13.007285"><ele>1000.6</ele><time>2026-05-02T08:57:11.668Z</time></trkpt><trkpt lat="43.3803461" lon="13.0072286"><ele>999.0</ele><time>2026-05-02T08:57:12.675Z</time></trkpt><trkpt lat="43.3802149" lon="13.0072203"><ele>999.0</ele><time>2026-05-02T08:57:14.68Z</time></trkpt><trkpt lat="43.380125" lon="13.0071856"><ele>999.0000000000001</ele><time>2026-05-02T08:57:16.679Z</time></trkpt><trkpt lat="43.3800216" lon="13.0071952"><ele>999.0000000000001</ele><time>2026-05-02T08:57:18.676Z</time></trkpt><trkpt lat="43.3799184" lon="13.0072108"><ele>999.0</ele><time>2026-05-02T08:57:20.677Z</time></trkpt><trkpt lat="43.37984" lon="13.0072377"><ele>999.0</ele><time>2026-05-02T08:57:22.686Z</time></trkpt><trkpt lat="43.3797679" lon="13.0072786"><ele>999.0</ele><time>2026-05-02T08:57:24.684Z</time></trkpt><trkpt lat="43.3796968" lon="13.0073574"><ele>999.0000000000001</ele><time>2026-05-02T08:57:26.674Z</time></trkpt><trkpt lat="43.3796169" lon="13.0074956"><ele>999.0000000000001</ele><time>2026-05-02T08:57:28.676Z</time></trkpt><trkpt lat="43.3795648" lon="13.0075525"><ele>999.0</ele><time>2026-05-02T08:57:29.683Z</time></trkpt><trkpt lat="43.3794752" lon="13.0076728"><ele>999.0</ele><time>2026-05-02T08:57:31.68Z</time></trkpt><trkpt lat="43.3793806" lon="13.0077851"><ele>999.3333333333334</ele><time>2026-05-02T08:57:33.668Z</time></trkpt><trkpt lat="43.37932" lon="13.0078527"><ele>999.6666666666667</ele><time>2026-05-02T08:57:34.669Z</time></trkpt><trkpt lat="43.3792421" lon="13.0079245"><ele>1000.0</ele><time>2026-05-02T08:57:35.663Z</time></trkpt><trkpt lat="43.3791738" lon="13.008006"><ele>1000.3333333333334</ele><time>2026-05-02T08:57:36.677Z</time></trkpt><trkpt lat="43.3790998" lon="13.008077"><ele>1000.6666666666667</ele><time>2026-05-02T08:57:37.677Z</time></trkpt><trkpt lat="43.3790462" lon="13.0081582"><ele>1001.0</ele><time>2026-05-02T08:57:38.668Z</time></trkpt><trkpt lat="43.3789876" lon="13.0082316"><ele>1001.0000000000001</ele><time>2026-05-02T08:57:39.662Z</time></trkpt><trkpt lat="43.3789352" lon="13.0083104"><ele>1001.0</ele><time>2026-05-02T08:57:40.668Z</time></trkpt><trkpt lat="43.3788863" lon="13.0083924"><ele>1001.0</ele><time>2026-05-02T08:57:41.669Z</time></trkpt><trkpt lat="43.3788282" lon="13.0084751"><ele>1001.0</ele><time>2026-05-02T08:57:42.655Z</time></trkpt><trkpt lat="43.378781" lon="13.0085436"><ele>1001.0000000000001</ele><time>2026-05-02T08:57:43.66Z</time></trkpt><trkpt lat="43.3787187" lon="13.0085979"><ele>1001.0</ele><time>2026-05-02T08:57:44.661Z</time></trkpt><trkpt lat="43.3786603" lon="13.0086619"><ele>1001.3333333333334</ele><time>2026-05-02T08:57:45.666Z</time></trkpt><trkpt lat="43.3786008" lon="13.0087137"><ele>1001.6666666666667</ele><time>2026-05-02T08:57:46.661Z</time></trkpt><trkpt lat="43.3785329" lon="13.0087487"><ele>1002.0</ele><time>2026-05-02T08:57:47.669Z</time></trkpt><trkpt lat="43.3784638" lon="13.0087575"><ele>1002.3333333333333</ele><time>2026-05-02T08:57:48.67Z</time></trkpt><trkpt lat="43.3783931" lon="13.0087364"><ele>1002.6666666666666</ele><time>2026-05-02T08:57:49.671Z</time></trkpt><trkpt lat="43.3783147" lon="13.0087071"><ele>1003.0</ele><time>2026-05-02T08:57:50.67Z</time></trkpt><trkpt lat="43.3782284" lon="13.0086782"><ele>1002.9999999999999</ele><time>2026-05-02T08:57:51.673Z</time></trkpt><trkpt lat="43.3781604" lon="13.0086718"><ele>1003.0</ele><time>2026-05-02T08:57:52.683Z</time></trkpt><trkpt lat="43.3780813" lon="13.0086638"><ele>1003.0</ele><time>2026-05-02T08:57:53.676Z</time></trkpt><trkpt lat="43.3780058" lon="13.008637"><ele>1003.0</ele><time>2026-05-02T08:57:54.674Z</time></trkpt><trkpt lat="43.3779316" lon="13.0086001"><ele>1002.9999999999999</ele><time>2026-05-02T08:57:55.667Z</time></trkpt><trkpt lat="43.3778445" lon="13.0085645"><ele>1003.0</ele><time>2026-05-02T08:57:56.668Z</time></trkpt><trkpt lat="43.377747" lon="13.0085055"><ele>1002.4999999999999</ele><time>2026-05-02T08:57:57.669Z</time></trkpt><trkpt lat="43.3776576" lon="13.0084536"><ele>1002.0</ele><time>2026-05-02T08:57:58.667Z</time></trkpt><trkpt lat="43.3775828" lon="13.0084089"><ele>1001.5</ele><time>2026-05-02T08:57:59.665Z</time></trkpt><trkpt lat="43.3775137" lon="13.0083523"><ele>1001.0</ele><time>2026-05-02T08:58:00.669Z</time></trkpt><trkpt lat="43.3774477" lon="13.0082992"><ele>1000.4999999999999</ele><time>2026-05-02T08:58:01.659Z</time></trkpt><trkpt lat="43.3773722" lon="13.0082661"><ele>1000.0</ele><time>2026-05-02T08:58:02.657Z</time></trkpt><trkpt lat="43.3772847" lon="13.0082305"><ele>997.6</ele><time>2026-05-02T08:58:03.662Z</time></trkpt><trkpt lat="43.3771937" lon="13.0081845"><ele>995.2</ele><time>2026-05-02T08:58:04.675Z</time></trkpt><trkpt lat="43.3770941" lon="13.0081275"><ele>992.8</ele><time>2026-05-02T08:58:05.671Z</time></trkpt><trkpt lat="43.3770072" lon="13.0080908"><ele>990.4</ele><time>2026-05-02T08:58:06.666Z</time></trkpt><trkpt lat="43.3769303" lon="13.0080404"><ele>988.0</ele><time>2026-05-02T08:58:07.66Z</time></trkpt><trkpt lat="43.3768509" lon="13.0079964"><ele>987.9999999999999</ele><time>2026-05-02T08:58:08.669Z</time></trkpt><trkpt lat="43.3767797" lon="13.00797"><ele>988.0</ele><time>2026-05-02T08:58:09.661Z</time></trkpt><trkpt lat="43.376717" lon="13.0079482"><ele>988.0</ele><time>2026-05-02T08:58:10.68Z</time></trkpt><trkpt lat="43.3766353" lon="13.0079234"><ele>988.0</ele><time>2026-05-02T08:58:11.663Z</time></trkpt><trkpt lat="43.3765432" lon="13.0078771"><ele>987.9999999999999</ele><time>2026-05-02T08:58:12.667Z</time></trkpt><trkpt lat="43.3764395" lon="13.0078355"><ele>988.0</ele><time>2026-05-02T08:58:13.663Z</time></trkpt><trkpt lat="43.376348" lon="13.007802"><ele>988.4999999999999</ele><time>2026-05-02T08:58:14.667Z</time></trkpt><trkpt lat="43.3762583" lon="13.0077681"><ele>989.0</ele><time>2026-05-02T08:58:15.66Z</time></trkpt><trkpt lat="43.376174" lon="13.0077468"><ele>989.5</ele><time>2026-05-02T08:58:16.674Z</time></trkpt><trkpt lat="43.376078" lon="13.0077055"><ele>990.0</ele><time>2026-05-02T08:58:17.668Z</time></trkpt><trkpt lat="43.3759983" lon="13.0076625"><ele>990.4999999999999</ele><time>2026-05-02T08:58:18.679Z</time></trkpt><trkpt lat="43.3759215" lon="13.007639"><ele>991.0</ele><time>2026-05-02T08:58:19.681Z</time></trkpt><trkpt lat="43.3758531" lon="13.0076197"><ele>991.0</ele><time>2026-05-02T08:58:20.67Z</time></trkpt><trkpt lat="43.3757432" lon="13.0075749"><ele>990.9999999999999</ele><time>2026-05-02T08:58:22.671Z</time></trkpt><trkpt lat="43.375636" lon="13.0075569"><ele>990.9999999999999</ele><time>2026-05-02T08:58:24.674Z</time></trkpt><trkpt lat="43.3755367" lon="13.0075544"><ele>991.0</ele><time>2026-05-02T08:58:26.677Z</time></trkpt><trkpt lat="43.375451" lon="13.0075664"><ele>991.0</ele><time>2026-05-02T08:58:28.679Z</time></trkpt><trkpt lat="43.3754103" lon="13.0076678"><ele>988.8333333333333</ele><time>2026-05-02T08:58:30.672Z</time></trkpt><trkpt lat="43.3754296" lon="13.0078285"><ele>986.6666666666666</ele><time>2026-05-02T08:58:32.677Z</time></trkpt><trkpt lat="43.3754501" lon="13.0079296"><ele>984.5</ele><time>2026-05-02T08:58:33.672Z</time></trkpt><trkpt lat="43.3754542" lon="13.0080465"><ele>982.3333333333333</ele><time>2026-05-02T08:58:34.663Z</time></trkpt><trkpt lat="43.3754623" lon="13.0081567"><ele>980.1666666666666</ele><time>2026-05-02T08:58:35.676Z</time></trkpt><trkpt lat="43.3754787" lon="13.008265"><ele>978.0</ele><time>2026-05-02T08:58:36.665Z</time></trkpt><trkpt lat="43.3754886" lon="13.0083669"><ele>977.1666666666666</ele><time>2026-05-02T08:58:37.671Z</time></trkpt><trkpt lat="43.3754978" lon="13.0084771"><ele>976.3333333333333</ele><time>2026-05-02T08:58:38.669Z</time></trkpt><trkpt lat="43.3755169" lon="13.0085803"><ele>975.5</ele><time>2026-05-02T08:58:39.673Z</time></trkpt><trkpt lat="43.3755305" lon="13.0086743"><ele>974.6666666666666</ele><time>2026-05-02T08:58:40.67Z</time></trkpt><trkpt lat="43.3755495" lon="13.0087658"><ele>973.8333333333333</ele><time>2026-05-02T08:58:41.686Z</time></trkpt><trkpt lat="43.3755965" lon="13.0089345"><ele>973.0</ele><time>2026-05-02T08:58:43.677Z</time></trkpt><trkpt lat="43.3756249" lon="13.0090206"><ele>974.9999999999999</ele><time>2026-05-02T08:58:44.674Z</time></trkpt><trkpt lat="43.3756588" lon="13.0091139"><ele>977.0</ele><time>2026-05-02T08:58:45.676Z</time></trkpt><trkpt lat="43.3756971" lon="13.0092161"><ele>979.0</ele><time>2026-05-02T08:58:46.688Z</time></trkpt><trkpt lat="43.3757376" lon="13.0093276"><ele>981.0</ele><time>2026-05-02T08:58:47.67Z</time></trkpt><trkpt lat="43.3757783" lon="13.0094219"><ele>982.9999999999999</ele><time>2026-05-02T08:58:48.669Z</time></trkpt><trkpt lat="43.3758149" lon="13.0095198"><ele>985.0</ele><time>2026-05-02T08:58:49.663Z</time></trkpt><trkpt lat="43.375845" lon="13.0096159"><ele>984.9999999999999</ele><time>2026-05-02T08:58:50.663Z</time></trkpt><trkpt lat="43.3758877" lon="13.0097302"><ele>985.0</ele><time>2026-05-02T08:58:51.667Z</time></trkpt><trkpt lat="43.3759211" lon="13.0098426"><ele>985.0</ele><time>2026-05-02T08:58:52.671Z</time></trkpt><trkpt lat="43.3759552" lon="13.0099535"><ele>985.0</ele><time>2026-05-02T08:58:53.676Z</time></trkpt><trkpt lat="43.3759874" lon="13.0100702"><ele>984.9999999999999</ele><time>2026-05-02T08:58:54.665Z</time></trkpt><trkpt lat="43.3760193" lon="13.0101791"><ele>985.0</ele><time>2026-05-02T08:58:55.669Z</time></trkpt><trkpt lat="43.376044" lon="13.0102733"><ele>983.3333333333333</ele><time>2026-05-02T08:58:56.665Z</time></trkpt><trkpt lat="43.3760758" lon="13.0103726"><ele>981.6666666666666</ele><time>2026-05-02T08:58:57.669Z</time></trkpt><trkpt lat="43.3761062" lon="13.0104604"><ele>980.0</ele><time>2026-05-02T08:58:58.665Z</time></trkpt><trkpt lat="43.3761396" lon="13.0105547"><ele>978.3333333333333</ele><time>2026-05-02T08:58:59.665Z</time></trkpt><trkpt lat="43.3761749" lon="13.010651"><ele>976.6666666666666</ele><time>2026-05-02T08:59:00.673Z</time></trkpt><trkpt lat="43.3762163" lon="13.0107461"><ele>975.0</ele><time>2026-05-02T08:59:01.672Z</time></trkpt><trkpt lat="43.3762628" lon="13.0108473"><ele>974.1666666666666</ele><time>2026-05-02T08:59:02.665Z</time></trkpt><trkpt lat="43.3763022" lon="13.0109473"><ele>973.3333333333333</ele><time>2026-05-02T08:59:03.679Z</time></trkpt><trkpt lat="43.3763376" lon="13.0110315"><ele>972.5</ele><time>2026-05-02T08:59:04.68Z</time></trkpt><trkpt lat="43.3763687" lon="13.0111222"><ele>971.6666666666666</ele><time>2026-05-02T08:59:05.671Z</time></trkpt><trkpt lat="43.3763986" lon="13.0112279"><ele>970.8333333333333</ele><time>2026-05-02T08:59:06.672Z</time></trkpt><trkpt lat="43.3764304" lon="13.0113336"><ele>970.0</ele><time>2026-05-02T08:59:07.672Z</time></trkpt><trkpt lat="43.3764629" lon="13.0114373"><ele>970.857142857143</ele><time>2026-05-02T08:59:08.671Z</time></trkpt><trkpt lat="43.3764925" lon="13.0115265"><ele>971.7142857142858</ele><time>2026-05-02T08:59:09.67Z</time></trkpt><trkpt lat="43.3765164" lon="13.0116271"><ele>972.5714285714286</ele><time>2026-05-02T08:59:10.671Z</time></trkpt><trkpt lat="43.376523" lon="13.011721"><ele>973.4285714285714</ele><time>2026-05-02T08:59:11.671Z</time></trkpt><trkpt lat="43.376521" lon="13.0118173"><ele>974.2857142857142</ele><time>2026-05-02T08:59:12.671Z</time></trkpt><trkpt lat="43.3765035" lon="13.0119217"><ele>975.142857142857</ele><time>2026-05-02T08:59:13.67Z</time></trkpt><trkpt lat="43.3764805" lon="13.0120199"><ele>975.9999999999999</ele><time>2026-05-02T08:59:14.667Z</time></trkpt><trkpt lat="43.3764507" lon="13.0121152"><ele>975.9999999999999</ele><time>2026-05-02T08:59:15.668Z</time></trkpt><trkpt lat="43.3764159" lon="13.0122325"><ele>976.0</ele><time>2026-05-02T08:59:16.657Z</time></trkpt><trkpt lat="43.3763721" lon="13.0123306"><ele>976.0</ele><time>2026-05-02T08:59:17.671Z</time></trkpt><trkpt lat="43.3763523" lon="13.0124455"><ele>976.0</ele><time>2026-05-02T08:59:18.662Z</time></trkpt><trkpt lat="43.3763388" lon="13.0125538"><ele>975.9999999999999</ele><time>2026-05-02T08:59:19.677Z</time></trkpt><trkpt lat="43.3763335" lon="13.0126604"><ele>976.0</ele><time>2026-05-02T08:59:20.681Z</time></trkpt><trkpt lat="43.3763253" lon="13.012756"><ele>974.142857142857</ele><time>2026-05-02T08:59:21.679Z</time></trkpt><trkpt lat="43.376309" lon="13.0128483"><ele>972.2857142857142</ele><time>2026-05-02T08:59:22.685Z</time></trkpt><trkpt lat="43.3762923" lon="13.0129528"><ele>970.4285714285714</ele><time>2026-05-02T08:59:23.675Z</time></trkpt><trkpt lat="43.37627" lon="13.0130534"><ele>968.5714285714286</ele><time>2026-05-02T08:59:24.682Z</time></trkpt><trkpt lat="43.3762498" lon="13.0131584"><ele>966.7142857142858</ele><time>2026-05-02T08:59:25.683Z</time></trkpt><trkpt lat="43.3762321" lon="13.0132506"><ele>964.857142857143</ele><time>2026-05-02T08:59:26.679Z</time></trkpt><trkpt lat="43.3762071" lon="13.0133341"><ele>963.0000000000001</ele><time>2026-05-02T08:59:27.678Z</time></trkpt><trkpt lat="43.3761861" lon="13.0134179"><ele>962.6666666666666</ele><time>2026-05-02T08:59:28.678Z</time></trkpt><trkpt lat="43.3761669" lon="13.0135136"><ele>962.3333333333333</ele><time>2026-05-02T08:59:29.672Z</time></trkpt><trkpt lat="43.3761516" lon="13.013617"><ele>962.0</ele><time>2026-05-02T08:59:30.679Z</time></trkpt><trkpt lat="43.3761443" lon="13.0137349"><ele>961.6666666666666</ele><time>2026-05-02T08:59:31.676Z</time></trkpt><trkpt lat="43.3761358" lon="13.0138395"><ele>961.3333333333333</ele><time>2026-05-02T08:59:32.673Z</time></trkpt><trkpt lat="43.3761251" lon="13.0139572"><ele>961.0</ele><time>2026-05-02T08:59:33.67Z</time></trkpt><trkpt lat="43.3761035" lon="13.0140496"><ele>960.9999999999999</ele><time>2026-05-02T08:59:34.665Z</time></trkpt><trkpt lat="43.3760857" lon="13.0141539"><ele>961.0</ele><time>2026-05-02T08:59:35.676Z</time></trkpt><trkpt lat="43.3760836" lon="13.0142569"><ele>961.0</ele><time>2026-05-02T08:59:36.663Z</time></trkpt><trkpt lat="43.3760681" lon="13.0143571"><ele>961.0</ele><time>2026-05-02T08:59:37.659Z</time></trkpt><trkpt lat="43.376042" lon="13.0144695"><ele>960.9999999999999</ele><time>2026-05-02T08:59:38.672Z</time></trkpt><trkpt lat="43.3760241" lon="13.0145825"><ele>961.0</ele><time>2026-05-02T08:59:39.662Z</time></trkpt><trkpt lat="43.3760169" lon="13.0147472"><ele>960.5999999999999</ele><time>2026-05-02T08:59:41.657Z</time></trkpt><trkpt lat="43.3759923" lon="13.0149554"><ele>960.1999999999999</ele><time>2026-05-02T08:59:43.659Z</time></trkpt><trkpt lat="43.3759831" lon="13.0150481"><ele>959.8000000000001</ele><time>2026-05-02T08:59:44.664Z</time></trkpt><trkpt lat="43.3759792" lon="13.0151542"><ele>959.4000000000001</ele><time>2026-05-02T08:59:45.663Z</time></trkpt><trkpt lat="43.3759577" lon="13.0153241"><ele>959.0</ele><time>2026-05-02T08:59:47.665Z</time></trkpt><trkpt lat="43.37596" lon="13.0154611"><ele>958.8000000000001</ele><time>2026-05-02T08:59:48.664Z</time></trkpt><trkpt lat="43.3759153" lon="13.0155772"><ele>958.6000000000001</ele><time>2026-05-02T08:59:49.66Z</time></trkpt><trkpt lat="43.3758376" lon="13.015659"><ele>958.4</ele><time>2026-05-02T08:59:50.671Z</time></trkpt><trkpt lat="43.3757702" lon="13.0157404"><ele>958.2</ele><time>2026-05-02T08:59:51.668Z</time></trkpt><trkpt lat="43.375703" lon="13.0158544"><ele>958.0</ele><time>2026-05-02T08:59:52.663Z</time></trkpt><trkpt lat="43.3756429" lon="13.015952"><ele>957.3333333333333</ele><time>2026-05-02T08:59:53.671Z</time></trkpt><trkpt lat="43.3755908" lon="13.0160289"><ele>956.6666666666666</ele><time>2026-05-02T08:59:54.663Z</time></trkpt><trkpt lat="43.3755395" lon="13.0160899"><ele>956.0</ele><time>2026-05-02T08:59:55.667Z</time></trkpt><trkpt lat="43.3755022" lon="13.0161779"><ele>955.3333333333333</ele><time>2026-05-02T08:59:56.643Z</time></trkpt><trkpt lat="43.3754619" lon="13.0162891"><ele>954.6666666666666</ele><time>2026-05-02T08:59:57.65Z</time></trkpt><trkpt lat="43.3754202" lon="13.0163922"><ele>954.0</ele><time>2026-05-02T08:59:58.662Z</time></trkpt><trkpt lat="43.3753783" lon="13.0164989"><ele>952.6666666666666</ele><time>2026-05-02T08:59:59.657Z</time></trkpt><trkpt lat="43.3753371" lon="13.0166112"><ele>951.3333333333333</ele><time>2026-05-02T09:00:00.657Z</time></trkpt><trkpt lat="43.3752987" lon="13.0167025"><ele>950.0</ele><time>2026-05-02T09:00:01.659Z</time></trkpt><trkpt lat="43.3752712" lon="13.016783"><ele>948.6666666666666</ele><time>2026-05-02T09:00:02.664Z</time></trkpt><trkpt lat="43.375247" lon="13.016873"><ele>947.3333333333333</ele><time>2026-05-02T09:00:03.661Z</time></trkpt><trkpt lat="43.3752051" lon="13.0169622"><ele>946.0</ele><time>2026-05-02T09:00:04.662Z</time></trkpt><trkpt lat="43.3751783" lon="13.0170541"><ele>945.5999999999999</ele><time>2026-05-02T09:00:05.666Z</time></trkpt><trkpt lat="43.375147" lon="13.0171323"><ele>945.1999999999999</ele><time>2026-05-02T09:00:06.665Z</time></trkpt><trkpt lat="43.3750802" lon="13.017224"><ele>944.8000000000001</ele><time>2026-05-02T09:00:08.655Z</time></trkpt><trkpt lat="43.3750482" lon="13.0173154"><ele>944.4000000000001</ele><time>2026-05-02T09:00:10.66Z</time></trkpt><trkpt lat="43.3749925" lon="13.017423"><ele>944.0</ele><time>2026-05-02T09:00:14.659Z</time></trkpt><trkpt lat="43.3748674" lon="13.017442"><ele>944.0</ele><time>2026-05-02T09:00:17.655Z</time></trkpt><trkpt lat="43.3747873" lon="13.0174201"><ele>944.0000000000001</ele><time>2026-05-02T09:00:18.666Z</time></trkpt><trkpt lat="43.3747134" lon="13.0174274"><ele>944.0000000000001</ele><time>2026-05-02T09:00:19.671Z</time></trkpt><trkpt lat="43.3746388" lon="13.0174453"><ele>944.0</ele><time>2026-05-02T09:00:20.661Z</time></trkpt><trkpt lat="43.3745499" lon="13.0175501"><ele>944.0</ele><time>2026-05-02T09:00:22.658Z</time></trkpt><trkpt lat="43.3744945" lon="13.0176881"><ele>940.2</ele><time>2026-05-02T09:00:24.669Z</time></trkpt><trkpt lat="43.374469" lon="13.0178957"><ele>936.4000000000001</ele><time>2026-05-02T09:00:26.659Z</time></trkpt><trkpt lat="43.3744635" lon="13.0180311"><ele>932.6</ele><time>2026-05-02T09:00:27.661Z</time></trkpt><trkpt lat="43.3744566" lon="13.0181524"><ele>928.8</ele><time>2026-05-02T09:00:28.662Z</time></trkpt><trkpt lat="43.3744478" lon="13.0182824"><ele>925.0</ele><time>2026-05-02T09:00:29.666Z</time></trkpt><trkpt lat="43.374441" lon="13.0184013"><ele>924.9999999999999</ele><time>2026-05-02T09:00:30.666Z</time></trkpt><trkpt lat="43.3744301" lon="13.0185255"><ele>925.0</ele><time>2026-05-02T09:00:31.665Z</time></trkpt><trkpt lat="43.374421" lon="13.0186473"><ele>925.0</ele><time>2026-05-02T09:00:32.663Z</time></trkpt><trkpt lat="43.374414" lon="13.0187642"><ele>925.0</ele><time>2026-05-02T09:00:33.667Z</time></trkpt><trkpt lat="43.3744042" lon="13.0188791"><ele>924.9999999999999</ele><time>2026-05-02T09:00:34.665Z</time></trkpt><trkpt lat="43.3743798" lon="13.0190001"><ele>925.0</ele><time>2026-05-02T09:00:35.661Z</time></trkpt><trkpt lat="43.3743526" lon="13.0191305"><ele>925.4</ele><time>2026-05-02T09:00:36.657Z</time></trkpt><trkpt lat="43.3743294" lon="13.0192664"><ele>925.8</ele><time>2026-05-02T09:00:37.661Z</time></trkpt><trkpt lat="43.3743171" lon="13.0194146"><ele>926.2</ele><time>2026-05-02T09:00:38.659Z</time></trkpt><trkpt lat="43.3742947" lon="13.0195777"><ele>926.6</ele><time>2026-05-02T09:00:39.66Z</time></trkpt><trkpt lat="43.3742713" lon="13.0197327"><ele>927.0</ele><time>2026-05-02T09:00:40.665Z</time></trkpt><trkpt lat="43.374237" lon="13.0198686"><ele>928.1666666666666</ele><time>2026-05-02T09:00:41.662Z</time></trkpt><trkpt lat="43.3742121" lon="13.0200003"><ele>929.3333333333333</ele><time>2026-05-02T09:00:42.662Z</time></trkpt><trkpt lat="43.3741909" lon="13.0201212"><ele>930.5</ele><time>2026-05-02T09:00:43.658Z</time></trkpt><trkpt lat="43.3741656" lon="13.0202321"><ele>931.6666666666666</ele><time>2026-05-02T09:00:44.662Z</time></trkpt><trkpt lat="43.3741507" lon="13.0203201"><ele>932.8333333333333</ele><time>2026-05-02T09:00:45.658Z</time></trkpt><trkpt lat="43.3741091" lon="13.0204511"><ele>934.0</ele><time>2026-05-02T09:00:47.664Z</time></trkpt><trkpt lat="43.3740285" lon="13.0205768"><ele>933.9999999999999</ele><time>2026-05-02T09:00:49.667Z</time></trkpt><trkpt lat="43.3739733" lon="13.0206397"><ele>934.0</ele><time>2026-05-02T09:00:50.66Z</time></trkpt><trkpt lat="43.3739158" lon="13.0206988"><ele>934.0</ele><time>2026-05-02T09:00:51.667Z</time></trkpt><trkpt lat="43.3738456" lon="13.0207425"><ele>934.0</ele><time>2026-05-02T09:00:52.651Z</time></trkpt><trkpt lat="43.3737823" lon="13.020796"><ele>933.9999999999999</ele><time>2026-05-02T09:00:53.657Z</time></trkpt><trkpt lat="43.3737143" lon="13.0208478"><ele>934.0</ele><time>2026-05-02T09:00:54.654Z</time></trkpt><trkpt lat="43.3736393" lon="13.0208923"><ele>933.8333333333333</ele><time>2026-05-02T09:00:55.668Z</time></trkpt><trkpt lat="43.3735637" lon="13.0209197"><ele>933.6666666666666</ele><time>2026-05-02T09:00:56.655Z</time></trkpt><trkpt lat="43.3734881" lon="13.0209328"><ele>933.5</ele><time>2026-05-02T09:00:57.661Z</time></trkpt><trkpt lat="43.373404" lon="13.0209317"><ele>933.3333333333333</ele><time>2026-05-02T09:00:58.672Z</time></trkpt><trkpt lat="43.3733182" lon="13.0209156"><ele>933.1666666666666</ele><time>2026-05-02T09:00:59.667Z</time></trkpt><trkpt lat="43.3732395" lon="13.0208861"><ele>933.0</ele><time>2026-05-02T09:01:00.672Z</time></trkpt><trkpt lat="43.3731572" lon="13.0208306"><ele>932.4</ele><time>2026-05-02T09:01:01.669Z</time></trkpt><trkpt lat="43.3730711" lon="13.020777"><ele>931.8</ele><time>2026-05-02T09:01:02.671Z</time></trkpt><trkpt lat="43.3729833" lon="13.0207141"><ele>931.2</ele><time>2026-05-02T09:01:03.672Z</time></trkpt><trkpt lat="43.3728947" lon="13.0206633"><ele>930.6</ele><time>2026-05-02T09:01:04.67Z</time></trkpt><trkpt lat="43.3728064" lon="13.0206203"><ele>930.0</ele><time>2026-05-02T09:01:05.67Z</time></trkpt><trkpt lat="43.3727185" lon="13.0205756"><ele>930.0</ele><time>2026-05-02T09:01:06.673Z</time></trkpt><trkpt lat="43.3726323" lon="13.0205225"><ele>930.0</ele><time>2026-05-02T09:01:07.668Z</time></trkpt><trkpt lat="43.3725589" lon="13.0204728"><ele>930.0</ele><time>2026-05-02T09:01:08.677Z</time></trkpt><trkpt lat="43.3724945" lon="13.020426"><ele>930.0</ele><time>2026-05-02T09:01:09.681Z</time></trkpt><trkpt lat="43.3724341" lon="13.0203692"><ele>930.0</ele><time>2026-05-02T09:01:10.678Z</time></trkpt><trkpt lat="43.3723679" lon="13.0203184"><ele>930.0</ele><time>2026-05-02T09:01:11.676Z</time></trkpt><trkpt lat="43.3722903" lon="13.0202804"><ele>930.0</ele><time>2026-05-02T09:01:12.676Z</time></trkpt><trkpt lat="43.3722084" lon="13.020254"><ele>930.0</ele><time>2026-05-02T09:01:13.675Z</time></trkpt><trkpt lat="43.3721266" lon="13.0202208"><ele>930.0</ele><time>2026-05-02T09:01:14.675Z</time></trkpt><trkpt lat="43.3720385" lon="13.0201907"><ele>930.0</ele><time>2026-05-02T09:01:15.674Z</time></trkpt><trkpt lat="43.3719509" lon="13.0201668"><ele>930.0</ele><time>2026-05-02T09:01:16.664Z</time></trkpt><trkpt lat="43.3718626" lon="13.0201288"><ele>930.0</ele><time>2026-05-02T09:01:17.668Z</time></trkpt><trkpt lat="43.3717621" lon="13.0200979"><ele>929.4</ele><time>2026-05-02T09:01:18.673Z</time></trkpt><trkpt lat="43.3716572" lon="13.0200702"><ele>928.8</ele><time>2026-05-02T09:01:19.671Z</time></trkpt><trkpt lat="43.3715489" lon="13.0200226"><ele>928.2</ele><time>2026-05-02T09:01:20.672Z</time></trkpt><trkpt lat="43.3714489" lon="13.0199797"><ele>927.6</ele><time>2026-05-02T09:01:21.673Z</time></trkpt><trkpt lat="43.3713485" lon="13.0199387"><ele>927.0</ele><time>2026-05-02T09:01:22.67Z</time></trkpt><trkpt lat="43.3712458" lon="13.0198948"><ele>928.4000000000001</ele><time>2026-05-02T09:01:23.677Z</time></trkpt><trkpt lat="43.3711412" lon="13.0198453"><ele>929.8000000000001</ele><time>2026-05-02T09:01:24.67Z</time></trkpt><trkpt lat="43.3710378" lon="13.0198127"><ele>931.2</ele><time>2026-05-02T09:01:25.675Z</time></trkpt><trkpt lat="43.3709352" lon="13.0197947"><ele>932.6</ele><time>2026-05-02T09:01:26.675Z</time></trkpt><trkpt lat="43.3708272" lon="13.0197569"><ele>934.0</ele><time>2026-05-02T09:01:27.677Z</time></trkpt><trkpt lat="43.3707182" lon="13.0197102"><ele>934.0</ele><time>2026-05-02T09:01:28.689Z</time></trkpt><trkpt lat="43.3706107" lon="13.0196484"><ele>934.0</ele><time>2026-05-02T09:01:29.686Z</time></trkpt><trkpt lat="43.3705033" lon="13.019573"><ele>934.0</ele><time>2026-05-02T09:01:30.68Z</time></trkpt><trkpt lat="43.3704019" lon="13.0194997"><ele>934.0</ele><time>2026-05-02T09:01:31.682Z</time></trkpt><trkpt lat="43.3703002" lon="13.0194323"><ele>934.2</ele><time>2026-05-02T09:01:32.68Z</time></trkpt><trkpt lat="43.3701985" lon="13.0193586"><ele>934.4000000000001</ele><time>2026-05-02T09:01:33.683Z</time></trkpt><trkpt lat="43.370095" lon="13.0192898"><ele>934.6</ele><time>2026-05-02T09:01:34.684Z</time></trkpt><trkpt lat="43.3699946" lon="13.0192226"><ele>934.8</ele><time>2026-05-02T09:01:35.681Z</time></trkpt><trkpt lat="43.3699089" lon="13.0191669"><ele>935.0</ele><time>2026-05-02T09:01:36.68Z</time></trkpt><trkpt lat="43.3698295" lon="13.0191127"><ele>935.0</ele><time>2026-05-02T09:01:37.688Z</time></trkpt><trkpt lat="43.3697378" lon="13.0190591"><ele>935.0</ele><time>2026-05-02T09:01:38.678Z</time></trkpt><trkpt lat="43.3696563" lon="13.0190022"><ele>935.0</ele><time>2026-05-02T09:01:39.696Z</time></trkpt><trkpt lat="43.3695666" lon="13.0189474"><ele>935.0</ele><time>2026-05-02T09:01:40.683Z</time></trkpt><trkpt lat="43.369477" lon="13.0188865"><ele>935.0</ele><time>2026-05-02T09:01:41.688Z</time></trkpt><trkpt lat="43.369402" lon="13.0188307"><ele>936.6666666666667</ele><time>2026-05-02T09:01:42.68Z</time></trkpt><trkpt lat="43.3693266" lon="13.0187822"><ele>938.3333333333334</ele><time>2026-05-02T09:01:43.679Z</time></trkpt><trkpt lat="43.3692585" lon="13.0187533"><ele>940.0</ele><time>2026-05-02T09:01:44.678Z</time></trkpt><trkpt lat="43.3691767" lon="13.0187192"><ele>941.6666666666667</ele><time>2026-05-02T09:01:45.681Z</time></trkpt><trkpt lat="43.3690829" lon="13.01868"><ele>943.3333333333334</ele><time>2026-05-02T09:01:46.689Z</time></trkpt><trkpt lat="43.3689839" lon="13.0186476"><ele>945.0</ele><time>2026-05-02T09:01:47.691Z</time></trkpt><trkpt lat="43.3688845" lon="13.018618"><ele>946.4</ele><time>2026-05-02T09:01:48.686Z</time></trkpt><trkpt lat="43.3687766" lon="13.0185852"><ele>947.8</ele><time>2026-05-02T09:01:49.687Z</time></trkpt><trkpt lat="43.3686765" lon="13.0185433"><ele>949.2</ele><time>2026-05-02T09:01:50.686Z</time></trkpt><trkpt lat="43.3685774" lon="13.0185089"><ele>950.6</ele><time>2026-05-02T09:01:51.686Z</time></trkpt><trkpt lat="43.3684756" lon="13.0184798"><ele>952.0</ele><time>2026-05-02T09:01:52.682Z</time></trkpt><trkpt lat="43.3683829" lon="13.0184474"><ele>951.9999999999999</ele><time>2026-05-02T09:01:53.691Z</time></trkpt><trkpt lat="43.3682905" lon="13.0184184"><ele>952.0</ele><time>2026-05-02T09:01:54.681Z</time></trkpt><trkpt lat="43.3682049" lon="13.0183919"><ele>952.0</ele><time>2026-05-02T09:01:55.685Z</time></trkpt><trkpt lat="43.3681214" lon="13.0183755"><ele>952.0</ele><time>2026-05-02T09:01:56.678Z</time></trkpt><trkpt lat="43.3680377" lon="13.0183582"><ele>951.9999999999999</ele><time>2026-05-02T09:01:57.687Z</time></trkpt><trkpt lat="43.3679514" lon="13.0183412"><ele>952.0</ele><time>2026-05-02T09:01:58.686Z</time></trkpt><trkpt lat="43.3678561" lon="13.0183303"><ele>952.2</ele><time>2026-05-02T09:01:59.695Z</time></trkpt><trkpt lat="43.3677681" lon="13.0183213"><ele>952.4000000000001</ele><time>2026-05-02T09:02:00.681Z</time></trkpt><trkpt lat="43.3676829" lon="13.0183097"><ele>952.5999999999999</ele><time>2026-05-02T09:02:01.691Z</time></trkpt><trkpt lat="43.3676181" lon="13.0182983"><ele>952.8</ele><time>2026-05-02T09:02:02.687Z</time></trkpt><trkpt lat="43.3675035" lon="13.0183294"><ele>953.0</ele><time>2026-05-02T09:02:04.688Z</time></trkpt><trkpt lat="43.3674108" lon="13.0184547"><ele>953.0</ele><time>2026-05-02T09:02:06.683Z</time></trkpt><trkpt lat="43.3673646" lon="13.018553"><ele>953.0</ele><time>2026-05-02T09:02:07.687Z</time></trkpt><trkpt lat="43.3673218" lon="13.0186864"><ele>953.0</ele><time>2026-05-02T09:02:08.68Z</time></trkpt><trkpt lat="43.3672869" lon="13.0188223"><ele>953.0</ele><time>2026-05-02T09:02:09.68Z</time></trkpt><trkpt lat="43.3672539" lon="13.0189553"><ele>953.0</ele><time>2026-05-02T09:02:10.682Z</time></trkpt><trkpt lat="43.3672216" lon="13.0190807"><ele>951.8</ele><time>2026-05-02T09:02:11.68Z</time></trkpt><trkpt lat="43.3671925" lon="13.0191892"><ele>950.5999999999999</ele><time>2026-05-02T09:02:12.679Z</time></trkpt><trkpt lat="43.3671672" lon="13.0193105"><ele>949.4000000000001</ele><time>2026-05-02T09:02:13.682Z</time></trkpt><trkpt lat="43.3671411" lon="13.0194269"><ele>948.2</ele><time>2026-05-02T09:02:14.682Z</time></trkpt><trkpt lat="43.3671179" lon="13.0195575"><ele>947.0</ele><time>2026-05-02T09:02:15.682Z</time></trkpt><trkpt lat="43.3670909" lon="13.0196912"><ele>947.0000000000001</ele><time>2026-05-02T09:02:16.685Z</time></trkpt><trkpt lat="43.3670564" lon="13.0198091"><ele>947.0</ele><time>2026-05-02T09:02:17.691Z</time></trkpt><trkpt lat="43.3670227" lon="13.0199217"><ele>947.0</ele><time>2026-05-02T09:02:18.685Z</time></trkpt><trkpt lat="43.3669954" lon="13.0200251"><ele>947.0</ele><time>2026-05-02T09:02:19.691Z</time></trkpt><trkpt lat="43.3669728" lon="13.0201401"><ele>947.0000000000001</ele><time>2026-05-02T09:02:20.688Z</time></trkpt><trkpt lat="43.3669536" lon="13.0202466"><ele>947.0</ele><time>2026-05-02T09:02:21.687Z</time></trkpt><trkpt lat="43.3669367" lon="13.0203564"><ele>946.8333333333334</ele><time>2026-05-02T09:02:22.695Z</time></trkpt><trkpt lat="43.3669154" lon="13.020474"><ele>946.6666666666667</ele><time>2026-05-02T09:02:23.687Z</time></trkpt><trkpt lat="43.366886" lon="13.0205943"><ele>946.5</ele><time>2026-05-02T09:02:24.688Z</time></trkpt><trkpt lat="43.3668746" lon="13.0207136"><ele>946.3333333333333</ele><time>2026-05-02T09:02:25.693Z</time></trkpt><trkpt lat="43.3668676" lon="13.0208297"><ele>946.1666666666666</ele><time>2026-05-02T09:02:26.691Z</time></trkpt><trkpt lat="43.3668472" lon="13.0209497"><ele>946.0</ele><time>2026-05-02T09:02:27.691Z</time></trkpt><trkpt lat="43.3668235" lon="13.0210753"><ele>947.0</ele><time>2026-05-02T09:02:28.69Z</time></trkpt><trkpt lat="43.3668048" lon="13.0212002"><ele>947.9999999999999</ele><time>2026-05-02T09:02:29.69Z</time></trkpt><trkpt lat="43.3667956" lon="13.0213365"><ele>948.9999999999999</ele><time>2026-05-02T09:02:30.697Z</time></trkpt><trkpt lat="43.3667891" lon="13.0214722"><ele>950.0</ele><time>2026-05-02T09:02:31.691Z</time></trkpt><trkpt lat="43.3667778" lon="13.0215978"><ele>951.0</ele><time>2026-05-02T09:02:32.69Z</time></trkpt><trkpt lat="43.3667673" lon="13.0217187"><ele>951.0</ele><time>2026-05-02T09:02:33.694Z</time></trkpt><trkpt lat="43.3667536" lon="13.0218372"><ele>951.0</ele><time>2026-05-02T09:02:34.694Z</time></trkpt><trkpt lat="43.366736" lon="13.0219547"><ele>951.0</ele><time>2026-05-02T09:02:35.695Z</time></trkpt><trkpt lat="43.3667105" lon="13.0220684"><ele>951.0</ele><time>2026-05-02T09:02:36.695Z</time></trkpt><trkpt lat="43.3666802" lon="13.022193"><ele>951.0</ele><time>2026-05-02T09:02:37.698Z</time></trkpt><trkpt lat="43.3666547" lon="13.0223118"><ele>951.0</ele><time>2026-05-02T09:02:38.691Z</time></trkpt><trkpt lat="43.3666216" lon="13.0224251"><ele>950.6666666666666</ele><time>2026-05-02T09:02:39.693Z</time></trkpt><trkpt lat="43.3665863" lon="13.022538"><ele>950.3333333333333</ele><time>2026-05-02T09:02:40.701Z</time></trkpt><trkpt lat="43.3665573" lon="13.0226533"><ele>950.0</ele><time>2026-05-02T09:02:41.692Z</time></trkpt><trkpt lat="43.3665436" lon="13.0227758"><ele>949.6666666666666</ele><time>2026-05-02T09:02:42.694Z</time></trkpt><trkpt lat="43.3665253" lon="13.0228958"><ele>949.3333333333333</ele><time>2026-05-02T09:02:43.692Z</time></trkpt><trkpt lat="43.3665077" lon="13.0230145"><ele>949.0</ele><time>2026-05-02T09:02:44.691Z</time></trkpt><trkpt lat="43.3664785" lon="13.0231366"><ele>948.9999999999999</ele><time>2026-05-02T09:02:45.69Z</time></trkpt><trkpt lat="43.3664467" lon="13.0232589"><ele>949.0</ele><time>2026-05-02T09:02:46.694Z</time></trkpt><trkpt lat="43.3664134" lon="13.0233691"><ele>949.0</ele><time>2026-05-02T09:02:47.696Z</time></trkpt><trkpt lat="43.3663836" lon="13.0234698"><ele>949.0</ele><time>2026-05-02T09:02:48.698Z</time></trkpt><trkpt lat="43.3663587" lon="13.023568"><ele>948.9999999999999</ele><time>2026-05-02T09:02:49.695Z</time></trkpt><trkpt lat="43.3663281" lon="13.0236612"><ele>949.0</ele><time>2026-05-02T09:02:50.698Z</time></trkpt><trkpt lat="43.3662909" lon="13.0237526"><ele>947.6666666666666</ele><time>2026-05-02T09:02:51.695Z</time></trkpt><trkpt lat="43.3662406" lon="13.0238542"><ele>946.3333333333333</ele><time>2026-05-02T09:02:52.69Z</time></trkpt><trkpt lat="43.3661931" lon="13.0239531"><ele>945.0</ele><time>2026-05-02T09:02:53.69Z</time></trkpt><trkpt lat="43.3661461" lon="13.0240549"><ele>943.6666666666667</ele><time>2026-05-02T09:02:54.69Z</time></trkpt><trkpt lat="43.366094" lon="13.0241508"><ele>942.3333333333334</ele><time>2026-05-02T09:02:55.693Z</time></trkpt><trkpt lat="43.3660399" lon="13.024247"><ele>941.0</ele><time>2026-05-02T09:02:56.695Z</time></trkpt><trkpt lat="43.3659928" lon="13.0243374"><ele>940.3333333333334</ele><time>2026-05-02T09:02:57.691Z</time></trkpt><trkpt lat="43.3659399" lon="13.0244186"><ele>939.6666666666667</ele><time>2026-05-02T09:02:58.7Z</time></trkpt><trkpt lat="43.3658879" lon="13.0245015"><ele>939.0</ele><time>2026-05-02T09:02:59.689Z</time></trkpt><trkpt lat="43.3658315" lon="13.0245851"><ele>938.3333333333333</ele><time>2026-05-02T09:03:00.695Z</time></trkpt><trkpt lat="43.3657855" lon="13.0246615"><ele>937.6666666666666</ele><time>2026-05-02T09:03:01.682Z</time></trkpt><trkpt lat="43.3657441" lon="13.0247355"><ele>937.0</ele><time>2026-05-02T09:03:02.679Z</time></trkpt><trkpt lat="43.3656716" lon="13.0248829"><ele>936.4000000000001</ele><time>2026-05-02T09:03:04.68Z</time></trkpt><trkpt lat="43.3656416" lon="13.0249929"><ele>935.8000000000001</ele><time>2026-05-02T09:03:05.688Z</time></trkpt><trkpt lat="43.36561" lon="13.0251095"><ele>935.2</ele><time>2026-05-02T09:03:06.684Z</time></trkpt><trkpt lat="43.3655783" lon="13.0252547"><ele>934.6</ele><time>2026-05-02T09:03:07.688Z</time></trkpt><trkpt lat="43.3655462" lon="13.025389"><ele>934.0</ele><time>2026-05-02T09:03:08.681Z</time></trkpt><trkpt lat="43.3655348" lon="13.0254914"><ele>934.1666666666666</ele><time>2026-05-02T09:03:09.692Z</time></trkpt><trkpt lat="43.3655154" lon="13.0255823"><ele>934.3333333333333</ele><time>2026-05-02T09:03:10.685Z</time></trkpt><trkpt lat="43.3655146" lon="13.0256702"><ele>934.5</ele><time>2026-05-02T09:03:11.689Z</time></trkpt><trkpt lat="43.3655133" lon="13.0258029"><ele>934.6666666666667</ele><time>2026-05-02T09:03:13.686Z</time></trkpt><trkpt lat="43.3655012" lon="13.0259154"><ele>934.8333333333334</ele><time>2026-05-02T09:03:16.676Z</time></trkpt><trkpt lat="43.3654861" lon="13.0259997"><ele>935.0</ele><time>2026-05-02T09:03:18.678Z</time></trkpt><trkpt lat="43.3654903" lon="13.0261334"><ele>934.8</ele><time>2026-05-02T09:03:21.66Z</time></trkpt><trkpt lat="43.3654876" lon="13.0263165"><ele>934.6</ele><time>2026-05-02T09:03:23.676Z</time></trkpt><trkpt lat="43.3654934" lon="13.0264715"><ele>934.4000000000001</ele><time>2026-05-02T09:03:25.67Z</time></trkpt><trkpt lat="43.3655299" lon="13.0265424"><ele>934.2</ele><time>2026-05-02T09:03:26.672Z</time></trkpt><trkpt lat="43.3655572" lon="13.0266348"><ele>934.0</ele><time>2026-05-02T09:03:27.67Z</time></trkpt><trkpt lat="43.3655909" lon="13.0267318"><ele>934.0</ele><time>2026-05-02T09:03:28.67Z</time></trkpt><trkpt lat="43.3656339" lon="13.0268679"><ele>934.0</ele><time>2026-05-02T09:03:29.672Z</time></trkpt><trkpt lat="43.3656804" lon="13.0270303"><ele>934.0</ele><time>2026-05-02T09:03:30.679Z</time></trkpt><trkpt lat="43.3657214" lon="13.0272006"><ele>934.0</ele><time>2026-05-02T09:03:31.679Z</time></trkpt><trkpt lat="43.3657693" lon="13.0273785"><ele>934.75</ele><time>2026-05-02T09:03:32.672Z</time></trkpt><trkpt lat="43.3658137" lon="13.0275398"><ele>935.5</ele><time>2026-05-02T09:03:33.683Z</time></trkpt><trkpt lat="43.3658522" lon="13.0276974"><ele>936.25</ele><time>2026-05-02T09:03:34.687Z</time></trkpt><trkpt lat="43.3658979" lon="13.027845"><ele>937.0</ele><time>2026-05-02T09:03:35.689Z</time></trkpt><trkpt lat="43.365933" lon="13.0279903"><ele>937.0</ele><time>2026-05-02T09:03:36.677Z</time></trkpt><trkpt lat="43.3659605" lon="13.0281341"><ele>937.0</ele><time>2026-05-02T09:03:37.693Z</time></trkpt><trkpt lat="43.3659953" lon="13.0282743"><ele>937.0</ele><time>2026-05-02T09:03:38.681Z</time></trkpt><trkpt lat="43.3660313" lon="13.0284395"><ele>937.0</ele><time>2026-05-02T09:03:39.68Z</time></trkpt><trkpt lat="43.366073" lon="13.0286053"><ele>936.5</ele><time>2026-05-02T09:03:40.674Z</time></trkpt><trkpt lat="43.3661139" lon="13.028779"><ele>936.0</ele><time>2026-05-02T09:03:41.673Z</time></trkpt><trkpt lat="43.366155" lon="13.02895"><ele>935.5</ele><time>2026-05-02T09:03:42.665Z</time></trkpt><trkpt lat="43.3661931" lon="13.0291089"><ele>935.0</ele><time>2026-05-02T09:03:43.668Z</time></trkpt><trkpt lat="43.3662316" lon="13.0292616"><ele>934.75</ele><time>2026-05-02T09:03:44.673Z</time></trkpt><trkpt lat="43.3662625" lon="13.0294165"><ele>934.5</ele><time>2026-05-02T09:03:45.671Z</time></trkpt><trkpt lat="43.3663087" lon="13.0296034"><ele>934.25</ele><time>2026-05-02T09:03:46.676Z</time></trkpt><trkpt lat="43.366351" lon="13.0297776"><ele>934.0</ele><time>2026-05-02T09:03:47.681Z</time></trkpt><trkpt lat="43.3664012" lon="13.0299641"><ele>932.0</ele><time>2026-05-02T09:03:48.682Z</time></trkpt><trkpt lat="43.3664548" lon="13.0301592"><ele>930.0</ele><time>2026-05-02T09:03:49.69Z</time></trkpt><trkpt lat="43.3665059" lon="13.0303428"><ele>928.0</ele><time>2026-05-02T09:03:50.676Z</time></trkpt><trkpt lat="43.3665424" lon="13.0304975"><ele>926.0</ele><time>2026-05-02T09:03:51.68Z</time></trkpt><trkpt lat="43.3665907" lon="13.0306647"><ele>925.75</ele><time>2026-05-02T09:03:52.676Z</time></trkpt><trkpt lat="43.366633" lon="13.0308596"><ele>925.5</ele><time>2026-05-02T09:03:53.671Z</time></trkpt><trkpt lat="43.3666563" lon="13.0309965"><ele>925.25</ele><time>2026-05-02T09:03:54.676Z</time></trkpt><trkpt lat="43.366693" lon="13.0311452"><ele>925.0</ele><time>2026-05-02T09:03:55.683Z</time></trkpt><trkpt lat="43.3667347" lon="13.0313421"><ele>925.0</ele><time>2026-05-02T09:03:56.666Z</time></trkpt><trkpt lat="43.3667675" lon="13.0315196"><ele>925.0</ele><time>2026-05-02T09:03:57.676Z</time></trkpt><trkpt lat="43.3667996" lon="13.0316767"><ele>925.0</ele><time>2026-05-02T09:03:58.679Z</time></trkpt><trkpt lat="43.3668394" lon="13.031823"><ele>925.0</ele><time>2026-05-02T09:03:59.68Z</time></trkpt><trkpt lat="43.366876" lon="13.0319747"><ele>924.4</ele><time>2026-05-02T09:04:00.692Z</time></trkpt><trkpt lat="43.3669162" lon="13.0321178"><ele>923.8</ele><time>2026-05-02T09:04:01.684Z</time></trkpt><trkpt lat="43.3669556" lon="13.0322645"><ele>923.2</ele><time>2026-05-02T09:04:02.679Z</time></trkpt><trkpt lat="43.3669934" lon="13.0324071"><ele>922.6</ele><time>2026-05-02T09:04:03.677Z</time></trkpt><trkpt lat="43.3670388" lon="13.0325364"><ele>922.0</ele><time>2026-05-02T09:04:04.687Z</time></trkpt><trkpt lat="43.3670852" lon="13.0326523"><ele>922.0</ele><time>2026-05-02T09:04:05.689Z</time></trkpt><trkpt lat="43.367133" lon="13.032769"><ele>922.0</ele><time>2026-05-02T09:04:06.692Z</time></trkpt><trkpt lat="43.3671966" lon="13.0328821"><ele>922.0</ele><time>2026-05-02T09:04:07.683Z</time></trkpt><trkpt lat="43.3672632" lon="13.0330066"><ele>922.0</ele><time>2026-05-02T09:04:08.691Z</time></trkpt><trkpt lat="43.3673352" lon="13.0331359"><ele>922.0</ele><time>2026-05-02T09:04:09.69Z</time></trkpt><trkpt lat="43.3674097" lon="13.0332842"><ele>920.0</ele><time>2026-05-02T09:04:10.689Z</time></trkpt><trkpt lat="43.3674863" lon="13.0334338"><ele>918.0</ele><time>2026-05-02T09:04:11.693Z</time></trkpt><trkpt lat="43.3675683" lon="13.0335906"><ele>916.0</ele><time>2026-05-02T09:04:12.689Z</time></trkpt><trkpt lat="43.3676443" lon="13.0337576"><ele>914.0</ele><time>2026-05-02T09:04:13.699Z</time></trkpt><trkpt lat="43.3677261" lon="13.0339244"><ele>914.0</ele><time>2026-05-02T09:04:14.69Z</time></trkpt><trkpt lat="43.3677941" lon="13.0340892"><ele>914.0</ele><time>2026-05-02T09:04:15.689Z</time></trkpt><trkpt lat="43.3678669" lon="13.0342655"><ele>914.0</ele><time>2026-05-02T09:04:16.699Z</time></trkpt><trkpt lat="43.3679399" lon="13.0344245"><ele>914.0</ele><time>2026-05-02T09:04:17.694Z</time></trkpt><trkpt lat="43.3680023" lon="13.0346048"><ele>913.0</ele><time>2026-05-02T09:04:18.698Z</time></trkpt><trkpt lat="43.3680633" lon="13.0347739"><ele>912.0</ele><time>2026-05-02T09:04:19.691Z</time></trkpt><trkpt lat="43.3681326" lon="13.0349367"><ele>911.0</ele><time>2026-05-02T09:04:20.694Z</time></trkpt><trkpt lat="43.368184" lon="13.0350985"><ele>910.0</ele><time>2026-05-02T09:04:21.686Z</time></trkpt><trkpt lat="43.3682472" lon="13.0352633"><ele>910.0</ele><time>2026-05-02T09:04:22.689Z</time></trkpt><trkpt lat="43.3682961" lon="13.035413"><ele>910.0</ele><time>2026-05-02T09:04:23.693Z</time></trkpt><trkpt lat="43.368348" lon="13.0355492"><ele>910.0</ele><time>2026-05-02T09:04:24.687Z</time></trkpt><trkpt lat="43.3684019" lon="13.0356752"><ele>910.0</ele><time>2026-05-02T09:04:25.703Z</time></trkpt><trkpt lat="43.3684562" lon="13.0357781"><ele>910.0</ele><time>2026-05-02T09:04:26.687Z</time></trkpt><trkpt lat="43.3685016" lon="13.0358682"><ele>906.2</ele><time>2026-05-02T09:04:27.697Z</time></trkpt><trkpt lat="43.3685468" lon="13.0359672"><ele>902.4</ele><time>2026-05-02T09:04:28.683Z</time></trkpt><trkpt lat="43.3686009" lon="13.036049"><ele>898.5999999999999</ele><time>2026-05-02T09:04:29.694Z</time></trkpt><trkpt lat="43.3686713" lon="13.0361285"><ele>894.8</ele><time>2026-05-02T09:04:30.686Z</time></trkpt><trkpt lat="43.3687597" lon="13.036197"><ele>891.0</ele><time>2026-05-02T09:04:31.692Z</time></trkpt><trkpt lat="43.3688519" lon="13.0362657"><ele>895.4</ele><time>2026-05-02T09:04:32.69Z</time></trkpt><trkpt lat="43.3689474" lon="13.036337"><ele>899.8</ele><time>2026-05-02T09:04:33.694Z</time></trkpt><trkpt lat="43.3690501" lon="13.0364061"><ele>904.1999999999999</ele><time>2026-05-02T09:04:34.69Z</time></trkpt><trkpt lat="43.3691557" lon="13.0364688"><ele>908.5999999999999</ele><time>2026-05-02T09:04:35.695Z</time></trkpt><trkpt lat="43.3692556" lon="13.0365252"><ele>913.0</ele><time>2026-05-02T09:04:36.693Z</time></trkpt><trkpt lat="43.3693629" lon="13.0365518"><ele>913.0</ele><time>2026-05-02T09:04:37.696Z</time></trkpt><trkpt lat="43.3694735" lon="13.0365662"><ele>913.0</ele><time>2026-05-02T09:04:38.694Z</time></trkpt><trkpt lat="43.3695963" lon="13.0365797"><ele>913.0</ele><time>2026-05-02T09:04:39.693Z</time></trkpt><trkpt lat="43.3697157" lon="13.0365904"><ele>913.0</ele><time>2026-05-02T09:04:40.693Z</time></trkpt><trkpt lat="43.3698247" lon="13.0365999"><ele>914.0</ele><time>2026-05-02T09:04:41.698Z</time></trkpt><trkpt lat="43.369927" lon="13.0365999"><ele>915.0</ele><time>2026-05-02T09:04:42.694Z</time></trkpt><trkpt lat="43.3700332" lon="13.0365897"><ele>916.0</ele><time>2026-05-02T09:04:43.687Z</time></trkpt><trkpt lat="43.3701367" lon="13.0365865"><ele>917.0</ele><time>2026-05-02T09:04:44.681Z</time></trkpt><trkpt lat="43.3702443" lon="13.0365534"><ele>918.0</ele><time>2026-05-02T09:04:45.681Z</time></trkpt><trkpt lat="43.3703427" lon="13.0365092"><ele>918.0</ele><time>2026-05-02T09:04:46.681Z</time></trkpt><trkpt lat="43.3704273" lon="13.0364659"><ele>918.0</ele><time>2026-05-02T09:04:47.685Z</time></trkpt><trkpt lat="43.3705058" lon="13.0364304"><ele>918.0</ele><time>2026-05-02T09:04:48.678Z</time></trkpt><trkpt lat="43.3705813" lon="13.0364134"><ele>918.0</ele><time>2026-05-02T09:04:49.685Z</time></trkpt><trkpt lat="43.3706531" lon="13.036416"><ele>918.0</ele><time>2026-05-02T09:04:50.69Z</time></trkpt><trkpt lat="43.3707642" lon="13.0364645"><ele>918.0</ele><time>2026-05-02T09:04:52.681Z</time></trkpt><trkpt lat="43.3708069" lon="13.036541"><ele>919.5</ele><time>2026-05-02T09:04:53.684Z</time></trkpt><trkpt lat="43.3708518" lon="13.0366242"><ele>921.0</ele><time>2026-05-02T09:04:54.685Z</time></trkpt><trkpt lat="43.3709033" lon="13.0367038"><ele>922.5</ele><time>2026-05-02T09:04:55.694Z</time></trkpt><trkpt lat="43.3709617" lon="13.0367828"><ele>924.0</ele><time>2026-05-02T09:04:56.684Z</time></trkpt><trkpt lat="43.3710144" lon="13.0368877"><ele>925.5</ele><time>2026-05-02T09:04:57.688Z</time></trkpt><trkpt lat="43.3710855" lon="13.0370035"><ele>927.0</ele><time>2026-05-02T09:04:58.686Z</time></trkpt><trkpt lat="43.371145" lon="13.0371113"><ele>924.0</ele><time>2026-05-02T09:04:59.681Z</time></trkpt><trkpt lat="43.3711967" lon="13.0372237"><ele>921.0</ele><time>2026-05-02T09:05:00.683Z</time></trkpt><trkpt lat="43.3712477" lon="13.0373451"><ele>918.0</ele><time>2026-05-02T09:05:01.674Z</time></trkpt><trkpt lat="43.3712964" lon="13.03748"><ele>915.0</ele><time>2026-05-02T09:05:02.682Z</time></trkpt><trkpt lat="43.3713451" lon="13.0376026"><ele>912.0</ele><time>2026-05-02T09:05:03.676Z</time></trkpt><trkpt lat="43.371389" lon="13.0377496"><ele>912.0</ele><time>2026-05-02T09:05:04.68Z</time></trkpt><trkpt lat="43.3714391" lon="13.0378975"><ele>912.0</ele><time>2026-05-02T09:05:05.672Z</time></trkpt><trkpt lat="43.3714799" lon="13.0380474"><ele>912.0</ele><time>2026-05-02T09:05:06.675Z</time></trkpt><trkpt lat="43.3715255" lon="13.0382064"><ele>912.0</ele><time>2026-05-02T09:05:07.679Z</time></trkpt><trkpt lat="43.3715688" lon="13.0383708"><ele>908.0</ele><time>2026-05-02T09:05:08.677Z</time></trkpt><trkpt lat="43.3716086" lon="13.0385276"><ele>904.0</ele><time>2026-05-02T09:05:09.677Z</time></trkpt><trkpt lat="43.3716423" lon="13.0386905"><ele>900.0</ele><time>2026-05-02T09:05:10.676Z</time></trkpt><trkpt lat="43.3716706" lon="13.0388503"><ele>896.0</ele><time>2026-05-02T09:05:11.675Z</time></trkpt><trkpt lat="43.3716838" lon="13.0390037"><ele>892.25</ele><time>2026-05-02T09:05:12.671Z</time></trkpt><trkpt lat="43.3717149" lon="13.0391505"><ele>888.5</ele><time>2026-05-02T09:05:13.671Z</time></trkpt><trkpt lat="43.3717546" lon="13.0393046"><ele>884.75</ele><time>2026-05-02T09:05:14.665Z</time></trkpt><trkpt lat="43.3717964" lon="13.0394833"><ele>881.0</ele><time>2026-05-02T09:05:15.674Z</time></trkpt><trkpt lat="43.3718341" lon="13.039655"><ele>881.0</ele><time>2026-05-02T09:05:16.675Z</time></trkpt><trkpt lat="43.3718508" lon="13.0398119"><ele>881.0</ele><time>2026-05-02T09:05:17.676Z</time></trkpt><trkpt lat="43.3718579" lon="13.0399742"><ele>881.0</ele><time>2026-05-02T09:05:18.672Z</time></trkpt><trkpt lat="43.3718664" lon="13.0401272"><ele>881.0</ele><time>2026-05-02T09:05:19.68Z</time></trkpt><trkpt lat="43.3718757" lon="13.0402758"><ele>877.75</ele><time>2026-05-02T09:05:20.673Z</time></trkpt><trkpt lat="43.3718687" lon="13.0404349"><ele>874.5</ele><time>2026-05-02T09:05:21.683Z</time></trkpt><trkpt lat="43.3718609" lon="13.0406052"><ele>871.25</ele><time>2026-05-02T09:05:22.675Z</time></trkpt><trkpt lat="43.3718404" lon="13.0407675"><ele>868.0</ele><time>2026-05-02T09:05:23.673Z</time></trkpt><trkpt lat="43.3718238" lon="13.0409293"><ele>867.0</ele><time>2026-05-02T09:05:24.669Z</time></trkpt><trkpt lat="43.3717973" lon="13.0410789"><ele>866.0</ele><time>2026-05-02T09:05:25.678Z</time></trkpt><trkpt lat="43.3717697" lon="13.04123"><ele>865.0</ele><time>2026-05-02T09:05:26.671Z</time></trkpt><trkpt lat="43.3717454" lon="13.0413835"><ele>864.0</ele><time>2026-05-02T09:05:27.674Z</time></trkpt><trkpt lat="43.3717141" lon="13.041537"><ele>864.75</ele><time>2026-05-02T09:05:28.673Z</time></trkpt><trkpt lat="43.3716842" lon="13.0416993"><ele>865.5</ele><time>2026-05-02T09:05:29.675Z</time></trkpt><trkpt lat="43.3716556" lon="13.0418557"><ele>866.25</ele><time>2026-05-02T09:05:30.673Z</time></trkpt><trkpt lat="43.3716407" lon="13.0420063"><ele>867.0</ele><time>2026-05-02T09:05:31.672Z</time></trkpt><trkpt lat="43.371588" lon="13.0421419"><ele>867.0</ele><time>2026-05-02T09:05:32.678Z</time></trkpt><trkpt lat="43.3715429" lon="13.0422733"><ele>867.0</ele><time>2026-05-02T09:05:33.667Z</time></trkpt><trkpt lat="43.371486" lon="13.0424366"><ele>867.0</ele><time>2026-05-02T09:05:34.674Z</time></trkpt><trkpt lat="43.3714334" lon="13.0425932"><ele>867.0</ele><time>2026-05-02T09:05:35.677Z</time></trkpt><trkpt lat="43.3713889" lon="13.0427605"><ele>860.25</ele><time>2026-05-02T09:05:36.672Z</time></trkpt><trkpt lat="43.3713375" lon="13.0429303"><ele>853.5</ele><time>2026-05-02T09:05:37.671Z</time></trkpt><trkpt lat="43.3712771" lon="13.0430707"><ele>846.75</ele><time>2026-05-02T09:05:38.669Z</time></trkpt><trkpt lat="43.3712176" lon="13.0432141"><ele>840.0</ele><time>2026-05-02T09:05:39.668Z</time></trkpt><trkpt lat="43.3711442" lon="13.0433476"><ele>840.0</ele><time>2026-05-02T09:05:40.677Z</time></trkpt><trkpt lat="43.3710696" lon="13.0434811"><ele>840.0</ele><time>2026-05-02T09:05:41.672Z</time></trkpt><trkpt lat="43.3709726" lon="13.0436"><ele>840.0</ele><time>2026-05-02T09:05:42.675Z</time></trkpt><trkpt lat="43.370882" lon="13.0437297"><ele>840.0</ele><time>2026-05-02T09:05:43.669Z</time></trkpt><trkpt lat="43.3707882" lon="13.0438599"><ele>840.0</ele><time>2026-05-02T09:05:44.667Z</time></trkpt><trkpt lat="43.3706966" lon="13.0440062"><ele>840.0</ele><time>2026-05-02T09:05:45.661Z</time></trkpt><trkpt lat="43.3705987" lon="13.0441251"><ele>840.0</ele><time>2026-05-02T09:05:46.67Z</time></trkpt><trkpt lat="43.3705025" lon="13.0442391"><ele>840.0</ele><time>2026-05-02T09:05:47.66Z</time></trkpt><trkpt lat="43.370406" lon="13.0443285"><ele>835.75</ele><time>2026-05-02T09:05:48.666Z</time></trkpt><trkpt lat="43.3703174" lon="13.0444294"><ele>831.5</ele><time>2026-05-02T09:05:49.665Z</time></trkpt><trkpt lat="43.3702265" lon="13.0445324"><ele>827.25</ele><time>2026-05-02T09:05:50.668Z</time></trkpt><trkpt lat="43.3701404" lon="13.0446343"><ele>823.0</ele><time>2026-05-02T09:05:51.666Z</time></trkpt><trkpt lat="43.3700588" lon="13.0447338"><ele>823.0</ele><time>2026-05-02T09:05:52.664Z</time></trkpt><trkpt lat="43.3699894" lon="13.0448435"><ele>823.0</ele><time>2026-05-02T09:05:53.662Z</time></trkpt><trkpt lat="43.369925" lon="13.0449696"><ele>823.0</ele><time>2026-05-02T09:05:54.662Z</time></trkpt><trkpt lat="43.3698676" lon="13.0450983"><ele>823.0</ele><time>2026-05-02T09:05:55.669Z</time></trkpt><trkpt lat="43.36982" lon="13.0452391"><ele>823.0</ele><time>2026-05-02T09:05:56.664Z</time></trkpt><trkpt lat="43.3697857" lon="13.0453877"><ele>828.0</ele><time>2026-05-02T09:05:57.665Z</time></trkpt><trkpt lat="43.3697665" lon="13.0455415"><ele>833.0</ele><time>2026-05-02T09:05:58.667Z</time></trkpt><trkpt lat="43.3697585" lon="13.045713"><ele>838.0</ele><time>2026-05-02T09:05:59.672Z</time></trkpt><trkpt lat="43.369762" lon="13.0458721"><ele>843.0</ele><time>2026-05-02T09:06:00.666Z</time></trkpt><trkpt lat="43.369763" lon="13.0460226"><ele>844.25</ele><time>2026-05-02T09:06:01.663Z</time></trkpt><trkpt lat="43.3697792" lon="13.0461955"><ele>845.5</ele><time>2026-05-02T09:06:02.658Z</time></trkpt><trkpt lat="43.3697945" lon="13.0463742"><ele>846.75</ele><time>2026-05-02T09:06:03.657Z</time></trkpt><trkpt lat="43.3697999" lon="13.0465427"><ele>848.0</ele><time>2026-05-02T09:06:04.672Z</time></trkpt><trkpt lat="43.3697979" lon="13.0466987"><ele>848.0</ele><time>2026-05-02T09:06:05.667Z</time></trkpt><trkpt lat="43.3697762" lon="13.0468898"><ele>848.0</ele><time>2026-05-02T09:06:06.666Z</time></trkpt><trkpt lat="43.3697803" lon="13.0470638"><ele>848.0</ele><time>2026-05-02T09:06:07.668Z</time></trkpt><trkpt lat="43.3697916" lon="13.0472157"><ele>848.0</ele><time>2026-05-02T09:06:08.661Z</time></trkpt><trkpt lat="43.3697988" lon="13.0473785"><ele>846.0</ele><time>2026-05-02T09:06:09.671Z</time></trkpt><trkpt lat="43.369804" lon="13.0475348"><ele>844.0</ele><time>2026-05-02T09:06:10.672Z</time></trkpt><trkpt lat="43.3698113" lon="13.0476722"><ele>842.0</ele><time>2026-05-02T09:06:11.671Z</time></trkpt><trkpt lat="43.3698082" lon="13.0477868"><ele>840.0</ele><time>2026-05-02T09:06:12.673Z</time></trkpt><trkpt lat="43.3698116" lon="13.0478962"><ele>838.0</ele><time>2026-05-02T09:06:13.673Z</time></trkpt><trkpt lat="43.3698339" lon="13.0480012"><ele>838.0</ele><time>2026-05-02T09:06:14.673Z</time></trkpt><trkpt lat="43.3698795" lon="13.048107"><ele>838.0</ele><time>2026-05-02T09:06:15.669Z</time></trkpt><trkpt lat="43.3699368" lon="13.0482156"><ele>838.0</ele><time>2026-05-02T09:06:16.671Z</time></trkpt><trkpt lat="43.3699991" lon="13.0483306"><ele>838.0</ele><time>2026-05-02T09:06:17.677Z</time></trkpt><trkpt lat="43.3700599" lon="13.0484609"><ele>838.0</ele><time>2026-05-02T09:06:18.676Z</time></trkpt><trkpt lat="43.3701135" lon="13.0485812"><ele>833.25</ele><time>2026-05-02T09:06:19.681Z</time></trkpt><trkpt lat="43.3701696" lon="13.04871"><ele>828.5</ele><time>2026-05-02T09:06:20.676Z</time></trkpt><trkpt lat="43.3702344" lon="13.0488419"><ele>823.75</ele><time>2026-05-02T09:06:21.686Z</time></trkpt><trkpt lat="43.3702959" lon="13.0489721"><ele>819.0</ele><time>2026-05-02T09:06:22.684Z</time></trkpt><trkpt lat="43.3703683" lon="13.0490934"><ele>818.5</ele><time>2026-05-02T09:06:23.682Z</time></trkpt><trkpt lat="43.3704254" lon="13.0492173"><ele>818.0</ele><time>2026-05-02T09:06:24.684Z</time></trkpt><trkpt lat="43.3704936" lon="13.0493419"><ele>817.5</ele><time>2026-05-02T09:06:25.686Z</time></trkpt><trkpt lat="43.3705722" lon="13.0494706"><ele>817.0</ele><time>2026-05-02T09:06:26.673Z</time></trkpt><trkpt lat="43.3706521" lon="13.0495936"><ele>817.0</ele><time>2026-05-02T09:06:27.687Z</time></trkpt><trkpt lat="43.3707328" lon="13.0497149"><ele>817.0</ele><time>2026-05-02T09:06:28.681Z</time></trkpt><trkpt lat="43.3708074" lon="13.0498284"><ele>817.0</ele><time>2026-05-02T09:06:29.684Z</time></trkpt><trkpt lat="43.3708798" lon="13.0499256"><ele>817.0</ele><time>2026-05-02T09:06:30.682Z</time></trkpt><trkpt lat="43.370957" lon="13.0500044"><ele>817.0</ele><time>2026-05-02T09:06:31.686Z</time></trkpt><trkpt lat="43.371036" lon="13.0500736"><ele>814.4999999999999</ele><time>2026-05-02T09:06:32.676Z</time></trkpt><trkpt lat="43.3711202" lon="13.0501189"><ele>812.0</ele><time>2026-05-02T09:06:33.68Z</time></trkpt><trkpt lat="43.3712035" lon="13.0501385"><ele>809.5</ele><time>2026-05-02T09:06:34.679Z</time></trkpt><trkpt lat="43.3712909" lon="13.0501422"><ele>807.0</ele><time>2026-05-02T09:06:35.688Z</time></trkpt><trkpt lat="43.3713654" lon="13.0501402"><ele>804.4999999999999</ele><time>2026-05-02T09:06:36.682Z</time></trkpt><trkpt lat="43.3714748" lon="13.0501331"><ele>802.0</ele><time>2026-05-02T09:06:38.675Z</time></trkpt><trkpt lat="43.371525" lon="13.0502519"><ele>801.9999999999999</ele><time>2026-05-02T09:06:41.675Z</time></trkpt><trkpt lat="43.3715243" lon="13.0504266"><ele>802.0</ele><time>2026-05-02T09:06:43.68Z</time></trkpt><trkpt lat="43.3715068" lon="13.0505185"><ele>802.0</ele><time>2026-05-02T09:06:44.687Z</time></trkpt><trkpt lat="43.3714824" lon="13.050626"><ele>802.0</ele><time>2026-05-02T09:06:45.681Z</time></trkpt><trkpt lat="43.3714595" lon="13.0507358"><ele>801.9999999999999</ele><time>2026-05-02T09:06:46.681Z</time></trkpt><trkpt lat="43.37144" lon="13.0508237"><ele>802.0</ele><time>2026-05-02T09:06:47.686Z</time></trkpt><trkpt lat="43.3713784" lon="13.0509649"><ele>800.1666666666666</ele><time>2026-05-02T09:06:49.683Z</time></trkpt><trkpt lat="43.371338" lon="13.0510385"><ele>798.3333333333333</ele><time>2026-05-02T09:06:50.683Z</time></trkpt><trkpt lat="43.3712412" lon="13.0511311"><ele>796.5</ele><time>2026-05-02T09:06:52.687Z</time></trkpt><trkpt lat="43.3711825" lon="13.0511759"><ele>794.6666666666667</ele><time>2026-05-02T09:06:53.684Z</time></trkpt><trkpt lat="43.3711191" lon="13.0512"><ele>792.8333333333334</ele><time>2026-05-02T09:06:54.687Z</time></trkpt><trkpt lat="43.3710513" lon="13.0512178"><ele>791.0</ele><time>2026-05-02T09:06:55.691Z</time></trkpt><trkpt lat="43.3709832" lon="13.0512218"><ele>791.0</ele><time>2026-05-02T09:06:56.685Z</time></trkpt><trkpt lat="43.3709093" lon="13.0512114"><ele>791.0</ele><time>2026-05-02T09:06:57.685Z</time></trkpt><trkpt lat="43.3708435" lon="13.0511915"><ele>791.0</ele><time>2026-05-02T09:06:58.688Z</time></trkpt><trkpt lat="43.3707758" lon="13.0511643"><ele>791.0</ele><time>2026-05-02T09:06:59.689Z</time></trkpt><trkpt lat="43.3707157" lon="13.0511229"><ele>791.0</ele><time>2026-05-02T09:07:00.682Z</time></trkpt><trkpt lat="43.3706554" lon="13.0510776"><ele>791.0</ele><time>2026-05-02T09:07:01.682Z</time></trkpt><trkpt lat="43.3705954" lon="13.051013"><ele>791.0</ele><time>2026-05-02T09:07:02.682Z</time></trkpt><trkpt lat="43.3705405" lon="13.0509475"><ele>788.6666666666667</ele><time>2026-05-02T09:07:03.684Z</time></trkpt><trkpt lat="43.370486" lon="13.0508699"><ele>786.3333333333334</ele><time>2026-05-02T09:07:04.68Z</time></trkpt><trkpt lat="43.3704382" lon="13.0507992"><ele>784.0</ele><time>2026-05-02T09:07:05.687Z</time></trkpt><trkpt lat="43.3703851" lon="13.0507216"><ele>781.6666666666667</ele><time>2026-05-02T09:07:06.68Z</time></trkpt><trkpt lat="43.3703334" lon="13.0506252"><ele>779.3333333333334</ele><time>2026-05-02T09:07:07.684Z</time></trkpt><trkpt lat="43.3702788" lon="13.0505224"><ele>777.0</ele><time>2026-05-02T09:07:08.683Z</time></trkpt><trkpt lat="43.370214" lon="13.0504144"><ele>777.0</ele><time>2026-05-02T09:07:09.68Z</time></trkpt><trkpt lat="43.3701541" lon="13.0503008"><ele>777.0</ele><time>2026-05-02T09:07:10.676Z</time></trkpt><trkpt lat="43.3700924" lon="13.0501931"><ele>777.0</ele><time>2026-05-02T09:07:11.678Z</time></trkpt><trkpt lat="43.370021" lon="13.0500889"><ele>777.0</ele><time>2026-05-02T09:07:12.675Z</time></trkpt><trkpt lat="43.3699543" lon="13.0499907"><ele>777.0</ele><time>2026-05-02T09:07:13.672Z</time></trkpt><trkpt lat="43.3698821" lon="13.0498844"><ele>774.8</ele><time>2026-05-02T09:07:14.678Z</time></trkpt><trkpt lat="43.3698109" lon="13.0497704"><ele>772.6</ele><time>2026-05-02T09:07:15.672Z</time></trkpt><trkpt lat="43.3697425" lon="13.0496557"><ele>770.4</ele><time>2026-05-02T09:07:16.676Z</time></trkpt><trkpt lat="43.3696788" lon="13.0495487"><ele>768.1999999999999</ele><time>2026-05-02T09:07:17.675Z</time></trkpt><trkpt lat="43.3696267" lon="13.049462"><ele>766.0</ele><time>2026-05-02T09:07:18.677Z</time></trkpt><trkpt lat="43.3695819" lon="13.0493973"><ele>766.0</ele><time>2026-05-02T09:07:19.685Z</time></trkpt><trkpt lat="43.3694837" lon="13.0492706"><ele>766.0</ele><time>2026-05-02T09:07:21.675Z</time></trkpt><trkpt lat="43.3694181" lon="13.0492"><ele>766.0</ele><time>2026-05-02T09:07:22.673Z</time></trkpt><trkpt lat="43.3693482" lon="13.0491316"><ele>766.0</ele><time>2026-05-02T09:07:23.677Z</time></trkpt><trkpt lat="43.3692659" lon="13.0490718"><ele>766.0</ele><time>2026-05-02T09:07:24.666Z</time></trkpt><trkpt lat="43.3691926" lon="13.0489904"><ele>768.6666666666667</ele><time>2026-05-02T09:07:25.674Z</time></trkpt><trkpt lat="43.3691092" lon="13.0489126"><ele>771.3333333333334</ele><time>2026-05-02T09:07:26.674Z</time></trkpt><trkpt lat="43.3690488" lon="13.0488282"><ele>774.0</ele><time>2026-05-02T09:07:27.674Z</time></trkpt><trkpt lat="43.3689863" lon="13.048755"><ele>776.6666666666667</ele><time>2026-05-02T09:07:28.67Z</time></trkpt><trkpt lat="43.3689345" lon="13.0486899"><ele>779.3333333333334</ele><time>2026-05-02T09:07:29.674Z</time></trkpt><trkpt lat="43.3688839" lon="13.0486302"><ele>782.0</ele><time>2026-05-02T09:07:30.676Z</time></trkpt><trkpt lat="43.3688281" lon="13.0485512"><ele>776.0000000000001</ele><time>2026-05-02T09:07:31.669Z</time></trkpt><trkpt lat="43.3687831" lon="13.0484417"><ele>770.0</ele><time>2026-05-02T09:07:32.668Z</time></trkpt><trkpt lat="43.3687469" lon="13.0483156"><ele>764.0</ele><time>2026-05-02T09:07:33.678Z</time></trkpt><trkpt lat="43.368727" lon="13.0481831"><ele>758.0</ele><time>2026-05-02T09:07:34.672Z</time></trkpt><trkpt lat="43.3687081" lon="13.0480702"><ele>752.0</ele><time>2026-05-02T09:07:35.673Z</time></trkpt><trkpt lat="43.3687057" lon="13.047966"><ele>746.0</ele><time>2026-05-02T09:07:36.678Z</time></trkpt><trkpt lat="43.3687151" lon="13.0478565"><ele>746.0</ele><time>2026-05-02T09:07:37.672Z</time></trkpt><trkpt lat="43.3687287" lon="13.0477435"><ele>746.0</ele><time>2026-05-02T09:07:38.673Z</time></trkpt><trkpt lat="43.368725" lon="13.0476437"><ele>746.0</ele><time>2026-05-02T09:07:39.671Z</time></trkpt><trkpt lat="43.3687177" lon="13.0475468"><ele>746.0</ele><time>2026-05-02T09:07:40.667Z</time></trkpt><trkpt lat="43.3686988" lon="13.0474334"><ele>746.0</ele><time>2026-05-02T09:07:41.66Z</time></trkpt><trkpt lat="43.3686615" lon="13.0473097"><ele>746.0</ele><time>2026-05-02T09:07:42.669Z</time></trkpt><trkpt lat="43.3686052" lon="13.047177"><ele>746.8</ele><time>2026-05-02T09:07:43.667Z</time></trkpt><trkpt lat="43.3685527" lon="13.0470507"><ele>747.5999999999999</ele><time>2026-05-02T09:07:44.667Z</time></trkpt><trkpt lat="43.3685078" lon="13.0469282"><ele>748.4</ele><time>2026-05-02T09:07:45.666Z</time></trkpt><trkpt lat="43.3684647" lon="13.0468068"><ele>749.2</ele><time>2026-05-02T09:07:46.667Z</time></trkpt><trkpt lat="43.3684115" lon="13.0466924"><ele>750.0</ele><time>2026-05-02T09:07:47.67Z</time></trkpt><trkpt lat="43.3683537" lon="13.0465651"><ele>751.4</ele><time>2026-05-02T09:07:48.667Z</time></trkpt><trkpt lat="43.3682992" lon="13.0464512"><ele>752.8</ele><time>2026-05-02T09:07:49.661Z</time></trkpt><trkpt lat="43.36823" lon="13.0463516"><ele>754.2</ele><time>2026-05-02T09:07:50.662Z</time></trkpt><trkpt lat="43.3681571" lon="13.046247"><ele>755.6</ele><time>2026-05-02T09:07:51.671Z</time></trkpt><trkpt lat="43.3680941" lon="13.0461536"><ele>757.0</ele><time>2026-05-02T09:07:52.676Z</time></trkpt><trkpt lat="43.3680391" lon="13.046045"><ele>751.0</ele><time>2026-05-02T09:07:53.68Z</time></trkpt><trkpt lat="43.3679895" lon="13.0459394"><ele>745.0</ele><time>2026-05-02T09:07:54.67Z</time></trkpt><trkpt lat="43.3679403" lon="13.0458222"><ele>739.0</ele><time>2026-05-02T09:07:55.682Z</time></trkpt><trkpt lat="43.3678871" lon="13.0456839"><ele>733.0</ele><time>2026-05-02T09:07:56.678Z</time></trkpt><trkpt lat="43.3678473" lon="13.0455225"><ele>727.0</ele><time>2026-05-02T09:07:57.679Z</time></trkpt><trkpt lat="43.3678181" lon="13.0453748"><ele>727.0</ele><time>2026-05-02T09:07:58.679Z</time></trkpt><trkpt lat="43.3677972" lon="13.0452282"><ele>727.0</ele><time>2026-05-02T09:07:59.676Z</time></trkpt><trkpt lat="43.367762" lon="13.0450974"><ele>727.0</ele><time>2026-05-02T09:08:00.678Z</time></trkpt><trkpt lat="43.3677153" lon="13.0449731"><ele>727.0</ele><time>2026-05-02T09:08:01.68Z</time></trkpt><trkpt lat="43.3676736" lon="13.0448463"><ele>727.0</ele><time>2026-05-02T09:08:02.673Z</time></trkpt><trkpt lat="43.3676602" lon="13.0447353"><ele>727.0</ele><time>2026-05-02T09:08:03.675Z</time></trkpt><trkpt lat="43.3676613" lon="13.0446158"><ele>727.0</ele><time>2026-05-02T09:08:04.677Z</time></trkpt><trkpt lat="43.3676676" lon="13.0444822"><ele>727.0</ele><time>2026-05-02T09:08:05.673Z</time></trkpt><trkpt lat="43.3676878" lon="13.0443523"><ele>727.0</ele><time>2026-05-02T09:08:06.676Z</time></trkpt><trkpt lat="43.3677063" lon="13.0442026"><ele>727.0</ele><time>2026-05-02T09:08:07.677Z</time></trkpt><trkpt lat="43.3677306" lon="13.0440576"><ele>724.6</ele><time>2026-05-02T09:08:08.672Z</time></trkpt><trkpt lat="43.3677718" lon="13.0439181"><ele>722.2</ele><time>2026-05-02T09:08:09.674Z</time></trkpt><trkpt lat="43.3678123" lon="13.0437794"><ele>719.8</ele><time>2026-05-02T09:08:10.665Z</time></trkpt><trkpt lat="43.3678629" lon="13.043648"><ele>717.4</ele><time>2026-05-02T09:08:11.672Z</time></trkpt><trkpt lat="43.367903" lon="13.0435373"><ele>715.0</ele><time>2026-05-02T09:08:12.672Z</time></trkpt><trkpt lat="43.3679522" lon="13.0434265"><ele>715.0</ele><time>2026-05-02T09:08:13.676Z</time></trkpt><trkpt lat="43.3680195" lon="13.0433292"><ele>715.0</ele><time>2026-05-02T09:08:14.679Z</time></trkpt><trkpt lat="43.3680801" lon="13.0432323"><ele>715.0</ele><time>2026-05-02T09:08:15.671Z</time></trkpt><trkpt lat="43.368128" lon="13.04314"><ele>715.0</ele><time>2026-05-02T09:08:16.667Z</time></trkpt><trkpt lat="43.3681356" lon="13.0430484"><ele>715.0</ele><time>2026-05-02T09:08:17.67Z</time></trkpt><trkpt lat="43.3681345" lon="13.042949"><ele>715.0</ele><time>2026-05-02T09:08:18.664Z</time></trkpt><trkpt lat="43.3681352" lon="13.0428502"><ele>717.75</ele><time>2026-05-02T09:08:19.668Z</time></trkpt><trkpt lat="43.3682048" lon="13.0427138"><ele>720.5</ele><time>2026-05-02T09:08:21.674Z</time></trkpt><trkpt lat="43.3682411" lon="13.0425614"><ele>723.25</ele><time>2026-05-02T09:08:23.67Z</time></trkpt><trkpt lat="43.368231" lon="13.0423872"><ele>726.0</ele><time>2026-05-02T09:08:25.672Z</time></trkpt><trkpt lat="43.3681857" lon="13.0422529"><ele>728.5</ele><time>2026-05-02T09:08:27.664Z</time></trkpt><trkpt lat="43.3680899" lon="13.0421539"><ele>731.0</ele><time>2026-05-02T09:08:29.663Z</time></trkpt><trkpt lat="43.3680278" lon="13.0421152"><ele>733.5</ele><time>2026-05-02T09:08:30.671Z</time></trkpt><trkpt lat="43.3679568" lon="13.0420797"><ele>736.0</ele><time>2026-05-02T09:08:31.668Z</time></trkpt><trkpt lat="43.36787" lon="13.0420514"><ele>738.5</ele><time>2026-05-02T09:08:32.653Z</time></trkpt><trkpt lat="43.3677766" lon="13.0420272"><ele>741.0</ele><time>2026-05-02T09:08:33.653Z</time></trkpt><trkpt lat="43.3676816" lon="13.0420133"><ele>742.8</ele><time>2026-05-02T09:08:34.661Z</time></trkpt><trkpt lat="43.3675818" lon="13.0420206"><ele>744.5999999999999</ele><time>2026-05-02T09:08:35.662Z</time></trkpt><trkpt lat="43.3674961" lon="13.0420598"><ele>746.4</ele><time>2026-05-02T09:08:36.667Z</time></trkpt><trkpt lat="43.3673957" lon="13.0421238"><ele>748.2</ele><time>2026-05-02T09:08:37.669Z</time></trkpt><trkpt lat="43.3673107" lon="13.0421971"><ele>750.0</ele><time>2026-05-02T09:08:38.662Z</time></trkpt><trkpt lat="43.3672137" lon="13.042261"><ele>743.4</ele><time>2026-05-02T09:08:39.669Z</time></trkpt><trkpt lat="43.3671274" lon="13.0423594"><ele>736.8</ele><time>2026-05-02T09:08:40.662Z</time></trkpt><trkpt lat="43.3670443" lon="13.042468"><ele>730.2</ele><time>2026-05-02T09:08:41.665Z</time></trkpt><trkpt lat="43.36697" lon="13.0425158"><ele>723.6</ele><time>2026-05-02T09:08:42.65Z</time></trkpt><trkpt lat="43.3668935" lon="13.0425566"><ele>717.0</ele><time>2026-05-02T09:08:43.657Z</time></trkpt><trkpt lat="43.3668046" lon="13.0425186"><ele>717.0</ele><time>2026-05-02T09:08:45.672Z</time></trkpt><trkpt lat="43.3667344" lon="13.0424063"><ele>717.0</ele><time>2026-05-02T09:08:47.668Z</time></trkpt><trkpt lat="43.3666797" lon="13.0423252"><ele>717.0</ele><time>2026-05-02T09:08:48.676Z</time></trkpt><trkpt lat="43.3666363" lon="13.0422121"><ele>717.0</ele><time>2026-05-02T09:08:49.666Z</time></trkpt><trkpt lat="43.3665998" lon="13.0420936"><ele>717.0</ele><time>2026-05-02T09:08:50.674Z</time></trkpt><trkpt lat="43.3665816" lon="13.0419363"><ele>717.0</ele><time>2026-05-02T09:08:51.669Z</time></trkpt><trkpt lat="43.366557" lon="13.0417618"><ele>717.0</ele><time>2026-05-02T09:08:52.67Z</time></trkpt><trkpt lat="43.3665391" lon="13.0416004"><ele>717.0</ele><time>2026-05-02T09:08:53.671Z</time></trkpt><trkpt lat="43.3665346" lon="13.0414371"><ele>717.0</ele><time>2026-05-02T09:08:54.674Z</time></trkpt><trkpt lat="43.3665301" lon="13.0412908"><ele>719.0</ele><time>2026-05-02T09:08:55.666Z</time></trkpt><trkpt lat="43.3665288" lon="13.0411367"><ele>721.0</ele><time>2026-05-02T09:08:56.668Z</time></trkpt><trkpt lat="43.366547" lon="13.0409645"><ele>723.0</ele><time>2026-05-02T09:08:57.655Z</time></trkpt><trkpt lat="43.3665673" lon="13.040787"><ele>725.0</ele><time>2026-05-02T09:08:58.663Z</time></trkpt><trkpt lat="43.3665775" lon="13.0406898"><ele>727.0</ele><time>2026-05-02T09:08:59.667Z</time></trkpt><trkpt lat="43.3665037" lon="13.0405867"><ele>727.0</ele><time>2026-05-02T09:09:01.67Z</time></trkpt><trkpt lat="43.3663961" lon="13.0405525"><ele>727.0</ele><time>2026-05-02T09:09:03.673Z</time></trkpt><trkpt lat="43.366361" lon="13.0406263"><ele>727.0</ele><time>2026-05-02T09:09:04.669Z</time></trkpt><trkpt lat="43.3663339" lon="13.0407509"><ele>727.0</ele><time>2026-05-02T09:09:05.67Z</time></trkpt><trkpt lat="43.3663162" lon="13.0408859"><ele>727.0</ele><time>2026-05-02T09:09:06.674Z</time></trkpt><trkpt lat="43.3663047" lon="13.0410374"><ele>725.75</ele><time>2026-05-02T09:09:07.668Z</time></trkpt><trkpt lat="43.3663013" lon="13.0411908"><ele>724.5</ele><time>2026-05-02T09:09:08.672Z</time></trkpt><trkpt lat="43.366304" lon="13.0413656"><ele>723.25</ele><time>2026-05-02T09:09:09.675Z</time></trkpt><trkpt lat="43.366319" lon="13.0415291"><ele>722.0</ele><time>2026-05-02T09:09:10.671Z</time></trkpt><trkpt lat="43.3663215" lon="13.0417026"><ele>720.5</ele><time>2026-05-02T09:09:11.671Z</time></trkpt><trkpt lat="43.3663241" lon="13.0418638"><ele>719.0</ele><time>2026-05-02T09:09:12.672Z</time></trkpt><trkpt lat="43.3663277" lon="13.0420072"><ele>717.5</ele><time>2026-05-02T09:09:13.669Z</time></trkpt><trkpt lat="43.3663276" lon="13.0421553"><ele>716.0</ele><time>2026-05-02T09:09:14.673Z</time></trkpt><trkpt lat="43.366301" lon="13.0423171"><ele>714.0</ele><time>2026-05-02T09:09:15.669Z</time></trkpt><trkpt lat="43.3662552" lon="13.0424908"><ele>712.0</ele><time>2026-05-02T09:09:16.674Z</time></trkpt><trkpt lat="43.3662117" lon="13.0426468"><ele>710.0</ele><time>2026-05-02T09:09:17.669Z</time></trkpt><trkpt lat="43.3661715" lon="13.0427959"><ele>708.0</ele><time>2026-05-02T09:09:18.669Z</time></trkpt><trkpt lat="43.3661239" lon="13.0429462"><ele>708.0</ele><time>2026-05-02T09:09:19.665Z</time></trkpt><trkpt lat="43.3660766" lon="13.0430809"><ele>708.0</ele><time>2026-05-02T09:09:20.664Z</time></trkpt><trkpt lat="43.3660408" lon="13.0432168"><ele>708.0</ele><time>2026-05-02T09:09:21.665Z</time></trkpt><trkpt lat="43.3660002" lon="13.0433396"><ele>708.0</ele><time>2026-05-02T09:09:22.666Z</time></trkpt><trkpt lat="43.3659651" lon="13.0434783"><ele>708.0</ele><time>2026-05-02T09:09:23.665Z</time></trkpt><trkpt lat="43.3659231" lon="13.043605"><ele>706.2</ele><time>2026-05-02T09:09:24.665Z</time></trkpt><trkpt lat="43.3658853" lon="13.0437364"><ele>704.4</ele><time>2026-05-02T09:09:25.668Z</time></trkpt><trkpt lat="43.3658923" lon="13.0439087"><ele>702.6</ele><time>2026-05-02T09:09:26.659Z</time></trkpt><trkpt lat="43.3658923" lon="13.0440642"><ele>700.8000000000001</ele><time>2026-05-02T09:09:27.663Z</time></trkpt><trkpt lat="43.3658684" lon="13.0441872"><ele>699.0</ele><time>2026-05-02T09:09:28.666Z</time></trkpt><trkpt lat="43.3658274" lon="13.0443177"><ele>696.5</ele><time>2026-05-02T09:09:29.669Z</time></trkpt><trkpt lat="43.3657375" lon="13.0444094"><ele>694.0</ele><time>2026-05-02T09:09:30.659Z</time></trkpt><trkpt lat="43.3656329" lon="13.044515"><ele>691.5</ele><time>2026-05-02T09:09:31.657Z</time></trkpt><trkpt lat="43.3655466" lon="13.044634"><ele>689.0</ele><time>2026-05-02T09:09:32.665Z</time></trkpt><trkpt lat="43.3654906" lon="13.0447395"><ele>689.0</ele><time>2026-05-02T09:09:33.664Z</time></trkpt><trkpt lat="43.365421" lon="13.0448704"><ele>689.0</ele><time>2026-05-02T09:09:34.663Z</time></trkpt><trkpt lat="43.3653553" lon="13.0450154"><ele>689.0</ele><time>2026-05-02T09:09:35.661Z</time></trkpt><trkpt lat="43.3652761" lon="13.0451517"><ele>689.0</ele><time>2026-05-02T09:09:36.665Z</time></trkpt><trkpt lat="43.3652009" lon="13.0453002"><ele>689.0</ele><time>2026-05-02T09:09:37.661Z</time></trkpt><trkpt lat="43.3651226" lon="13.0454684"><ele>689.0</ele><time>2026-05-02T09:09:38.67Z</time></trkpt><trkpt lat="43.3650469" lon="13.0456352"><ele>689.0</ele><time>2026-05-02T09:09:39.67Z</time></trkpt><trkpt lat="43.3649696" lon="13.0457301"><ele>689.0</ele><time>2026-05-02T09:09:40.671Z</time></trkpt><trkpt lat="43.3649108" lon="13.0458328"><ele>691.2</ele><time>2026-05-02T09:09:41.671Z</time></trkpt><trkpt lat="43.3648417" lon="13.0459315"><ele>693.4000000000001</ele><time>2026-05-02T09:09:42.676Z</time></trkpt><trkpt lat="43.3647912" lon="13.0460387"><ele>695.6</ele><time>2026-05-02T09:09:43.676Z</time></trkpt><trkpt lat="43.3647396" lon="13.0461537"><ele>697.8</ele><time>2026-05-02T09:09:44.679Z</time></trkpt><trkpt lat="43.364688" lon="13.0462773"><ele>700.0</ele><time>2026-05-02T09:09:45.678Z</time></trkpt><trkpt lat="43.3646417" lon="13.0463973"><ele>700.0</ele><time>2026-05-02T09:09:46.678Z</time></trkpt><trkpt lat="43.3645892" lon="13.0465179"><ele>700.0</ele><time>2026-05-02T09:09:47.679Z</time></trkpt><trkpt lat="43.3645395" lon="13.0466356"><ele>700.0</ele><time>2026-05-02T09:09:48.68Z</time></trkpt><trkpt lat="43.3644903" lon="13.0467412"><ele>700.0</ele><time>2026-05-02T09:09:49.68Z</time></trkpt><trkpt lat="43.3644339" lon="13.0468487"><ele>700.0</ele><time>2026-05-02T09:09:50.677Z</time></trkpt><trkpt lat="43.3643736" lon="13.0469589"><ele>696.0</ele><time>2026-05-02T09:09:51.679Z</time></trkpt><trkpt lat="43.3643047" lon="13.0470946"><ele>692.0</ele><time>2026-05-02T09:09:52.68Z</time></trkpt><trkpt lat="43.3642344" lon="13.0472209"><ele>688.0</ele><time>2026-05-02T09:09:53.679Z</time></trkpt><trkpt lat="43.3641694" lon="13.0473419"><ele>684.0</ele><time>2026-05-02T09:09:54.677Z</time></trkpt><trkpt lat="43.3641048" lon="13.047461"><ele>682.8000000000001</ele><time>2026-05-02T09:09:55.677Z</time></trkpt><trkpt lat="43.3640308" lon="13.0475856"><ele>681.6</ele><time>2026-05-02T09:09:56.674Z</time></trkpt><trkpt lat="43.3639652" lon="13.0476987"><ele>680.4</ele><time>2026-05-02T09:09:57.682Z</time></trkpt><trkpt lat="43.3639" lon="13.0477927"><ele>679.2</ele><time>2026-05-02T09:09:58.678Z</time></trkpt><trkpt lat="43.3638316" lon="13.0478775"><ele>678.0</ele><time>2026-05-02T09:09:59.682Z</time></trkpt><trkpt lat="43.363769" lon="13.0479554"><ele>679.2</ele><time>2026-05-02T09:10:00.677Z</time></trkpt><trkpt lat="43.3636903" lon="13.0480357"><ele>680.4</ele><time>2026-05-02T09:10:01.68Z</time></trkpt><trkpt lat="43.3636135" lon="13.0481095"><ele>681.6</ele><time>2026-05-02T09:10:02.681Z</time></trkpt><trkpt lat="43.363553" lon="13.048197"><ele>682.8000000000001</ele><time>2026-05-02T09:10:03.683Z</time></trkpt><trkpt lat="43.363482" lon="13.0482735"><ele>684.0</ele><time>2026-05-02T09:10:04.678Z</time></trkpt><trkpt lat="43.3634081" lon="13.0483379"><ele>684.0</ele><time>2026-05-02T09:10:05.68Z</time></trkpt><trkpt lat="43.3633288" lon="13.0483907"><ele>684.0</ele><time>2026-05-02T09:10:06.674Z</time></trkpt><trkpt lat="43.363254" lon="13.0484476"><ele>684.0</ele><time>2026-05-02T09:10:07.675Z</time></trkpt><trkpt lat="43.3631869" lon="13.0485001"><ele>684.0</ele><time>2026-05-02T09:10:08.676Z</time></trkpt><trkpt lat="43.3631055" lon="13.0485521"><ele>684.0</ele><time>2026-05-02T09:10:09.673Z</time></trkpt><trkpt lat="43.3630138" lon="13.0486044"><ele>684.0</ele><time>2026-05-02T09:10:10.674Z</time></trkpt><trkpt lat="43.3629195" lon="13.0486578"><ele>684.8000000000001</ele><time>2026-05-02T09:10:11.671Z</time></trkpt><trkpt lat="43.3628224" lon="13.0487069"><ele>685.6</ele><time>2026-05-02T09:10:12.672Z</time></trkpt><trkpt lat="43.3627327" lon="13.0487475"><ele>686.4</ele><time>2026-05-02T09:10:13.672Z</time></trkpt><trkpt lat="43.3626465" lon="13.0487824"><ele>687.2</ele><time>2026-05-02T09:10:14.671Z</time></trkpt><trkpt lat="43.3625583" lon="13.0488155"><ele>688.0</ele><time>2026-05-02T09:10:15.664Z</time></trkpt><trkpt lat="43.3624713" lon="13.0488511"><ele>688.0</ele><time>2026-05-02T09:10:16.662Z</time></trkpt><trkpt lat="43.3623843" lon="13.0488785"><ele>688.0</ele><time>2026-05-02T09:10:17.665Z</time></trkpt><trkpt lat="43.3622978" lon="13.0488885"><ele>688.0</ele><time>2026-05-02T09:10:18.662Z</time></trkpt><trkpt lat="43.3622131" lon="13.0488816"><ele>688.0</ele><time>2026-05-02T09:10:19.665Z</time></trkpt><trkpt lat="43.3621178" lon="13.0488801"><ele>688.0</ele><time>2026-05-02T09:10:20.657Z</time></trkpt><trkpt lat="43.3620192" lon="13.0488719"><ele>686.4</ele><time>2026-05-02T09:10:21.666Z</time></trkpt><trkpt lat="43.3619268" lon="13.0488673"><ele>684.8</ele><time>2026-05-02T09:10:22.67Z</time></trkpt><trkpt lat="43.3618265" lon="13.048865"><ele>683.2</ele><time>2026-05-02T09:10:23.674Z</time></trkpt><trkpt lat="43.3617467" lon="13.0488467"><ele>681.6</ele><time>2026-05-02T09:10:24.669Z</time></trkpt><trkpt lat="43.3616644" lon="13.0487939"><ele>680.0</ele><time>2026-05-02T09:10:25.666Z</time></trkpt><trkpt lat="43.3615887" lon="13.0487313"><ele>680.0</ele><time>2026-05-02T09:10:26.664Z</time></trkpt><trkpt lat="43.361513" lon="13.0486545"><ele>680.0</ele><time>2026-05-02T09:10:27.674Z</time></trkpt><trkpt lat="43.3614415" lon="13.0485749"><ele>680.0</ele><time>2026-05-02T09:10:28.683Z</time></trkpt><trkpt lat="43.3613715" lon="13.0485227"><ele>680.0</ele><time>2026-05-02T09:10:29.684Z</time></trkpt><trkpt lat="43.361302" lon="13.0484928"><ele>680.0</ele><time>2026-05-02T09:10:30.677Z</time></trkpt><trkpt lat="43.3612326" lon="13.0484713"><ele>680.0</ele><time>2026-05-02T09:10:31.68Z</time></trkpt><trkpt lat="43.361156" lon="13.0484642"><ele>680.6666666666666</ele><time>2026-05-02T09:10:32.677Z</time></trkpt><trkpt lat="43.3610915" lon="13.0484636"><ele>681.3333333333333</ele><time>2026-05-02T09:10:33.676Z</time></trkpt><trkpt lat="43.3610084" lon="13.0484634"><ele>682.0</ele><time>2026-05-02T09:10:34.668Z</time></trkpt><trkpt lat="43.3609162" lon="13.0484408"><ele>682.6666666666666</ele><time>2026-05-02T09:10:35.672Z</time></trkpt><trkpt lat="43.3608308" lon="13.048398"><ele>683.3333333333334</ele><time>2026-05-02T09:10:36.668Z</time></trkpt><trkpt lat="43.3607523" lon="13.0483381"><ele>684.0</ele><time>2026-05-02T09:10:37.674Z</time></trkpt><trkpt lat="43.360672" lon="13.0482729"><ele>684.0</ele><time>2026-05-02T09:10:38.676Z</time></trkpt><trkpt lat="43.3605961" lon="13.0482098"><ele>684.0</ele><time>2026-05-02T09:10:39.676Z</time></trkpt><trkpt lat="43.3605324" lon="13.0481714"><ele>684.0</ele><time>2026-05-02T09:10:40.674Z</time></trkpt><trkpt lat="43.3604513" lon="13.0481557"><ele>684.0</ele><time>2026-05-02T09:10:41.673Z</time></trkpt><trkpt lat="43.3603625" lon="13.0481627"><ele>684.0</ele><time>2026-05-02T09:10:42.682Z</time></trkpt><trkpt lat="43.3602748" lon="13.0481835"><ele>684.0</ele><time>2026-05-02T09:10:43.673Z</time></trkpt><trkpt lat="43.3601949" lon="13.0482156"><ele>684.5</ele><time>2026-05-02T09:10:44.684Z</time></trkpt><trkpt lat="43.3601157" lon="13.048247"><ele>685.0</ele><time>2026-05-02T09:10:45.679Z</time></trkpt><trkpt lat="43.3600395" lon="13.0482692"><ele>685.5</ele><time>2026-05-02T09:10:46.689Z</time></trkpt><trkpt lat="43.3599618" lon="13.0482916"><ele>686.0</ele><time>2026-05-02T09:10:47.686Z</time></trkpt><trkpt lat="43.3598858" lon="13.0483276"><ele>686.5</ele><time>2026-05-02T09:10:48.688Z</time></trkpt><trkpt lat="43.3597987" lon="13.0483415"><ele>687.0</ele><time>2026-05-02T09:10:49.68Z</time></trkpt><trkpt lat="43.3597157" lon="13.0483514"><ele>687.5</ele><time>2026-05-02T09:10:50.677Z</time></trkpt><trkpt lat="43.359627" lon="13.0483531"><ele>688.0</ele><time>2026-05-02T09:10:51.679Z</time></trkpt><trkpt lat="43.3595469" lon="13.0483388"><ele>688.5</ele><time>2026-05-02T09:10:52.677Z</time></trkpt><trkpt lat="43.3594597" lon="13.0483203"><ele>689.0</ele><time>2026-05-02T09:10:53.676Z</time></trkpt><trkpt lat="43.3593689" lon="13.0482921"><ele>689.5</ele><time>2026-05-02T09:10:54.678Z</time></trkpt><trkpt lat="43.3592751" lon="13.0482559"><ele>690.0</ele><time>2026-05-02T09:10:55.68Z</time></trkpt><trkpt lat="43.3591943" lon="13.0482341"><ele>690.0</ele><time>2026-05-02T09:10:56.671Z</time></trkpt><trkpt lat="43.359106" lon="13.0482"><ele>690.0</ele><time>2026-05-02T09:10:57.672Z</time></trkpt><trkpt lat="43.3590046" lon="13.0481841"><ele>690.0</ele><time>2026-05-02T09:10:58.674Z</time></trkpt><trkpt lat="43.3589077" lon="13.0481693"><ele>690.0</ele><time>2026-05-02T09:10:59.673Z</time></trkpt><trkpt lat="43.3588141" lon="13.0481594"><ele>690.0</ele><time>2026-05-02T09:11:00.673Z</time></trkpt><trkpt lat="43.358724" lon="13.0481317"><ele>688.2</ele><time>2026-05-02T09:11:01.673Z</time></trkpt><trkpt lat="43.3586338" lon="13.0480837"><ele>686.4</ele><time>2026-05-02T09:11:02.677Z</time></trkpt><trkpt lat="43.3585346" lon="13.0480346"><ele>684.5999999999999</ele><time>2026-05-02T09:11:03.676Z</time></trkpt><trkpt lat="43.3584362" lon="13.047967"><ele>682.8</ele><time>2026-05-02T09:11:04.676Z</time></trkpt><trkpt lat="43.358336" lon="13.0478972"><ele>681.0</ele><time>2026-05-02T09:11:05.672Z</time></trkpt><trkpt lat="43.3582357" lon="13.047845"><ele>681.0</ele><time>2026-05-02T09:11:06.665Z</time></trkpt><trkpt lat="43.3581495" lon="13.0477991"><ele>681.0</ele><time>2026-05-02T09:11:07.67Z</time></trkpt><trkpt lat="43.3580658" lon="13.0477591"><ele>681.0</ele><time>2026-05-02T09:11:08.661Z</time></trkpt><trkpt lat="43.3579928" lon="13.0477085"><ele>681.0</ele><time>2026-05-02T09:11:09.67Z</time></trkpt><trkpt lat="43.3579167" lon="13.0476562"><ele>681.0</ele><time>2026-05-02T09:11:10.667Z</time></trkpt><trkpt lat="43.3578243" lon="13.0475885"><ele>683.5999999999999</ele><time>2026-05-02T09:11:11.667Z</time></trkpt><trkpt lat="43.357724" lon="13.0475179"><ele>686.2</ele><time>2026-05-02T09:11:12.669Z</time></trkpt><trkpt lat="43.357613" lon="13.0474492"><ele>688.8</ele><time>2026-05-02T09:11:13.673Z</time></trkpt><trkpt lat="43.3575129" lon="13.047389"><ele>691.4000000000001</ele><time>2026-05-02T09:11:14.672Z</time></trkpt><trkpt lat="43.3574158" lon="13.0473476"><ele>694.0</ele><time>2026-05-02T09:11:15.669Z</time></trkpt><trkpt lat="43.3573168" lon="13.0473016"><ele>694.0</ele><time>2026-05-02T09:11:16.667Z</time></trkpt><trkpt lat="43.3572187" lon="13.0472508"><ele>694.0</ele><time>2026-05-02T09:11:17.671Z</time></trkpt><trkpt lat="43.3571269" lon="13.047195"><ele>694.0</ele><time>2026-05-02T09:11:18.668Z</time></trkpt><trkpt lat="43.3570337" lon="13.0471193"><ele>694.0</ele><time>2026-05-02T09:11:19.665Z</time></trkpt><trkpt lat="43.3569442" lon="13.0470389"><ele>694.0</ele><time>2026-05-02T09:11:20.664Z</time></trkpt><trkpt lat="43.3568564" lon="13.0469626"><ele>694.6</ele><time>2026-05-02T09:11:21.675Z</time></trkpt><trkpt lat="43.3567675" lon="13.0468798"><ele>695.2</ele><time>2026-05-02T09:11:22.673Z</time></trkpt><trkpt lat="43.3566835" lon="13.0467858"><ele>695.8000000000001</ele><time>2026-05-02T09:11:23.675Z</time></trkpt><trkpt lat="43.3566037" lon="13.0466807"><ele>696.4000000000001</ele><time>2026-05-02T09:11:24.672Z</time></trkpt><trkpt lat="43.3565287" lon="13.0465912"><ele>697.0</ele><time>2026-05-02T09:11:25.678Z</time></trkpt><trkpt lat="43.3564525" lon="13.046526"><ele>697.0</ele><time>2026-05-02T09:11:26.668Z</time></trkpt><trkpt lat="43.356388" lon="13.0464515"><ele>697.0</ele><time>2026-05-02T09:11:27.669Z</time></trkpt><trkpt lat="43.3563251" lon="13.0463734"><ele>697.0</ele><time>2026-05-02T09:11:28.663Z</time></trkpt><trkpt lat="43.3562639" lon="13.0462901"><ele>697.0</ele><time>2026-05-02T09:11:29.671Z</time></trkpt><trkpt lat="43.3561915" lon="13.0462124"><ele>697.0</ele><time>2026-05-02T09:11:30.665Z</time></trkpt><trkpt lat="43.3561127" lon="13.0461329"><ele>697.0</ele><time>2026-05-02T09:11:31.666Z</time></trkpt><trkpt lat="43.3560228" lon="13.0460486"><ele>697.2</ele><time>2026-05-02T09:11:32.667Z</time></trkpt><trkpt lat="43.3559327" lon="13.0459877"><ele>697.4000000000001</ele><time>2026-05-02T09:11:33.671Z</time></trkpt><trkpt lat="43.3558398" lon="13.045921"><ele>697.5999999999999</ele><time>2026-05-02T09:11:34.668Z</time></trkpt><trkpt lat="43.3557502" lon="13.0458579"><ele>697.8</ele><time>2026-05-02T09:11:35.674Z</time></trkpt><trkpt lat="43.3556595" lon="13.0457986"><ele>698.0</ele><time>2026-05-02T09:11:36.674Z</time></trkpt><trkpt lat="43.3555682" lon="13.0457402"><ele>692.5999999999999</ele><time>2026-05-02T09:11:37.673Z</time></trkpt><trkpt lat="43.3554813" lon="13.0456824"><ele>687.1999999999999</ele><time>2026-05-02T09:11:38.671Z</time></trkpt><trkpt lat="43.3553968" lon="13.0456252"><ele>681.8</ele><time>2026-05-02T09:11:39.672Z</time></trkpt><trkpt lat="43.355311" lon="13.0455626"><ele>676.4</ele><time>2026-05-02T09:11:40.676Z</time></trkpt><trkpt lat="43.3552325" lon="13.0454925"><ele>671.0</ele><time>2026-05-02T09:11:41.675Z</time></trkpt><trkpt lat="43.3551533" lon="13.0454262"><ele>671.0</ele><time>2026-05-02T09:11:42.679Z</time></trkpt><trkpt lat="43.3550729" lon="13.0453676"><ele>671.0</ele><time>2026-05-02T09:11:43.681Z</time></trkpt><trkpt lat="43.354996" lon="13.0453056"><ele>671.0</ele><time>2026-05-02T09:11:44.677Z</time></trkpt><trkpt lat="43.3549323" lon="13.0452511"><ele>671.0</ele><time>2026-05-02T09:11:45.678Z</time></trkpt><trkpt lat="43.3548759" lon="13.0451924"><ele>671.0</ele><time>2026-05-02T09:11:46.68Z</time></trkpt><trkpt lat="43.3548233" lon="13.0451399"><ele>671.0</ele><time>2026-05-02T09:11:47.684Z</time></trkpt><trkpt lat="43.3547329" lon="13.0450792"><ele>670.0</ele><time>2026-05-02T09:11:49.684Z</time></trkpt><trkpt lat="43.354643" lon="13.0450662"><ele>669.0</ele><time>2026-05-02T09:11:51.678Z</time></trkpt><trkpt lat="43.3545265" lon="13.045097"><ele>668.0</ele><time>2026-05-02T09:11:53.678Z</time></trkpt><trkpt lat="43.3544594" lon="13.0451153"><ele>667.0</ele><time>2026-05-02T09:11:54.674Z</time></trkpt><trkpt lat="43.3543829" lon="13.0451125"><ele>666.0</ele><time>2026-05-02T09:11:55.675Z</time></trkpt><trkpt lat="43.3543064" lon="13.0451026"><ele>665.0</ele><time>2026-05-02T09:11:56.677Z</time></trkpt><trkpt lat="43.3542167" lon="13.0450791"><ele>665.0</ele><time>2026-05-02T09:11:57.679Z</time></trkpt><trkpt lat="43.3541259" lon="13.0450626"><ele>665.0</ele><time>2026-05-02T09:11:58.689Z</time></trkpt><trkpt lat="43.3540313" lon="13.0450465"><ele>665.0</ele><time>2026-05-02T09:11:59.685Z</time></trkpt><trkpt lat="43.3539414" lon="13.0450234"><ele>665.0</ele><time>2026-05-02T09:12:00.682Z</time></trkpt><trkpt lat="43.3538534" lon="13.0450123"><ele>665.0</ele><time>2026-05-02T09:12:01.681Z</time></trkpt><trkpt lat="43.3537661" lon="13.0450026"><ele>666.6666666666666</ele><time>2026-05-02T09:12:02.687Z</time></trkpt><trkpt lat="43.3536814" lon="13.0449849"><ele>668.3333333333333</ele><time>2026-05-02T09:12:03.683Z</time></trkpt><trkpt lat="43.3535885" lon="13.0449656"><ele>670.0</ele><time>2026-05-02T09:12:04.688Z</time></trkpt><trkpt lat="43.3535047" lon="13.0449507"><ele>671.6666666666666</ele><time>2026-05-02T09:12:05.682Z</time></trkpt><trkpt lat="43.3534247" lon="13.0449334"><ele>673.3333333333334</ele><time>2026-05-02T09:12:06.681Z</time></trkpt><trkpt lat="43.3533404" lon="13.0449234"><ele>675.0</ele><time>2026-05-02T09:12:07.685Z</time></trkpt><trkpt lat="43.3532541" lon="13.0449138"><ele>676.5</ele><time>2026-05-02T09:12:08.685Z</time></trkpt><trkpt lat="43.3531695" lon="13.0448979"><ele>678.0</ele><time>2026-05-02T09:12:09.697Z</time></trkpt><trkpt lat="43.3530764" lon="13.0448828"><ele>679.5</ele><time>2026-05-02T09:12:10.694Z</time></trkpt><trkpt lat="43.3529835" lon="13.0448599"><ele>681.0</ele><time>2026-05-02T09:12:11.694Z</time></trkpt><trkpt lat="43.3528939" lon="13.0448447"><ele>682.5</ele><time>2026-05-02T09:12:12.697Z</time></trkpt><trkpt lat="43.3528114" lon="13.0448362"><ele>684.0</ele><time>2026-05-02T09:12:13.692Z</time></trkpt><trkpt lat="43.3527206" lon="13.0448215"><ele>687.5</ele><time>2026-05-02T09:12:14.696Z</time></trkpt><trkpt lat="43.3526257" lon="13.0448"><ele>691.0</ele><time>2026-05-02T09:12:15.693Z</time></trkpt><trkpt lat="43.3525434" lon="13.0447893"><ele>694.5</ele><time>2026-05-02T09:12:16.701Z</time></trkpt><trkpt lat="43.3524613" lon="13.0447837"><ele>698.0</ele><time>2026-05-02T09:12:17.695Z</time></trkpt><trkpt lat="43.35238" lon="13.044777"><ele>701.5</ele><time>2026-05-02T09:12:18.697Z</time></trkpt><trkpt lat="43.3522909" lon="13.0447685"><ele>705.0</ele><time>2026-05-02T09:12:19.696Z</time></trkpt><trkpt lat="43.3522145" lon="13.0447657"><ele>706.6666666666666</ele><time>2026-05-02T09:12:20.697Z</time></trkpt><trkpt lat="43.3521346" lon="13.0447628"><ele>708.3333333333334</ele><time>2026-05-02T09:12:21.695Z</time></trkpt><trkpt lat="43.3520588" lon="13.0447571"><ele>710.0</ele><time>2026-05-02T09:12:22.698Z</time></trkpt><trkpt lat="43.3519836" lon="13.0447715"><ele>711.6666666666667</ele><time>2026-05-02T09:12:23.697Z</time></trkpt><trkpt lat="43.3519011" lon="13.0447837"><ele>713.3333333333334</ele><time>2026-05-02T09:12:24.699Z</time></trkpt><trkpt lat="43.3518236" lon="13.0448151"><ele>715.0</ele><time>2026-05-02T09:12:25.694Z</time></trkpt><trkpt lat="43.3517507" lon="13.0448676"><ele>715.0</ele><time>2026-05-02T09:12:26.699Z</time></trkpt><trkpt lat="43.3516762" lon="13.0449187"><ele>715.0</ele><time>2026-05-02T09:12:27.696Z</time></trkpt><trkpt lat="43.3516049" lon="13.044955"><ele>715.0</ele><time>2026-05-02T09:12:28.693Z</time></trkpt><trkpt lat="43.3515407" lon="13.044998"><ele>715.0</ele><time>2026-05-02T09:12:29.701Z</time></trkpt><trkpt lat="43.3514797" lon="13.0450454"><ele>715.0</ele><time>2026-05-02T09:12:30.69Z</time></trkpt><trkpt lat="43.3514184" lon="13.0450868"><ele>715.0</ele><time>2026-05-02T09:12:31.685Z</time></trkpt><trkpt lat="43.3513508" lon="13.0451292"><ele>715.0</ele><time>2026-05-02T09:12:32.679Z</time></trkpt><trkpt lat="43.351265" lon="13.0451547"><ele>713.4</ele><time>2026-05-02T09:12:33.687Z</time></trkpt><trkpt lat="43.3511742" lon="13.045175"><ele>711.8</ele><time>2026-05-02T09:12:34.683Z</time></trkpt><trkpt lat="43.3510779" lon="13.0451965"><ele>710.2</ele><time>2026-05-02T09:12:35.689Z</time></trkpt><trkpt lat="43.3509866" lon="13.0452133"><ele>708.6</ele><time>2026-05-02T09:12:36.689Z</time></trkpt><trkpt lat="43.3508913" lon="13.045232"><ele>707.0</ele><time>2026-05-02T09:12:37.693Z</time></trkpt><trkpt lat="43.350809" lon="13.045234"><ele>707.0</ele><time>2026-05-02T09:12:38.693Z</time></trkpt><trkpt lat="43.3507252" lon="13.0452306"><ele>707.0</ele><time>2026-05-02T09:12:39.691Z</time></trkpt><trkpt lat="43.3506417" lon="13.0452201"><ele>707.0</ele><time>2026-05-02T09:12:40.69Z</time></trkpt><trkpt lat="43.3505631" lon="13.0452005"><ele>707.0</ele><time>2026-05-02T09:12:41.69Z</time></trkpt><trkpt lat="43.350492" lon="13.0451833"><ele>707.0</ele><time>2026-05-02T09:12:42.687Z</time></trkpt><trkpt lat="43.3504297" lon="13.0451626"><ele>707.0</ele><time>2026-05-02T09:12:43.689Z</time></trkpt><trkpt lat="43.3503349" lon="13.0451164"><ele>709.4000000000001</ele><time>2026-05-02T09:12:45.685Z</time></trkpt><trkpt lat="43.3502952" lon="13.0450055"><ele>711.8000000000001</ele><time>2026-05-02T09:12:47.686Z</time></trkpt><trkpt lat="43.3503302" lon="13.0448968"><ele>714.2</ele><time>2026-05-02T09:12:49.689Z</time></trkpt><trkpt lat="43.3504123" lon="13.0448372"><ele>716.6</ele><time>2026-05-02T09:12:51.693Z</time></trkpt><trkpt lat="43.3505039" lon="13.0447778"><ele>719.0</ele><time>2026-05-02T09:12:53.688Z</time></trkpt><trkpt lat="43.3506027" lon="13.0447099"><ele>720.3333333333333</ele><time>2026-05-02T09:12:55.689Z</time></trkpt><trkpt lat="43.3506938" lon="13.0445907"><ele>721.6666666666666</ele><time>2026-05-02T09:12:57.685Z</time></trkpt><trkpt lat="43.3507291" lon="13.0445186"><ele>723.0</ele><time>2026-05-02T09:12:58.683Z</time></trkpt><trkpt lat="43.3507684" lon="13.0444344"><ele>724.3333333333334</ele><time>2026-05-02T09:12:59.681Z</time></trkpt><trkpt lat="43.3508042" lon="13.044354"><ele>725.6666666666667</ele><time>2026-05-02T09:13:00.682Z</time></trkpt><trkpt lat="43.3508473" lon="13.044275"><ele>727.0</ele><time>2026-05-02T09:13:01.682Z</time></trkpt><trkpt lat="43.3508874" lon="13.0441871"><ele>730.0</ele><time>2026-05-02T09:13:02.675Z</time></trkpt><trkpt lat="43.3509219" lon="13.0441124"><ele>733.0</ele><time>2026-05-02T09:13:03.682Z</time></trkpt><trkpt lat="43.3509627" lon="13.0439626"><ele>736.0</ele><time>2026-05-02T09:13:05.682Z</time></trkpt><trkpt lat="43.3509304" lon="13.0438321"><ele>739.0</ele><time>2026-05-02T09:13:07.678Z</time></trkpt><trkpt lat="43.3508563" lon="13.043767"><ele>742.0</ele><time>2026-05-02T09:13:09.687Z</time></trkpt><trkpt lat="43.3507689" lon="13.0437713"><ele>742.0</ele><time>2026-05-02T09:13:11.675Z</time></trkpt><trkpt lat="43.3506817" lon="13.0438432"><ele>742.0</ele><time>2026-05-02T09:13:13.682Z</time></trkpt><trkpt lat="43.350598" lon="13.0439628"><ele>742.0</ele><time>2026-05-02T09:13:15.684Z</time></trkpt><trkpt lat="43.3505572" lon="13.0440346"><ele>742.0</ele><time>2026-05-02T09:13:16.682Z</time></trkpt><trkpt lat="43.3505091" lon="13.0440978"><ele>742.0</ele><time>2026-05-02T09:13:17.686Z</time></trkpt><trkpt lat="43.350413" lon="13.0441909"><ele>741.8333333333334</ele><time>2026-05-02T09:13:19.681Z</time></trkpt><trkpt lat="43.3503499" lon="13.0442394"><ele>741.6666666666667</ele><time>2026-05-02T09:13:20.677Z</time></trkpt><trkpt lat="43.3502763" lon="13.0442855"><ele>741.5</ele><time>2026-05-02T09:13:21.678Z</time></trkpt><trkpt lat="43.350199" lon="13.0443197"><ele>741.3333333333334</ele><time>2026-05-02T09:13:22.676Z</time></trkpt><trkpt lat="43.3501137" lon="13.0443384"><ele>741.1666666666666</ele><time>2026-05-02T09:13:23.683Z</time></trkpt><trkpt lat="43.3500254" lon="13.0443591"><ele>741.0</ele><time>2026-05-02T09:13:24.679Z</time></trkpt><trkpt lat="43.3499449" lon="13.044367"><ele>741.0</ele><time>2026-05-02T09:13:25.685Z</time></trkpt><trkpt lat="43.3498758" lon="13.0443764"><ele>741.0</ele><time>2026-05-02T09:13:26.68Z</time></trkpt><trkpt lat="43.3497465" lon="13.0443584"><ele>741.0</ele><time>2026-05-02T09:13:28.682Z</time></trkpt><trkpt lat="43.3496773" lon="13.0443462"><ele>741.0</ele><time>2026-05-02T09:13:29.686Z</time></trkpt><trkpt lat="43.3496012" lon="13.044322"><ele>741.0</ele><time>2026-05-02T09:13:30.681Z</time></trkpt><trkpt lat="43.3495272" lon="13.0443012"><ele>741.0</ele><time>2026-05-02T09:13:31.681Z</time></trkpt><trkpt lat="43.3494468" lon="13.0442977"><ele>743.5</ele><time>2026-05-02T09:13:32.677Z</time></trkpt><trkpt lat="43.3493673" lon="13.0442806"><ele>746.0</ele><time>2026-05-02T09:13:33.679Z</time></trkpt><trkpt lat="43.3492883" lon="13.0442571"><ele>748.5</ele><time>2026-05-02T09:13:34.677Z</time></trkpt><trkpt lat="43.3492177" lon="13.0442465"><ele>751.0</ele><time>2026-05-02T09:13:35.681Z</time></trkpt><trkpt lat="43.3491414" lon="13.0442356"><ele>753.5</ele><time>2026-05-02T09:13:36.677Z</time></trkpt><trkpt lat="43.3490658" lon="13.0442646"><ele>756.0</ele><time>2026-05-02T09:13:37.682Z</time></trkpt><trkpt lat="43.349006" lon="13.0443047"><ele>756.0</ele><time>2026-05-02T09:13:38.673Z</time></trkpt><trkpt lat="43.3489595" lon="13.0443643"><ele>756.0</ele><time>2026-05-02T09:13:39.68Z</time></trkpt><trkpt lat="43.348922" lon="13.0444419"><ele>756.0</ele><time>2026-05-02T09:13:40.673Z</time></trkpt><trkpt lat="43.348879" lon="13.0445264"><ele>756.0</ele><time>2026-05-02T09:13:41.681Z</time></trkpt><trkpt lat="43.3488421" lon="13.0446029"><ele>756.0</ele><time>2026-05-02T09:13:42.671Z</time></trkpt><trkpt lat="43.3487611" lon="13.0447205"><ele>756.0</ele><time>2026-05-02T09:13:44.68Z</time></trkpt><trkpt lat="43.3486429" lon="13.0447626"><ele>759.5</ele><time>2026-05-02T09:13:46.669Z</time></trkpt><trkpt lat="43.3485718" lon="13.0447565"><ele>763.0</ele><time>2026-05-02T09:13:47.677Z</time></trkpt><trkpt lat="43.3484958" lon="13.0447546"><ele>766.5</ele><time>2026-05-02T09:13:48.669Z</time></trkpt><trkpt lat="43.3484055" lon="13.0447542"><ele>770.0</ele><time>2026-05-02T09:13:49.675Z</time></trkpt><trkpt lat="43.3483261" lon="13.0447552"><ele>773.5</ele><time>2026-05-02T09:13:50.672Z</time></trkpt><trkpt lat="43.3482342" lon="13.0447693"><ele>777.0</ele><time>2026-05-02T09:13:51.677Z</time></trkpt><trkpt lat="43.3481384" lon="13.044778"><ele>777.0</ele><time>2026-05-02T09:13:52.669Z</time></trkpt><trkpt lat="43.3480492" lon="13.0447709"><ele>777.0</ele><time>2026-05-02T09:13:53.676Z</time></trkpt><trkpt lat="43.3479635" lon="13.0447593"><ele>777.0</ele><time>2026-05-02T09:13:54.676Z</time></trkpt><trkpt lat="43.3478753" lon="13.044761"><ele>777.0</ele><time>2026-05-02T09:13:55.673Z</time></trkpt><trkpt lat="43.3477877" lon="13.0447696"><ele>777.0</ele><time>2026-05-02T09:13:56.673Z</time></trkpt><trkpt lat="43.3477012" lon="13.0447794"><ele>777.0</ele><time>2026-05-02T09:13:57.673Z</time></trkpt><trkpt lat="43.3476118" lon="13.0447672"><ele>779.3333333333334</ele><time>2026-05-02T09:13:58.67Z</time></trkpt><trkpt lat="43.3475357" lon="13.0447422"><ele>781.6666666666667</ele><time>2026-05-02T09:13:59.673Z</time></trkpt><trkpt lat="43.3474557" lon="13.0447297"><ele>784.0</ele><time>2026-05-02T09:14:00.671Z</time></trkpt><trkpt lat="43.3473714" lon="13.0447304"><ele>786.3333333333334</ele><time>2026-05-02T09:14:01.671Z</time></trkpt><trkpt lat="43.347291" lon="13.0447383"><ele>788.6666666666667</ele><time>2026-05-02T09:14:02.67Z</time></trkpt><trkpt lat="43.3472053" lon="13.0447485"><ele>791.0</ele><time>2026-05-02T09:14:03.669Z</time></trkpt><trkpt lat="43.3471041" lon="13.0447268"><ele>791.5000000000001</ele><time>2026-05-02T09:14:04.671Z</time></trkpt><trkpt lat="43.3470108" lon="13.0446951"><ele>792.0</ele><time>2026-05-02T09:14:05.67Z</time></trkpt><trkpt lat="43.3469154" lon="13.0446765"><ele>792.5</ele><time>2026-05-02T09:14:06.672Z</time></trkpt><trkpt lat="43.3468312" lon="13.0446628"><ele>793.0</ele><time>2026-05-02T09:14:07.671Z</time></trkpt><trkpt lat="43.3467464" lon="13.0446439"><ele>793.5000000000001</ele><time>2026-05-02T09:14:08.668Z</time></trkpt><trkpt lat="43.3466727" lon="13.0446149"><ele>794.0</ele><time>2026-05-02T09:14:09.669Z</time></trkpt><trkpt lat="43.3466033" lon="13.0445879"><ele>794.0000000000001</ele><time>2026-05-02T09:14:10.668Z</time></trkpt><trkpt lat="43.3465306" lon="13.0445602"><ele>794.0</ele><time>2026-05-02T09:14:11.675Z</time></trkpt><trkpt lat="43.3464705" lon="13.0445201"><ele>794.0</ele><time>2026-05-02T09:14:12.674Z</time></trkpt><trkpt lat="43.3463961" lon="13.0444479"><ele>794.0</ele><time>2026-05-02T09:14:14.668Z</time></trkpt><trkpt lat="43.346292" lon="13.0444175"><ele>794.0000000000001</ele><time>2026-05-02T09:14:16.668Z</time></trkpt><trkpt lat="43.3461965" lon="13.0444851"><ele>794.0</ele><time>2026-05-02T09:14:18.665Z</time></trkpt><trkpt lat="43.3461054" lon="13.0445997"><ele>795.6</ele><time>2026-05-02T09:14:20.67Z</time></trkpt><trkpt lat="43.3460454" lon="13.0446647"><ele>797.2</ele><time>2026-05-02T09:14:21.672Z</time></trkpt><trkpt lat="43.3459793" lon="13.0447378"><ele>798.8000000000001</ele><time>2026-05-02T09:14:22.667Z</time></trkpt><trkpt lat="43.3459293" lon="13.0447978"><ele>800.4000000000001</ele><time>2026-05-02T09:14:23.67Z</time></trkpt><trkpt lat="43.3458231" lon="13.0448882"><ele>802.0</ele><time>2026-05-02T09:14:25.672Z</time></trkpt><trkpt lat="43.345703" lon="13.044943"><ele>802.0</ele><time>2026-05-02T09:14:27.674Z</time></trkpt><trkpt lat="43.3456259" lon="13.0449623"><ele>802.0</ele><time>2026-05-02T09:14:28.672Z</time></trkpt><trkpt lat="43.3455323" lon="13.0449931"><ele>802.0</ele><time>2026-05-02T09:14:29.671Z</time></trkpt><trkpt lat="43.3454454" lon="13.0449888"><ele>802.0</ele><time>2026-05-02T09:14:30.672Z</time></trkpt><trkpt lat="43.3453541" lon="13.0449815"><ele>802.0</ele><time>2026-05-02T09:14:31.676Z</time></trkpt><trkpt lat="43.3452427" lon="13.0450002"><ele>797.4000000000001</ele><time>2026-05-02T09:14:32.667Z</time></trkpt><trkpt lat="43.3451347" lon="13.045003"><ele>792.8000000000001</ele><time>2026-05-02T09:14:33.678Z</time></trkpt><trkpt lat="43.3450306" lon="13.0450192"><ele>788.2</ele><time>2026-05-02T09:14:34.674Z</time></trkpt><trkpt lat="43.3449289" lon="13.0450486"><ele>783.6</ele><time>2026-05-02T09:14:35.673Z</time></trkpt><trkpt lat="43.344831" lon="13.0450965"><ele>779.0</ele><time>2026-05-02T09:14:36.67Z</time></trkpt><trkpt lat="43.3447458" lon="13.0451499"><ele>779.8000000000001</ele><time>2026-05-02T09:14:37.677Z</time></trkpt><trkpt lat="43.3446607" lon="13.0452077"><ele>780.6</ele><time>2026-05-02T09:14:38.676Z</time></trkpt><trkpt lat="43.3445645" lon="13.0452623"><ele>781.4</ele><time>2026-05-02T09:14:39.675Z</time></trkpt><trkpt lat="43.3444571" lon="13.0452988"><ele>782.2</ele><time>2026-05-02T09:14:40.675Z</time></trkpt><trkpt lat="43.3443622" lon="13.0453191"><ele>783.0</ele><time>2026-05-02T09:14:41.677Z</time></trkpt><trkpt lat="43.3442785" lon="13.0453298"><ele>783.0</ele><time>2026-05-02T09:14:42.672Z</time></trkpt><trkpt lat="43.3442033" lon="13.0453416"><ele>783.0</ele><time>2026-05-02T09:14:43.674Z</time></trkpt><trkpt lat="43.3441275" lon="13.0453539"><ele>783.0</ele><time>2026-05-02T09:14:44.677Z</time></trkpt><trkpt lat="43.3440445" lon="13.0453689"><ele>783.0</ele><time>2026-05-02T09:14:45.677Z</time></trkpt><trkpt lat="43.3439633" lon="13.0453704"><ele>783.0</ele><time>2026-05-02T09:14:46.674Z</time></trkpt><trkpt lat="43.3438746" lon="13.0453587"><ele>783.0</ele><time>2026-05-02T09:14:47.676Z</time></trkpt><trkpt lat="43.3437863" lon="13.0453328"><ele>782.3333333333334</ele><time>2026-05-02T09:14:48.68Z</time></trkpt><trkpt lat="43.343695" lon="13.0452917"><ele>781.6666666666667</ele><time>2026-05-02T09:14:49.676Z</time></trkpt><trkpt lat="43.3436176" lon="13.0452677"><ele>781.0</ele><time>2026-05-02T09:14:50.678Z</time></trkpt><trkpt lat="43.343544" lon="13.0452384"><ele>780.3333333333334</ele><time>2026-05-02T09:14:51.674Z</time></trkpt><trkpt lat="43.343458" lon="13.0452062"><ele>779.6666666666667</ele><time>2026-05-02T09:14:52.671Z</time></trkpt><trkpt lat="43.3433612" lon="13.0451902"><ele>779.0</ele><time>2026-05-02T09:14:53.679Z</time></trkpt><trkpt lat="43.3432732" lon="13.0451939"><ele>779.0</ele><time>2026-05-02T09:14:54.676Z</time></trkpt><trkpt lat="43.3431785" lon="13.045214"><ele>779.0</ele><time>2026-05-02T09:14:55.687Z</time></trkpt><trkpt lat="43.3430675" lon="13.0452319"><ele>779.0</ele><time>2026-05-02T09:14:56.677Z</time></trkpt><trkpt lat="43.342971" lon="13.0452562"><ele>779.0</ele><time>2026-05-02T09:14:57.676Z</time></trkpt><trkpt lat="43.3428787" lon="13.0452469"><ele>779.0</ele><time>2026-05-02T09:14:58.673Z</time></trkpt><trkpt lat="43.3427816" lon="13.0452295"><ele>780.1666666666667</ele><time>2026-05-02T09:14:59.676Z</time></trkpt><trkpt lat="43.3427005" lon="13.0452286"><ele>781.3333333333334</ele><time>2026-05-02T09:15:00.672Z</time></trkpt><trkpt lat="43.3426294" lon="13.045232"><ele>782.5</ele><time>2026-05-02T09:15:01.68Z</time></trkpt><trkpt lat="43.342515" lon="13.0452812"><ele>783.6666666666667</ele><time>2026-05-02T09:15:03.678Z</time></trkpt><trkpt lat="43.3424543" lon="13.0453518"><ele>784.8333333333334</ele><time>2026-05-02T09:15:04.679Z</time></trkpt><trkpt lat="43.3423893" lon="13.0454358"><ele>786.0</ele><time>2026-05-02T09:15:05.672Z</time></trkpt><trkpt lat="43.3423204" lon="13.0455171"><ele>786.0</ele><time>2026-05-02T09:15:06.672Z</time></trkpt><trkpt lat="43.3422571" lon="13.0455915"><ele>786.0</ele><time>2026-05-02T09:15:07.673Z</time></trkpt><trkpt lat="43.3421769" lon="13.0456465"><ele>786.0</ele><time>2026-05-02T09:15:08.68Z</time></trkpt><trkpt lat="43.3420873" lon="13.0456622"><ele>786.0</ele><time>2026-05-02T09:15:09.678Z</time></trkpt><trkpt lat="43.3420047" lon="13.045676"><ele>786.0</ele><time>2026-05-02T09:15:10.679Z</time></trkpt><trkpt lat="43.3419161" lon="13.0456621"><ele>786.0</ele><time>2026-05-02T09:15:11.679Z</time></trkpt><trkpt lat="43.3418179" lon="13.0456575"><ele>790.4</ele><time>2026-05-02T09:15:12.681Z</time></trkpt><trkpt lat="43.3417104" lon="13.0456592"><ele>794.8</ele><time>2026-05-02T09:15:13.677Z</time></trkpt><trkpt lat="43.3416039" lon="13.0456593"><ele>799.1999999999999</ele><time>2026-05-02T09:15:14.671Z</time></trkpt><trkpt lat="43.341502" lon="13.045674"><ele>803.5999999999999</ele><time>2026-05-02T09:15:15.671Z</time></trkpt><trkpt lat="43.3413964" lon="13.0456937"><ele>808.0</ele><time>2026-05-02T09:15:16.676Z</time></trkpt><trkpt lat="43.3412875" lon="13.045728"><ele>806.4999999999999</ele><time>2026-05-02T09:15:17.68Z</time></trkpt><trkpt lat="43.3412065" lon="13.0457515"><ele>805.0</ele><time>2026-05-02T09:15:18.673Z</time></trkpt><trkpt lat="43.3411378" lon="13.0458006"><ele>803.5</ele><time>2026-05-02T09:15:19.678Z</time></trkpt><trkpt lat="43.3410721" lon="13.0458824"><ele>802.0</ele><time>2026-05-02T09:15:20.668Z</time></trkpt><trkpt lat="43.3409989" lon="13.0459617"><ele>800.4999999999999</ele><time>2026-05-02T09:15:21.676Z</time></trkpt><trkpt lat="43.3409234" lon="13.0460409"><ele>799.0</ele><time>2026-05-02T09:15:22.67Z</time></trkpt><trkpt lat="43.3408479" lon="13.0461246"><ele>799.0</ele><time>2026-05-02T09:15:23.673Z</time></trkpt><trkpt lat="43.3407616" lon="13.046185"><ele>799.0</ele><time>2026-05-02T09:15:24.672Z</time></trkpt><trkpt lat="43.3406658" lon="13.0462532"><ele>799.0</ele><time>2026-05-02T09:15:25.675Z</time></trkpt><trkpt lat="43.3405631" lon="13.046325"><ele>799.0</ele><time>2026-05-02T09:15:26.675Z</time></trkpt><trkpt lat="43.3404663" lon="13.046393"><ele>799.0</ele><time>2026-05-02T09:15:27.674Z</time></trkpt><trkpt lat="43.3403668" lon="13.0464675"><ele>799.25</ele><time>2026-05-02T09:15:28.675Z</time></trkpt><trkpt lat="43.3402637" lon="13.0465467"><ele>799.5</ele><time>2026-05-02T09:15:29.671Z</time></trkpt><trkpt lat="43.3401559" lon="13.0466314"><ele>799.75</ele><time>2026-05-02T09:15:30.672Z</time></trkpt><trkpt lat="43.3400532" lon="13.0467021"><ele>800.0</ele><time>2026-05-02T09:15:31.673Z</time></trkpt><trkpt lat="43.3399443" lon="13.0467908"><ele>800.0</ele><time>2026-05-02T09:15:32.671Z</time></trkpt><trkpt lat="43.3398377" lon="13.0468806"><ele>800.0</ele><time>2026-05-02T09:15:33.674Z</time></trkpt><trkpt lat="43.339733" lon="13.0469619"><ele>800.0</ele><time>2026-05-02T09:15:34.672Z</time></trkpt><trkpt lat="43.3396386" lon="13.0470478"><ele>800.0</ele><time>2026-05-02T09:15:35.678Z</time></trkpt><trkpt lat="43.339533" lon="13.0471355"><ele>805.5</ele><time>2026-05-02T09:15:36.672Z</time></trkpt><trkpt lat="43.3394228" lon="13.0472046"><ele>811.0</ele><time>2026-05-02T09:15:37.677Z</time></trkpt><trkpt lat="43.3393064" lon="13.0472784"><ele>816.5</ele><time>2026-05-02T09:15:38.675Z</time></trkpt><trkpt lat="43.3391883" lon="13.0473466"><ele>822.0</ele><time>2026-05-02T09:15:39.678Z</time></trkpt><trkpt lat="43.3390746" lon="13.0474187"><ele>821.25</ele><time>2026-05-02T09:15:40.677Z</time></trkpt><trkpt lat="43.3389643" lon="13.0475012"><ele>820.5</ele><time>2026-05-02T09:15:41.681Z</time></trkpt><trkpt lat="43.3388628" lon="13.047576"><ele>819.75</ele><time>2026-05-02T09:15:42.676Z</time></trkpt><trkpt lat="43.3387576" lon="13.0476348"><ele>819.0</ele><time>2026-05-02T09:15:43.678Z</time></trkpt><trkpt lat="43.3386569" lon="13.0476946"><ele>819.0</ele><time>2026-05-02T09:15:44.674Z</time></trkpt><trkpt lat="43.3385525" lon="13.0477635"><ele>819.0</ele><time>2026-05-02T09:15:45.676Z</time></trkpt><trkpt lat="43.3384475" lon="13.0478206"><ele>819.0</ele><time>2026-05-02T09:15:46.669Z</time></trkpt><trkpt lat="43.3383414" lon="13.0478689"><ele>819.0</ele><time>2026-05-02T09:15:47.676Z</time></trkpt><trkpt lat="43.3382456" lon="13.0479156"><ele>819.0</ele><time>2026-05-02T09:15:48.673Z</time></trkpt><trkpt lat="43.3381569" lon="13.0479682"><ele>819.0</ele><time>2026-05-02T09:15:49.671Z</time></trkpt><trkpt lat="43.3380842" lon="13.0480207"><ele>819.0</ele><time>2026-05-02T09:15:50.664Z</time></trkpt><trkpt lat="43.3380276" lon="13.0480898"><ele>819.0</ele><time>2026-05-02T09:15:51.673Z</time></trkpt><trkpt lat="43.3379871" lon="13.0481709"><ele>819.0</ele><time>2026-05-02T09:15:52.662Z</time></trkpt><trkpt lat="43.3379471" lon="13.0482642"><ele>819.0</ele><time>2026-05-02T09:15:53.667Z</time></trkpt><trkpt lat="43.3379375" lon="13.0483635"><ele>819.0</ele><time>2026-05-02T09:15:54.659Z</time></trkpt><trkpt lat="43.3379454" lon="13.048457"><ele>819.0</ele><time>2026-05-02T09:15:55.666Z</time></trkpt><trkpt lat="43.3379536" lon="13.0485593"><ele>819.6</ele><time>2026-05-02T09:15:56.669Z</time></trkpt><trkpt lat="43.3379756" lon="13.0486602"><ele>820.2</ele><time>2026-05-02T09:15:57.67Z</time></trkpt><trkpt lat="43.3380166" lon="13.0487611"><ele>820.8000000000001</ele><time>2026-05-02T09:15:58.662Z</time></trkpt><trkpt lat="43.3380703" lon="13.0488639"><ele>821.4000000000001</ele><time>2026-05-02T09:15:59.667Z</time></trkpt><trkpt lat="43.338122" lon="13.0489324"><ele>822.0</ele><time>2026-05-02T09:16:00.655Z</time></trkpt><trkpt lat="43.3382243" lon="13.0490367"><ele>821.1666666666666</ele><time>2026-05-02T09:16:02.658Z</time></trkpt><trkpt lat="43.338283" lon="13.0490798"><ele>820.3333333333333</ele><time>2026-05-02T09:16:03.665Z</time></trkpt><trkpt lat="43.3383969" lon="13.0491196"><ele>819.5</ele><time>2026-05-02T09:16:05.66Z</time></trkpt><trkpt lat="43.3384626" lon="13.0491297"><ele>818.6666666666666</ele><time>2026-05-02T09:16:06.659Z</time></trkpt><trkpt lat="43.3385433" lon="13.0491515"><ele>817.8333333333333</ele><time>2026-05-02T09:16:07.661Z</time></trkpt><trkpt lat="43.3386287" lon="13.0491697"><ele>817.0</ele><time>2026-05-02T09:16:08.659Z</time></trkpt><trkpt lat="43.3387179" lon="13.0491778"><ele>817.0</ele><time>2026-05-02T09:16:09.661Z</time></trkpt><trkpt lat="43.3388166" lon="13.0491815"><ele>817.0</ele><time>2026-05-02T09:16:10.657Z</time></trkpt><trkpt lat="43.3389066" lon="13.0491825"><ele>817.0</ele><time>2026-05-02T09:16:11.662Z</time></trkpt><trkpt lat="43.338997" lon="13.0491861"><ele>817.0</ele><time>2026-05-02T09:16:12.659Z</time></trkpt><trkpt lat="43.3390881" lon="13.0491966"><ele>817.0</ele><time>2026-05-02T09:16:13.656Z</time></trkpt><trkpt lat="43.3391915" lon="13.0492138"><ele>816.4000000000001</ele><time>2026-05-02T09:16:14.66Z</time></trkpt><trkpt lat="43.3392988" lon="13.0492453"><ele>815.8000000000001</ele><time>2026-05-02T09:16:15.661Z</time></trkpt><trkpt lat="43.3394046" lon="13.0492587"><ele>815.2</ele><time>2026-05-02T09:16:16.66Z</time></trkpt><trkpt lat="43.339498" lon="13.0492694"><ele>814.6</ele><time>2026-05-02T09:16:17.664Z</time></trkpt><trkpt lat="43.339582" lon="13.0492507"><ele>814.0</ele><time>2026-05-02T09:16:18.655Z</time></trkpt><trkpt lat="43.33967" lon="13.0492319"><ele>813.6</ele><time>2026-05-02T09:16:19.663Z</time></trkpt><trkpt lat="43.3397672" lon="13.0492088"><ele>813.2</ele><time>2026-05-02T09:16:20.658Z</time></trkpt><trkpt lat="43.3398557" lon="13.049192"><ele>812.8000000000001</ele><time>2026-05-02T09:16:21.659Z</time></trkpt><trkpt lat="43.3399457" lon="13.049182"><ele>812.4000000000001</ele><time>2026-05-02T09:16:22.655Z</time></trkpt><trkpt lat="43.3400402" lon="13.0491587"><ele>812.0</ele><time>2026-05-02T09:16:23.66Z</time></trkpt><trkpt lat="43.3401416" lon="13.0491389"><ele>812.5000000000001</ele><time>2026-05-02T09:16:24.657Z</time></trkpt><trkpt lat="43.3402296" lon="13.0491179"><ele>813.0</ele><time>2026-05-02T09:16:25.668Z</time></trkpt><trkpt lat="43.3403031" lon="13.0491072"><ele>813.5</ele><time>2026-05-02T09:16:26.666Z</time></trkpt><trkpt lat="43.3403708" lon="13.0491063"><ele>814.0</ele><time>2026-05-02T09:16:27.673Z</time></trkpt><trkpt lat="43.3404536" lon="13.0491027"><ele>814.5000000000001</ele><time>2026-05-02T09:16:28.667Z</time></trkpt><trkpt lat="43.3405365" lon="13.0491031"><ele>815.0</ele><time>2026-05-02T09:16:29.677Z</time></trkpt><trkpt lat="43.340616" lon="13.0491259"><ele>815.0</ele><time>2026-05-02T09:16:30.67Z</time></trkpt><trkpt lat="43.3407065" lon="13.0491419"><ele>815.0</ele><time>2026-05-02T09:16:31.671Z</time></trkpt><trkpt lat="43.3407999" lon="13.0491765"><ele>815.0</ele><time>2026-05-02T09:16:32.67Z</time></trkpt><trkpt lat="43.3408928" lon="13.049216"><ele>815.0</ele><time>2026-05-02T09:16:33.668Z</time></trkpt><trkpt lat="43.3409833" lon="13.0492436"><ele>815.0</ele><time>2026-05-02T09:16:34.665Z</time></trkpt><trkpt lat="43.3410767" lon="13.0492801"><ele>815.0000000000001</ele><time>2026-05-02T09:16:35.668Z</time></trkpt><trkpt lat="43.341155" lon="13.0493227"><ele>815.0</ele><time>2026-05-02T09:16:36.67Z</time></trkpt><trkpt lat="43.3412396" lon="13.0493586"><ele>815.0</ele><time>2026-05-02T09:16:37.668Z</time></trkpt><trkpt lat="43.3413316" lon="13.0493941"><ele>815.0</ele><time>2026-05-02T09:16:38.668Z</time></trkpt><trkpt lat="43.3414192" lon="13.0494374"><ele>815.0000000000001</ele><time>2026-05-02T09:16:39.669Z</time></trkpt><trkpt lat="43.3415" lon="13.0494803"><ele>815.0</ele><time>2026-05-02T09:16:40.671Z</time></trkpt><trkpt lat="43.3415836" lon="13.0495368"><ele>813.0</ele><time>2026-05-02T09:16:41.672Z</time></trkpt><trkpt lat="43.3416749" lon="13.0495868"><ele>811.0</ele><time>2026-05-02T09:16:42.671Z</time></trkpt><trkpt lat="43.3417688" lon="13.0496604"><ele>809.0</ele><time>2026-05-02T09:16:43.667Z</time></trkpt><trkpt lat="43.3418613" lon="13.0497232"><ele>807.0</ele><time>2026-05-02T09:16:44.674Z</time></trkpt><trkpt lat="43.3419522" lon="13.0498007"><ele>805.0</ele><time>2026-05-02T09:16:45.668Z</time></trkpt><trkpt lat="43.3420384" lon="13.0498747"><ele>805.0</ele><time>2026-05-02T09:16:46.669Z</time></trkpt><trkpt lat="43.3421252" lon="13.049943"><ele>805.0</ele><time>2026-05-02T09:16:47.665Z</time></trkpt><trkpt lat="43.3422223" lon="13.0500104"><ele>805.0</ele><time>2026-05-02T09:16:48.666Z</time></trkpt><trkpt lat="43.3423198" lon="13.0500784"><ele>805.0</ele><time>2026-05-02T09:16:49.666Z</time></trkpt><trkpt lat="43.3424097" lon="13.0501383"><ele>805.0</ele><time>2026-05-02T09:16:50.662Z</time></trkpt><trkpt lat="43.3424958" lon="13.0501885"><ele>809.4</ele><time>2026-05-02T09:16:51.663Z</time></trkpt><trkpt lat="43.3425771" lon="13.050245"><ele>813.8</ele><time>2026-05-02T09:16:52.658Z</time></trkpt><trkpt lat="43.3426544" lon="13.0502968"><ele>818.2</ele><time>2026-05-02T09:16:53.663Z</time></trkpt><trkpt lat="43.3427453" lon="13.0503316"><ele>822.6</ele><time>2026-05-02T09:16:54.665Z</time></trkpt><trkpt lat="43.3428328" lon="13.0503788"><ele>827.0</ele><time>2026-05-02T09:16:55.667Z</time></trkpt><trkpt lat="43.342922" lon="13.0504227"><ele>827.0</ele><time>2026-05-02T09:16:56.663Z</time></trkpt><trkpt lat="43.3430074" lon="13.0504787"><ele>827.0</ele><time>2026-05-02T09:16:57.662Z</time></trkpt><trkpt lat="43.3430909" lon="13.0505457"><ele>827.0</ele><time>2026-05-02T09:16:58.662Z</time></trkpt><trkpt lat="43.3431779" lon="13.050619"><ele>827.0</ele><time>2026-05-02T09:16:59.668Z</time></trkpt><trkpt lat="43.3432705" lon="13.0506855"><ele>827.0</ele><time>2026-05-02T09:17:00.662Z</time></trkpt><trkpt lat="43.3433528" lon="13.0507556"><ele>830.4000000000001</ele><time>2026-05-02T09:17:01.665Z</time></trkpt><trkpt lat="43.3434246" lon="13.0508427"><ele>833.8000000000001</ele><time>2026-05-02T09:17:02.659Z</time></trkpt><trkpt lat="43.3434952" lon="13.0509189"><ele>837.2</ele><time>2026-05-02T09:17:03.666Z</time></trkpt><trkpt lat="43.343571" lon="13.0509908"><ele>840.6</ele><time>2026-05-02T09:17:04.664Z</time></trkpt><trkpt lat="43.3436447" lon="13.0510569"><ele>844.0</ele><time>2026-05-02T09:17:05.667Z</time></trkpt><trkpt lat="43.3437261" lon="13.0511255"><ele>844.0</ele><time>2026-05-02T09:17:06.662Z</time></trkpt><trkpt lat="43.3438211" lon="13.0511644"><ele>844.0</ele><time>2026-05-02T09:17:07.659Z</time></trkpt><trkpt lat="43.3439126" lon="13.0512004"><ele>844.0</ele><time>2026-05-02T09:17:08.66Z</time></trkpt><trkpt lat="43.3440134" lon="13.0512407"><ele>844.0</ele><time>2026-05-02T09:17:09.657Z</time></trkpt><trkpt lat="43.3441137" lon="13.0512681"><ele>844.0</ele><time>2026-05-02T09:17:10.662Z</time></trkpt><trkpt lat="43.3442079" lon="13.0512911"><ele>840.0</ele><time>2026-05-02T09:17:11.662Z</time></trkpt><trkpt lat="43.3442986" lon="13.0513023"><ele>836.0</ele><time>2026-05-02T09:17:12.655Z</time></trkpt><trkpt lat="43.3443983" lon="13.051294"><ele>832.0</ele><time>2026-05-02T09:17:13.666Z</time></trkpt><trkpt lat="43.3444959" lon="13.0513071"><ele>828.0</ele><time>2026-05-02T09:17:14.663Z</time></trkpt><trkpt lat="43.3445998" lon="13.0513282"><ele>824.0</ele><time>2026-05-02T09:17:15.662Z</time></trkpt><trkpt lat="43.3447146" lon="13.0513549"><ele>822.25</ele><time>2026-05-02T09:17:16.668Z</time></trkpt><trkpt lat="43.3448295" lon="13.0513952"><ele>820.5</ele><time>2026-05-02T09:17:17.672Z</time></trkpt><trkpt lat="43.3449414" lon="13.0514362"><ele>818.75</ele><time>2026-05-02T09:17:18.671Z</time></trkpt><trkpt lat="43.3450536" lon="13.0514726"><ele>817.0</ele><time>2026-05-02T09:17:19.671Z</time></trkpt><trkpt lat="43.3451595" lon="13.0515046"><ele>817.0</ele><time>2026-05-02T09:17:20.668Z</time></trkpt><trkpt lat="43.3452666" lon="13.0515492"><ele>817.0</ele><time>2026-05-02T09:17:21.672Z</time></trkpt><trkpt lat="43.3453738" lon="13.0515824"><ele>817.0</ele><time>2026-05-02T09:17:22.671Z</time></trkpt><trkpt lat="43.3454859" lon="13.0516135"><ele>817.0</ele><time>2026-05-02T09:17:23.672Z</time></trkpt><trkpt lat="43.3455967" lon="13.0516549"><ele>820.6</ele><time>2026-05-02T09:17:24.672Z</time></trkpt><trkpt lat="43.3457129" lon="13.0516833"><ele>824.2</ele><time>2026-05-02T09:17:25.678Z</time></trkpt><trkpt lat="43.3458133" lon="13.0517106"><ele>827.8</ele><time>2026-05-02T09:17:26.67Z</time></trkpt><trkpt lat="43.3459168" lon="13.0517352"><ele>831.4</ele><time>2026-05-02T09:17:27.678Z</time></trkpt><trkpt lat="43.3460273" lon="13.0517609"><ele>835.0</ele><time>2026-05-02T09:17:28.676Z</time></trkpt><trkpt lat="43.346128" lon="13.0517901"><ele>835.0</ele><time>2026-05-02T09:17:29.684Z</time></trkpt><trkpt lat="43.3462279" lon="13.0518202"><ele>835.0</ele><time>2026-05-02T09:17:30.677Z</time></trkpt><trkpt lat="43.3463336" lon="13.0518462"><ele>835.0</ele><time>2026-05-02T09:17:31.678Z</time></trkpt><trkpt lat="43.3464376" lon="13.0518706"><ele>835.0</ele><time>2026-05-02T09:17:32.674Z</time></trkpt><trkpt lat="43.3465432" lon="13.0518881"><ele>835.0</ele><time>2026-05-02T09:17:33.68Z</time></trkpt><trkpt lat="43.3466421" lon="13.051904"><ele>836.25</ele><time>2026-05-02T09:17:34.674Z</time></trkpt><trkpt lat="43.3467445" lon="13.0519247"><ele>837.5</ele><time>2026-05-02T09:17:35.676Z</time></trkpt><trkpt lat="43.3468522" lon="13.051952"><ele>838.75</ele><time>2026-05-02T09:17:36.677Z</time></trkpt><trkpt lat="43.3469696" lon="13.0519872"><ele>840.0</ele><time>2026-05-02T09:17:37.677Z</time></trkpt><trkpt lat="43.3470888" lon="13.0520114"><ele>838.25</ele><time>2026-05-02T09:17:38.678Z</time></trkpt><trkpt lat="43.3472108" lon="13.0520385"><ele>836.5</ele><time>2026-05-02T09:17:39.685Z</time></trkpt><trkpt lat="43.3473279" lon="13.0520677"><ele>834.75</ele><time>2026-05-02T09:17:40.685Z</time></trkpt><trkpt lat="43.3474537" lon="13.0520993"><ele>833.0</ele><time>2026-05-02T09:17:41.676Z</time></trkpt><trkpt lat="43.3475797" lon="13.0521339"><ele>833.0</ele><time>2026-05-02T09:17:42.678Z</time></trkpt><trkpt lat="43.3477068" lon="13.0521575"><ele>833.0</ele><time>2026-05-02T09:17:43.679Z</time></trkpt><trkpt lat="43.347831" lon="13.0521846"><ele>833.0</ele><time>2026-05-02T09:17:44.682Z</time></trkpt><trkpt lat="43.3479559" lon="13.0522163"><ele>833.0</ele><time>2026-05-02T09:17:45.679Z</time></trkpt><trkpt lat="43.3480853" lon="13.0522475"><ele>832.75</ele><time>2026-05-02T09:17:46.682Z</time></trkpt><trkpt lat="43.3482074" lon="13.0522722"><ele>832.5</ele><time>2026-05-02T09:17:47.688Z</time></trkpt><trkpt lat="43.3483338" lon="13.0523037"><ele>832.25</ele><time>2026-05-02T09:17:48.683Z</time></trkpt><trkpt lat="43.3484599" lon="13.052329"><ele>832.0</ele><time>2026-05-02T09:17:49.683Z</time></trkpt><trkpt lat="43.3485793" lon="13.0523642"><ele>832.0</ele><time>2026-05-02T09:17:50.674Z</time></trkpt><trkpt lat="43.3487076" lon="13.0523865"><ele>832.0</ele><time>2026-05-02T09:17:51.681Z</time></trkpt><trkpt lat="43.3488243" lon="13.0524053"><ele>832.0</ele><time>2026-05-02T09:17:52.677Z</time></trkpt><trkpt lat="43.3489473" lon="13.0524181"><ele>832.0</ele><time>2026-05-02T09:17:53.68Z</time></trkpt><trkpt lat="43.3490588" lon="13.0524263"><ele>832.6</ele><time>2026-05-02T09:17:54.677Z</time></trkpt><trkpt lat="43.3491703" lon="13.052443"><ele>833.2</ele><time>2026-05-02T09:17:55.675Z</time></trkpt><trkpt lat="43.3492732" lon="13.0524499"><ele>833.8</ele><time>2026-05-02T09:17:56.677Z</time></trkpt><trkpt lat="43.3493655" lon="13.0524393"><ele>834.4</ele><time>2026-05-02T09:17:57.677Z</time></trkpt><trkpt lat="43.349462" lon="13.0524141"><ele>835.0</ele><time>2026-05-02T09:17:58.683Z</time></trkpt><trkpt lat="43.3495554" lon="13.0523905"><ele>835.0</ele><time>2026-05-02T09:17:59.687Z</time></trkpt><trkpt lat="43.3496459" lon="13.0523665"><ele>835.0</ele><time>2026-05-02T09:18:00.681Z</time></trkpt><trkpt lat="43.349737" lon="13.0523547"><ele>835.0</ele><time>2026-05-02T09:18:01.685Z</time></trkpt><trkpt lat="43.3498359" lon="13.0523708"><ele>835.0</ele><time>2026-05-02T09:18:02.685Z</time></trkpt><trkpt lat="43.3499395" lon="13.0523834"><ele>835.0</ele><time>2026-05-02T09:18:03.687Z</time></trkpt><trkpt lat="43.3500408" lon="13.0524101"><ele>833.4</ele><time>2026-05-02T09:18:04.685Z</time></trkpt><trkpt lat="43.3501428" lon="13.0524318"><ele>831.8</ele><time>2026-05-02T09:18:05.682Z</time></trkpt><trkpt lat="43.3502366" lon="13.0524794"><ele>830.2</ele><time>2026-05-02T09:18:06.683Z</time></trkpt><trkpt lat="43.3503252" lon="13.0525268"><ele>828.6</ele><time>2026-05-02T09:18:07.685Z</time></trkpt><trkpt lat="43.3504034" lon="13.0525611"><ele>827.0</ele><time>2026-05-02T09:18:08.683Z</time></trkpt><trkpt lat="43.3504832" lon="13.052599"><ele>829.8</ele><time>2026-05-02T09:18:09.685Z</time></trkpt><trkpt lat="43.3505695" lon="13.052653"><ele>832.6</ele><time>2026-05-02T09:18:10.683Z</time></trkpt><trkpt lat="43.3506517" lon="13.0527245"><ele>835.4</ele><time>2026-05-02T09:18:11.687Z</time></trkpt><trkpt lat="43.3507388" lon="13.0528069"><ele>838.1999999999999</ele><time>2026-05-02T09:18:12.683Z</time></trkpt><trkpt lat="43.3508306" lon="13.0528884"><ele>841.0</ele><time>2026-05-02T09:18:13.685Z</time></trkpt><trkpt lat="43.3509232" lon="13.0529747"><ele>841.0</ele><time>2026-05-02T09:18:14.685Z</time></trkpt><trkpt lat="43.3510104" lon="13.0530602"><ele>841.0</ele><time>2026-05-02T09:18:15.678Z</time></trkpt><trkpt lat="43.3510975" lon="13.0531396"><ele>841.0</ele><time>2026-05-02T09:18:16.686Z</time></trkpt><trkpt lat="43.3511902" lon="13.0532277"><ele>841.0</ele><time>2026-05-02T09:18:17.681Z</time></trkpt><trkpt lat="43.351279" lon="13.0533189"><ele>841.0</ele><time>2026-05-02T09:18:18.683Z</time></trkpt><trkpt lat="43.3513596" lon="13.0534136"><ele>843.4</ele><time>2026-05-02T09:18:19.681Z</time></trkpt><trkpt lat="43.3514345" lon="13.0534945"><ele>845.8</ele><time>2026-05-02T09:18:20.679Z</time></trkpt><trkpt lat="43.3515041" lon="13.053574"><ele>848.1999999999999</ele><time>2026-05-02T09:18:21.684Z</time></trkpt><trkpt lat="43.3515728" lon="13.0536512"><ele>850.5999999999999</ele><time>2026-05-02T09:18:22.681Z</time></trkpt><trkpt lat="43.3516473" lon="13.0537148"><ele>853.0</ele><time>2026-05-02T09:18:23.677Z</time></trkpt><trkpt lat="43.3517302" lon="13.053762"><ele>853.0</ele><time>2026-05-02T09:18:24.669Z</time></trkpt><trkpt lat="43.3518199" lon="13.053796"><ele>853.0</ele><time>2026-05-02T09:18:25.681Z</time></trkpt><trkpt lat="43.3519174" lon="13.0538137"><ele>853.0</ele><time>2026-05-02T09:18:26.673Z</time></trkpt><trkpt lat="43.3520161" lon="13.0538056"><ele>853.0</ele><time>2026-05-02T09:18:27.676Z</time></trkpt><trkpt lat="43.3521084" lon="13.0538022"><ele>853.0</ele><time>2026-05-02T09:18:28.669Z</time></trkpt><trkpt lat="43.352194" lon="13.053799"><ele>851.5999999999999</ele><time>2026-05-02T09:18:29.676Z</time></trkpt><trkpt lat="43.352284" lon="13.0538067"><ele>850.1999999999999</ele><time>2026-05-02T09:18:30.675Z</time></trkpt><trkpt lat="43.3523787" lon="13.053812"><ele>848.8</ele><time>2026-05-02T09:18:31.67Z</time></trkpt><trkpt lat="43.352478" lon="13.0538239"><ele>847.4</ele><time>2026-05-02T09:18:32.672Z</time></trkpt><trkpt lat="43.3525755" lon="13.0538386"><ele>846.0</ele><time>2026-05-02T09:18:33.679Z</time></trkpt><trkpt lat="43.3526696" lon="13.0538613"><ele>846.0</ele><time>2026-05-02T09:18:34.677Z</time></trkpt><trkpt lat="43.3527651" lon="13.0538837"><ele>846.0</ele><time>2026-05-02T09:18:35.673Z</time></trkpt><trkpt lat="43.3528528" lon="13.0539159"><ele>846.0</ele><time>2026-05-02T09:18:36.677Z</time></trkpt><trkpt lat="43.3529365" lon="13.0539615"><ele>846.0</ele><time>2026-05-02T09:18:37.673Z</time></trkpt><trkpt lat="43.3530166" lon="13.0540058"><ele>846.0</ele><time>2026-05-02T09:18:38.678Z</time></trkpt><trkpt lat="43.3530939" lon="13.0540676"><ele>850.0</ele><time>2026-05-02T09:18:39.673Z</time></trkpt><trkpt lat="43.3531744" lon="13.0541436"><ele>854.0</ele><time>2026-05-02T09:18:40.676Z</time></trkpt><trkpt lat="43.3532671" lon="13.0542245"><ele>857.9999999999999</ele><time>2026-05-02T09:18:41.675Z</time></trkpt><trkpt lat="43.3533421" lon="13.0542982"><ele>862.0</ele><time>2026-05-02T09:18:42.681Z</time></trkpt><trkpt lat="43.3534115" lon="13.054378"><ele>866.0</ele><time>2026-05-02T09:18:43.673Z</time></trkpt><trkpt lat="43.3534795" lon="13.0544775"><ele>866.0</ele><time>2026-05-02T09:18:44.674Z</time></trkpt><trkpt lat="43.3535441" lon="13.0545714"><ele>865.9999999999999</ele><time>2026-05-02T09:18:45.67Z</time></trkpt><trkpt lat="43.353607" lon="13.0546494"><ele>865.9999999999999</ele><time>2026-05-02T09:18:46.671Z</time></trkpt><trkpt lat="43.3536719" lon="13.0547533"><ele>866.0</ele><time>2026-05-02T09:18:47.677Z</time></trkpt><trkpt lat="43.3537312" lon="13.0548599"><ele>866.0</ele><time>2026-05-02T09:18:48.669Z</time></trkpt><trkpt lat="43.3537998" lon="13.0549763"><ele>866.1999999999999</ele><time>2026-05-02T09:18:49.678Z</time></trkpt><trkpt lat="43.353862" lon="13.0550881"><ele>866.3999999999999</ele><time>2026-05-02T09:18:50.678Z</time></trkpt><trkpt lat="43.3539275" lon="13.0551908"><ele>866.6</ele><time>2026-05-02T09:18:51.691Z</time></trkpt><trkpt lat="43.3539854" lon="13.0552883"><ele>866.8</ele><time>2026-05-02T09:18:52.685Z</time></trkpt><trkpt lat="43.3540424" lon="13.055401"><ele>867.0</ele><time>2026-05-02T09:18:53.69Z</time></trkpt><trkpt lat="43.3541099" lon="13.0555234"><ele>867.0</ele><time>2026-05-02T09:18:54.677Z</time></trkpt><trkpt lat="43.3541826" lon="13.05565"><ele>867.0</ele><time>2026-05-02T09:18:55.686Z</time></trkpt><trkpt lat="43.354249" lon="13.0557823"><ele>867.0</ele><time>2026-05-02T09:18:56.685Z</time></trkpt><trkpt lat="43.3543125" lon="13.0559087"><ele>867.0</ele><time>2026-05-02T09:18:57.689Z</time></trkpt><trkpt lat="43.3543753" lon="13.0560451"><ele>872.5</ele><time>2026-05-02T09:18:58.683Z</time></trkpt><trkpt lat="43.3544519" lon="13.0561738"><ele>878.0</ele><time>2026-05-02T09:18:59.689Z</time></trkpt><trkpt lat="43.3545294" lon="13.0563194"><ele>883.5</ele><time>2026-05-02T09:19:00.688Z</time></trkpt><trkpt lat="43.3545959" lon="13.0564588"><ele>889.0</ele><time>2026-05-02T09:19:01.697Z</time></trkpt><trkpt lat="43.3546642" lon="13.0565973"><ele>883.75</ele><time>2026-05-02T09:19:02.694Z</time></trkpt><trkpt lat="43.3547328" lon="13.0567422"><ele>878.5</ele><time>2026-05-02T09:19:03.692Z</time></trkpt><trkpt lat="43.3547956" lon="13.0568812"><ele>873.25</ele><time>2026-05-02T09:19:04.699Z</time></trkpt><trkpt lat="43.354861" lon="13.0570201"><ele>868.0</ele><time>2026-05-02T09:19:05.702Z</time></trkpt><trkpt lat="43.3549287" lon="13.0571472"><ele>867.9999999999999</ele><time>2026-05-02T09:19:06.698Z</time></trkpt><trkpt lat="43.3549934" lon="13.0572642"><ele>868.0</ele><time>2026-05-02T09:19:07.695Z</time></trkpt><trkpt lat="43.3550462" lon="13.0573631"><ele>868.0</ele><time>2026-05-02T09:19:08.69Z</time></trkpt><trkpt lat="43.3550952" lon="13.057454"><ele>868.0</ele><time>2026-05-02T09:19:09.693Z</time></trkpt><trkpt lat="43.3551392" lon="13.057552"><ele>867.9999999999999</ele><time>2026-05-02T09:19:10.69Z</time></trkpt><trkpt lat="43.3551831" lon="13.0576485"><ele>868.0</ele><time>2026-05-02T09:19:11.691Z</time></trkpt><trkpt lat="43.3552057" lon="13.0577495"><ele>870.4</ele><time>2026-05-02T09:19:12.693Z</time></trkpt><trkpt lat="43.3553321" lon="13.057859"><ele>872.8</ele><time>2026-05-02T09:19:15.672Z</time></trkpt><trkpt lat="43.3554151" lon="13.057896"><ele>875.2</ele><time>2026-05-02T09:19:16.675Z</time></trkpt><trkpt lat="43.3554381" lon="13.0580378"><ele>877.6</ele><time>2026-05-02T09:19:17.657Z</time></trkpt><trkpt lat="43.3553758" lon="13.0581133"><ele>880.0</ele><time>2026-05-02T09:19:19.665Z</time></trkpt><trkpt lat="43.3552907" lon="13.0581774"><ele>880.0</ele><time>2026-05-02T09:19:20.667Z</time></trkpt><trkpt lat="43.3551766" lon="13.0582059"><ele>880.0</ele><time>2026-05-02T09:19:21.67Z</time></trkpt><trkpt lat="43.3550689" lon="13.0582443"><ele>880.0</ele><time>2026-05-02T09:19:22.677Z</time></trkpt><trkpt lat="43.3549593" lon="13.0582785"><ele>880.0</ele><time>2026-05-02T09:19:23.672Z</time></trkpt><trkpt lat="43.3548338" lon="13.0583192"><ele>881.75</ele><time>2026-05-02T09:19:24.682Z</time></trkpt><trkpt lat="43.3547098" lon="13.0583725"><ele>883.5</ele><time>2026-05-02T09:19:25.691Z</time></trkpt><trkpt lat="43.3545741" lon="13.0584409"><ele>885.25</ele><time>2026-05-02T09:19:26.698Z</time></trkpt><trkpt lat="43.354451" lon="13.0585132"><ele>887.0</ele><time>2026-05-02T09:19:27.697Z</time></trkpt><trkpt lat="43.3543445" lon="13.0585955"><ele>888.75</ele><time>2026-05-02T09:19:28.694Z</time></trkpt><trkpt lat="43.3542496" lon="13.0586834"><ele>890.5</ele><time>2026-05-02T09:19:29.701Z</time></trkpt><trkpt lat="43.3541572" lon="13.0587777"><ele>892.25</ele><time>2026-05-02T09:19:30.699Z</time></trkpt><trkpt lat="43.354067" lon="13.0588828"><ele>894.0</ele><time>2026-05-02T09:19:31.698Z</time></trkpt><trkpt lat="43.3539669" lon="13.0589872"><ele>896.75</ele><time>2026-05-02T09:19:32.699Z</time></trkpt><trkpt lat="43.3538636" lon="13.0590841"><ele>899.5</ele><time>2026-05-02T09:19:33.688Z</time></trkpt><trkpt lat="43.3537636" lon="13.0591708"><ele>902.25</ele><time>2026-05-02T09:19:34.697Z</time></trkpt><trkpt lat="43.3536688" lon="13.0592481"><ele>905.0</ele><time>2026-05-02T09:19:35.694Z</time></trkpt><trkpt lat="43.3535739" lon="13.0593237"><ele>905.0</ele><time>2026-05-02T09:19:36.699Z</time></trkpt><trkpt lat="43.3534905" lon="13.0593988"><ele>905.0</ele><time>2026-05-02T09:19:37.689Z</time></trkpt><trkpt lat="43.3534169" lon="13.0594573"><ele>905.0</ele><time>2026-05-02T09:19:38.687Z</time></trkpt><trkpt lat="43.353333" lon="13.0594772"><ele>905.0</ele><time>2026-05-02T09:19:39.687Z</time></trkpt><trkpt lat="43.3532325" lon="13.059526"><ele>905.0</ele><time>2026-05-02T09:19:40.685Z</time></trkpt><trkpt lat="43.3531434" lon="13.0596264"><ele>905.0</ele><time>2026-05-02T09:19:41.673Z</time></trkpt><trkpt lat="43.3531082" lon="13.0597445"><ele>905.0</ele><time>2026-05-02T09:19:42.682Z</time></trkpt><trkpt lat="43.3530974" lon="13.0599012"><ele>905.0</ele><time>2026-05-02T09:19:43.68Z</time></trkpt><trkpt lat="43.3530863" lon="13.0600746"><ele>905.0</ele><time>2026-05-02T09:19:44.687Z</time></trkpt><trkpt lat="43.3530661" lon="13.0602636"><ele>904.25</ele><time>2026-05-02T09:19:45.681Z</time></trkpt><trkpt lat="43.353043" lon="13.0604333"><ele>903.5</ele><time>2026-05-02T09:19:46.696Z</time></trkpt><trkpt lat="43.3530078" lon="13.0605914"><ele>902.75</ele><time>2026-05-02T09:19:47.69Z</time></trkpt><trkpt lat="43.3529745" lon="13.0607472"><ele>902.0</ele><time>2026-05-02T09:19:48.692Z</time></trkpt><trkpt lat="43.3529293" lon="13.0609037"><ele>905.0</ele><time>2026-05-02T09:19:49.689Z</time></trkpt><trkpt lat="43.3528818" lon="13.0610552"><ele>908.0</ele><time>2026-05-02T09:19:50.691Z</time></trkpt><trkpt lat="43.3528383" lon="13.0612078"><ele>911.0</ele><time>2026-05-02T09:19:51.69Z</time></trkpt><trkpt lat="43.3527927" lon="13.0613546"><ele>914.0</ele><time>2026-05-02T09:19:52.687Z</time></trkpt><trkpt lat="43.3527462" lon="13.0615052"><ele>913.25</ele><time>2026-05-02T09:19:53.684Z</time></trkpt><trkpt lat="43.3527028" lon="13.0616539"><ele>912.5</ele><time>2026-05-02T09:19:54.692Z</time></trkpt><trkpt lat="43.3526594" lon="13.0618004"><ele>911.75</ele><time>2026-05-02T09:19:55.687Z</time></trkpt><trkpt lat="43.3526144" lon="13.0619534"><ele>911.0</ele><time>2026-05-02T09:19:56.689Z</time></trkpt><trkpt lat="43.3525723" lon="13.0621033"><ele>911.0</ele><time>2026-05-02T09:19:57.675Z</time></trkpt><trkpt lat="43.352527" lon="13.0622609"><ele>911.0</ele><time>2026-05-02T09:19:58.691Z</time></trkpt><trkpt lat="43.3524804" lon="13.0624069"><ele>911.0</ele><time>2026-05-02T09:19:59.674Z</time></trkpt><trkpt lat="43.3524415" lon="13.0625541"><ele>911.0</ele><time>2026-05-02T09:20:00.685Z</time></trkpt><trkpt lat="43.3524022" lon="13.062711"><ele>909.75</ele><time>2026-05-02T09:20:01.685Z</time></trkpt><trkpt lat="43.3523691" lon="13.0628732"><ele>908.5</ele><time>2026-05-02T09:20:02.68Z</time></trkpt><trkpt lat="43.3523315" lon="13.0630276"><ele>907.25</ele><time>2026-05-02T09:20:03.687Z</time></trkpt><trkpt lat="43.3522917" lon="13.0631752"><ele>906.0</ele><time>2026-05-02T09:20:04.685Z</time></trkpt><trkpt lat="43.3522505" lon="13.0633279"><ele>905.5</ele><time>2026-05-02T09:20:05.686Z</time></trkpt><trkpt lat="43.3522085" lon="13.06348"><ele>905.0</ele><time>2026-05-02T09:20:06.689Z</time></trkpt><trkpt lat="43.3521694" lon="13.0636352"><ele>904.5</ele><time>2026-05-02T09:20:07.694Z</time></trkpt><trkpt lat="43.3521266" lon="13.0637895"><ele>904.0</ele><time>2026-05-02T09:20:08.695Z</time></trkpt><trkpt lat="43.3520844" lon="13.0639322"><ele>906.6</ele><time>2026-05-02T09:20:09.692Z</time></trkpt><trkpt lat="43.3520473" lon="13.0640648"><ele>909.2</ele><time>2026-05-02T09:20:10.704Z</time></trkpt><trkpt lat="43.3519988" lon="13.0642012"><ele>911.8000000000001</ele><time>2026-05-02T09:20:11.696Z</time></trkpt><trkpt lat="43.3519427" lon="13.0643351"><ele>914.4000000000001</ele><time>2026-05-02T09:20:12.697Z</time></trkpt><trkpt lat="43.3518794" lon="13.0644663"><ele>917.0</ele><time>2026-05-02T09:20:13.696Z</time></trkpt><trkpt lat="43.3518043" lon="13.064584"><ele>917.0</ele><time>2026-05-02T09:20:14.702Z</time></trkpt><trkpt lat="43.3517242" lon="13.0646918"><ele>917.0</ele><time>2026-05-02T09:20:15.697Z</time></trkpt><trkpt lat="43.3516408" lon="13.0647908"><ele>917.0</ele><time>2026-05-02T09:20:16.694Z</time></trkpt><trkpt lat="43.351549" lon="13.0648836"><ele>917.0</ele><time>2026-05-02T09:20:17.695Z</time></trkpt><trkpt lat="43.3514594" lon="13.0649749"><ele>917.0</ele><time>2026-05-02T09:20:18.697Z</time></trkpt><trkpt lat="43.3513732" lon="13.0650528"><ele>918.75</ele><time>2026-05-02T09:20:19.692Z</time></trkpt><trkpt lat="43.3512705" lon="13.0651253"><ele>920.5</ele><time>2026-05-02T09:20:20.696Z</time></trkpt><trkpt lat="43.3511647" lon="13.0651956"><ele>922.25</ele><time>2026-05-02T09:20:21.687Z</time></trkpt><trkpt lat="43.3510679" lon="13.0652711"><ele>924.0</ele><time>2026-05-02T09:20:22.693Z</time></trkpt><trkpt lat="43.3509633" lon="13.0653473"><ele>924.0</ele><time>2026-05-02T09:20:23.689Z</time></trkpt><trkpt lat="43.3508577" lon="13.0654212"><ele>924.0</ele><time>2026-05-02T09:20:24.692Z</time></trkpt><trkpt lat="43.3507462" lon="13.0654896"><ele>924.0</ele><time>2026-05-02T09:20:25.692Z</time></trkpt><trkpt lat="43.3506369" lon="13.0655523"><ele>924.0</ele><time>2026-05-02T09:20:26.691Z</time></trkpt><trkpt lat="43.3505325" lon="13.0656157"><ele>923.0</ele><time>2026-05-02T09:20:27.687Z</time></trkpt><trkpt lat="43.350428" lon="13.065663"><ele>922.0000000000001</ele><time>2026-05-02T09:20:28.687Z</time></trkpt><trkpt lat="43.3503278" lon="13.0657074"><ele>921.0000000000001</ele><time>2026-05-02T09:20:29.686Z</time></trkpt><trkpt lat="43.3501939" lon="13.0657206"><ele>920.0</ele><time>2026-05-02T09:20:30.692Z</time></trkpt><trkpt lat="43.3501006" lon="13.0657669"><ele>919.0</ele><time>2026-05-02T09:20:31.68Z</time></trkpt><trkpt lat="43.3500062" lon="13.0658085"><ele>919.0</ele><time>2026-05-02T09:20:32.675Z</time></trkpt><trkpt lat="43.3499101" lon="13.0658922"><ele>919.0000000000001</ele><time>2026-05-02T09:20:33.679Z</time></trkpt><trkpt lat="43.3498164" lon="13.0659491"><ele>919.0000000000001</ele><time>2026-05-02T09:20:34.689Z</time></trkpt><trkpt lat="43.3497124" lon="13.0659939"><ele>919.0</ele><time>2026-05-02T09:20:35.68Z</time></trkpt><trkpt lat="43.3495992" lon="13.0660276"><ele>919.0</ele><time>2026-05-02T09:20:36.685Z</time></trkpt><trkpt lat="43.3494854" lon="13.0660461"><ele>920.0</ele><time>2026-05-02T09:20:37.682Z</time></trkpt><trkpt lat="43.3493795" lon="13.0660585"><ele>921.0000000000001</ele><time>2026-05-02T09:20:38.684Z</time></trkpt><trkpt lat="43.3492812" lon="13.0660729"><ele>922.0000000000001</ele><time>2026-05-02T09:20:39.685Z</time></trkpt><trkpt lat="43.349186" lon="13.066096"><ele>923.0</ele><time>2026-05-02T09:20:40.68Z</time></trkpt><trkpt lat="43.3491052" lon="13.0661225"><ele>924.0</ele><time>2026-05-02T09:20:41.682Z</time></trkpt><trkpt lat="43.3490248" lon="13.0661522"><ele>924.0</ele><time>2026-05-02T09:20:42.682Z</time></trkpt><trkpt lat="43.3489418" lon="13.0661829"><ele>924.0000000000001</ele><time>2026-05-02T09:20:43.687Z</time></trkpt><trkpt lat="43.3488451" lon="13.0662016"><ele>924.0000000000001</ele><time>2026-05-02T09:20:44.681Z</time></trkpt><trkpt lat="43.3487516" lon="13.0662205"><ele>924.0</ele><time>2026-05-02T09:20:45.677Z</time></trkpt><trkpt lat="43.3486602" lon="13.0662303"><ele>924.0</ele><time>2026-05-02T09:20:46.679Z</time></trkpt><trkpt lat="43.3485687" lon="13.0662299"><ele>924.1666666666666</ele><time>2026-05-02T09:20:47.683Z</time></trkpt><trkpt lat="43.348498" lon="13.0662257"><ele>924.3333333333333</ele><time>2026-05-02T09:20:48.672Z</time></trkpt><trkpt lat="43.3484323" lon="13.0662158"><ele>924.5</ele><time>2026-05-02T09:20:49.683Z</time></trkpt><trkpt lat="43.3483555" lon="13.0662051"><ele>924.6666666666666</ele><time>2026-05-02T09:20:50.671Z</time></trkpt><trkpt lat="43.3482671" lon="13.0661715"><ele>924.8333333333333</ele><time>2026-05-02T09:20:51.684Z</time></trkpt><trkpt lat="43.3481789" lon="13.0661056"><ele>925.0</ele><time>2026-05-02T09:20:52.671Z</time></trkpt><trkpt lat="43.34809" lon="13.0660173"><ele>926.0</ele><time>2026-05-02T09:20:53.686Z</time></trkpt><trkpt lat="43.3479994" lon="13.0659226"><ele>927.0</ele><time>2026-05-02T09:20:54.68Z</time></trkpt><trkpt lat="43.3479162" lon="13.0658208"><ele>928.0</ele><time>2026-05-02T09:20:55.684Z</time></trkpt><trkpt lat="43.3478298" lon="13.0657076"><ele>929.0</ele><time>2026-05-02T09:20:56.684Z</time></trkpt><trkpt lat="43.3477453" lon="13.065584"><ele>929.0</ele><time>2026-05-02T09:20:57.684Z</time></trkpt><trkpt lat="43.3476567" lon="13.0654535"><ele>929.0</ele><time>2026-05-02T09:20:58.687Z</time></trkpt><trkpt lat="43.3475727" lon="13.065329"><ele>929.0</ele><time>2026-05-02T09:20:59.687Z</time></trkpt><trkpt lat="43.3474911" lon="13.0652043"><ele>929.0</ele><time>2026-05-02T09:21:00.683Z</time></trkpt><trkpt lat="43.3474037" lon="13.0650715"><ele>927.75</ele><time>2026-05-02T09:21:01.689Z</time></trkpt><trkpt lat="43.3473234" lon="13.0649392"><ele>926.5</ele><time>2026-05-02T09:21:02.683Z</time></trkpt><trkpt lat="43.3472475" lon="13.0648162"><ele>925.25</ele><time>2026-05-02T09:21:03.678Z</time></trkpt><trkpt lat="43.3471705" lon="13.0647089"><ele>924.0</ele><time>2026-05-02T09:21:04.676Z</time></trkpt><trkpt lat="43.3470968" lon="13.0645986"><ele>924.0</ele><time>2026-05-02T09:21:05.678Z</time></trkpt><trkpt lat="43.3470223" lon="13.0644901"><ele>924.0000000000001</ele><time>2026-05-02T09:21:06.676Z</time></trkpt><trkpt lat="43.3469496" lon="13.0643833"><ele>924.0000000000001</ele><time>2026-05-02T09:21:07.686Z</time></trkpt><trkpt lat="43.3468841" lon="13.0642809"><ele>924.0</ele><time>2026-05-02T09:21:08.671Z</time></trkpt><trkpt lat="43.3468139" lon="13.0641846"><ele>924.0</ele><time>2026-05-02T09:21:09.676Z</time></trkpt><trkpt lat="43.3467402" lon="13.0640964"><ele>924.0</ele><time>2026-05-02T09:21:10.673Z</time></trkpt><trkpt lat="43.3466686" lon="13.0640096"><ele>924.0</ele><time>2026-05-02T09:21:11.678Z</time></trkpt><trkpt lat="43.3466024" lon="13.0639253"><ele>924.0</ele><time>2026-05-02T09:21:12.686Z</time></trkpt><trkpt lat="43.3465405" lon="13.0638474"><ele>924.0</ele><time>2026-05-02T09:21:13.69Z</time></trkpt><trkpt lat="43.3464742" lon="13.0637699"><ele>924.0</ele><time>2026-05-02T09:21:14.688Z</time></trkpt><trkpt lat="43.3464055" lon="13.0636992"><ele>924.0</ele><time>2026-05-02T09:21:15.692Z</time></trkpt><trkpt lat="43.3463422" lon="13.0636248"><ele>924.0</ele><time>2026-05-02T09:21:16.678Z</time></trkpt><trkpt lat="43.3462792" lon="13.0635661"><ele>924.0</ele><time>2026-05-02T09:21:17.684Z</time></trkpt><trkpt lat="43.3462155" lon="13.0635107"><ele>924.0</ele><time>2026-05-02T09:21:18.679Z</time></trkpt><trkpt lat="43.3461541" lon="13.0634497"><ele>924.0</ele><time>2026-05-02T09:21:19.677Z</time></trkpt><trkpt lat="43.3460952" lon="13.0634061"><ele>924.0</ele><time>2026-05-02T09:21:20.667Z</time></trkpt><trkpt lat="43.3460321" lon="13.0633497"><ele>924.0</ele><time>2026-05-02T09:21:21.673Z</time></trkpt><trkpt lat="43.3459601" lon="13.0632828"><ele>927.5</ele><time>2026-05-02T09:21:22.669Z</time></trkpt><trkpt lat="43.3458758" lon="13.0632048"><ele>931.0</ele><time>2026-05-02T09:21:23.67Z</time></trkpt><trkpt lat="43.3457945" lon="13.063095"><ele>934.5</ele><time>2026-05-02T09:21:24.671Z</time></trkpt><trkpt lat="43.3457053" lon="13.0629598"><ele>938.0</ele><time>2026-05-02T09:21:25.663Z</time></trkpt><trkpt lat="43.3456006" lon="13.062816"><ele>935.3333333333334</ele><time>2026-05-02T09:21:26.668Z</time></trkpt><trkpt lat="43.3454942" lon="13.0626691"><ele>932.6666666666667</ele><time>2026-05-02T09:21:27.667Z</time></trkpt><trkpt lat="43.345384" lon="13.0625061"><ele>930.0</ele><time>2026-05-02T09:21:28.678Z</time></trkpt><trkpt lat="43.3453016" lon="13.0623522"><ele>930.0</ele><time>2026-05-02T09:21:29.671Z</time></trkpt><trkpt lat="43.3452252" lon="13.0622186"><ele>930.0</ele><time>2026-05-02T09:21:30.674Z</time></trkpt><trkpt lat="43.3451353" lon="13.0621168"><ele>930.0</ele><time>2026-05-02T09:21:31.669Z</time></trkpt><trkpt lat="43.3450544" lon="13.0620136"><ele>930.0</ele><time>2026-05-02T09:21:32.675Z</time></trkpt><trkpt lat="43.3449713" lon="13.061909"><ele>930.0</ele><time>2026-05-02T09:21:33.662Z</time></trkpt><trkpt lat="43.3448902" lon="13.0618234"><ele>930.0</ele><time>2026-05-02T09:21:34.663Z</time></trkpt><trkpt lat="43.3448093" lon="13.0617726"><ele>930.0</ele><time>2026-05-02T09:21:35.674Z</time></trkpt><trkpt lat="43.3447435" lon="13.0617"><ele>930.0</ele><time>2026-05-02T09:21:36.674Z</time></trkpt><trkpt lat="43.3446583" lon="13.0615886"><ele>930.0</ele><time>2026-05-02T09:21:37.667Z</time></trkpt><trkpt lat="43.3445422" lon="13.0614711"><ele>930.75</ele><time>2026-05-02T09:21:38.665Z</time></trkpt><trkpt lat="43.3444366" lon="13.0613549"><ele>931.5</ele><time>2026-05-02T09:21:39.661Z</time></trkpt><trkpt lat="43.344336" lon="13.0612496"><ele>932.25</ele><time>2026-05-02T09:21:40.67Z</time></trkpt><trkpt lat="43.3442471" lon="13.0611452"><ele>933.0</ele><time>2026-05-02T09:21:41.669Z</time></trkpt><trkpt lat="43.3441617" lon="13.0610401"><ele>933.0</ele><time>2026-05-02T09:21:42.673Z</time></trkpt><trkpt lat="43.3440885" lon="13.0609611"><ele>933.0</ele><time>2026-05-02T09:21:43.673Z</time></trkpt><trkpt lat="43.3440334" lon="13.0609021"><ele>933.0</ele><time>2026-05-02T09:21:44.675Z</time></trkpt><trkpt lat="43.3439406" lon="13.0608073"><ele>933.0</ele><time>2026-05-02T09:21:46.67Z</time></trkpt><trkpt lat="43.343868" lon="13.0607205"><ele>936.0</ele><time>2026-05-02T09:21:48.672Z</time></trkpt><trkpt lat="43.3438244" lon="13.0606537"><ele>936.0</ele><time>2026-05-02T09:21:56.676Z</time></trkpt></trkseg></trk></gpx>